<?xml version="1.0" encoding="UTF-8" standalone="no" ?>
<gpx xmlns="http://www.topografix.com/GPX/1/1" xmlns:xsi="http://www.w3.org/2001/XMLSchema-instance" xsi:schemaLocation="http://www.topografix.com/GPX/1/1 http://www.topografix.com/GPX/1/1/gpx.xsd" version="1.1" creator="VisuGPX - https://www.visugpx.com">
  <metadata>
    <name>raid vtt ardeche 2013</name>
    <desc><![CDATA[trace du jour 1]]></desc>
  </metadata>
  <trk>
    <name><![CDATA[J1 trace ardeche]]></name>
    <trkseg>
      <trkpt lat="44.6364" lon="4.25613">
        <ele>412.54</ele>
        <time>2013-08-24T10:22:03Z</time>
      </trkpt>
      <trkpt lat="44.6364" lon="4.25613">
        <ele>415.43</ele>
        <time>2013-08-24T10:22:14Z</time>
      </trkpt>
      <trkpt lat="44.6364" lon="4.25612">
        <ele>418.79</ele>
        <time>2013-08-24T10:22:29Z</time>
      </trkpt>
      <trkpt lat="44.6364" lon="4.25612">
        <ele>419.75</ele>
        <time>2013-08-24T10:22:42Z</time>
      </trkpt>
      <trkpt lat="44.6364" lon="4.25612">
        <ele>421.68</ele>
        <time>2013-08-24T10:23:13Z</time>
      </trkpt>
      <trkpt lat="44.6364" lon="4.25612">
        <ele>421.68</ele>
        <time>2013-08-24T10:23:46Z</time>
      </trkpt>
      <trkpt lat="44.6364" lon="4.25612">
        <ele>421.68</ele>
        <time>2013-08-24T10:24:12Z</time>
      </trkpt>
      <trkpt lat="44.6364" lon="4.25612">
        <ele>421.68</ele>
        <time>2013-08-24T10:24:39Z</time>
      </trkpt>
      <trkpt lat="44.6364" lon="4.25612">
        <ele>422.16</ele>
        <time>2013-08-24T10:25:05Z</time>
      </trkpt>
      <trkpt lat="44.63641" lon="4.25611">
        <ele>422.16</ele>
        <time>2013-08-24T10:25:35Z</time>
      </trkpt>
      <trkpt lat="44.63641" lon="4.25611">
        <ele>421.68</ele>
        <time>2013-08-24T10:26:13Z</time>
      </trkpt>
      <trkpt lat="44.63641" lon="4.25611">
        <ele>422.16</ele>
        <time>2013-08-24T10:26:43Z</time>
      </trkpt>
      <trkpt lat="44.63641" lon="4.25611">
        <ele>422.16</ele>
        <time>2013-08-24T10:27:18Z</time>
      </trkpt>
      <trkpt lat="44.63641" lon="4.25611">
        <ele>422.16</ele>
        <time>2013-08-24T10:27:48Z</time>
      </trkpt>
      <trkpt lat="44.63641" lon="4.25611">
        <ele>422.16</ele>
        <time>2013-08-24T10:28:16Z</time>
      </trkpt>
      <trkpt lat="44.63641" lon="4.25609">
        <ele>422.64</ele>
        <time>2013-08-24T10:28:37Z</time>
      </trkpt>
      <trkpt lat="44.63641" lon="4.25609">
        <ele>422.64</ele>
        <time>2013-08-24T10:29:08Z</time>
      </trkpt>
      <trkpt lat="44.63641" lon="4.25609">
        <ele>422.16</ele>
        <time>2013-08-24T10:29:33Z</time>
      </trkpt>
      <trkpt lat="44.63641" lon="4.25608">
        <ele>422.64</ele>
        <time>2013-08-24T10:29:58Z</time>
      </trkpt>
      <trkpt lat="44.63641" lon="4.25608">
        <ele>422.64</ele>
        <time>2013-08-24T10:30:28Z</time>
      </trkpt>
      <trkpt lat="44.6364" lon="4.2561">
        <ele>422.64</ele>
        <time>2013-08-24T10:30:59Z</time>
      </trkpt>
      <trkpt lat="44.63641" lon="4.2561">
        <ele>422.64</ele>
        <time>2013-08-24T10:31:34Z</time>
      </trkpt>
      <trkpt lat="44.63642" lon="4.2561">
        <ele>422.64</ele>
        <time>2013-08-24T10:32:02Z</time>
      </trkpt>
      <trkpt lat="44.63642" lon="4.2561">
        <ele>423.12</ele>
        <time>2013-08-24T10:32:29Z</time>
      </trkpt>
      <trkpt lat="44.63642" lon="4.2561">
        <ele>423.12</ele>
        <time>2013-08-24T10:32:59Z</time>
      </trkpt>
      <trkpt lat="44.63642" lon="4.25609">
        <ele>422.64</ele>
        <time>2013-08-24T10:33:29Z</time>
      </trkpt>
      <trkpt lat="44.63642" lon="4.25609">
        <ele>423.12</ele>
        <time>2013-08-24T10:33:59Z</time>
      </trkpt>
      <trkpt lat="44.63642" lon="4.25609">
        <ele>422.64</ele>
        <time>2013-08-24T10:34:28Z</time>
      </trkpt>
      <trkpt lat="44.63642" lon="4.25609">
        <ele>422.64</ele>
        <time>2013-08-24T10:35:02Z</time>
      </trkpt>
      <trkpt lat="44.63642" lon="4.2561">
        <ele>422.64</ele>
        <time>2013-08-24T10:35:34Z</time>
      </trkpt>
      <trkpt lat="44.63642" lon="4.25609">
        <ele>423.6</ele>
        <time>2013-08-24T10:36:04Z</time>
      </trkpt>
      <trkpt lat="44.63642" lon="4.25609">
        <ele>423.12</ele>
        <time>2013-08-24T10:36:31Z</time>
      </trkpt>
      <trkpt lat="44.63642" lon="4.25609">
        <ele>423.6</ele>
        <time>2013-08-24T10:36:53Z</time>
      </trkpt>
      <trkpt lat="44.63642" lon="4.25609">
        <ele>423.12</ele>
        <time>2013-08-24T10:37:21Z</time>
      </trkpt>
      <trkpt lat="44.63642" lon="4.25609">
        <ele>423.12</ele>
        <time>2013-08-24T10:37:47Z</time>
      </trkpt>
      <trkpt lat="44.63643" lon="4.25608">
        <ele>423.12</ele>
        <time>2013-08-24T10:38:15Z</time>
      </trkpt>
      <trkpt lat="44.63643" lon="4.25608">
        <ele>423.12</ele>
        <time>2013-08-24T10:38:37Z</time>
      </trkpt>
      <trkpt lat="44.63643" lon="4.25608">
        <ele>422.64</ele>
        <time>2013-08-24T10:39:04Z</time>
      </trkpt>
      <trkpt lat="44.63643" lon="4.25608">
        <ele>422.64</ele>
        <time>2013-08-24T10:39:35Z</time>
      </trkpt>
      <trkpt lat="44.63641" lon="4.25611">
        <ele>422.64</ele>
        <time>2013-08-24T10:39:46Z</time>
      </trkpt>
      <trkpt lat="44.63638" lon="4.25614">
        <ele>423.12</ele>
        <time>2013-08-24T10:39:55Z</time>
      </trkpt>
      <trkpt lat="44.63632" lon="4.25638">
        <ele>422.64</ele>
        <time>2013-08-24T10:40:03Z</time>
      </trkpt>
      <trkpt lat="44.63635" lon="4.25658">
        <ele>423.12</ele>
        <time>2013-08-24T10:40:09Z</time>
      </trkpt>
      <trkpt lat="44.63652" lon="4.25697">
        <ele>423.6</ele>
        <time>2013-08-24T10:40:22Z</time>
      </trkpt>
      <trkpt lat="44.63669" lon="4.25732">
        <ele>424.08</ele>
        <time>2013-08-24T10:40:34Z</time>
      </trkpt>
      <trkpt lat="44.63671" lon="4.25745">
        <ele>424.08</ele>
        <time>2013-08-24T10:40:38Z</time>
      </trkpt>
      <trkpt lat="44.63642" lon="4.25784">
        <ele>425.04</ele>
        <time>2013-08-24T10:40:52Z</time>
      </trkpt>
      <trkpt lat="44.63623" lon="4.25797">
        <ele>426.48</ele>
        <time>2013-08-24T10:41:03Z</time>
      </trkpt>
      <trkpt lat="44.63607" lon="4.25809">
        <ele>428.4</ele>
        <time>2013-08-24T10:41:14Z</time>
      </trkpt>
      <trkpt lat="44.63604" lon="4.2581">
        <ele>427.92</ele>
        <time>2013-08-24T10:41:16Z</time>
      </trkpt>
      <trkpt lat="44.63599" lon="4.25817">
        <ele>429.37</ele>
        <time>2013-08-24T10:41:20Z</time>
      </trkpt>
      <trkpt lat="44.63597" lon="4.25823">
        <ele>430.33</ele>
        <time>2013-08-24T10:41:23Z</time>
      </trkpt>
      <trkpt lat="44.63602" lon="4.25844">
        <ele>431.29</ele>
        <time>2013-08-24T10:41:34Z</time>
      </trkpt>
      <trkpt lat="44.63605" lon="4.25847">
        <ele>431.29</ele>
        <time>2013-08-24T10:41:36Z</time>
      </trkpt>
      <trkpt lat="44.63612" lon="4.25857">
        <ele>432.73</ele>
        <time>2013-08-24T10:41:42Z</time>
      </trkpt>
      <trkpt lat="44.63621" lon="4.25871">
        <ele>433.69</ele>
        <time>2013-08-24T10:41:52Z</time>
      </trkpt>
      <trkpt lat="44.63623" lon="4.25874">
        <ele>434.17</ele>
        <time>2013-08-24T10:41:54Z</time>
      </trkpt>
      <trkpt lat="44.63637" lon="4.25887">
        <ele>435.61</ele>
        <time>2013-08-24T10:42:05Z</time>
      </trkpt>
      <trkpt lat="44.63641" lon="4.25897">
        <ele>436.58</ele>
        <time>2013-08-24T10:42:10Z</time>
      </trkpt>
      <trkpt lat="44.63632" lon="4.25926">
        <ele>437.54</ele>
        <time>2013-08-24T10:42:24Z</time>
      </trkpt>
      <trkpt lat="44.63618" lon="4.25937">
        <ele>438.98</ele>
        <time>2013-08-24T10:42:34Z</time>
      </trkpt>
      <trkpt lat="44.63612" lon="4.25939">
        <ele>439.46</ele>
        <time>2013-08-24T10:42:38Z</time>
      </trkpt>
      <trkpt lat="44.63595" lon="4.25939">
        <ele>441.38</ele>
        <time>2013-08-24T10:42:50Z</time>
      </trkpt>
      <trkpt lat="44.63576" lon="4.2594">
        <ele>443.31</ele>
        <time>2013-08-24T10:43:01Z</time>
      </trkpt>
      <trkpt lat="44.63555" lon="4.25939">
        <ele>444.75</ele>
        <time>2013-08-24T10:43:13Z</time>
      </trkpt>
      <trkpt lat="44.63531" lon="4.25939">
        <ele>447.15</ele>
        <time>2013-08-24T10:43:27Z</time>
      </trkpt>
      <trkpt lat="44.63526" lon="4.25939">
        <ele>447.63</ele>
        <time>2013-08-24T10:43:30Z</time>
      </trkpt>
      <trkpt lat="44.63506" lon="4.25938">
        <ele>449.55</ele>
        <time>2013-08-24T10:43:43Z</time>
      </trkpt>
      <trkpt lat="44.63498" lon="4.25937">
        <ele>451</ele>
        <time>2013-08-24T10:43:49Z</time>
      </trkpt>
      <trkpt lat="44.63488" lon="4.25951">
        <ele>451.48</ele>
        <time>2013-08-24T10:44:00Z</time>
      </trkpt>
      <trkpt lat="44.63469" lon="4.25959">
        <ele>451.48</ele>
        <time>2013-08-24T10:44:11Z</time>
      </trkpt>
      <trkpt lat="44.63459" lon="4.25959">
        <ele>452.44</ele>
        <time>2013-08-24T10:44:16Z</time>
      </trkpt>
      <trkpt lat="44.6344" lon="4.25955">
        <ele>452.44</ele>
        <time>2013-08-24T10:44:25Z</time>
      </trkpt>
      <trkpt lat="44.63417" lon="4.25957">
        <ele>453.4</ele>
        <time>2013-08-24T10:44:35Z</time>
      </trkpt>
      <trkpt lat="44.63387" lon="4.25967">
        <ele>452.44</ele>
        <time>2013-08-24T10:44:47Z</time>
      </trkpt>
      <trkpt lat="44.6335" lon="4.25978">
        <ele>451.96</ele>
        <time>2013-08-24T10:45:00Z</time>
      </trkpt>
      <trkpt lat="44.63321" lon="4.25988">
        <ele>451.96</ele>
        <time>2013-08-24T10:45:10Z</time>
      </trkpt>
      <trkpt lat="44.63295" lon="4.25996">
        <ele>451.96</ele>
        <time>2013-08-24T10:45:20Z</time>
      </trkpt>
      <trkpt lat="44.63282" lon="4.26">
        <ele>452.92</ele>
        <time>2013-08-24T10:45:27Z</time>
      </trkpt>
      <trkpt lat="44.63251" lon="4.26008">
        <ele>455.32</ele>
        <time>2013-08-24T10:45:39Z</time>
      </trkpt>
      <trkpt lat="44.63221" lon="4.26019">
        <ele>457.24</ele>
        <time>2013-08-24T10:45:52Z</time>
      </trkpt>
      <trkpt lat="44.63194" lon="4.26023">
        <ele>458.69</ele>
        <time>2013-08-24T10:46:05Z</time>
      </trkpt>
      <trkpt lat="44.63191" lon="4.26024">
        <ele>458.69</ele>
        <time>2013-08-24T10:46:07Z</time>
      </trkpt>
      <trkpt lat="44.63173" lon="4.26033">
        <ele>460.13</ele>
        <time>2013-08-24T10:46:18Z</time>
      </trkpt>
      <trkpt lat="44.63157" lon="4.26042">
        <ele>460.61</ele>
        <time>2013-08-24T10:46:26Z</time>
      </trkpt>
      <trkpt lat="44.63145" lon="4.26055">
        <ele>460.13</ele>
        <time>2013-08-24T10:46:35Z</time>
      </trkpt>
      <trkpt lat="44.63134" lon="4.26054">
        <ele>461.09</ele>
        <time>2013-08-24T10:46:41Z</time>
      </trkpt>
      <trkpt lat="44.63131" lon="4.26053">
        <ele>461.09</ele>
        <time>2013-08-24T10:46:43Z</time>
      </trkpt>
      <trkpt lat="44.63114" lon="4.26048">
        <ele>462.53</ele>
        <time>2013-08-24T10:46:54Z</time>
      </trkpt>
      <trkpt lat="44.63102" lon="4.26044">
        <ele>463.49</ele>
        <time>2013-08-24T10:47:00Z</time>
      </trkpt>
      <trkpt lat="44.63094" lon="4.2604">
        <ele>463.49</ele>
        <time>2013-08-24T10:47:04Z</time>
      </trkpt>
      <trkpt lat="44.63071" lon="4.26026">
        <ele>463.97</ele>
        <time>2013-08-24T10:47:15Z</time>
      </trkpt>
      <trkpt lat="44.63047" lon="4.26007">
        <ele>464.45</ele>
        <time>2013-08-24T10:47:25Z</time>
      </trkpt>
      <trkpt lat="44.63025" lon="4.25992">
        <ele>466.38</ele>
        <time>2013-08-24T10:47:36Z</time>
      </trkpt>
      <trkpt lat="44.63003" lon="4.25981">
        <ele>468.3</ele>
        <time>2013-08-24T10:47:48Z</time>
      </trkpt>
      <trkpt lat="44.62995" lon="4.25971">
        <ele>468.3</ele>
        <time>2013-08-24T10:47:53Z</time>
      </trkpt>
      <trkpt lat="44.62967" lon="4.2594">
        <ele>468.3</ele>
        <time>2013-08-24T10:48:09Z</time>
      </trkpt>
      <trkpt lat="44.62944" lon="4.25931">
        <ele>468.3</ele>
        <time>2013-08-24T10:48:21Z</time>
      </trkpt>
      <trkpt lat="44.62922" lon="4.25927">
        <ele>467.82</ele>
        <time>2013-08-24T10:48:32Z</time>
      </trkpt>
      <trkpt lat="44.62908" lon="4.25927">
        <ele>468.78</ele>
        <time>2013-08-24T10:48:39Z</time>
      </trkpt>
      <trkpt lat="44.62899" lon="4.25926">
        <ele>468.78</ele>
        <time>2013-08-24T10:48:43Z</time>
      </trkpt>
      <trkpt lat="44.62875" lon="4.25923">
        <ele>469.26</ele>
        <time>2013-08-24T10:48:53Z</time>
      </trkpt>
      <trkpt lat="44.62866" lon="4.25922">
        <ele>469.26</ele>
        <time>2013-08-24T10:48:57Z</time>
      </trkpt>
      <trkpt lat="44.62848" lon="4.25925">
        <ele>470.7</ele>
        <time>2013-08-24T10:49:11Z</time>
      </trkpt>
      <trkpt lat="44.62839" lon="4.25929">
        <ele>470.7</ele>
        <time>2013-08-24T10:49:15Z</time>
      </trkpt>
      <trkpt lat="44.62833" lon="4.25933">
        <ele>472.14</ele>
        <time>2013-08-24T10:49:20Z</time>
      </trkpt>
      <trkpt lat="44.62825" lon="4.25931">
        <ele>473.11</ele>
        <time>2013-08-24T10:49:27Z</time>
      </trkpt>
      <trkpt lat="44.62824" lon="4.25928">
        <ele>472.63</ele>
        <time>2013-08-24T10:49:29Z</time>
      </trkpt>
      <trkpt lat="44.62825" lon="4.25924">
        <ele>473.59</ele>
        <time>2013-08-24T10:49:33Z</time>
      </trkpt>
      <trkpt lat="44.62815" lon="4.25919">
        <ele>474.55</ele>
        <time>2013-08-24T10:49:42Z</time>
      </trkpt>
      <trkpt lat="44.62773" lon="4.25936">
        <ele>476.47</ele>
        <time>2013-08-24T10:49:56Z</time>
      </trkpt>
      <trkpt lat="44.62768" lon="4.25936">
        <ele>476.47</ele>
        <time>2013-08-24T10:50:00Z</time>
      </trkpt>
      <trkpt lat="44.62767" lon="4.25934">
        <ele>476.47</ele>
        <time>2013-08-24T10:50:01Z</time>
      </trkpt>
      <trkpt lat="44.62751" lon="4.2594">
        <ele>476.47</ele>
        <time>2013-08-24T10:50:05Z</time>
      </trkpt>
      <trkpt lat="44.62737" lon="4.25951">
        <ele>476.95</ele>
        <time>2013-08-24T10:50:08Z</time>
      </trkpt>
      <trkpt lat="44.62728" lon="4.25954">
        <ele>477.43</ele>
        <time>2013-08-24T10:50:10Z</time>
      </trkpt>
      <trkpt lat="44.62724" lon="4.25954">
        <ele>477.91</ele>
        <time>2013-08-24T10:50:12Z</time>
      </trkpt>
      <trkpt lat="44.62717" lon="4.25957">
        <ele>478.39</ele>
        <time>2013-08-24T10:50:15Z</time>
      </trkpt>
      <trkpt lat="44.62705" lon="4.25958">
        <ele>478.87</ele>
        <time>2013-08-24T10:50:20Z</time>
      </trkpt>
      <trkpt lat="44.627" lon="4.25962">
        <ele>479.35</ele>
        <time>2013-08-24T10:50:23Z</time>
      </trkpt>
      <trkpt lat="44.62689" lon="4.25962">
        <ele>481.76</ele>
        <time>2013-08-24T10:50:30Z</time>
      </trkpt>
      <trkpt lat="44.62683" lon="4.25964">
        <ele>482.24</ele>
        <time>2013-08-24T10:50:32Z</time>
      </trkpt>
      <trkpt lat="44.62679" lon="4.25965">
        <ele>482.24</ele>
        <time>2013-08-24T10:50:35Z</time>
      </trkpt>
      <trkpt lat="44.62675" lon="4.25966">
        <ele>482.72</ele>
        <time>2013-08-24T10:50:37Z</time>
      </trkpt>
      <trkpt lat="44.62674" lon="4.25967">
        <ele>483.2</ele>
        <time>2013-08-24T10:50:38Z</time>
      </trkpt>
      <trkpt lat="44.62669" lon="4.25968">
        <ele>483.68</ele>
        <time>2013-08-24T10:50:42Z</time>
      </trkpt>
      <trkpt lat="44.62659" lon="4.25967">
        <ele>484.64</ele>
        <time>2013-08-24T10:50:51Z</time>
      </trkpt>
      <trkpt lat="44.62636" lon="4.25975">
        <ele>486.56</ele>
        <time>2013-08-24T10:51:01Z</time>
      </trkpt>
      <trkpt lat="44.62633" lon="4.25976">
        <ele>486.56</ele>
        <time>2013-08-24T10:51:03Z</time>
      </trkpt>
      <trkpt lat="44.62626" lon="4.25979">
        <ele>487.53</ele>
        <time>2013-08-24T10:51:17Z</time>
      </trkpt>
      <trkpt lat="44.62614" lon="4.25981">
        <ele>488.01</ele>
        <time>2013-08-24T10:51:24Z</time>
      </trkpt>
      <trkpt lat="44.62601" lon="4.25988">
        <ele>489.45</ele>
        <time>2013-08-24T10:51:33Z</time>
      </trkpt>
      <trkpt lat="44.62587" lon="4.25996">
        <ele>490.89</ele>
        <time>2013-08-24T10:51:43Z</time>
      </trkpt>
      <trkpt lat="44.62581" lon="4.25997">
        <ele>491.37</ele>
        <time>2013-08-24T10:51:47Z</time>
      </trkpt>
      <trkpt lat="44.62573" lon="4.26002">
        <ele>492.81</ele>
        <time>2013-08-24T10:51:56Z</time>
      </trkpt>
      <trkpt lat="44.62563" lon="4.26008">
        <ele>493.77</ele>
        <time>2013-08-24T10:52:04Z</time>
      </trkpt>
      <trkpt lat="44.62558" lon="4.26008">
        <ele>493.29</ele>
        <time>2013-08-24T10:52:08Z</time>
      </trkpt>
      <trkpt lat="44.62551" lon="4.26011">
        <ele>493.77</ele>
        <time>2013-08-24T10:52:12Z</time>
      </trkpt>
      <trkpt lat="44.62537" lon="4.26021">
        <ele>494.74</ele>
        <time>2013-08-24T10:52:23Z</time>
      </trkpt>
      <trkpt lat="44.6252" lon="4.26027">
        <ele>495.22</ele>
        <time>2013-08-24T10:52:35Z</time>
      </trkpt>
      <trkpt lat="44.6251" lon="4.26031">
        <ele>496.66</ele>
        <time>2013-08-24T10:52:43Z</time>
      </trkpt>
      <trkpt lat="44.62506" lon="4.26036">
        <ele>497.14</ele>
        <time>2013-08-24T10:52:46Z</time>
      </trkpt>
      <trkpt lat="44.62497" lon="4.26045">
        <ele>498.1</ele>
        <time>2013-08-24T10:52:52Z</time>
      </trkpt>
      <trkpt lat="44.62499" lon="4.26047">
        <ele>498.58</ele>
        <time>2013-08-24T10:52:54Z</time>
      </trkpt>
      <trkpt lat="44.62491" lon="4.26063">
        <ele>500.5</ele>
        <time>2013-08-24T10:53:03Z</time>
      </trkpt>
      <trkpt lat="44.62491" lon="4.26068">
        <ele>500.5</ele>
        <time>2013-08-24T10:53:07Z</time>
      </trkpt>
      <trkpt lat="44.62481" lon="4.26082">
        <ele>501.95</ele>
        <time>2013-08-24T10:53:15Z</time>
      </trkpt>
      <trkpt lat="44.62476" lon="4.26093">
        <ele>503.87</ele>
        <time>2013-08-24T10:53:23Z</time>
      </trkpt>
      <trkpt lat="44.62475" lon="4.26095">
        <ele>503.87</ele>
        <time>2013-08-24T10:53:24Z</time>
      </trkpt>
      <trkpt lat="44.62465" lon="4.26111">
        <ele>505.79</ele>
        <time>2013-08-24T10:53:36Z</time>
      </trkpt>
      <trkpt lat="44.62463" lon="4.26118">
        <ele>506.27</ele>
        <time>2013-08-24T10:53:45Z</time>
      </trkpt>
      <trkpt lat="44.6246" lon="4.26127">
        <ele>506.75</ele>
        <time>2013-08-24T10:53:50Z</time>
      </trkpt>
      <trkpt lat="44.62458" lon="4.26128">
        <ele>506.75</ele>
        <time>2013-08-24T10:53:53Z</time>
      </trkpt>
      <trkpt lat="44.62448" lon="4.26154">
        <ele>508.67</ele>
        <time>2013-08-24T10:54:08Z</time>
      </trkpt>
      <trkpt lat="44.62448" lon="4.26159">
        <ele>510.12</ele>
        <time>2013-08-24T10:54:18Z</time>
      </trkpt>
      <trkpt lat="44.62439" lon="4.26168">
        <ele>511.08</ele>
        <time>2013-08-24T10:54:28Z</time>
      </trkpt>
      <trkpt lat="44.62431" lon="4.26177">
        <ele>511.56</ele>
        <time>2013-08-24T10:54:33Z</time>
      </trkpt>
      <trkpt lat="44.62424" lon="4.26186">
        <ele>512.52</ele>
        <time>2013-08-24T10:54:36Z</time>
      </trkpt>
      <trkpt lat="44.62415" lon="4.26212">
        <ele>513.48</ele>
        <time>2013-08-24T10:54:46Z</time>
      </trkpt>
      <trkpt lat="44.62413" lon="4.26223">
        <ele>513.96</ele>
        <time>2013-08-24T10:54:50Z</time>
      </trkpt>
      <trkpt lat="44.62413" lon="4.26227">
        <ele>513.96</ele>
        <time>2013-08-24T10:54:52Z</time>
      </trkpt>
      <trkpt lat="44.62414" lon="4.26229">
        <ele>513.96</ele>
        <time>2013-08-24T10:54:53Z</time>
      </trkpt>
      <trkpt lat="44.62399" lon="4.2625">
        <ele>514.92</ele>
        <time>2013-08-24T10:54:58Z</time>
      </trkpt>
      <trkpt lat="44.62399" lon="4.26257">
        <ele>514.92</ele>
        <time>2013-08-24T10:55:01Z</time>
      </trkpt>
      <trkpt lat="44.62394" lon="4.2627">
        <ele>515.88</ele>
        <time>2013-08-24T10:55:07Z</time>
      </trkpt>
      <trkpt lat="44.62383" lon="4.26286">
        <ele>514.92</ele>
        <time>2013-08-24T10:55:17Z</time>
      </trkpt>
      <trkpt lat="44.62378" lon="4.26287">
        <ele>514.92</ele>
        <time>2013-08-24T10:55:20Z</time>
      </trkpt>
      <trkpt lat="44.62351" lon="4.26258">
        <ele>513.96</ele>
        <time>2013-08-24T10:55:31Z</time>
      </trkpt>
      <trkpt lat="44.62335" lon="4.26216">
        <ele>514.44</ele>
        <time>2013-08-24T10:55:43Z</time>
      </trkpt>
      <trkpt lat="44.62337" lon="4.26177">
        <ele>516.37</ele>
        <time>2013-08-24T10:55:55Z</time>
      </trkpt>
      <trkpt lat="44.62339" lon="4.26135">
        <ele>517.33</ele>
        <time>2013-08-24T10:56:08Z</time>
      </trkpt>
      <trkpt lat="44.6231" lon="4.26122">
        <ele>519.73</ele>
        <time>2013-08-24T10:56:23Z</time>
      </trkpt>
      <trkpt lat="44.6229" lon="4.26116">
        <ele>520.69</ele>
        <time>2013-08-24T10:56:35Z</time>
      </trkpt>
      <trkpt lat="44.62277" lon="4.26113">
        <ele>522.13</ele>
        <time>2013-08-24T10:56:43Z</time>
      </trkpt>
      <trkpt lat="44.62264" lon="4.26103">
        <ele>523.58</ele>
        <time>2013-08-24T10:56:52Z</time>
      </trkpt>
      <trkpt lat="44.6224" lon="4.26089">
        <ele>526.46</ele>
        <time>2013-08-24T10:57:07Z</time>
      </trkpt>
      <trkpt lat="44.62217" lon="4.26071">
        <ele>528.86</ele>
        <time>2013-08-24T10:57:23Z</time>
      </trkpt>
      <trkpt lat="44.62199" lon="4.26048">
        <ele>530.3</ele>
        <time>2013-08-24T10:57:37Z</time>
      </trkpt>
      <trkpt lat="44.62179" lon="4.26017">
        <ele>532.23</ele>
        <time>2013-08-24T10:57:51Z</time>
      </trkpt>
      <trkpt lat="44.62159" lon="4.25989">
        <ele>534.15</ele>
        <time>2013-08-24T10:58:06Z</time>
      </trkpt>
      <trkpt lat="44.62156" lon="4.25986">
        <ele>534.63</ele>
        <time>2013-08-24T10:58:08Z</time>
      </trkpt>
      <trkpt lat="44.62135" lon="4.25957">
        <ele>536.07</ele>
        <time>2013-08-24T10:58:25Z</time>
      </trkpt>
      <trkpt lat="44.62134" lon="4.25955">
        <ele>536.55</ele>
        <time>2013-08-24T10:58:26Z</time>
      </trkpt>
      <trkpt lat="44.6213" lon="4.25949">
        <ele>537.03</ele>
        <time>2013-08-24T10:58:29Z</time>
      </trkpt>
      <trkpt lat="44.62121" lon="4.25938">
        <ele>539.44</ele>
        <time>2013-08-24T10:58:38Z</time>
      </trkpt>
      <trkpt lat="44.62119" lon="4.25967">
        <ele>540.4</ele>
        <time>2013-08-24T10:58:51Z</time>
      </trkpt>
      <trkpt lat="44.62119" lon="4.26008">
        <ele>543.28</ele>
        <time>2013-08-24T10:59:08Z</time>
      </trkpt>
      <trkpt lat="44.62112" lon="4.26036">
        <ele>545.69</ele>
        <time>2013-08-24T10:59:22Z</time>
      </trkpt>
      <trkpt lat="44.62096" lon="4.26029">
        <ele>546.65</ele>
        <time>2013-08-24T10:59:36Z</time>
      </trkpt>
      <trkpt lat="44.62096" lon="4.26029">
        <ele>546.65</ele>
        <time>2013-08-24T10:59:37Z</time>
      </trkpt>
      <trkpt lat="44.62098" lon="4.26022">
        <ele>547.13</ele>
        <time>2013-08-24T10:59:41Z</time>
      </trkpt>
      <trkpt lat="44.62098" lon="4.26014">
        <ele>547.13</ele>
        <time>2013-08-24T10:59:46Z</time>
      </trkpt>
      <trkpt lat="44.62095" lon="4.26012">
        <ele>547.13</ele>
        <time>2013-08-24T10:59:50Z</time>
      </trkpt>
      <trkpt lat="44.62091" lon="4.26024">
        <ele>547.61</ele>
        <time>2013-08-24T11:00:01Z</time>
      </trkpt>
      <trkpt lat="44.6209" lon="4.26025">
        <ele>546.65</ele>
        <time>2013-08-24T11:00:03Z</time>
      </trkpt>
      <trkpt lat="44.6209" lon="4.26028">
        <ele>546.65</ele>
        <time>2013-08-24T11:00:05Z</time>
      </trkpt>
      <trkpt lat="44.62098" lon="4.26034">
        <ele>546.65</ele>
        <time>2013-08-24T11:00:17Z</time>
      </trkpt>
      <trkpt lat="44.62099" lon="4.26034">
        <ele>547.13</ele>
        <time>2013-08-24T11:00:37Z</time>
      </trkpt>
      <trkpt lat="44.62098" lon="4.26033">
        <ele>546.65</ele>
        <time>2013-08-24T11:00:38Z</time>
      </trkpt>
      <trkpt lat="44.62091" lon="4.26026">
        <ele>546.65</ele>
        <time>2013-08-24T11:00:43Z</time>
      </trkpt>
      <trkpt lat="44.62066" lon="4.2602">
        <ele>546.17</ele>
        <time>2013-08-24T11:00:54Z</time>
      </trkpt>
      <trkpt lat="44.62034" lon="4.26007">
        <ele>546.65</ele>
        <time>2013-08-24T11:01:05Z</time>
      </trkpt>
      <trkpt lat="44.62037" lon="4.25999">
        <ele>548.09</ele>
        <time>2013-08-24T11:01:10Z</time>
      </trkpt>
      <trkpt lat="44.62047" lon="4.2597">
        <ele>547.13</ele>
        <time>2013-08-24T11:01:18Z</time>
      </trkpt>
      <trkpt lat="44.6205" lon="4.25966">
        <ele>546.65</ele>
        <time>2013-08-24T11:01:19Z</time>
      </trkpt>
      <trkpt lat="44.62054" lon="4.25958">
        <ele>546.65</ele>
        <time>2013-08-24T11:01:21Z</time>
      </trkpt>
      <trkpt lat="44.62054" lon="4.25954">
        <ele>546.17</ele>
        <time>2013-08-24T11:01:22Z</time>
      </trkpt>
      <trkpt lat="44.62052" lon="4.25951">
        <ele>545.69</ele>
        <time>2013-08-24T11:01:23Z</time>
      </trkpt>
      <trkpt lat="44.6205" lon="4.25948">
        <ele>545.2</ele>
        <time>2013-08-24T11:01:24Z</time>
      </trkpt>
      <trkpt lat="44.62048" lon="4.25944">
        <ele>545.2</ele>
        <time>2013-08-24T11:01:25Z</time>
      </trkpt>
      <trkpt lat="44.62045" lon="4.2594">
        <ele>544.72</ele>
        <time>2013-08-24T11:01:26Z</time>
      </trkpt>
      <trkpt lat="44.62042" lon="4.25935">
        <ele>544.24</ele>
        <time>2013-08-24T11:01:27Z</time>
      </trkpt>
      <trkpt lat="44.6204" lon="4.25929">
        <ele>543.76</ele>
        <time>2013-08-24T11:01:28Z</time>
      </trkpt>
      <trkpt lat="44.62037" lon="4.25924">
        <ele>543.76</ele>
        <time>2013-08-24T11:01:29Z</time>
      </trkpt>
      <trkpt lat="44.62035" lon="4.25919">
        <ele>543.76</ele>
        <time>2013-08-24T11:01:30Z</time>
      </trkpt>
      <trkpt lat="44.62034" lon="4.25914">
        <ele>543.76</ele>
        <time>2013-08-24T11:01:31Z</time>
      </trkpt>
      <trkpt lat="44.62034" lon="4.25909">
        <ele>543.76</ele>
        <time>2013-08-24T11:01:32Z</time>
      </trkpt>
      <trkpt lat="44.62025" lon="4.25873">
        <ele>544.72</ele>
        <time>2013-08-24T11:01:40Z</time>
      </trkpt>
      <trkpt lat="44.62023" lon="4.25856">
        <ele>544.72</ele>
        <time>2013-08-24T11:01:50Z</time>
      </trkpt>
      <trkpt lat="44.62022" lon="4.25847">
        <ele>544.24</ele>
        <time>2013-08-24T11:01:56Z</time>
      </trkpt>
      <trkpt lat="44.62022" lon="4.25812">
        <ele>543.28</ele>
        <time>2013-08-24T11:02:04Z</time>
      </trkpt>
      <trkpt lat="44.62019" lon="4.25799">
        <ele>542.32</ele>
        <time>2013-08-24T11:02:06Z</time>
      </trkpt>
      <trkpt lat="44.62018" lon="4.25789">
        <ele>543.28</ele>
        <time>2013-08-24T11:02:08Z</time>
      </trkpt>
      <trkpt lat="44.62016" lon="4.25754">
        <ele>545.2</ele>
        <time>2013-08-24T11:02:18Z</time>
      </trkpt>
      <trkpt lat="44.62012" lon="4.25744">
        <ele>545.69</ele>
        <time>2013-08-24T11:02:21Z</time>
      </trkpt>
      <trkpt lat="44.62" lon="4.25718">
        <ele>544.24</ele>
        <time>2013-08-24T11:02:28Z</time>
      </trkpt>
      <trkpt lat="44.61997" lon="4.25716">
        <ele>543.76</ele>
        <time>2013-08-24T11:02:29Z</time>
      </trkpt>
      <trkpt lat="44.61994" lon="4.25714">
        <ele>543.76</ele>
        <time>2013-08-24T11:02:30Z</time>
      </trkpt>
      <trkpt lat="44.61991" lon="4.25709">
        <ele>543.76</ele>
        <time>2013-08-24T11:02:33Z</time>
      </trkpt>
      <trkpt lat="44.61992" lon="4.25704">
        <ele>543.76</ele>
        <time>2013-08-24T11:02:35Z</time>
      </trkpt>
      <trkpt lat="44.61997" lon="4.2569">
        <ele>543.76</ele>
        <time>2013-08-24T11:02:41Z</time>
      </trkpt>
      <trkpt lat="44.61997" lon="4.25671">
        <ele>543.76</ele>
        <time>2013-08-24T11:02:46Z</time>
      </trkpt>
      <trkpt lat="44.61995" lon="4.25657">
        <ele>543.76</ele>
        <time>2013-08-24T11:02:51Z</time>
      </trkpt>
      <trkpt lat="44.61998" lon="4.25624">
        <ele>545.69</ele>
        <time>2013-08-24T11:03:02Z</time>
      </trkpt>
      <trkpt lat="44.61997" lon="4.25617">
        <ele>545.69</ele>
        <time>2013-08-24T11:03:04Z</time>
      </trkpt>
      <trkpt lat="44.61997" lon="4.25616">
        <ele>546.17</ele>
        <time>2013-08-24T11:03:05Z</time>
      </trkpt>
      <trkpt lat="44.61998" lon="4.25597">
        <ele>547.61</ele>
        <time>2013-08-24T11:03:12Z</time>
      </trkpt>
      <trkpt lat="44.62" lon="4.25586">
        <ele>549.05</ele>
        <time>2013-08-24T11:03:17Z</time>
      </trkpt>
      <trkpt lat="44.61997" lon="4.25573">
        <ele>549.53</ele>
        <time>2013-08-24T11:03:22Z</time>
      </trkpt>
      <trkpt lat="44.61994" lon="4.25563">
        <ele>549.53</ele>
        <time>2013-08-24T11:03:27Z</time>
      </trkpt>
      <trkpt lat="44.61994" lon="4.25558">
        <ele>549.05</ele>
        <time>2013-08-24T11:03:31Z</time>
      </trkpt>
      <trkpt lat="44.6198" lon="4.25542">
        <ele>547.13</ele>
        <time>2013-08-24T11:03:39Z</time>
      </trkpt>
      <trkpt lat="44.6198" lon="4.25533">
        <ele>549.05</ele>
        <time>2013-08-24T11:03:43Z</time>
      </trkpt>
      <trkpt lat="44.61989" lon="4.25527">
        <ele>548.57</ele>
        <time>2013-08-24T11:03:46Z</time>
      </trkpt>
      <trkpt lat="44.61992" lon="4.25525">
        <ele>548.09</ele>
        <time>2013-08-24T11:03:47Z</time>
      </trkpt>
      <trkpt lat="44.61996" lon="4.25522">
        <ele>548.57</ele>
        <time>2013-08-24T11:03:48Z</time>
      </trkpt>
      <trkpt lat="44.61994" lon="4.25517">
        <ele>548.57</ele>
        <time>2013-08-24T11:03:49Z</time>
      </trkpt>
      <trkpt lat="44.61995" lon="4.25497">
        <ele>548.09</ele>
        <time>2013-08-24T11:03:54Z</time>
      </trkpt>
      <trkpt lat="44.61995" lon="4.25493">
        <ele>547.61</ele>
        <time>2013-08-24T11:03:55Z</time>
      </trkpt>
      <trkpt lat="44.61996" lon="4.25488">
        <ele>547.61</ele>
        <time>2013-08-24T11:03:56Z</time>
      </trkpt>
      <trkpt lat="44.61994" lon="4.25482">
        <ele>547.61</ele>
        <time>2013-08-24T11:03:57Z</time>
      </trkpt>
      <trkpt lat="44.61993" lon="4.25477">
        <ele>547.13</ele>
        <time>2013-08-24T11:03:58Z</time>
      </trkpt>
      <trkpt lat="44.6199" lon="4.25472">
        <ele>547.61</ele>
        <time>2013-08-24T11:03:59Z</time>
      </trkpt>
      <trkpt lat="44.61982" lon="4.25455">
        <ele>546.17</ele>
        <time>2013-08-24T11:04:02Z</time>
      </trkpt>
      <trkpt lat="44.6198" lon="4.2545">
        <ele>546.65</ele>
        <time>2013-08-24T11:04:03Z</time>
      </trkpt>
      <trkpt lat="44.61977" lon="4.25445">
        <ele>545.69</ele>
        <time>2013-08-24T11:04:04Z</time>
      </trkpt>
      <trkpt lat="44.61976" lon="4.25441">
        <ele>545.69</ele>
        <time>2013-08-24T11:04:05Z</time>
      </trkpt>
      <trkpt lat="44.61974" lon="4.25437">
        <ele>545.69</ele>
        <time>2013-08-24T11:04:06Z</time>
      </trkpt>
      <trkpt lat="44.61972" lon="4.25434">
        <ele>546.17</ele>
        <time>2013-08-24T11:04:07Z</time>
      </trkpt>
      <trkpt lat="44.61969" lon="4.25431">
        <ele>545.69</ele>
        <time>2013-08-24T11:04:08Z</time>
      </trkpt>
      <trkpt lat="44.61966" lon="4.25429">
        <ele>545.69</ele>
        <time>2013-08-24T11:04:09Z</time>
      </trkpt>
      <trkpt lat="44.61963" lon="4.25427">
        <ele>546.17</ele>
        <time>2013-08-24T11:04:10Z</time>
      </trkpt>
      <trkpt lat="44.61959" lon="4.25425">
        <ele>546.17</ele>
        <time>2013-08-24T11:04:11Z</time>
      </trkpt>
      <trkpt lat="44.61956" lon="4.25422">
        <ele>546.17</ele>
        <time>2013-08-24T11:04:12Z</time>
      </trkpt>
      <trkpt lat="44.61955" lon="4.25419">
        <ele>546.17</ele>
        <time>2013-08-24T11:04:13Z</time>
      </trkpt>
      <trkpt lat="44.61958" lon="4.25411">
        <ele>546.17</ele>
        <time>2013-08-24T11:04:16Z</time>
      </trkpt>
      <trkpt lat="44.61956" lon="4.25408">
        <ele>546.65</ele>
        <time>2013-08-24T11:04:17Z</time>
      </trkpt>
      <trkpt lat="44.6195" lon="4.25401">
        <ele>547.61</ele>
        <time>2013-08-24T11:04:19Z</time>
      </trkpt>
      <trkpt lat="44.6195" lon="4.25389">
        <ele>548.09</ele>
        <time>2013-08-24T11:04:22Z</time>
      </trkpt>
      <trkpt lat="44.61954" lon="4.25373">
        <ele>550.01</ele>
        <time>2013-08-24T11:04:30Z</time>
      </trkpt>
      <trkpt lat="44.61956" lon="4.25363">
        <ele>551.45</ele>
        <time>2013-08-24T11:04:35Z</time>
      </trkpt>
      <trkpt lat="44.61957" lon="4.25357">
        <ele>551.93</ele>
        <time>2013-08-24T11:04:45Z</time>
      </trkpt>
      <trkpt lat="44.61957" lon="4.25356">
        <ele>551.93</ele>
        <time>2013-08-24T11:05:02Z</time>
      </trkpt>
      <trkpt lat="44.61957" lon="4.25355">
        <ele>551.93</ele>
        <time>2013-08-24T11:05:19Z</time>
      </trkpt>
      <trkpt lat="44.61957" lon="4.25355">
        <ele>551.93</ele>
        <time>2013-08-24T11:05:38Z</time>
      </trkpt>
      <trkpt lat="44.61958" lon="4.25354">
        <ele>551.45</ele>
        <time>2013-08-24T11:05:47Z</time>
      </trkpt>
      <trkpt lat="44.61958" lon="4.25345">
        <ele>551.93</ele>
        <time>2013-08-24T11:05:52Z</time>
      </trkpt>
      <trkpt lat="44.61955" lon="4.25332">
        <ele>553.38</ele>
        <time>2013-08-24T11:05:58Z</time>
      </trkpt>
      <trkpt lat="44.61951" lon="4.25331">
        <ele>553.86</ele>
        <time>2013-08-24T11:06:09Z</time>
      </trkpt>
      <trkpt lat="44.61953" lon="4.25326">
        <ele>555.3</ele>
        <time>2013-08-24T11:06:22Z</time>
      </trkpt>
      <trkpt lat="44.61951" lon="4.25324">
        <ele>556.26</ele>
        <time>2013-08-24T11:06:26Z</time>
      </trkpt>
      <trkpt lat="44.61947" lon="4.2532">
        <ele>558.66</ele>
        <time>2013-08-24T11:06:37Z</time>
      </trkpt>
      <trkpt lat="44.61945" lon="4.25318">
        <ele>559.14</ele>
        <time>2013-08-24T11:06:40Z</time>
      </trkpt>
      <trkpt lat="44.61939" lon="4.25307">
        <ele>561.55</ele>
        <time>2013-08-24T11:06:52Z</time>
      </trkpt>
      <trkpt lat="44.61936" lon="4.25299">
        <ele>562.99</ele>
        <time>2013-08-24T11:06:59Z</time>
      </trkpt>
      <trkpt lat="44.61932" lon="4.25294">
        <ele>563.47</ele>
        <time>2013-08-24T11:07:04Z</time>
      </trkpt>
      <trkpt lat="44.61932" lon="4.25289">
        <ele>564.43</ele>
        <time>2013-08-24T11:07:08Z</time>
      </trkpt>
      <trkpt lat="44.61924" lon="4.25276">
        <ele>566.35</ele>
        <time>2013-08-24T11:07:21Z</time>
      </trkpt>
      <trkpt lat="44.61918" lon="4.25267">
        <ele>567.8</ele>
        <time>2013-08-24T11:07:32Z</time>
      </trkpt>
      <trkpt lat="44.61912" lon="4.25261">
        <ele>570.2</ele>
        <time>2013-08-24T11:07:42Z</time>
      </trkpt>
      <trkpt lat="44.61908" lon="4.25255">
        <ele>571.16</ele>
        <time>2013-08-24T11:07:49Z</time>
      </trkpt>
      <trkpt lat="44.61904" lon="4.25253">
        <ele>572.12</ele>
        <time>2013-08-24T11:08:00Z</time>
      </trkpt>
      <trkpt lat="44.61907" lon="4.25261">
        <ele>570.2</ele>
        <time>2013-08-24T11:44:18Z</time>
      </trkpt>
      <trkpt lat="44.61906" lon="4.25261">
        <ele>570.2</ele>
        <time>2013-08-24T11:44:19Z</time>
      </trkpt>
      <trkpt lat="44.61908" lon="4.2526">
        <ele>570.2</ele>
        <time>2013-08-24T11:44:50Z</time>
      </trkpt>
      <trkpt lat="44.61908" lon="4.25258">
        <ele>571.64</ele>
        <time>2013-08-24T11:45:25Z</time>
      </trkpt>
      <trkpt lat="44.61903" lon="4.25256">
        <ele>571.64</ele>
        <time>2013-08-24T11:45:50Z</time>
      </trkpt>
      <trkpt lat="44.619" lon="4.25258">
        <ele>571.64</ele>
        <time>2013-08-24T11:46:24Z</time>
      </trkpt>
      <trkpt lat="44.619" lon="4.25258">
        <ele>571.64</ele>
        <time>2013-08-24T11:46:59Z</time>
      </trkpt>
      <trkpt lat="44.61901" lon="4.25257">
        <ele>572.6</ele>
        <time>2013-08-24T11:47:29Z</time>
      </trkpt>
      <trkpt lat="44.61902" lon="4.25252">
        <ele>571.16</ele>
        <time>2013-08-24T11:47:44Z</time>
      </trkpt>
      <trkpt lat="44.61902" lon="4.25252">
        <ele>571.16</ele>
        <time>2013-08-24T11:48:06Z</time>
      </trkpt>
      <trkpt lat="44.61902" lon="4.25249">
        <ele>571.64</ele>
        <time>2013-08-24T11:48:23Z</time>
      </trkpt>
      <trkpt lat="44.61895" lon="4.25224">
        <ele>571.64</ele>
        <time>2013-08-24T11:48:36Z</time>
      </trkpt>
      <trkpt lat="44.61894" lon="4.25222">
        <ele>571.64</ele>
        <time>2013-08-24T11:48:37Z</time>
      </trkpt>
      <trkpt lat="44.61894" lon="4.25206">
        <ele>569.72</ele>
        <time>2013-08-24T11:48:44Z</time>
      </trkpt>
      <trkpt lat="44.61888" lon="4.2519">
        <ele>570.68</ele>
        <time>2013-08-24T11:48:53Z</time>
      </trkpt>
      <trkpt lat="44.61885" lon="4.25188">
        <ele>570.68</ele>
        <time>2013-08-24T11:48:55Z</time>
      </trkpt>
      <trkpt lat="44.61878" lon="4.25182">
        <ele>572.12</ele>
        <time>2013-08-24T11:49:00Z</time>
      </trkpt>
      <trkpt lat="44.61874" lon="4.25178">
        <ele>572.12</ele>
        <time>2013-08-24T11:49:03Z</time>
      </trkpt>
      <trkpt lat="44.61858" lon="4.25168">
        <ele>572.6</ele>
        <time>2013-08-24T11:49:13Z</time>
      </trkpt>
      <trkpt lat="44.61858" lon="4.25145">
        <ele>574.53</ele>
        <time>2013-08-24T11:49:22Z</time>
      </trkpt>
      <trkpt lat="44.61854" lon="4.25127">
        <ele>575.97</ele>
        <time>2013-08-24T11:49:30Z</time>
      </trkpt>
      <trkpt lat="44.61839" lon="4.25099">
        <ele>575.01</ele>
        <time>2013-08-24T11:49:42Z</time>
      </trkpt>
      <trkpt lat="44.61844" lon="4.2509">
        <ele>571.64</ele>
        <time>2013-08-24T11:49:50Z</time>
      </trkpt>
      <trkpt lat="44.61846" lon="4.25082">
        <ele>569.72</ele>
        <time>2013-08-24T11:49:54Z</time>
      </trkpt>
      <trkpt lat="44.61847" lon="4.25079">
        <ele>569.24</ele>
        <time>2013-08-24T11:49:55Z</time>
      </trkpt>
      <trkpt lat="44.61852" lon="4.25067">
        <ele>567.32</ele>
        <time>2013-08-24T11:50:00Z</time>
      </trkpt>
      <trkpt lat="44.6186" lon="4.25055">
        <ele>564.91</ele>
        <time>2013-08-24T11:50:11Z</time>
      </trkpt>
      <trkpt lat="44.61862" lon="4.2505">
        <ele>562.51</ele>
        <time>2013-08-24T11:50:30Z</time>
      </trkpt>
      <trkpt lat="44.61862" lon="4.25049">
        <ele>562.51</ele>
        <time>2013-08-24T11:50:32Z</time>
      </trkpt>
      <trkpt lat="44.61862" lon="4.25044">
        <ele>561.55</ele>
        <time>2013-08-24T11:50:35Z</time>
      </trkpt>
      <trkpt lat="44.61861" lon="4.25041">
        <ele>561.55</ele>
        <time>2013-08-24T11:50:38Z</time>
      </trkpt>
      <trkpt lat="44.6186" lon="4.25038">
        <ele>561.07</ele>
        <time>2013-08-24T11:50:40Z</time>
      </trkpt>
      <trkpt lat="44.61856" lon="4.25034">
        <ele>559.62</ele>
        <time>2013-08-24T11:50:42Z</time>
      </trkpt>
      <trkpt lat="44.61852" lon="4.25021">
        <ele>559.62</ele>
        <time>2013-08-24T11:50:47Z</time>
      </trkpt>
      <trkpt lat="44.61853" lon="4.25014">
        <ele>559.62</ele>
        <time>2013-08-24T11:50:56Z</time>
      </trkpt>
      <trkpt lat="44.6187" lon="4.25016">
        <ele>556.26</ele>
        <time>2013-08-24T11:51:03Z</time>
      </trkpt>
      <trkpt lat="44.61874" lon="4.25017">
        <ele>555.78</ele>
        <time>2013-08-24T11:51:04Z</time>
      </trkpt>
      <trkpt lat="44.61882" lon="4.25017">
        <ele>553.86</ele>
        <time>2013-08-24T11:51:06Z</time>
      </trkpt>
      <trkpt lat="44.61886" lon="4.25017">
        <ele>552.9</ele>
        <time>2013-08-24T11:51:07Z</time>
      </trkpt>
      <trkpt lat="44.61893" lon="4.25018">
        <ele>551.45</ele>
        <time>2013-08-24T11:51:09Z</time>
      </trkpt>
      <trkpt lat="44.61896" lon="4.25017">
        <ele>550.97</ele>
        <time>2013-08-24T11:51:10Z</time>
      </trkpt>
      <trkpt lat="44.61899" lon="4.25016">
        <ele>550.49</ele>
        <time>2013-08-24T11:51:11Z</time>
      </trkpt>
      <trkpt lat="44.61902" lon="4.25015">
        <ele>549.53</ele>
        <time>2013-08-24T11:51:12Z</time>
      </trkpt>
      <trkpt lat="44.61904" lon="4.25014">
        <ele>549.05</ele>
        <time>2013-08-24T11:51:13Z</time>
      </trkpt>
      <trkpt lat="44.61908" lon="4.25011">
        <ele>548.09</ele>
        <time>2013-08-24T11:51:15Z</time>
      </trkpt>
      <trkpt lat="44.6191" lon="4.25007">
        <ele>547.61</ele>
        <time>2013-08-24T11:51:16Z</time>
      </trkpt>
      <trkpt lat="44.61911" lon="4.25">
        <ele>547.13</ele>
        <time>2013-08-24T11:51:18Z</time>
      </trkpt>
      <trkpt lat="44.61913" lon="4.24992">
        <ele>546.17</ele>
        <time>2013-08-24T11:51:20Z</time>
      </trkpt>
      <trkpt lat="44.61932" lon="4.24972">
        <ele>544.72</ele>
        <time>2013-08-24T11:51:24Z</time>
      </trkpt>
      <trkpt lat="44.61937" lon="4.24964">
        <ele>545.2</ele>
        <time>2013-08-24T11:51:26Z</time>
      </trkpt>
      <trkpt lat="44.61938" lon="4.24959">
        <ele>545.69</ele>
        <time>2013-08-24T11:51:28Z</time>
      </trkpt>
      <trkpt lat="44.61933" lon="4.24941">
        <ele>545.69</ele>
        <time>2013-08-24T11:51:36Z</time>
      </trkpt>
      <trkpt lat="44.61927" lon="4.24916">
        <ele>547.13</ele>
        <time>2013-08-24T11:51:48Z</time>
      </trkpt>
      <trkpt lat="44.61927" lon="4.24907">
        <ele>547.13</ele>
        <time>2013-08-24T11:51:52Z</time>
      </trkpt>
      <trkpt lat="44.61926" lon="4.2487">
        <ele>548.09</ele>
        <time>2013-08-24T11:52:04Z</time>
      </trkpt>
      <trkpt lat="44.61923" lon="4.2484">
        <ele>548.57</ele>
        <time>2013-08-24T11:52:15Z</time>
      </trkpt>
      <trkpt lat="44.61927" lon="4.24823">
        <ele>549.05</ele>
        <time>2013-08-24T11:52:23Z</time>
      </trkpt>
      <trkpt lat="44.6195" lon="4.24815">
        <ele>551.45</ele>
        <time>2013-08-24T11:52:36Z</time>
      </trkpt>
      <trkpt lat="44.61965" lon="4.24812">
        <ele>554.34</ele>
        <time>2013-08-24T11:52:45Z</time>
      </trkpt>
      <trkpt lat="44.61978" lon="4.24802">
        <ele>557.7</ele>
        <time>2013-08-24T11:52:56Z</time>
      </trkpt>
      <trkpt lat="44.61986" lon="4.248">
        <ele>559.14</ele>
        <time>2013-08-24T11:53:02Z</time>
      </trkpt>
      <trkpt lat="44.62005" lon="4.24792">
        <ele>562.99</ele>
        <time>2013-08-24T11:53:14Z</time>
      </trkpt>
      <trkpt lat="44.62022" lon="4.24787">
        <ele>566.35</ele>
        <time>2013-08-24T11:53:26Z</time>
      </trkpt>
      <trkpt lat="44.62029" lon="4.24779">
        <ele>567.32</ele>
        <time>2013-08-24T11:53:32Z</time>
      </trkpt>
      <trkpt lat="44.62036" lon="4.24762">
        <ele>568.76</ele>
        <time>2013-08-24T11:53:43Z</time>
      </trkpt>
      <trkpt lat="44.62041" lon="4.24747">
        <ele>569.24</ele>
        <time>2013-08-24T11:53:54Z</time>
      </trkpt>
      <trkpt lat="44.62041" lon="4.24747">
        <ele>569.24</ele>
        <time>2013-08-24T11:54:18Z</time>
      </trkpt>
      <trkpt lat="44.62043" lon="4.24739">
        <ele>569.24</ele>
        <time>2013-08-24T11:54:29Z</time>
      </trkpt>
      <trkpt lat="44.62046" lon="4.24716">
        <ele>570.2</ele>
        <time>2013-08-24T11:54:38Z</time>
      </trkpt>
      <trkpt lat="44.62046" lon="4.24694">
        <ele>570.68</ele>
        <time>2013-08-24T11:54:49Z</time>
      </trkpt>
      <trkpt lat="44.62046" lon="4.24693">
        <ele>570.2</ele>
        <time>2013-08-24T11:54:50Z</time>
      </trkpt>
      <trkpt lat="44.62026" lon="4.24672">
        <ele>573.08</ele>
        <time>2013-08-24T11:55:04Z</time>
      </trkpt>
      <trkpt lat="44.62015" lon="4.24665">
        <ele>574.04</ele>
        <time>2013-08-24T11:55:12Z</time>
      </trkpt>
      <trkpt lat="44.62002" lon="4.24657">
        <ele>576.93</ele>
        <time>2013-08-24T11:55:24Z</time>
      </trkpt>
      <trkpt lat="44.61991" lon="4.2465">
        <ele>578.37</ele>
        <time>2013-08-24T11:55:29Z</time>
      </trkpt>
      <trkpt lat="44.61986" lon="4.24648">
        <ele>578.85</ele>
        <time>2013-08-24T11:55:33Z</time>
      </trkpt>
      <trkpt lat="44.61979" lon="4.24644">
        <ele>579.33</ele>
        <time>2013-08-24T11:55:38Z</time>
      </trkpt>
      <trkpt lat="44.61975" lon="4.2464">
        <ele>580.77</ele>
        <time>2013-08-24T11:55:43Z</time>
      </trkpt>
      <trkpt lat="44.61966" lon="4.24636">
        <ele>581.73</ele>
        <time>2013-08-24T11:55:55Z</time>
      </trkpt>
      <trkpt lat="44.61962" lon="4.24633">
        <ele>581.73</ele>
        <time>2013-08-24T11:56:04Z</time>
      </trkpt>
      <trkpt lat="44.61961" lon="4.24632">
        <ele>581.73</ele>
        <time>2013-08-24T11:56:06Z</time>
      </trkpt>
      <trkpt lat="44.61951" lon="4.24627">
        <ele>582.7</ele>
        <time>2013-08-24T11:56:17Z</time>
      </trkpt>
      <trkpt lat="44.61946" lon="4.24622">
        <ele>583.18</ele>
        <time>2013-08-24T11:56:22Z</time>
      </trkpt>
      <trkpt lat="44.61937" lon="4.24617">
        <ele>584.14</ele>
        <time>2013-08-24T11:56:28Z</time>
      </trkpt>
      <trkpt lat="44.61921" lon="4.24608">
        <ele>586.54</ele>
        <time>2013-08-24T11:56:43Z</time>
      </trkpt>
      <trkpt lat="44.61911" lon="4.24605">
        <ele>587.5</ele>
        <time>2013-08-24T11:56:51Z</time>
      </trkpt>
      <trkpt lat="44.61907" lon="4.24606">
        <ele>588.46</ele>
        <time>2013-08-24T11:56:54Z</time>
      </trkpt>
      <trkpt lat="44.61906" lon="4.24604">
        <ele>588.95</ele>
        <time>2013-08-24T11:56:55Z</time>
      </trkpt>
      <trkpt lat="44.61894" lon="4.24599">
        <ele>590.87</ele>
        <time>2013-08-24T11:57:06Z</time>
      </trkpt>
      <trkpt lat="44.61883" lon="4.24598">
        <ele>592.31</ele>
        <time>2013-08-24T11:57:20Z</time>
      </trkpt>
      <trkpt lat="44.61883" lon="4.24598">
        <ele>591.83</ele>
        <time>2013-08-24T11:57:38Z</time>
      </trkpt>
      <trkpt lat="44.61883" lon="4.24599">
        <ele>591.83</ele>
        <time>2013-08-24T11:58:06Z</time>
      </trkpt>
      <trkpt lat="44.6188" lon="4.24598">
        <ele>592.79</ele>
        <time>2013-08-24T11:58:16Z</time>
      </trkpt>
      <trkpt lat="44.61864" lon="4.24595">
        <ele>595.19</ele>
        <time>2013-08-24T11:58:28Z</time>
      </trkpt>
      <trkpt lat="44.61863" lon="4.24595">
        <ele>596.15</ele>
        <time>2013-08-24T11:58:29Z</time>
      </trkpt>
      <trkpt lat="44.61858" lon="4.24593">
        <ele>596.64</ele>
        <time>2013-08-24T11:58:33Z</time>
      </trkpt>
      <trkpt lat="44.61844" lon="4.24588">
        <ele>600</ele>
        <time>2013-08-24T11:58:45Z</time>
      </trkpt>
      <trkpt lat="44.61833" lon="4.24588">
        <ele>602.88</ele>
        <time>2013-08-24T11:58:56Z</time>
      </trkpt>
      <trkpt lat="44.61818" lon="4.24582">
        <ele>604.81</ele>
        <time>2013-08-24T11:59:06Z</time>
      </trkpt>
      <trkpt lat="44.61807" lon="4.24579">
        <ele>604.81</ele>
        <time>2013-08-24T11:59:15Z</time>
      </trkpt>
      <trkpt lat="44.61801" lon="4.24569">
        <ele>604.33</ele>
        <time>2013-08-24T11:59:19Z</time>
      </trkpt>
      <trkpt lat="44.61797" lon="4.24561">
        <ele>602.4</ele>
        <time>2013-08-24T11:59:22Z</time>
      </trkpt>
      <trkpt lat="44.61797" lon="4.24559">
        <ele>602.4</ele>
        <time>2013-08-24T11:59:23Z</time>
      </trkpt>
      <trkpt lat="44.61792" lon="4.24556">
        <ele>601.92</ele>
        <time>2013-08-24T11:59:36Z</time>
      </trkpt>
      <trkpt lat="44.61792" lon="4.24556">
        <ele>601.92</ele>
        <time>2013-08-24T12:00:02Z</time>
      </trkpt>
      <trkpt lat="44.61787" lon="4.24552">
        <ele>601.92</ele>
        <time>2013-08-24T12:00:29Z</time>
      </trkpt>
      <trkpt lat="44.61787" lon="4.24552">
        <ele>601.92</ele>
        <time>2013-08-24T12:00:31Z</time>
      </trkpt>
      <trkpt lat="44.6177" lon="4.24543">
        <ele>600.96</ele>
        <time>2013-08-24T12:00:40Z</time>
      </trkpt>
      <trkpt lat="44.6176" lon="4.24533">
        <ele>600.48</ele>
        <time>2013-08-24T12:00:45Z</time>
      </trkpt>
      <trkpt lat="44.61752" lon="4.24529">
        <ele>601.44</ele>
        <time>2013-08-24T12:00:50Z</time>
      </trkpt>
      <trkpt lat="44.61741" lon="4.24529">
        <ele>602.4</ele>
        <time>2013-08-24T12:00:58Z</time>
      </trkpt>
      <trkpt lat="44.61724" lon="4.24522">
        <ele>605.29</ele>
        <time>2013-08-24T12:01:10Z</time>
      </trkpt>
      <trkpt lat="44.61715" lon="4.24518">
        <ele>606.25</ele>
        <time>2013-08-24T12:01:19Z</time>
      </trkpt>
      <trkpt lat="44.61704" lon="4.2451">
        <ele>607.69</ele>
        <time>2013-08-24T12:01:27Z</time>
      </trkpt>
      <trkpt lat="44.61699" lon="4.24502">
        <ele>608.17</ele>
        <time>2013-08-24T12:01:33Z</time>
      </trkpt>
      <trkpt lat="44.61697" lon="4.24494">
        <ele>609.13</ele>
        <time>2013-08-24T12:01:38Z</time>
      </trkpt>
      <trkpt lat="44.61693" lon="4.24485">
        <ele>609.61</ele>
        <time>2013-08-24T12:01:44Z</time>
      </trkpt>
      <trkpt lat="44.6169" lon="4.24473">
        <ele>611.06</ele>
        <time>2013-08-24T12:01:51Z</time>
      </trkpt>
      <trkpt lat="44.61685" lon="4.24466">
        <ele>612.5</ele>
        <time>2013-08-24T12:01:56Z</time>
      </trkpt>
      <trkpt lat="44.61682" lon="4.24465">
        <ele>612.98</ele>
        <time>2013-08-24T12:01:59Z</time>
      </trkpt>
      <trkpt lat="44.61679" lon="4.24463">
        <ele>613.46</ele>
        <time>2013-08-24T12:02:01Z</time>
      </trkpt>
      <trkpt lat="44.61674" lon="4.24461">
        <ele>613.46</ele>
        <time>2013-08-24T12:02:05Z</time>
      </trkpt>
      <trkpt lat="44.61668" lon="4.24463">
        <ele>615.38</ele>
        <time>2013-08-24T12:02:08Z</time>
      </trkpt>
      <trkpt lat="44.61657" lon="4.24464">
        <ele>615.86</ele>
        <time>2013-08-24T12:02:16Z</time>
      </trkpt>
      <trkpt lat="44.61654" lon="4.24467">
        <ele>616.34</ele>
        <time>2013-08-24T12:02:20Z</time>
      </trkpt>
      <trkpt lat="44.6165" lon="4.24471">
        <ele>617.3</ele>
        <time>2013-08-24T12:02:24Z</time>
      </trkpt>
      <trkpt lat="44.61649" lon="4.24472">
        <ele>617.3</ele>
        <time>2013-08-24T12:02:25Z</time>
      </trkpt>
      <trkpt lat="44.61646" lon="4.24474">
        <ele>618.26</ele>
        <time>2013-08-24T12:02:28Z</time>
      </trkpt>
      <trkpt lat="44.61644" lon="4.24476">
        <ele>618.26</ele>
        <time>2013-08-24T12:02:29Z</time>
      </trkpt>
      <trkpt lat="44.61641" lon="4.24478">
        <ele>618.75</ele>
        <time>2013-08-24T12:02:32Z</time>
      </trkpt>
      <trkpt lat="44.61627" lon="4.24475">
        <ele>620.67</ele>
        <time>2013-08-24T12:02:43Z</time>
      </trkpt>
      <trkpt lat="44.61624" lon="4.24472">
        <ele>621.63</ele>
        <time>2013-08-24T12:02:47Z</time>
      </trkpt>
      <trkpt lat="44.61623" lon="4.24467">
        <ele>621.63</ele>
        <time>2013-08-24T12:02:50Z</time>
      </trkpt>
      <trkpt lat="44.61622" lon="4.24465">
        <ele>622.11</ele>
        <time>2013-08-24T12:02:51Z</time>
      </trkpt>
      <trkpt lat="44.61621" lon="4.2446">
        <ele>622.59</ele>
        <time>2013-08-24T12:02:55Z</time>
      </trkpt>
      <trkpt lat="44.61622" lon="4.24458">
        <ele>623.07</ele>
        <time>2013-08-24T12:02:57Z</time>
      </trkpt>
      <trkpt lat="44.61614" lon="4.24435">
        <ele>624.51</ele>
        <time>2013-08-24T12:03:09Z</time>
      </trkpt>
      <trkpt lat="44.6161" lon="4.2443">
        <ele>624.99</ele>
        <time>2013-08-24T12:03:13Z</time>
      </trkpt>
      <trkpt lat="44.61607" lon="4.24427">
        <ele>624.99</ele>
        <time>2013-08-24T12:03:15Z</time>
      </trkpt>
      <trkpt lat="44.61603" lon="4.24424">
        <ele>626.44</ele>
        <time>2013-08-24T12:03:19Z</time>
      </trkpt>
      <trkpt lat="44.61597" lon="4.24416">
        <ele>626.92</ele>
        <time>2013-08-24T12:03:25Z</time>
      </trkpt>
      <trkpt lat="44.61588" lon="4.24412">
        <ele>628.84</ele>
        <time>2013-08-24T12:03:34Z</time>
      </trkpt>
      <trkpt lat="44.61585" lon="4.24409">
        <ele>628.84</ele>
        <time>2013-08-24T12:03:37Z</time>
      </trkpt>
      <trkpt lat="44.61581" lon="4.24408">
        <ele>629.32</ele>
        <time>2013-08-24T12:03:40Z</time>
      </trkpt>
      <trkpt lat="44.61576" lon="4.24406">
        <ele>629.8</ele>
        <time>2013-08-24T12:03:45Z</time>
      </trkpt>
      <trkpt lat="44.61557" lon="4.24405">
        <ele>632.68</ele>
        <time>2013-08-24T12:03:58Z</time>
      </trkpt>
      <trkpt lat="44.61544" lon="4.24407">
        <ele>634.61</ele>
        <time>2013-08-24T12:04:07Z</time>
      </trkpt>
      <trkpt lat="44.61541" lon="4.24406">
        <ele>634.61</ele>
        <time>2013-08-24T12:04:09Z</time>
      </trkpt>
      <trkpt lat="44.61538" lon="4.24406">
        <ele>635.09</ele>
        <time>2013-08-24T12:04:12Z</time>
      </trkpt>
      <trkpt lat="44.6152" lon="4.24422">
        <ele>636.05</ele>
        <time>2013-08-24T12:04:18Z</time>
      </trkpt>
      <trkpt lat="44.61503" lon="4.24429">
        <ele>638.93</ele>
        <time>2013-08-24T12:04:33Z</time>
      </trkpt>
      <trkpt lat="44.6149" lon="4.24436">
        <ele>640.86</ele>
        <time>2013-08-24T12:04:44Z</time>
      </trkpt>
      <trkpt lat="44.6148" lon="4.24441">
        <ele>642.3</ele>
        <time>2013-08-24T12:04:53Z</time>
      </trkpt>
      <trkpt lat="44.61478" lon="4.24442">
        <ele>642.78</ele>
        <time>2013-08-24T12:04:55Z</time>
      </trkpt>
      <trkpt lat="44.61466" lon="4.24451">
        <ele>645.18</ele>
        <time>2013-08-24T12:05:07Z</time>
      </trkpt>
      <trkpt lat="44.61459" lon="4.24455">
        <ele>646.14</ele>
        <time>2013-08-24T12:05:12Z</time>
      </trkpt>
      <trkpt lat="44.61459" lon="4.24462">
        <ele>647.59</ele>
        <time>2013-08-24T12:05:24Z</time>
      </trkpt>
      <trkpt lat="44.61459" lon="4.2446">
        <ele>647.59</ele>
        <time>2013-08-24T12:05:41Z</time>
      </trkpt>
      <trkpt lat="44.61459" lon="4.24459">
        <ele>647.59</ele>
        <time>2013-08-24T12:06:00Z</time>
      </trkpt>
      <trkpt lat="44.61459" lon="4.24459">
        <ele>648.07</ele>
        <time>2013-08-24T12:06:32Z</time>
      </trkpt>
      <trkpt lat="44.6146" lon="4.24459">
        <ele>648.07</ele>
        <time>2013-08-24T12:07:03Z</time>
      </trkpt>
      <trkpt lat="44.6146" lon="4.24458">
        <ele>647.59</ele>
        <time>2013-08-24T12:07:35Z</time>
      </trkpt>
      <trkpt lat="44.6146" lon="4.24458">
        <ele>648.07</ele>
        <time>2013-08-24T12:07:40Z</time>
      </trkpt>
      <trkpt lat="44.61468" lon="4.24459">
        <ele>649.03</ele>
        <time>2013-08-24T12:07:51Z</time>
      </trkpt>
      <trkpt lat="44.61478" lon="4.24461">
        <ele>650.95</ele>
        <time>2013-08-24T12:08:02Z</time>
      </trkpt>
      <trkpt lat="44.6149" lon="4.2447">
        <ele>652.39</ele>
        <time>2013-08-24T12:08:11Z</time>
      </trkpt>
      <trkpt lat="44.61501" lon="4.24478">
        <ele>654.31</ele>
        <time>2013-08-24T12:08:19Z</time>
      </trkpt>
      <trkpt lat="44.61511" lon="4.24498">
        <ele>656.24</ele>
        <time>2013-08-24T12:08:31Z</time>
      </trkpt>
      <trkpt lat="44.61509" lon="4.24512">
        <ele>657.68</ele>
        <time>2013-08-24T12:08:39Z</time>
      </trkpt>
      <trkpt lat="44.61508" lon="4.24518">
        <ele>658.16</ele>
        <time>2013-08-24T12:08:42Z</time>
      </trkpt>
      <trkpt lat="44.61503" lon="4.24541">
        <ele>660.56</ele>
        <time>2013-08-24T12:08:56Z</time>
      </trkpt>
      <trkpt lat="44.61508" lon="4.24561">
        <ele>662.49</ele>
        <time>2013-08-24T12:09:08Z</time>
      </trkpt>
      <trkpt lat="44.61511" lon="4.24585">
        <ele>663.45</ele>
        <time>2013-08-24T12:09:19Z</time>
      </trkpt>
      <trkpt lat="44.61511" lon="4.24588">
        <ele>663.93</ele>
        <time>2013-08-24T12:09:21Z</time>
      </trkpt>
      <trkpt lat="44.61512" lon="4.24602">
        <ele>664.41</ele>
        <time>2013-08-24T12:09:26Z</time>
      </trkpt>
      <trkpt lat="44.61512" lon="4.24606">
        <ele>664.41</ele>
        <time>2013-08-24T12:09:28Z</time>
      </trkpt>
      <trkpt lat="44.61509" lon="4.2461">
        <ele>665.37</ele>
        <time>2013-08-24T12:09:31Z</time>
      </trkpt>
      <trkpt lat="44.61505" lon="4.24608">
        <ele>665.85</ele>
        <time>2013-08-24T12:09:35Z</time>
      </trkpt>
      <trkpt lat="44.61494" lon="4.24591">
        <ele>667.29</ele>
        <time>2013-08-24T12:09:49Z</time>
      </trkpt>
      <trkpt lat="44.61485" lon="4.24577">
        <ele>670.18</ele>
        <time>2013-08-24T12:10:00Z</time>
      </trkpt>
      <trkpt lat="44.61478" lon="4.24562">
        <ele>671.14</ele>
        <time>2013-08-24T12:10:10Z</time>
      </trkpt>
      <trkpt lat="44.61473" lon="4.2455">
        <ele>671.62</ele>
        <time>2013-08-24T12:10:16Z</time>
      </trkpt>
      <trkpt lat="44.6147" lon="4.24545">
        <ele>672.1</ele>
        <time>2013-08-24T12:10:19Z</time>
      </trkpt>
      <trkpt lat="44.61458" lon="4.24536">
        <ele>674.02</ele>
        <time>2013-08-24T12:10:31Z</time>
      </trkpt>
      <trkpt lat="44.61446" lon="4.24536">
        <ele>675.46</ele>
        <time>2013-08-24T12:10:40Z</time>
      </trkpt>
      <trkpt lat="44.61445" lon="4.24535">
        <ele>675.46</ele>
        <time>2013-08-24T12:10:41Z</time>
      </trkpt>
      <trkpt lat="44.61431" lon="4.24539">
        <ele>676.91</ele>
        <time>2013-08-24T12:10:50Z</time>
      </trkpt>
      <trkpt lat="44.61429" lon="4.24541">
        <ele>677.39</ele>
        <time>2013-08-24T12:10:52Z</time>
      </trkpt>
      <trkpt lat="44.61417" lon="4.24545">
        <ele>678.83</ele>
        <time>2013-08-24T12:11:01Z</time>
      </trkpt>
      <trkpt lat="44.61414" lon="4.24545">
        <ele>679.31</ele>
        <time>2013-08-24T12:11:04Z</time>
      </trkpt>
      <trkpt lat="44.61399" lon="4.24545">
        <ele>679.79</ele>
        <time>2013-08-24T12:11:16Z</time>
      </trkpt>
      <trkpt lat="44.61393" lon="4.24545">
        <ele>681.23</ele>
        <time>2013-08-24T12:11:21Z</time>
      </trkpt>
      <trkpt lat="44.61377" lon="4.24558">
        <ele>681.71</ele>
        <time>2013-08-24T12:11:33Z</time>
      </trkpt>
      <trkpt lat="44.61363" lon="4.24558">
        <ele>684.12</ele>
        <time>2013-08-24T12:11:43Z</time>
      </trkpt>
      <trkpt lat="44.61347" lon="4.2456">
        <ele>685.08</ele>
        <time>2013-08-24T12:11:52Z</time>
      </trkpt>
      <trkpt lat="44.61333" lon="4.24551">
        <ele>686.04</ele>
        <time>2013-08-24T12:12:03Z</time>
      </trkpt>
      <trkpt lat="44.61328" lon="4.24544">
        <ele>687</ele>
        <time>2013-08-24T12:12:08Z</time>
      </trkpt>
      <trkpt lat="44.61313" lon="4.2453">
        <ele>689.4</ele>
        <time>2013-08-24T12:12:21Z</time>
      </trkpt>
      <trkpt lat="44.61309" lon="4.24516">
        <ele>690.36</ele>
        <time>2013-08-24T12:12:31Z</time>
      </trkpt>
      <trkpt lat="44.61308" lon="4.24496">
        <ele>692.29</ele>
        <time>2013-08-24T12:12:44Z</time>
      </trkpt>
      <trkpt lat="44.613" lon="4.24482">
        <ele>694.21</ele>
        <time>2013-08-24T12:12:53Z</time>
      </trkpt>
      <trkpt lat="44.61287" lon="4.24469">
        <ele>696.13</ele>
        <time>2013-08-24T12:13:06Z</time>
      </trkpt>
      <trkpt lat="44.61274" lon="4.24465">
        <ele>697.57</ele>
        <time>2013-08-24T12:13:18Z</time>
      </trkpt>
      <trkpt lat="44.61259" lon="4.2446">
        <ele>699.98</ele>
        <time>2013-08-24T12:13:31Z</time>
      </trkpt>
      <trkpt lat="44.61257" lon="4.24459">
        <ele>700.46</ele>
        <time>2013-08-24T12:13:32Z</time>
      </trkpt>
      <trkpt lat="44.61241" lon="4.24447">
        <ele>702.38</ele>
        <time>2013-08-24T12:13:46Z</time>
      </trkpt>
      <trkpt lat="44.61237" lon="4.24442">
        <ele>703.34</ele>
        <time>2013-08-24T12:13:51Z</time>
      </trkpt>
      <trkpt lat="44.61217" lon="4.24425">
        <ele>706.71</ele>
        <time>2013-08-24T12:14:06Z</time>
      </trkpt>
      <trkpt lat="44.61201" lon="4.24421">
        <ele>707.67</ele>
        <time>2013-08-24T12:14:16Z</time>
      </trkpt>
      <trkpt lat="44.61194" lon="4.24423">
        <ele>708.15</ele>
        <time>2013-08-24T12:14:20Z</time>
      </trkpt>
      <trkpt lat="44.61173" lon="4.24425">
        <ele>710.07</ele>
        <time>2013-08-24T12:14:35Z</time>
      </trkpt>
      <trkpt lat="44.61165" lon="4.24424">
        <ele>711.03</ele>
        <time>2013-08-24T12:14:40Z</time>
      </trkpt>
      <trkpt lat="44.6116" lon="4.24425">
        <ele>712.47</ele>
        <time>2013-08-24T12:14:44Z</time>
      </trkpt>
      <trkpt lat="44.61157" lon="4.24425">
        <ele>712.47</ele>
        <time>2013-08-24T12:14:46Z</time>
      </trkpt>
      <trkpt lat="44.61151" lon="4.24425">
        <ele>712.47</ele>
        <time>2013-08-24T12:14:50Z</time>
      </trkpt>
      <trkpt lat="44.61145" lon="4.24424">
        <ele>712.95</ele>
        <time>2013-08-24T12:14:54Z</time>
      </trkpt>
      <trkpt lat="44.61132" lon="4.24419">
        <ele>714.4</ele>
        <time>2013-08-24T12:15:05Z</time>
      </trkpt>
      <trkpt lat="44.61128" lon="4.24418">
        <ele>715.84</ele>
        <time>2013-08-24T12:15:10Z</time>
      </trkpt>
      <trkpt lat="44.61123" lon="4.24416">
        <ele>716.32</ele>
        <time>2013-08-24T12:15:13Z</time>
      </trkpt>
      <trkpt lat="44.6111" lon="4.24404">
        <ele>718.24</ele>
        <time>2013-08-24T12:15:25Z</time>
      </trkpt>
      <trkpt lat="44.61103" lon="4.24394">
        <ele>719.68</ele>
        <time>2013-08-24T12:15:33Z</time>
      </trkpt>
      <trkpt lat="44.61108" lon="4.24364">
        <ele>721.13</ele>
        <time>2013-08-24T12:15:47Z</time>
      </trkpt>
      <trkpt lat="44.61108" lon="4.24358">
        <ele>721.61</ele>
        <time>2013-08-24T12:15:50Z</time>
      </trkpt>
      <trkpt lat="44.61108" lon="4.24339">
        <ele>723.05</ele>
        <time>2013-08-24T12:15:59Z</time>
      </trkpt>
      <trkpt lat="44.6111" lon="4.24327">
        <ele>723.05</ele>
        <time>2013-08-24T12:16:05Z</time>
      </trkpt>
      <trkpt lat="44.61112" lon="4.24317">
        <ele>724.49</ele>
        <time>2013-08-24T12:16:10Z</time>
      </trkpt>
      <trkpt lat="44.61112" lon="4.24306">
        <ele>725.45</ele>
        <time>2013-08-24T12:16:16Z</time>
      </trkpt>
      <trkpt lat="44.61114" lon="4.24295">
        <ele>725.93</ele>
        <time>2013-08-24T12:16:22Z</time>
      </trkpt>
      <trkpt lat="44.6112" lon="4.24271">
        <ele>727.86</ele>
        <time>2013-08-24T12:16:36Z</time>
      </trkpt>
      <trkpt lat="44.6113" lon="4.24258">
        <ele>729.3</ele>
        <time>2013-08-24T12:16:47Z</time>
      </trkpt>
      <trkpt lat="44.61141" lon="4.2424">
        <ele>730.26</ele>
        <time>2013-08-24T12:16:59Z</time>
      </trkpt>
      <trkpt lat="44.61152" lon="4.2422">
        <ele>732.18</ele>
        <time>2013-08-24T12:17:13Z</time>
      </trkpt>
      <trkpt lat="44.61161" lon="4.24199">
        <ele>734.1</ele>
        <time>2013-08-24T12:17:24Z</time>
      </trkpt>
      <trkpt lat="44.61161" lon="4.24197">
        <ele>734.58</ele>
        <time>2013-08-24T12:17:25Z</time>
      </trkpt>
      <trkpt lat="44.61166" lon="4.24186">
        <ele>735.07</ele>
        <time>2013-08-24T12:17:31Z</time>
      </trkpt>
      <trkpt lat="44.61173" lon="4.24158">
        <ele>736.51</ele>
        <time>2013-08-24T12:17:46Z</time>
      </trkpt>
      <trkpt lat="44.61176" lon="4.24133">
        <ele>738.91</ele>
        <time>2013-08-24T12:17:59Z</time>
      </trkpt>
      <trkpt lat="44.61176" lon="4.24131">
        <ele>738.91</ele>
        <time>2013-08-24T12:18:00Z</time>
      </trkpt>
      <trkpt lat="44.61186" lon="4.24101">
        <ele>740.83</ele>
        <time>2013-08-24T12:18:16Z</time>
      </trkpt>
      <trkpt lat="44.61184" lon="4.24088">
        <ele>741.79</ele>
        <time>2013-08-24T12:18:23Z</time>
      </trkpt>
      <trkpt lat="44.61182" lon="4.2408">
        <ele>742.28</ele>
        <time>2013-08-24T12:18:29Z</time>
      </trkpt>
      <trkpt lat="44.61179" lon="4.24077">
        <ele>743.24</ele>
        <time>2013-08-24T12:18:42Z</time>
      </trkpt>
      <trkpt lat="44.61179" lon="4.24076">
        <ele>743.24</ele>
        <time>2013-08-24T12:19:14Z</time>
      </trkpt>
      <trkpt lat="44.61179" lon="4.24076">
        <ele>742.76</ele>
        <time>2013-08-24T12:19:52Z</time>
      </trkpt>
      <trkpt lat="44.61179" lon="4.24075">
        <ele>743.24</ele>
        <time>2013-08-24T12:20:33Z</time>
      </trkpt>
      <trkpt lat="44.61179" lon="4.24075">
        <ele>742.76</ele>
        <time>2013-08-24T12:21:23Z</time>
      </trkpt>
      <trkpt lat="44.61179" lon="4.24075">
        <ele>743.24</ele>
        <time>2013-08-24T12:22:01Z</time>
      </trkpt>
      <trkpt lat="44.61179" lon="4.24075">
        <ele>743.72</ele>
        <time>2013-08-24T12:22:40Z</time>
      </trkpt>
      <trkpt lat="44.61179" lon="4.24075">
        <ele>743.72</ele>
        <time>2013-08-24T12:23:15Z</time>
      </trkpt>
      <trkpt lat="44.61179" lon="4.24075">
        <ele>743.72</ele>
        <time>2013-08-24T12:23:50Z</time>
      </trkpt>
      <trkpt lat="44.61179" lon="4.24076">
        <ele>744.68</ele>
        <time>2013-08-24T12:24:01Z</time>
      </trkpt>
      <trkpt lat="44.61171" lon="4.24077">
        <ele>744.68</ele>
        <time>2013-08-24T12:24:07Z</time>
      </trkpt>
      <trkpt lat="44.61155" lon="4.24082">
        <ele>745.16</ele>
        <time>2013-08-24T12:24:19Z</time>
      </trkpt>
      <trkpt lat="44.61146" lon="4.24086">
        <ele>746.12</ele>
        <time>2013-08-24T12:24:25Z</time>
      </trkpt>
      <trkpt lat="44.61127" lon="4.24106">
        <ele>747.56</ele>
        <time>2013-08-24T12:24:41Z</time>
      </trkpt>
      <trkpt lat="44.61102" lon="4.24115">
        <ele>748.52</ele>
        <time>2013-08-24T12:24:55Z</time>
      </trkpt>
      <trkpt lat="44.61089" lon="4.24109">
        <ele>748.04</ele>
        <time>2013-08-24T12:25:02Z</time>
      </trkpt>
      <trkpt lat="44.61067" lon="4.241">
        <ele>749.49</ele>
        <time>2013-08-24T12:25:14Z</time>
      </trkpt>
      <trkpt lat="44.61046" lon="4.24092">
        <ele>750.45</ele>
        <time>2013-08-24T12:25:26Z</time>
      </trkpt>
      <trkpt lat="44.6102" lon="4.24087">
        <ele>751.41</ele>
        <time>2013-08-24T12:25:40Z</time>
      </trkpt>
      <trkpt lat="44.60997" lon="4.24089">
        <ele>752.37</ele>
        <time>2013-08-24T12:25:53Z</time>
      </trkpt>
      <trkpt lat="44.60973" lon="4.24101">
        <ele>754.77</ele>
        <time>2013-08-24T12:26:08Z</time>
      </trkpt>
      <trkpt lat="44.60953" lon="4.24117">
        <ele>755.25</ele>
        <time>2013-08-24T12:26:21Z</time>
      </trkpt>
      <trkpt lat="44.60936" lon="4.24132">
        <ele>757.18</ele>
        <time>2013-08-24T12:26:33Z</time>
      </trkpt>
      <trkpt lat="44.60927" lon="4.24144">
        <ele>758.14</ele>
        <time>2013-08-24T12:26:40Z</time>
      </trkpt>
      <trkpt lat="44.60919" lon="4.24151">
        <ele>758.62</ele>
        <time>2013-08-24T12:26:45Z</time>
      </trkpt>
      <trkpt lat="44.60904" lon="4.24166">
        <ele>760.06</ele>
        <time>2013-08-24T12:26:56Z</time>
      </trkpt>
      <trkpt lat="44.60901" lon="4.24168">
        <ele>761.02</ele>
        <time>2013-08-24T12:26:58Z</time>
      </trkpt>
      <trkpt lat="44.60896" lon="4.24172">
        <ele>761.5</ele>
        <time>2013-08-24T12:27:05Z</time>
      </trkpt>
      <trkpt lat="44.6089" lon="4.24178">
        <ele>761.98</ele>
        <time>2013-08-24T12:27:09Z</time>
      </trkpt>
      <trkpt lat="44.60878" lon="4.2419">
        <ele>762.94</ele>
        <time>2013-08-24T12:27:14Z</time>
      </trkpt>
      <trkpt lat="44.60872" lon="4.24198">
        <ele>763.42</ele>
        <time>2013-08-24T12:27:18Z</time>
      </trkpt>
      <trkpt lat="44.6086" lon="4.24213">
        <ele>763.9</ele>
        <time>2013-08-24T12:27:26Z</time>
      </trkpt>
      <trkpt lat="44.6085" lon="4.2422">
        <ele>764.39</ele>
        <time>2013-08-24T12:27:32Z</time>
      </trkpt>
      <trkpt lat="44.60825" lon="4.24226">
        <ele>765.83</ele>
        <time>2013-08-24T12:27:45Z</time>
      </trkpt>
      <trkpt lat="44.60814" lon="4.24227">
        <ele>767.27</ele>
        <time>2013-08-24T12:27:51Z</time>
      </trkpt>
      <trkpt lat="44.60807" lon="4.24231">
        <ele>767.75</ele>
        <time>2013-08-24T12:27:55Z</time>
      </trkpt>
      <trkpt lat="44.60778" lon="4.24244">
        <ele>769.67</ele>
        <time>2013-08-24T12:28:11Z</time>
      </trkpt>
      <trkpt lat="44.60776" lon="4.24244">
        <ele>770.15</ele>
        <time>2013-08-24T12:28:12Z</time>
      </trkpt>
      <trkpt lat="44.60749" lon="4.24243">
        <ele>771.11</ele>
        <time>2013-08-24T12:28:27Z</time>
      </trkpt>
      <trkpt lat="44.60742" lon="4.24243">
        <ele>771.6</ele>
        <time>2013-08-24T12:28:31Z</time>
      </trkpt>
      <trkpt lat="44.60736" lon="4.24241">
        <ele>772.08</ele>
        <time>2013-08-24T12:28:35Z</time>
      </trkpt>
      <trkpt lat="44.60705" lon="4.24237">
        <ele>773.04</ele>
        <time>2013-08-24T12:28:52Z</time>
      </trkpt>
      <trkpt lat="44.60703" lon="4.24236">
        <ele>773.04</ele>
        <time>2013-08-24T12:28:53Z</time>
      </trkpt>
      <trkpt lat="44.60699" lon="4.24236">
        <ele>773.52</ele>
        <time>2013-08-24T12:28:56Z</time>
      </trkpt>
      <trkpt lat="44.60687" lon="4.2423">
        <ele>773.52</ele>
        <time>2013-08-24T12:29:05Z</time>
      </trkpt>
      <trkpt lat="44.60686" lon="4.24217">
        <ele>774.48</ele>
        <time>2013-08-24T12:29:13Z</time>
      </trkpt>
      <trkpt lat="44.60685" lon="4.24209">
        <ele>774.48</ele>
        <time>2013-08-24T12:29:18Z</time>
      </trkpt>
      <trkpt lat="44.60681" lon="4.24202">
        <ele>774.96</ele>
        <time>2013-08-24T12:29:24Z</time>
      </trkpt>
      <trkpt lat="44.60677" lon="4.24194">
        <ele>775.44</ele>
        <time>2013-08-24T12:29:30Z</time>
      </trkpt>
      <trkpt lat="44.60673" lon="4.24171">
        <ele>777.36</ele>
        <time>2013-08-24T12:29:44Z</time>
      </trkpt>
      <trkpt lat="44.60669" lon="4.24164">
        <ele>777.36</ele>
        <time>2013-08-24T12:29:49Z</time>
      </trkpt>
      <trkpt lat="44.6066" lon="4.2414">
        <ele>779.29</ele>
        <time>2013-08-24T12:30:05Z</time>
      </trkpt>
      <trkpt lat="44.60655" lon="4.24131">
        <ele>779.77</ele>
        <time>2013-08-24T12:30:12Z</time>
      </trkpt>
      <trkpt lat="44.6065" lon="4.24116">
        <ele>781.69</ele>
        <time>2013-08-24T12:30:22Z</time>
      </trkpt>
      <trkpt lat="44.60641" lon="4.2409">
        <ele>783.13</ele>
        <time>2013-08-24T12:30:38Z</time>
      </trkpt>
      <trkpt lat="44.60638" lon="4.24056">
        <ele>786.02</ele>
        <time>2013-08-24T12:30:56Z</time>
      </trkpt>
      <trkpt lat="44.60638" lon="4.24034">
        <ele>787.46</ele>
        <time>2013-08-24T12:31:09Z</time>
      </trkpt>
      <trkpt lat="44.60637" lon="4.24023">
        <ele>788.42</ele>
        <time>2013-08-24T12:31:15Z</time>
      </trkpt>
      <trkpt lat="44.60637" lon="4.24016">
        <ele>787.94</ele>
        <time>2013-08-24T12:31:19Z</time>
      </trkpt>
      <trkpt lat="44.60635" lon="4.24004">
        <ele>789.86</ele>
        <time>2013-08-24T12:31:25Z</time>
      </trkpt>
      <trkpt lat="44.60634" lon="4.23977">
        <ele>790.82</ele>
        <time>2013-08-24T12:31:39Z</time>
      </trkpt>
      <trkpt lat="44.60633" lon="4.23961">
        <ele>791.78</ele>
        <time>2013-08-24T12:31:48Z</time>
      </trkpt>
      <trkpt lat="44.60632" lon="4.23951">
        <ele>792.74</ele>
        <time>2013-08-24T12:31:53Z</time>
      </trkpt>
      <trkpt lat="44.60624" lon="4.23922">
        <ele>794.67</ele>
        <time>2013-08-24T12:32:08Z</time>
      </trkpt>
      <trkpt lat="44.60615" lon="4.23904">
        <ele>795.63</ele>
        <time>2013-08-24T12:32:19Z</time>
      </trkpt>
      <trkpt lat="44.60606" lon="4.23894">
        <ele>796.59</ele>
        <time>2013-08-24T12:32:27Z</time>
      </trkpt>
      <trkpt lat="44.60592" lon="4.23874">
        <ele>798.51</ele>
        <time>2013-08-24T12:32:42Z</time>
      </trkpt>
      <trkpt lat="44.60577" lon="4.23859">
        <ele>799.47</ele>
        <time>2013-08-24T12:32:55Z</time>
      </trkpt>
      <trkpt lat="44.60565" lon="4.23841">
        <ele>801.88</ele>
        <time>2013-08-24T12:33:07Z</time>
      </trkpt>
      <trkpt lat="44.6056" lon="4.23816">
        <ele>803.8</ele>
        <time>2013-08-24T12:33:20Z</time>
      </trkpt>
      <trkpt lat="44.60553" lon="4.23778">
        <ele>807.16</ele>
        <time>2013-08-24T12:33:40Z</time>
      </trkpt>
      <trkpt lat="44.60543" lon="4.23741">
        <ele>809.09</ele>
        <time>2013-08-24T12:33:59Z</time>
      </trkpt>
      <trkpt lat="44.60537" lon="4.23729">
        <ele>810.53</ele>
        <time>2013-08-24T12:34:06Z</time>
      </trkpt>
      <trkpt lat="44.60525" lon="4.23704">
        <ele>811.49</ele>
        <time>2013-08-24T12:34:21Z</time>
      </trkpt>
      <trkpt lat="44.60521" lon="4.23696">
        <ele>812.45</ele>
        <time>2013-08-24T12:34:26Z</time>
      </trkpt>
      <trkpt lat="44.6051" lon="4.23681">
        <ele>813.41</ele>
        <time>2013-08-24T12:34:36Z</time>
      </trkpt>
      <trkpt lat="44.6049" lon="4.23661">
        <ele>815.82</ele>
        <time>2013-08-24T12:34:52Z</time>
      </trkpt>
      <trkpt lat="44.60472" lon="4.23643">
        <ele>818.7</ele>
        <time>2013-08-24T12:35:07Z</time>
      </trkpt>
      <trkpt lat="44.60465" lon="4.23631">
        <ele>819.66</ele>
        <time>2013-08-24T12:35:14Z</time>
      </trkpt>
      <trkpt lat="44.6046" lon="4.23622">
        <ele>821.58</ele>
        <time>2013-08-24T12:35:21Z</time>
      </trkpt>
      <trkpt lat="44.6045" lon="4.23605">
        <ele>823.03</ele>
        <time>2013-08-24T12:35:33Z</time>
      </trkpt>
      <trkpt lat="44.60448" lon="4.23599">
        <ele>823.03</ele>
        <time>2013-08-24T12:35:36Z</time>
      </trkpt>
      <trkpt lat="44.6044" lon="4.2357">
        <ele>824.95</ele>
        <time>2013-08-24T12:35:50Z</time>
      </trkpt>
      <trkpt lat="44.6044" lon="4.23568">
        <ele>824.95</ele>
        <time>2013-08-24T12:35:51Z</time>
      </trkpt>
      <trkpt lat="44.6043" lon="4.23529">
        <ele>826.87</ele>
        <time>2013-08-24T12:36:08Z</time>
      </trkpt>
      <trkpt lat="44.60429" lon="4.23527">
        <ele>827.35</ele>
        <time>2013-08-24T12:36:09Z</time>
      </trkpt>
      <trkpt lat="44.60426" lon="4.23518">
        <ele>828.31</ele>
        <time>2013-08-24T12:36:14Z</time>
      </trkpt>
      <trkpt lat="44.60413" lon="4.2349">
        <ele>829.76</ele>
        <time>2013-08-24T12:36:29Z</time>
      </trkpt>
      <trkpt lat="44.60405" lon="4.23477">
        <ele>831.2</ele>
        <time>2013-08-24T12:36:37Z</time>
      </trkpt>
      <trkpt lat="44.60386" lon="4.23454">
        <ele>833.6</ele>
        <time>2013-08-24T12:36:53Z</time>
      </trkpt>
      <trkpt lat="44.60372" lon="4.23429">
        <ele>835.52</ele>
        <time>2013-08-24T12:37:08Z</time>
      </trkpt>
      <trkpt lat="44.60369" lon="4.23423">
        <ele>836</ele>
        <time>2013-08-24T12:37:11Z</time>
      </trkpt>
      <trkpt lat="44.60363" lon="4.23413">
        <ele>836.96</ele>
        <time>2013-08-24T12:37:17Z</time>
      </trkpt>
      <trkpt lat="44.60348" lon="4.23389">
        <ele>839.37</ele>
        <time>2013-08-24T12:37:31Z</time>
      </trkpt>
      <trkpt lat="44.60341" lon="4.23376">
        <ele>839.85</ele>
        <time>2013-08-24T12:37:39Z</time>
      </trkpt>
      <trkpt lat="44.60328" lon="4.23346">
        <ele>841.77</ele>
        <time>2013-08-24T12:37:55Z</time>
      </trkpt>
      <trkpt lat="44.60312" lon="4.23331">
        <ele>843.69</ele>
        <time>2013-08-24T12:38:09Z</time>
      </trkpt>
      <trkpt lat="44.60295" lon="4.23317">
        <ele>844.66</ele>
        <time>2013-08-24T12:38:21Z</time>
      </trkpt>
      <trkpt lat="44.60292" lon="4.23311">
        <ele>845.14</ele>
        <time>2013-08-24T12:38:24Z</time>
      </trkpt>
      <trkpt lat="44.60289" lon="4.23304">
        <ele>845.62</ele>
        <time>2013-08-24T12:38:28Z</time>
      </trkpt>
      <trkpt lat="44.6029" lon="4.23291">
        <ele>845.62</ele>
        <time>2013-08-24T12:38:36Z</time>
      </trkpt>
      <trkpt lat="44.60295" lon="4.23266">
        <ele>847.54</ele>
        <time>2013-08-24T12:38:51Z</time>
      </trkpt>
      <trkpt lat="44.60295" lon="4.23264">
        <ele>847.54</ele>
        <time>2013-08-24T12:38:52Z</time>
      </trkpt>
      <trkpt lat="44.603" lon="4.23239">
        <ele>848.5</ele>
        <time>2013-08-24T12:39:03Z</time>
      </trkpt>
      <trkpt lat="44.603" lon="4.23208">
        <ele>849.94</ele>
        <time>2013-08-24T12:39:17Z</time>
      </trkpt>
      <trkpt lat="44.603" lon="4.23205">
        <ele>850.42</ele>
        <time>2013-08-24T12:39:18Z</time>
      </trkpt>
      <trkpt lat="44.6029" lon="4.23174">
        <ele>851.87</ele>
        <time>2013-08-24T12:39:34Z</time>
      </trkpt>
      <trkpt lat="44.60286" lon="4.2315">
        <ele>853.31</ele>
        <time>2013-08-24T12:39:45Z</time>
      </trkpt>
      <trkpt lat="44.60283" lon="4.23147">
        <ele>852.83</ele>
        <time>2013-08-24T12:39:47Z</time>
      </trkpt>
      <trkpt lat="44.60281" lon="4.23135">
        <ele>853.79</ele>
        <time>2013-08-24T12:39:53Z</time>
      </trkpt>
      <trkpt lat="44.60281" lon="4.23113">
        <ele>854.27</ele>
        <time>2013-08-24T12:40:05Z</time>
      </trkpt>
      <trkpt lat="44.60289" lon="4.23089">
        <ele>854.27</ele>
        <time>2013-08-24T12:40:20Z</time>
      </trkpt>
      <trkpt lat="44.60292" lon="4.2308">
        <ele>855.23</ele>
        <time>2013-08-24T12:40:24Z</time>
      </trkpt>
      <trkpt lat="44.60295" lon="4.23073">
        <ele>855.23</ele>
        <time>2013-08-24T12:40:28Z</time>
      </trkpt>
      <trkpt lat="44.60303" lon="4.23045">
        <ele>856.67</ele>
        <time>2013-08-24T12:40:42Z</time>
      </trkpt>
      <trkpt lat="44.60305" lon="4.23039">
        <ele>856.19</ele>
        <time>2013-08-24T12:40:45Z</time>
      </trkpt>
      <trkpt lat="44.60308" lon="4.23033">
        <ele>856.67</ele>
        <time>2013-08-24T12:40:49Z</time>
      </trkpt>
      <trkpt lat="44.60312" lon="4.2302">
        <ele>857.63</ele>
        <time>2013-08-24T12:40:56Z</time>
      </trkpt>
      <trkpt lat="44.60314" lon="4.23012">
        <ele>857.63</ele>
        <time>2013-08-24T12:41:00Z</time>
      </trkpt>
      <trkpt lat="44.60324" lon="4.22988">
        <ele>859.56</ele>
        <time>2013-08-24T12:41:15Z</time>
      </trkpt>
      <trkpt lat="44.60329" lon="4.22976">
        <ele>860.04</ele>
        <time>2013-08-24T12:41:22Z</time>
      </trkpt>
      <trkpt lat="44.60338" lon="4.22956">
        <ele>861</ele>
        <time>2013-08-24T12:41:34Z</time>
      </trkpt>
      <trkpt lat="44.60346" lon="4.22931">
        <ele>862.44</ele>
        <time>2013-08-24T12:41:48Z</time>
      </trkpt>
      <trkpt lat="44.60346" lon="4.22921">
        <ele>863.4</ele>
        <time>2013-08-24T12:41:54Z</time>
      </trkpt>
      <trkpt lat="44.60344" lon="4.22903">
        <ele>863.4</ele>
        <time>2013-08-24T12:42:05Z</time>
      </trkpt>
      <trkpt lat="44.60348" lon="4.22881">
        <ele>864.84</ele>
        <time>2013-08-24T12:42:15Z</time>
      </trkpt>
      <trkpt lat="44.6035" lon="4.22865">
        <ele>864.84</ele>
        <time>2013-08-24T12:42:21Z</time>
      </trkpt>
      <trkpt lat="44.60353" lon="4.22856">
        <ele>865.8</ele>
        <time>2013-08-24T12:42:26Z</time>
      </trkpt>
      <trkpt lat="44.60354" lon="4.22848">
        <ele>864.36</ele>
        <time>2013-08-24T12:42:30Z</time>
      </trkpt>
      <trkpt lat="44.60355" lon="4.22843">
        <ele>866.77</ele>
        <time>2013-08-24T12:42:32Z</time>
      </trkpt>
      <trkpt lat="44.60359" lon="4.22817">
        <ele>867.73</ele>
        <time>2013-08-24T12:42:46Z</time>
      </trkpt>
      <trkpt lat="44.60368" lon="4.228">
        <ele>868.69</ele>
        <time>2013-08-24T12:42:56Z</time>
      </trkpt>
      <trkpt lat="44.60376" lon="4.22786">
        <ele>870.13</ele>
        <time>2013-08-24T12:43:05Z</time>
      </trkpt>
      <trkpt lat="44.60389" lon="4.22768">
        <ele>871.57</ele>
        <time>2013-08-24T12:43:19Z</time>
      </trkpt>
      <trkpt lat="44.60397" lon="4.2276">
        <ele>872.53</ele>
        <time>2013-08-24T12:43:26Z</time>
      </trkpt>
      <trkpt lat="44.60404" lon="4.22751">
        <ele>873.01</ele>
        <time>2013-08-24T12:43:32Z</time>
      </trkpt>
      <trkpt lat="44.60422" lon="4.2273">
        <ele>874.46</ele>
        <time>2013-08-24T12:43:47Z</time>
      </trkpt>
      <trkpt lat="44.60425" lon="4.22725">
        <ele>874.94</ele>
        <time>2013-08-24T12:43:50Z</time>
      </trkpt>
      <trkpt lat="44.60436" lon="4.2271">
        <ele>876.38</ele>
        <time>2013-08-24T12:44:02Z</time>
      </trkpt>
      <trkpt lat="44.60452" lon="4.22695">
        <ele>878.3</ele>
        <time>2013-08-24T12:44:16Z</time>
      </trkpt>
      <trkpt lat="44.6046" lon="4.22694">
        <ele>878.78</ele>
        <time>2013-08-24T12:44:21Z</time>
      </trkpt>
      <trkpt lat="44.6047" lon="4.22685">
        <ele>880.22</ele>
        <time>2013-08-24T12:44:28Z</time>
      </trkpt>
      <trkpt lat="44.60489" lon="4.22664">
        <ele>881.67</ele>
        <time>2013-08-24T12:44:43Z</time>
      </trkpt>
      <trkpt lat="44.60494" lon="4.22654">
        <ele>882.15</ele>
        <time>2013-08-24T12:44:48Z</time>
      </trkpt>
      <trkpt lat="44.60498" lon="4.22644">
        <ele>883.11</ele>
        <time>2013-08-24T12:44:54Z</time>
      </trkpt>
      <trkpt lat="44.60511" lon="4.22607">
        <ele>885.03</ele>
        <time>2013-08-24T12:45:13Z</time>
      </trkpt>
      <trkpt lat="44.60515" lon="4.22598">
        <ele>885.51</ele>
        <time>2013-08-24T12:45:18Z</time>
      </trkpt>
      <trkpt lat="44.60516" lon="4.22595">
        <ele>885.51</ele>
        <time>2013-08-24T12:45:20Z</time>
      </trkpt>
      <trkpt lat="44.60517" lon="4.22587">
        <ele>885.51</ele>
        <time>2013-08-24T12:45:24Z</time>
      </trkpt>
      <trkpt lat="44.60522" lon="4.22572">
        <ele>886.95</ele>
        <time>2013-08-24T12:45:32Z</time>
      </trkpt>
      <trkpt lat="44.60532" lon="4.22535">
        <ele>888.88</ele>
        <time>2013-08-24T12:45:50Z</time>
      </trkpt>
      <trkpt lat="44.60534" lon="4.22512">
        <ele>890.32</ele>
        <time>2013-08-24T12:46:01Z</time>
      </trkpt>
      <trkpt lat="44.60522" lon="4.22494">
        <ele>891.76</ele>
        <time>2013-08-24T12:46:14Z</time>
      </trkpt>
      <trkpt lat="44.60508" lon="4.22479">
        <ele>892.72</ele>
        <time>2013-08-24T12:46:27Z</time>
      </trkpt>
      <trkpt lat="44.605" lon="4.2247">
        <ele>893.2</ele>
        <time>2013-08-24T12:46:34Z</time>
      </trkpt>
      <trkpt lat="44.60483" lon="4.22456">
        <ele>894.16</ele>
        <time>2013-08-24T12:46:48Z</time>
      </trkpt>
      <trkpt lat="44.60472" lon="4.22448">
        <ele>898.01</ele>
        <time>2013-08-24T12:46:57Z</time>
      </trkpt>
      <trkpt lat="44.60471" lon="4.22447">
        <ele>892.24</ele>
        <time>2013-08-24T12:46:58Z</time>
      </trkpt>
      <trkpt lat="44.60469" lon="4.22446">
        <ele>895.61</ele>
        <time>2013-08-24T12:46:59Z</time>
      </trkpt>
      <trkpt lat="44.60451" lon="4.22437">
        <ele>897.05</ele>
        <time>2013-08-24T12:47:13Z</time>
      </trkpt>
      <trkpt lat="44.60436" lon="4.22431">
        <ele>898.01</ele>
        <time>2013-08-24T12:47:24Z</time>
      </trkpt>
      <trkpt lat="44.60418" lon="4.22423">
        <ele>899.93</ele>
        <time>2013-08-24T12:47:37Z</time>
      </trkpt>
      <trkpt lat="44.60415" lon="4.22421">
        <ele>900.41</ele>
        <time>2013-08-24T12:47:40Z</time>
      </trkpt>
      <trkpt lat="44.60409" lon="4.22418">
        <ele>900.41</ele>
        <time>2013-08-24T12:47:44Z</time>
      </trkpt>
      <trkpt lat="44.60388" lon="4.22408">
        <ele>902.33</ele>
        <time>2013-08-24T12:47:59Z</time>
      </trkpt>
      <trkpt lat="44.60374" lon="4.22402">
        <ele>903.3</ele>
        <time>2013-08-24T12:48:09Z</time>
      </trkpt>
      <trkpt lat="44.60365" lon="4.22397">
        <ele>904.74</ele>
        <time>2013-08-24T12:48:16Z</time>
      </trkpt>
      <trkpt lat="44.60342" lon="4.22387">
        <ele>907.14</ele>
        <time>2013-08-24T12:48:32Z</time>
      </trkpt>
      <trkpt lat="44.60336" lon="4.22386">
        <ele>908.1</ele>
        <time>2013-08-24T12:48:36Z</time>
      </trkpt>
      <trkpt lat="44.60333" lon="4.22385">
        <ele>908.1</ele>
        <time>2013-08-24T12:48:38Z</time>
      </trkpt>
      <trkpt lat="44.60327" lon="4.22385">
        <ele>908.1</ele>
        <time>2013-08-24T12:48:42Z</time>
      </trkpt>
      <trkpt lat="44.60322" lon="4.22382">
        <ele>908.58</ele>
        <time>2013-08-24T12:48:46Z</time>
      </trkpt>
      <trkpt lat="44.6031" lon="4.22381">
        <ele>910.03</ele>
        <time>2013-08-24T12:48:54Z</time>
      </trkpt>
      <trkpt lat="44.60299" lon="4.22378">
        <ele>910.51</ele>
        <time>2013-08-24T12:49:02Z</time>
      </trkpt>
      <trkpt lat="44.60288" lon="4.22374">
        <ele>911.95</ele>
        <time>2013-08-24T12:49:10Z</time>
      </trkpt>
      <trkpt lat="44.60275" lon="4.22372">
        <ele>912.43</ele>
        <time>2013-08-24T12:49:19Z</time>
      </trkpt>
      <trkpt lat="44.60268" lon="4.22373">
        <ele>913.87</ele>
        <time>2013-08-24T12:49:24Z</time>
      </trkpt>
      <trkpt lat="44.60263" lon="4.22372">
        <ele>913.39</ele>
        <time>2013-08-24T12:49:28Z</time>
      </trkpt>
      <trkpt lat="44.6026" lon="4.22373">
        <ele>913.87</ele>
        <time>2013-08-24T12:49:30Z</time>
      </trkpt>
      <trkpt lat="44.60257" lon="4.22373">
        <ele>913.87</ele>
        <time>2013-08-24T12:49:32Z</time>
      </trkpt>
      <trkpt lat="44.60248" lon="4.2237">
        <ele>914.35</ele>
        <time>2013-08-24T12:49:39Z</time>
      </trkpt>
      <trkpt lat="44.60226" lon="4.22361">
        <ele>916.27</ele>
        <time>2013-08-24T12:49:54Z</time>
      </trkpt>
      <trkpt lat="44.60204" lon="4.2235">
        <ele>917.72</ele>
        <time>2013-08-24T12:50:09Z</time>
      </trkpt>
      <trkpt lat="44.60188" lon="4.22341">
        <ele>920.12</ele>
        <time>2013-08-24T12:50:21Z</time>
      </trkpt>
      <trkpt lat="44.60181" lon="4.22337">
        <ele>920.12</ele>
        <time>2013-08-24T12:50:26Z</time>
      </trkpt>
      <trkpt lat="44.60162" lon="4.22328">
        <ele>922.04</ele>
        <time>2013-08-24T12:50:39Z</time>
      </trkpt>
      <trkpt lat="44.6016" lon="4.22326">
        <ele>923</ele>
        <time>2013-08-24T12:50:41Z</time>
      </trkpt>
      <trkpt lat="44.60156" lon="4.22321">
        <ele>923.48</ele>
        <time>2013-08-24T12:50:45Z</time>
      </trkpt>
      <trkpt lat="44.60151" lon="4.22306">
        <ele>924.93</ele>
        <time>2013-08-24T12:50:54Z</time>
      </trkpt>
      <trkpt lat="44.60151" lon="4.22303">
        <ele>925.41</ele>
        <time>2013-08-24T12:50:56Z</time>
      </trkpt>
      <trkpt lat="44.60144" lon="4.2228">
        <ele>927.33</ele>
        <time>2013-08-24T12:51:10Z</time>
      </trkpt>
      <trkpt lat="44.60143" lon="4.22279">
        <ele>926.85</ele>
        <time>2013-08-24T12:51:11Z</time>
      </trkpt>
      <trkpt lat="44.6014" lon="4.22274">
        <ele>927.81</ele>
        <time>2013-08-24T12:51:14Z</time>
      </trkpt>
      <trkpt lat="44.60128" lon="4.22244">
        <ele>929.25</ele>
        <time>2013-08-24T12:51:28Z</time>
      </trkpt>
      <trkpt lat="44.60117" lon="4.22222">
        <ele>931.17</ele>
        <time>2013-08-24T12:51:40Z</time>
      </trkpt>
      <trkpt lat="44.60099" lon="4.22205">
        <ele>932.62</ele>
        <time>2013-08-24T12:51:55Z</time>
      </trkpt>
      <trkpt lat="44.60082" lon="4.222">
        <ele>933.58</ele>
        <time>2013-08-24T12:52:07Z</time>
      </trkpt>
      <trkpt lat="44.60076" lon="4.22199">
        <ele>934.54</ele>
        <time>2013-08-24T12:52:11Z</time>
      </trkpt>
      <trkpt lat="44.60066" lon="4.22191">
        <ele>935.02</ele>
        <time>2013-08-24T12:52:20Z</time>
      </trkpt>
      <trkpt lat="44.60061" lon="4.2217">
        <ele>935.98</ele>
        <time>2013-08-24T12:52:30Z</time>
      </trkpt>
      <trkpt lat="44.60065" lon="4.2214">
        <ele>936.94</ele>
        <time>2013-08-24T12:52:43Z</time>
      </trkpt>
      <trkpt lat="44.60064" lon="4.22129">
        <ele>937.42</ele>
        <time>2013-08-24T12:52:49Z</time>
      </trkpt>
      <trkpt lat="44.60064" lon="4.22118">
        <ele>938.38</ele>
        <time>2013-08-24T12:52:54Z</time>
      </trkpt>
      <trkpt lat="44.60055" lon="4.22096">
        <ele>939.83</ele>
        <time>2013-08-24T12:53:06Z</time>
      </trkpt>
      <trkpt lat="44.60053" lon="4.22088">
        <ele>940.31</ele>
        <time>2013-08-24T12:53:10Z</time>
      </trkpt>
      <trkpt lat="44.60051" lon="4.2208">
        <ele>941.27</ele>
        <time>2013-08-24T12:53:14Z</time>
      </trkpt>
      <trkpt lat="44.60049" lon="4.22069">
        <ele>941.27</ele>
        <time>2013-08-24T12:53:20Z</time>
      </trkpt>
      <trkpt lat="44.60054" lon="4.22046">
        <ele>942.71</ele>
        <time>2013-08-24T12:53:32Z</time>
      </trkpt>
      <trkpt lat="44.60058" lon="4.22045">
        <ele>943.19</ele>
        <time>2013-08-24T12:53:37Z</time>
      </trkpt>
      <trkpt lat="44.60074" lon="4.22037">
        <ele>944.63</ele>
        <time>2013-08-24T12:53:51Z</time>
      </trkpt>
      <trkpt lat="44.60077" lon="4.22036">
        <ele>944.63</ele>
        <time>2013-08-24T12:53:53Z</time>
      </trkpt>
      <trkpt lat="44.60079" lon="4.22035">
        <ele>945.11</ele>
        <time>2013-08-24T12:53:55Z</time>
      </trkpt>
      <trkpt lat="44.60094" lon="4.22026">
        <ele>946.56</ele>
        <time>2013-08-24T12:54:07Z</time>
      </trkpt>
      <trkpt lat="44.60106" lon="4.22015">
        <ele>948</ele>
        <time>2013-08-24T12:54:14Z</time>
      </trkpt>
      <trkpt lat="44.60125" lon="4.2201">
        <ele>949.92</ele>
        <time>2013-08-24T12:54:25Z</time>
      </trkpt>
      <trkpt lat="44.60143" lon="4.21991">
        <ele>951.84</ele>
        <time>2013-08-24T12:54:34Z</time>
      </trkpt>
      <trkpt lat="44.60163" lon="4.2197">
        <ele>952.8</ele>
        <time>2013-08-24T12:54:47Z</time>
      </trkpt>
      <trkpt lat="44.60167" lon="4.21951">
        <ele>953.28</ele>
        <time>2013-08-24T12:54:56Z</time>
      </trkpt>
      <trkpt lat="44.60164" lon="4.21941">
        <ele>953.28</ele>
        <time>2013-08-24T12:55:01Z</time>
      </trkpt>
      <trkpt lat="44.60164" lon="4.21937">
        <ele>953.77</ele>
        <time>2013-08-24T12:55:03Z</time>
      </trkpt>
      <trkpt lat="44.60161" lon="4.21926">
        <ele>954.73</ele>
        <time>2013-08-24T12:55:09Z</time>
      </trkpt>
      <trkpt lat="44.60154" lon="4.21906">
        <ele>956.65</ele>
        <time>2013-08-24T12:55:20Z</time>
      </trkpt>
      <trkpt lat="44.6015" lon="4.21898">
        <ele>957.61</ele>
        <time>2013-08-24T12:55:25Z</time>
      </trkpt>
      <trkpt lat="44.60147" lon="4.21886">
        <ele>958.57</ele>
        <time>2013-08-24T12:55:31Z</time>
      </trkpt>
      <trkpt lat="44.60143" lon="4.21879">
        <ele>959.05</ele>
        <time>2013-08-24T12:55:35Z</time>
      </trkpt>
      <trkpt lat="44.60135" lon="4.21856">
        <ele>960.49</ele>
        <time>2013-08-24T12:55:48Z</time>
      </trkpt>
      <trkpt lat="44.60134" lon="4.21853">
        <ele>960.98</ele>
        <time>2013-08-24T12:55:50Z</time>
      </trkpt>
      <trkpt lat="44.60125" lon="4.2183">
        <ele>962.9</ele>
        <time>2013-08-24T12:56:01Z</time>
      </trkpt>
      <trkpt lat="44.60124" lon="4.21825">
        <ele>963.38</ele>
        <time>2013-08-24T12:56:03Z</time>
      </trkpt>
      <trkpt lat="44.60118" lon="4.21816">
        <ele>963.86</ele>
        <time>2013-08-24T12:56:09Z</time>
      </trkpt>
      <trkpt lat="44.60101" lon="4.21799">
        <ele>966.74</ele>
        <time>2013-08-24T12:56:23Z</time>
      </trkpt>
      <trkpt lat="44.60099" lon="4.21797">
        <ele>966.74</ele>
        <time>2013-08-24T12:56:25Z</time>
      </trkpt>
      <trkpt lat="44.60097" lon="4.21789">
        <ele>967.22</ele>
        <time>2013-08-24T12:56:30Z</time>
      </trkpt>
      <trkpt lat="44.60098" lon="4.21783">
        <ele>967.7</ele>
        <time>2013-08-24T12:56:32Z</time>
      </trkpt>
      <trkpt lat="44.60099" lon="4.2178">
        <ele>967.7</ele>
        <time>2013-08-24T12:56:34Z</time>
      </trkpt>
      <trkpt lat="44.60103" lon="4.21774">
        <ele>968.18</ele>
        <time>2013-08-24T12:56:40Z</time>
      </trkpt>
      <trkpt lat="44.60109" lon="4.21767">
        <ele>969.15</ele>
        <time>2013-08-24T12:56:47Z</time>
      </trkpt>
      <trkpt lat="44.60118" lon="4.21755">
        <ele>970.59</ele>
        <time>2013-08-24T12:56:56Z</time>
      </trkpt>
      <trkpt lat="44.60134" lon="4.21738">
        <ele>971.55</ele>
        <time>2013-08-24T12:57:11Z</time>
      </trkpt>
      <trkpt lat="44.60152" lon="4.21721">
        <ele>973.47</ele>
        <time>2013-08-24T12:57:24Z</time>
      </trkpt>
      <trkpt lat="44.60161" lon="4.21717">
        <ele>973.95</ele>
        <time>2013-08-24T12:57:29Z</time>
      </trkpt>
      <trkpt lat="44.60167" lon="4.21713">
        <ele>974.91</ele>
        <time>2013-08-24T12:57:33Z</time>
      </trkpt>
      <trkpt lat="44.6017" lon="4.21711">
        <ele>975.39</ele>
        <time>2013-08-24T12:57:35Z</time>
      </trkpt>
      <trkpt lat="44.60179" lon="4.21704">
        <ele>975.39</ele>
        <time>2013-08-24T12:57:41Z</time>
      </trkpt>
      <trkpt lat="44.60185" lon="4.217">
        <ele>975.39</ele>
        <time>2013-08-24T12:57:45Z</time>
      </trkpt>
      <trkpt lat="44.60189" lon="4.21692">
        <ele>975.39</ele>
        <time>2013-08-24T12:57:50Z</time>
      </trkpt>
      <trkpt lat="44.60193" lon="4.21687">
        <ele>976.84</ele>
        <time>2013-08-24T12:57:53Z</time>
      </trkpt>
      <trkpt lat="44.60204" lon="4.21658">
        <ele>978.28</ele>
        <time>2013-08-24T12:58:09Z</time>
      </trkpt>
      <trkpt lat="44.6022" lon="4.2163">
        <ele>980.68</ele>
        <time>2013-08-24T12:58:25Z</time>
      </trkpt>
      <trkpt lat="44.6022" lon="4.21628">
        <ele>980.68</ele>
        <time>2013-08-24T12:58:26Z</time>
      </trkpt>
      <trkpt lat="44.60226" lon="4.21621">
        <ele>981.64</ele>
        <time>2013-08-24T12:58:31Z</time>
      </trkpt>
      <trkpt lat="44.60229" lon="4.21604">
        <ele>982.12</ele>
        <time>2013-08-24T12:58:45Z</time>
      </trkpt>
      <trkpt lat="44.60228" lon="4.21604">
        <ele>982.6</ele>
        <time>2013-08-24T12:58:50Z</time>
      </trkpt>
      <trkpt lat="44.60217" lon="4.21588">
        <ele>984.05</ele>
        <time>2013-08-24T12:59:01Z</time>
      </trkpt>
      <trkpt lat="44.6021" lon="4.21579">
        <ele>985.97</ele>
        <time>2013-08-24T12:59:08Z</time>
      </trkpt>
      <trkpt lat="44.60198" lon="4.21574">
        <ele>986.93</ele>
        <time>2013-08-24T12:59:21Z</time>
      </trkpt>
      <trkpt lat="44.60198" lon="4.21574">
        <ele>983.57</ele>
        <time>2013-08-24T12:59:43Z</time>
      </trkpt>
      <trkpt lat="44.60198" lon="4.21574">
        <ele>985.49</ele>
        <time>2013-08-24T12:59:44Z</time>
      </trkpt>
      <trkpt lat="44.60198" lon="4.21574">
        <ele>988.85</ele>
        <time>2013-08-24T12:59:47Z</time>
      </trkpt>
      <trkpt lat="44.60198" lon="4.21574">
        <ele>986.45</ele>
        <time>2013-08-24T12:59:49Z</time>
      </trkpt>
      <trkpt lat="44.60198" lon="4.21574">
        <ele>985.97</ele>
        <time>2013-08-24T12:59:55Z</time>
      </trkpt>
      <trkpt lat="44.60198" lon="4.21574">
        <ele>985.49</ele>
        <time>2013-08-24T12:59:59Z</time>
      </trkpt>
      <trkpt lat="44.60198" lon="4.21574">
        <ele>988.37</ele>
        <time>2013-08-24T13:00:07Z</time>
      </trkpt>
      <trkpt lat="44.60198" lon="4.21574">
        <ele>984.05</ele>
        <time>2013-08-24T13:00:08Z</time>
      </trkpt>
      <trkpt lat="44.60198" lon="4.21574">
        <ele>987.41</ele>
        <time>2013-08-24T13:00:09Z</time>
      </trkpt>
      <trkpt lat="44.60198" lon="4.21574">
        <ele>985.97</ele>
        <time>2013-08-24T13:00:37Z</time>
      </trkpt>
      <trkpt lat="44.60198" lon="4.21574">
        <ele>988.37</ele>
        <time>2013-08-24T13:00:47Z</time>
      </trkpt>
      <trkpt lat="44.60198" lon="4.21574">
        <ele>985.97</ele>
        <time>2013-08-24T13:00:49Z</time>
      </trkpt>
      <trkpt lat="44.60198" lon="4.21574">
        <ele>986.93</ele>
        <time>2013-08-24T13:00:51Z</time>
      </trkpt>
      <trkpt lat="44.60198" lon="4.21574">
        <ele>987.41</ele>
        <time>2013-08-24T13:01:19Z</time>
      </trkpt>
      <trkpt lat="44.60197" lon="4.21573">
        <ele>987.41</ele>
        <time>2013-08-24T13:01:36Z</time>
      </trkpt>
      <trkpt lat="44.60198" lon="4.21573">
        <ele>986.93</ele>
        <time>2013-08-24T13:02:15Z</time>
      </trkpt>
      <trkpt lat="44.60198" lon="4.21573">
        <ele>987.89</ele>
        <time>2013-08-24T13:02:48Z</time>
      </trkpt>
      <trkpt lat="44.60198" lon="4.21572">
        <ele>987.89</ele>
        <time>2013-08-24T13:03:28Z</time>
      </trkpt>
      <trkpt lat="44.60197" lon="4.21573">
        <ele>987.41</ele>
        <time>2013-08-24T13:04:10Z</time>
      </trkpt>
      <trkpt lat="44.60197" lon="4.21573">
        <ele>987.41</ele>
        <time>2013-08-24T13:04:44Z</time>
      </trkpt>
      <trkpt lat="44.60198" lon="4.21572">
        <ele>988.37</ele>
        <time>2013-08-24T13:05:22Z</time>
      </trkpt>
      <trkpt lat="44.60198" lon="4.21572">
        <ele>989.33</ele>
        <time>2013-08-24T13:05:56Z</time>
      </trkpt>
      <trkpt lat="44.60197" lon="4.21572">
        <ele>988.85</ele>
        <time>2013-08-24T13:06:11Z</time>
      </trkpt>
      <trkpt lat="44.60188" lon="4.21569">
        <ele>989.81</ele>
        <time>2013-08-24T13:06:17Z</time>
      </trkpt>
      <trkpt lat="44.6018" lon="4.21563">
        <ele>990.78</ele>
        <time>2013-08-24T13:06:23Z</time>
      </trkpt>
      <trkpt lat="44.60167" lon="4.21553">
        <ele>991.74</ele>
        <time>2013-08-24T13:06:33Z</time>
      </trkpt>
      <trkpt lat="44.60159" lon="4.21544">
        <ele>992.7</ele>
        <time>2013-08-24T13:06:40Z</time>
      </trkpt>
      <trkpt lat="44.60141" lon="4.21523">
        <ele>995.1</ele>
        <time>2013-08-24T13:06:55Z</time>
      </trkpt>
      <trkpt lat="44.60138" lon="4.21518">
        <ele>995.58</ele>
        <time>2013-08-24T13:06:59Z</time>
      </trkpt>
      <trkpt lat="44.60132" lon="4.21514">
        <ele>996.06</ele>
        <time>2013-08-24T13:07:03Z</time>
      </trkpt>
      <trkpt lat="44.60117" lon="4.21501">
        <ele>997.99</ele>
        <time>2013-08-24T13:07:16Z</time>
      </trkpt>
      <trkpt lat="44.6011" lon="4.21492">
        <ele>999.91</ele>
        <time>2013-08-24T13:07:23Z</time>
      </trkpt>
      <trkpt lat="44.60108" lon="4.2149">
        <ele>999.91</ele>
        <time>2013-08-24T13:07:26Z</time>
      </trkpt>
      <trkpt lat="44.60108" lon="4.21488">
        <ele>1000.39</ele>
        <time>2013-08-24T13:07:27Z</time>
      </trkpt>
      <trkpt lat="44.60093" lon="4.21468">
        <ele>1002.79</ele>
        <time>2013-08-24T13:07:41Z</time>
      </trkpt>
      <trkpt lat="44.60093" lon="4.21467">
        <ele>1002.79</ele>
        <time>2013-08-24T13:07:42Z</time>
      </trkpt>
      <trkpt lat="44.60083" lon="4.21451">
        <ele>1004.72</ele>
        <time>2013-08-24T13:07:53Z</time>
      </trkpt>
      <trkpt lat="44.60082" lon="4.21446">
        <ele>1004.72</ele>
        <time>2013-08-24T13:07:55Z</time>
      </trkpt>
      <trkpt lat="44.60082" lon="4.21432">
        <ele>1004.72</ele>
        <time>2013-08-24T13:08:00Z</time>
      </trkpt>
      <trkpt lat="44.6008" lon="4.21429">
        <ele>1005.68</ele>
        <time>2013-08-24T13:08:02Z</time>
      </trkpt>
      <trkpt lat="44.60067" lon="4.21405">
        <ele>1006.64</ele>
        <time>2013-08-24T13:08:11Z</time>
      </trkpt>
      <trkpt lat="44.60061" lon="4.21395">
        <ele>1007.6</ele>
        <time>2013-08-24T13:08:17Z</time>
      </trkpt>
      <trkpt lat="44.60059" lon="4.21391">
        <ele>1008.08</ele>
        <time>2013-08-24T13:08:20Z</time>
      </trkpt>
      <trkpt lat="44.60064" lon="4.21373">
        <ele>1009.52</ele>
        <time>2013-08-24T13:08:30Z</time>
      </trkpt>
      <trkpt lat="44.60066" lon="4.21362">
        <ele>1010.48</ele>
        <time>2013-08-24T13:08:36Z</time>
      </trkpt>
      <trkpt lat="44.60062" lon="4.21336">
        <ele>1011.93</ele>
        <time>2013-08-24T13:08:47Z</time>
      </trkpt>
      <trkpt lat="44.60061" lon="4.21303">
        <ele>1014.33</ele>
        <time>2013-08-24T13:09:01Z</time>
      </trkpt>
      <trkpt lat="44.60062" lon="4.21296">
        <ele>1015.29</ele>
        <time>2013-08-24T13:09:05Z</time>
      </trkpt>
      <trkpt lat="44.60063" lon="4.21292">
        <ele>1015.29</ele>
        <time>2013-08-24T13:09:07Z</time>
      </trkpt>
      <trkpt lat="44.60065" lon="4.21288">
        <ele>1015.29</ele>
        <time>2013-08-24T13:09:10Z</time>
      </trkpt>
      <trkpt lat="44.60065" lon="4.21287">
        <ele>1015.77</ele>
        <time>2013-08-24T13:09:11Z</time>
      </trkpt>
      <trkpt lat="44.60061" lon="4.21274">
        <ele>1016.73</ele>
        <time>2013-08-24T13:09:16Z</time>
      </trkpt>
      <trkpt lat="44.60063" lon="4.21258">
        <ele>1017.69</ele>
        <time>2013-08-24T13:09:23Z</time>
      </trkpt>
      <trkpt lat="44.60062" lon="4.21255">
        <ele>1018.17</ele>
        <time>2013-08-24T13:09:25Z</time>
      </trkpt>
      <trkpt lat="44.60061" lon="4.21232">
        <ele>1018.65</ele>
        <time>2013-08-24T13:09:33Z</time>
      </trkpt>
      <trkpt lat="44.60067" lon="4.21204">
        <ele>1020.1</ele>
        <time>2013-08-24T13:09:44Z</time>
      </trkpt>
      <trkpt lat="44.6007" lon="4.21194">
        <ele>1021.06</ele>
        <time>2013-08-24T13:09:49Z</time>
      </trkpt>
      <trkpt lat="44.60078" lon="4.21173">
        <ele>1022.98</ele>
        <time>2013-08-24T13:10:00Z</time>
      </trkpt>
      <trkpt lat="44.60081" lon="4.21161">
        <ele>1022.5</ele>
        <time>2013-08-24T13:10:05Z</time>
      </trkpt>
      <trkpt lat="44.60082" lon="4.21159">
        <ele>1023.46</ele>
        <time>2013-08-24T13:10:06Z</time>
      </trkpt>
      <trkpt lat="44.60084" lon="4.21143">
        <ele>1025.38</ele>
        <time>2013-08-24T13:10:12Z</time>
      </trkpt>
      <trkpt lat="44.60086" lon="4.21121">
        <ele>1026.34</ele>
        <time>2013-08-24T13:10:22Z</time>
      </trkpt>
      <trkpt lat="44.60082" lon="4.21096">
        <ele>1028.27</ele>
        <time>2013-08-24T13:10:34Z</time>
      </trkpt>
      <trkpt lat="44.60082" lon="4.2108">
        <ele>1029.23</ele>
        <time>2013-08-24T13:10:41Z</time>
      </trkpt>
      <trkpt lat="44.60083" lon="4.21071">
        <ele>1029.23</ele>
        <time>2013-08-24T13:10:45Z</time>
      </trkpt>
      <trkpt lat="44.60086" lon="4.21048">
        <ele>1030.19</ele>
        <time>2013-08-24T13:10:56Z</time>
      </trkpt>
      <trkpt lat="44.60088" lon="4.21042">
        <ele>1030.19</ele>
        <time>2013-08-24T13:10:59Z</time>
      </trkpt>
      <trkpt lat="44.6009" lon="4.21041">
        <ele>1030.67</ele>
        <time>2013-08-24T13:11:00Z</time>
      </trkpt>
      <trkpt lat="44.60099" lon="4.21014">
        <ele>1031.63</ele>
        <time>2013-08-24T13:11:14Z</time>
      </trkpt>
      <trkpt lat="44.60107" lon="4.20991">
        <ele>1033.55</ele>
        <time>2013-08-24T13:11:26Z</time>
      </trkpt>
      <trkpt lat="44.60118" lon="4.20963">
        <ele>1035</ele>
        <time>2013-08-24T13:11:41Z</time>
      </trkpt>
      <trkpt lat="44.6013" lon="4.20938">
        <ele>1037.4</ele>
        <time>2013-08-24T13:11:54Z</time>
      </trkpt>
      <trkpt lat="44.6014" lon="4.20909">
        <ele>1039.32</ele>
        <time>2013-08-24T13:12:09Z</time>
      </trkpt>
      <trkpt lat="44.60138" lon="4.20895">
        <ele>1039.32</ele>
        <time>2013-08-24T13:12:15Z</time>
      </trkpt>
      <trkpt lat="44.60138" lon="4.20885">
        <ele>1040.76</ele>
        <time>2013-08-24T13:12:20Z</time>
      </trkpt>
      <trkpt lat="44.60136" lon="4.20855">
        <ele>1042.69</ele>
        <time>2013-08-24T13:12:34Z</time>
      </trkpt>
      <trkpt lat="44.60136" lon="4.20851">
        <ele>1043.17</ele>
        <time>2013-08-24T13:12:36Z</time>
      </trkpt>
      <trkpt lat="44.60139" lon="4.20827">
        <ele>1044.13</ele>
        <time>2013-08-24T13:12:47Z</time>
      </trkpt>
      <trkpt lat="44.60149" lon="4.20799">
        <ele>1045.57</ele>
        <time>2013-08-24T13:13:01Z</time>
      </trkpt>
      <trkpt lat="44.60167" lon="4.2077">
        <ele>1047.01</ele>
        <time>2013-08-24T13:13:18Z</time>
      </trkpt>
      <trkpt lat="44.6019" lon="4.20747">
        <ele>1048.45</ele>
        <time>2013-08-24T13:13:35Z</time>
      </trkpt>
      <trkpt lat="44.60207" lon="4.20731">
        <ele>1049.9</ele>
        <time>2013-08-24T13:13:48Z</time>
      </trkpt>
      <trkpt lat="44.60221" lon="4.2071">
        <ele>1051.82</ele>
        <time>2013-08-24T13:14:01Z</time>
      </trkpt>
      <trkpt lat="44.60223" lon="4.20706">
        <ele>1052.3</ele>
        <time>2013-08-24T13:14:03Z</time>
      </trkpt>
      <trkpt lat="44.60225" lon="4.20675">
        <ele>1053.74</ele>
        <time>2013-08-24T13:14:18Z</time>
      </trkpt>
      <trkpt lat="44.60223" lon="4.2066">
        <ele>1055.18</ele>
        <time>2013-08-24T13:14:25Z</time>
      </trkpt>
      <trkpt lat="44.60222" lon="4.20641">
        <ele>1056.63</ele>
        <time>2013-08-24T13:14:34Z</time>
      </trkpt>
      <trkpt lat="44.60222" lon="4.2062">
        <ele>1058.07</ele>
        <time>2013-08-24T13:14:44Z</time>
      </trkpt>
      <trkpt lat="44.60222" lon="4.20612">
        <ele>1058.55</ele>
        <time>2013-08-24T13:14:48Z</time>
      </trkpt>
      <trkpt lat="44.60224" lon="4.20591">
        <ele>1059.51</ele>
        <time>2013-08-24T13:14:58Z</time>
      </trkpt>
      <trkpt lat="44.60226" lon="4.20576">
        <ele>1060.47</ele>
        <time>2013-08-24T13:15:05Z</time>
      </trkpt>
      <trkpt lat="44.60227" lon="4.20564">
        <ele>1060.95</ele>
        <time>2013-08-24T13:15:10Z</time>
      </trkpt>
      <trkpt lat="44.60227" lon="4.2056">
        <ele>1060.95</ele>
        <time>2013-08-24T13:15:12Z</time>
      </trkpt>
      <trkpt lat="44.60227" lon="4.20554">
        <ele>1061.43</ele>
        <time>2013-08-24T13:15:15Z</time>
      </trkpt>
      <trkpt lat="44.60228" lon="4.20535">
        <ele>1061.91</ele>
        <time>2013-08-24T13:15:24Z</time>
      </trkpt>
      <trkpt lat="44.60226" lon="4.20509">
        <ele>1063.36</ele>
        <time>2013-08-24T13:15:36Z</time>
      </trkpt>
      <trkpt lat="44.60224" lon="4.20497">
        <ele>1063.84</ele>
        <time>2013-08-24T13:15:41Z</time>
      </trkpt>
      <trkpt lat="44.6022" lon="4.2047">
        <ele>1065.28</ele>
        <time>2013-08-24T13:15:55Z</time>
      </trkpt>
      <trkpt lat="44.6022" lon="4.20468">
        <ele>1065.76</ele>
        <time>2013-08-24T13:15:56Z</time>
      </trkpt>
      <trkpt lat="44.60222" lon="4.20439">
        <ele>1066.72</ele>
        <time>2013-08-24T13:16:11Z</time>
      </trkpt>
      <trkpt lat="44.60226" lon="4.20413">
        <ele>1067.68</ele>
        <time>2013-08-24T13:16:23Z</time>
      </trkpt>
      <trkpt lat="44.60225" lon="4.2041">
        <ele>1067.68</ele>
        <time>2013-08-24T13:16:25Z</time>
      </trkpt>
      <trkpt lat="44.60225" lon="4.20408">
        <ele>1068.16</ele>
        <time>2013-08-24T13:16:26Z</time>
      </trkpt>
      <trkpt lat="44.60218" lon="4.20403">
        <ele>1068.64</ele>
        <time>2013-08-24T13:16:30Z</time>
      </trkpt>
      <trkpt lat="44.6021" lon="4.20403">
        <ele>1070.08</ele>
        <time>2013-08-24T13:16:36Z</time>
      </trkpt>
      <trkpt lat="44.60204" lon="4.20424">
        <ele>1069.6</ele>
        <time>2013-08-24T13:16:46Z</time>
      </trkpt>
      <trkpt lat="44.60203" lon="4.2043">
        <ele>1070.08</ele>
        <time>2013-08-24T13:16:49Z</time>
      </trkpt>
      <trkpt lat="44.60204" lon="4.20453">
        <ele>1070.57</ele>
        <time>2013-08-24T13:17:00Z</time>
      </trkpt>
      <trkpt lat="44.60203" lon="4.20466">
        <ele>1071.53</ele>
        <time>2013-08-24T13:17:06Z</time>
      </trkpt>
      <trkpt lat="44.60202" lon="4.20472">
        <ele>1071.53</ele>
        <time>2013-08-24T13:17:09Z</time>
      </trkpt>
      <trkpt lat="44.60201" lon="4.20479">
        <ele>1072.01</ele>
        <time>2013-08-24T13:17:13Z</time>
      </trkpt>
      <trkpt lat="44.60201" lon="4.20498">
        <ele>1072.97</ele>
        <time>2013-08-24T13:17:22Z</time>
      </trkpt>
      <trkpt lat="44.60199" lon="4.20527">
        <ele>1073.93</ele>
        <time>2013-08-24T13:17:35Z</time>
      </trkpt>
      <trkpt lat="44.60196" lon="4.20538">
        <ele>1074.41</ele>
        <time>2013-08-24T13:17:40Z</time>
      </trkpt>
      <trkpt lat="44.60189" lon="4.2057">
        <ele>1075.37</ele>
        <time>2013-08-24T13:17:55Z</time>
      </trkpt>
      <trkpt lat="44.60183" lon="4.20612">
        <ele>1074.41</ele>
        <time>2013-08-24T13:18:08Z</time>
      </trkpt>
      <trkpt lat="44.60173" lon="4.20673">
        <ele>1073.93</ele>
        <time>2013-08-24T13:18:22Z</time>
      </trkpt>
      <trkpt lat="44.60144" lon="4.2071">
        <ele>1072.01</ele>
        <time>2013-08-24T13:18:34Z</time>
      </trkpt>
      <trkpt lat="44.60116" lon="4.20742">
        <ele>1071.05</ele>
        <time>2013-08-24T13:18:44Z</time>
      </trkpt>
      <trkpt lat="44.60095" lon="4.20784">
        <ele>1070.57</ele>
        <time>2013-08-24T13:18:54Z</time>
      </trkpt>
      <trkpt lat="44.60078" lon="4.20839">
        <ele>1069.12</ele>
        <time>2013-08-24T13:19:07Z</time>
      </trkpt>
      <trkpt lat="44.60078" lon="4.20856">
        <ele>1068.64</ele>
        <time>2013-08-24T13:19:10Z</time>
      </trkpt>
      <trkpt lat="44.60052" lon="4.20913">
        <ele>1068.64</ele>
        <time>2013-08-24T13:19:22Z</time>
      </trkpt>
      <trkpt lat="44.60022" lon="4.20946">
        <ele>1067.68</ele>
        <time>2013-08-24T13:19:34Z</time>
      </trkpt>
      <trkpt lat="44.60017" lon="4.20949">
        <ele>1067.68</ele>
        <time>2013-08-24T13:19:36Z</time>
      </trkpt>
      <trkpt lat="44.60015" lon="4.20951">
        <ele>1068.16</ele>
        <time>2013-08-24T13:19:37Z</time>
      </trkpt>
      <trkpt lat="44.59993" lon="4.20966">
        <ele>1067.2</ele>
        <time>2013-08-24T13:19:46Z</time>
      </trkpt>
      <trkpt lat="44.59991" lon="4.20965">
        <ele>1067.68</ele>
        <time>2013-08-24T13:19:47Z</time>
      </trkpt>
      <trkpt lat="44.59984" lon="4.2096">
        <ele>1068.16</ele>
        <time>2013-08-24T13:19:59Z</time>
      </trkpt>
      <trkpt lat="44.59983" lon="4.20959">
        <ele>1068.16</ele>
        <time>2013-08-24T13:20:12Z</time>
      </trkpt>
      <trkpt lat="44.59983" lon="4.20957">
        <ele>1068.16</ele>
        <time>2013-08-24T13:20:13Z</time>
      </trkpt>
      <trkpt lat="44.59983" lon="4.20956">
        <ele>1068.16</ele>
        <time>2013-08-24T13:20:14Z</time>
      </trkpt>
      <trkpt lat="44.59983" lon="4.20951">
        <ele>1069.12</ele>
        <time>2013-08-24T13:20:29Z</time>
      </trkpt>
      <trkpt lat="44.59983" lon="4.20951">
        <ele>1068.64</ele>
        <time>2013-08-24T13:20:51Z</time>
      </trkpt>
      <trkpt lat="44.59984" lon="4.20952">
        <ele>1068.64</ele>
        <time>2013-08-24T13:21:08Z</time>
      </trkpt>
      <trkpt lat="44.59985" lon="4.20951">
        <ele>1068.64</ele>
        <time>2013-08-24T13:21:16Z</time>
      </trkpt>
      <trkpt lat="44.59988" lon="4.20951">
        <ele>1069.12</ele>
        <time>2013-08-24T13:21:17Z</time>
      </trkpt>
      <trkpt lat="44.59991" lon="4.2095">
        <ele>1069.12</ele>
        <time>2013-08-24T13:21:18Z</time>
      </trkpt>
      <trkpt lat="44.60007" lon="4.20947">
        <ele>1070.57</ele>
        <time>2013-08-24T13:21:24Z</time>
      </trkpt>
      <trkpt lat="44.60009" lon="4.20945">
        <ele>1070.57</ele>
        <time>2013-08-24T13:21:25Z</time>
      </trkpt>
      <trkpt lat="44.60011" lon="4.20944">
        <ele>1070.57</ele>
        <time>2013-08-24T13:21:26Z</time>
      </trkpt>
      <trkpt lat="44.60012" lon="4.20944">
        <ele>1070.57</ele>
        <time>2013-08-24T13:21:27Z</time>
      </trkpt>
      <trkpt lat="44.60012" lon="4.20943">
        <ele>1071.05</ele>
        <time>2013-08-24T13:21:28Z</time>
      </trkpt>
      <trkpt lat="44.60014" lon="4.20941">
        <ele>1071.05</ele>
        <time>2013-08-24T13:21:29Z</time>
      </trkpt>
      <trkpt lat="44.60015" lon="4.2094">
        <ele>1071.53</ele>
        <time>2013-08-24T13:21:30Z</time>
      </trkpt>
      <trkpt lat="44.60016" lon="4.20938">
        <ele>1072.01</ele>
        <time>2013-08-24T13:21:31Z</time>
      </trkpt>
      <trkpt lat="44.60017" lon="4.20937">
        <ele>1071.53</ele>
        <time>2013-08-24T13:21:32Z</time>
      </trkpt>
      <trkpt lat="44.60027" lon="4.20927">
        <ele>1072.01</ele>
        <time>2013-08-24T13:21:39Z</time>
      </trkpt>
      <trkpt lat="44.60028" lon="4.20926">
        <ele>1072.01</ele>
        <time>2013-08-24T13:21:40Z</time>
      </trkpt>
      <trkpt lat="44.60029" lon="4.20925">
        <ele>1072.49</ele>
        <time>2013-08-24T13:21:41Z</time>
      </trkpt>
      <trkpt lat="44.60038" lon="4.20912">
        <ele>1073.45</ele>
        <time>2013-08-24T13:21:50Z</time>
      </trkpt>
      <trkpt lat="44.60038" lon="4.20911">
        <ele>1073.93</ele>
        <time>2013-08-24T13:21:51Z</time>
      </trkpt>
      <trkpt lat="44.60038" lon="4.20909">
        <ele>1073.93</ele>
        <time>2013-08-24T13:21:52Z</time>
      </trkpt>
      <trkpt lat="44.60038" lon="4.20907">
        <ele>1074.41</ele>
        <time>2013-08-24T13:21:53Z</time>
      </trkpt>
      <trkpt lat="44.60039" lon="4.20905">
        <ele>1074.41</ele>
        <time>2013-08-24T13:21:54Z</time>
      </trkpt>
      <trkpt lat="44.60039" lon="4.20903">
        <ele>1073.93</ele>
        <time>2013-08-24T13:21:55Z</time>
      </trkpt>
      <trkpt lat="44.6004" lon="4.20901">
        <ele>1074.41</ele>
        <time>2013-08-24T13:21:56Z</time>
      </trkpt>
      <trkpt lat="44.60041" lon="4.20899">
        <ele>1074.41</ele>
        <time>2013-08-24T13:21:57Z</time>
      </trkpt>
      <trkpt lat="44.60041" lon="4.20898">
        <ele>1074.41</ele>
        <time>2013-08-24T13:21:58Z</time>
      </trkpt>
      <trkpt lat="44.60042" lon="4.20896">
        <ele>1074.89</ele>
        <time>2013-08-24T13:21:59Z</time>
      </trkpt>
      <trkpt lat="44.60043" lon="4.20895">
        <ele>1074.41</ele>
        <time>2013-08-24T13:22:00Z</time>
      </trkpt>
      <trkpt lat="44.60044" lon="4.20893">
        <ele>1074.41</ele>
        <time>2013-08-24T13:22:01Z</time>
      </trkpt>
      <trkpt lat="44.60045" lon="4.20891">
        <ele>1074.41</ele>
        <time>2013-08-24T13:22:02Z</time>
      </trkpt>
      <trkpt lat="44.60045" lon="4.2089">
        <ele>1074.41</ele>
        <time>2013-08-24T13:22:03Z</time>
      </trkpt>
      <trkpt lat="44.60053" lon="4.20866">
        <ele>1075.85</ele>
        <time>2013-08-24T13:22:17Z</time>
      </trkpt>
      <trkpt lat="44.60056" lon="4.20843">
        <ele>1077.29</ele>
        <time>2013-08-24T13:22:29Z</time>
      </trkpt>
      <trkpt lat="44.60056" lon="4.20841">
        <ele>1077.78</ele>
        <time>2013-08-24T13:22:30Z</time>
      </trkpt>
      <trkpt lat="44.60057" lon="4.20838">
        <ele>1077.78</ele>
        <time>2013-08-24T13:22:31Z</time>
      </trkpt>
      <trkpt lat="44.60057" lon="4.20837">
        <ele>1078.26</ele>
        <time>2013-08-24T13:22:32Z</time>
      </trkpt>
      <trkpt lat="44.60058" lon="4.20835">
        <ele>1078.26</ele>
        <time>2013-08-24T13:22:33Z</time>
      </trkpt>
      <trkpt lat="44.60059" lon="4.20833">
        <ele>1078.26</ele>
        <time>2013-08-24T13:22:34Z</time>
      </trkpt>
      <trkpt lat="44.60059" lon="4.20831">
        <ele>1078.74</ele>
        <time>2013-08-24T13:22:35Z</time>
      </trkpt>
      <trkpt lat="44.60059" lon="4.20829">
        <ele>1078.74</ele>
        <time>2013-08-24T13:22:36Z</time>
      </trkpt>
      <trkpt lat="44.60059" lon="4.20827">
        <ele>1079.22</ele>
        <time>2013-08-24T13:22:37Z</time>
      </trkpt>
      <trkpt lat="44.60059" lon="4.20825">
        <ele>1078.74</ele>
        <time>2013-08-24T13:22:38Z</time>
      </trkpt>
      <trkpt lat="44.6006" lon="4.20823">
        <ele>1079.22</ele>
        <time>2013-08-24T13:22:39Z</time>
      </trkpt>
      <trkpt lat="44.60061" lon="4.20821">
        <ele>1079.22</ele>
        <time>2013-08-24T13:22:40Z</time>
      </trkpt>
      <trkpt lat="44.60061" lon="4.20819">
        <ele>1079.7</ele>
        <time>2013-08-24T13:22:41Z</time>
      </trkpt>
      <trkpt lat="44.60061" lon="4.20817">
        <ele>1079.22</ele>
        <time>2013-08-24T13:22:42Z</time>
      </trkpt>
      <trkpt lat="44.60062" lon="4.20815">
        <ele>1079.22</ele>
        <time>2013-08-24T13:22:43Z</time>
      </trkpt>
      <trkpt lat="44.60062" lon="4.20813">
        <ele>1079.22</ele>
        <time>2013-08-24T13:22:44Z</time>
      </trkpt>
      <trkpt lat="44.60062" lon="4.20811">
        <ele>1080.18</ele>
        <time>2013-08-24T13:22:45Z</time>
      </trkpt>
      <trkpt lat="44.60063" lon="4.20805">
        <ele>1079.7</ele>
        <time>2013-08-24T13:22:48Z</time>
      </trkpt>
      <trkpt lat="44.60066" lon="4.20791">
        <ele>1080.66</ele>
        <time>2013-08-24T13:22:55Z</time>
      </trkpt>
      <trkpt lat="44.60066" lon="4.20789">
        <ele>1081.14</ele>
        <time>2013-08-24T13:22:56Z</time>
      </trkpt>
      <trkpt lat="44.60066" lon="4.20788">
        <ele>1081.14</ele>
        <time>2013-08-24T13:22:57Z</time>
      </trkpt>
      <trkpt lat="44.60066" lon="4.20786">
        <ele>1081.62</ele>
        <time>2013-08-24T13:22:58Z</time>
      </trkpt>
      <trkpt lat="44.60067" lon="4.20784">
        <ele>1081.62</ele>
        <time>2013-08-24T13:22:59Z</time>
      </trkpt>
      <trkpt lat="44.60067" lon="4.20782">
        <ele>1082.1</ele>
        <time>2013-08-24T13:23:00Z</time>
      </trkpt>
      <trkpt lat="44.60067" lon="4.2078">
        <ele>1081.62</ele>
        <time>2013-08-24T13:23:01Z</time>
      </trkpt>
      <trkpt lat="44.60072" lon="4.20768">
        <ele>1082.58</ele>
        <time>2013-08-24T13:23:08Z</time>
      </trkpt>
      <trkpt lat="44.6008" lon="4.20746">
        <ele>1084.02</ele>
        <time>2013-08-24T13:23:21Z</time>
      </trkpt>
      <trkpt lat="44.6008" lon="4.20744">
        <ele>1084.02</ele>
        <time>2013-08-24T13:23:22Z</time>
      </trkpt>
      <trkpt lat="44.60081" lon="4.20742">
        <ele>1084.02</ele>
        <time>2013-08-24T13:23:23Z</time>
      </trkpt>
      <trkpt lat="44.60082" lon="4.2074">
        <ele>1084.5</ele>
        <time>2013-08-24T13:23:24Z</time>
      </trkpt>
      <trkpt lat="44.60092" lon="4.20729">
        <ele>1085.47</ele>
        <time>2013-08-24T13:23:33Z</time>
      </trkpt>
      <trkpt lat="44.60102" lon="4.2071">
        <ele>1086.91</ele>
        <time>2013-08-24T13:23:44Z</time>
      </trkpt>
      <trkpt lat="44.60104" lon="4.20709">
        <ele>1086.91</ele>
        <time>2013-08-24T13:23:45Z</time>
      </trkpt>
      <trkpt lat="44.60105" lon="4.20708">
        <ele>1086.91</ele>
        <time>2013-08-24T13:23:46Z</time>
      </trkpt>
      <trkpt lat="44.60106" lon="4.20706">
        <ele>1087.39</ele>
        <time>2013-08-24T13:23:47Z</time>
      </trkpt>
      <trkpt lat="44.60106" lon="4.20704">
        <ele>1087.39</ele>
        <time>2013-08-24T13:23:48Z</time>
      </trkpt>
      <trkpt lat="44.60111" lon="4.20696">
        <ele>1088.35</ele>
        <time>2013-08-24T13:23:53Z</time>
      </trkpt>
      <trkpt lat="44.60112" lon="4.20693">
        <ele>1088.35</ele>
        <time>2013-08-24T13:23:54Z</time>
      </trkpt>
      <trkpt lat="44.60112" lon="4.20691">
        <ele>1088.83</ele>
        <time>2013-08-24T13:23:55Z</time>
      </trkpt>
      <trkpt lat="44.60118" lon="4.20682">
        <ele>1089.31</ele>
        <time>2013-08-24T13:24:01Z</time>
      </trkpt>
      <trkpt lat="44.60118" lon="4.20679">
        <ele>1089.31</ele>
        <time>2013-08-24T13:24:02Z</time>
      </trkpt>
      <trkpt lat="44.60119" lon="4.20677">
        <ele>1089.79</ele>
        <time>2013-08-24T13:24:03Z</time>
      </trkpt>
      <trkpt lat="44.60119" lon="4.20675">
        <ele>1089.79</ele>
        <time>2013-08-24T13:24:04Z</time>
      </trkpt>
      <trkpt lat="44.6012" lon="4.20674">
        <ele>1090.27</ele>
        <time>2013-08-24T13:24:05Z</time>
      </trkpt>
      <trkpt lat="44.60121" lon="4.20672">
        <ele>1090.27</ele>
        <time>2013-08-24T13:24:06Z</time>
      </trkpt>
      <trkpt lat="44.60126" lon="4.20663">
        <ele>1090.75</ele>
        <time>2013-08-24T13:24:12Z</time>
      </trkpt>
      <trkpt lat="44.60136" lon="4.20641">
        <ele>1091.71</ele>
        <time>2013-08-24T13:24:24Z</time>
      </trkpt>
      <trkpt lat="44.60136" lon="4.20639">
        <ele>1091.71</ele>
        <time>2013-08-24T13:24:25Z</time>
      </trkpt>
      <trkpt lat="44.60137" lon="4.20637">
        <ele>1092.2</ele>
        <time>2013-08-24T13:24:26Z</time>
      </trkpt>
      <trkpt lat="44.6014" lon="4.2063">
        <ele>1092.2</ele>
        <time>2013-08-24T13:24:30Z</time>
      </trkpt>
      <trkpt lat="44.6014" lon="4.20627">
        <ele>1092.68</ele>
        <time>2013-08-24T13:24:31Z</time>
      </trkpt>
      <trkpt lat="44.60139" lon="4.20625">
        <ele>1092.68</ele>
        <time>2013-08-24T13:24:32Z</time>
      </trkpt>
      <trkpt lat="44.60138" lon="4.20623">
        <ele>1093.16</ele>
        <time>2013-08-24T13:24:33Z</time>
      </trkpt>
      <trkpt lat="44.60138" lon="4.20621">
        <ele>1092.68</ele>
        <time>2013-08-24T13:24:34Z</time>
      </trkpt>
      <trkpt lat="44.60138" lon="4.20613">
        <ele>1093.64</ele>
        <time>2013-08-24T13:24:38Z</time>
      </trkpt>
      <trkpt lat="44.60138" lon="4.20611">
        <ele>1094.12</ele>
        <time>2013-08-24T13:24:39Z</time>
      </trkpt>
      <trkpt lat="44.60138" lon="4.20609">
        <ele>1093.64</ele>
        <time>2013-08-24T13:24:40Z</time>
      </trkpt>
      <trkpt lat="44.60139" lon="4.20595">
        <ele>1095.08</ele>
        <time>2013-08-24T13:24:48Z</time>
      </trkpt>
      <trkpt lat="44.60138" lon="4.20592">
        <ele>1095.08</ele>
        <time>2013-08-24T13:24:49Z</time>
      </trkpt>
      <trkpt lat="44.60139" lon="4.20591">
        <ele>1095.56</ele>
        <time>2013-08-24T13:24:50Z</time>
      </trkpt>
      <trkpt lat="44.60139" lon="4.20588">
        <ele>1096.04</ele>
        <time>2013-08-24T13:24:51Z</time>
      </trkpt>
      <trkpt lat="44.60139" lon="4.20586">
        <ele>1096.04</ele>
        <time>2013-08-24T13:24:52Z</time>
      </trkpt>
      <trkpt lat="44.60138" lon="4.20575">
        <ele>1097</ele>
        <time>2013-08-24T13:24:57Z</time>
      </trkpt>
      <trkpt lat="44.60138" lon="4.20573">
        <ele>1097</ele>
        <time>2013-08-24T13:24:58Z</time>
      </trkpt>
      <trkpt lat="44.60139" lon="4.20542">
        <ele>1098.92</ele>
        <time>2013-08-24T13:25:13Z</time>
      </trkpt>
      <trkpt lat="44.60139" lon="4.20538">
        <ele>1098.92</ele>
        <time>2013-08-24T13:25:15Z</time>
      </trkpt>
      <trkpt lat="44.60138" lon="4.20533">
        <ele>1099.4</ele>
        <time>2013-08-24T13:25:18Z</time>
      </trkpt>
      <trkpt lat="44.60138" lon="4.2053">
        <ele>1099.4</ele>
        <time>2013-08-24T13:25:19Z</time>
      </trkpt>
      <trkpt lat="44.60138" lon="4.20528">
        <ele>1099.4</ele>
        <time>2013-08-24T13:25:20Z</time>
      </trkpt>
      <trkpt lat="44.60138" lon="4.20526">
        <ele>1099.4</ele>
        <time>2013-08-24T13:25:21Z</time>
      </trkpt>
      <trkpt lat="44.60138" lon="4.20524">
        <ele>1099.89</ele>
        <time>2013-08-24T13:25:22Z</time>
      </trkpt>
      <trkpt lat="44.60138" lon="4.20521">
        <ele>1100.37</ele>
        <time>2013-08-24T13:25:24Z</time>
      </trkpt>
      <trkpt lat="44.6014" lon="4.20515">
        <ele>1100.85</ele>
        <time>2013-08-24T13:25:28Z</time>
      </trkpt>
      <trkpt lat="44.60139" lon="4.20513">
        <ele>1100.85</ele>
        <time>2013-08-24T13:25:29Z</time>
      </trkpt>
      <trkpt lat="44.60136" lon="4.20505">
        <ele>1101.33</ele>
        <time>2013-08-24T13:25:33Z</time>
      </trkpt>
      <trkpt lat="44.60134" lon="4.20486">
        <ele>1102.77</ele>
        <time>2013-08-24T13:25:41Z</time>
      </trkpt>
      <trkpt lat="44.60133" lon="4.20476">
        <ele>1103.25</ele>
        <time>2013-08-24T13:25:46Z</time>
      </trkpt>
      <trkpt lat="44.60128" lon="4.20448">
        <ele>1104.21</ele>
        <time>2013-08-24T13:26:00Z</time>
      </trkpt>
      <trkpt lat="44.60125" lon="4.20439">
        <ele>1104.69</ele>
        <time>2013-08-24T13:26:04Z</time>
      </trkpt>
      <trkpt lat="44.60125" lon="4.20437">
        <ele>1104.69</ele>
        <time>2013-08-24T13:26:05Z</time>
      </trkpt>
      <trkpt lat="44.60123" lon="4.20432">
        <ele>1104.69</ele>
        <time>2013-08-24T13:26:07Z</time>
      </trkpt>
      <trkpt lat="44.60123" lon="4.20429">
        <ele>1105.17</ele>
        <time>2013-08-24T13:26:08Z</time>
      </trkpt>
      <trkpt lat="44.60123" lon="4.20427">
        <ele>1105.17</ele>
        <time>2013-08-24T13:26:09Z</time>
      </trkpt>
      <trkpt lat="44.60119" lon="4.20402">
        <ele>1105.65</ele>
        <time>2013-08-24T13:26:20Z</time>
      </trkpt>
      <trkpt lat="44.60118" lon="4.20394">
        <ele>1106.13</ele>
        <time>2013-08-24T13:26:24Z</time>
      </trkpt>
      <trkpt lat="44.60118" lon="4.20378">
        <ele>1107.58</ele>
        <time>2013-08-24T13:26:32Z</time>
      </trkpt>
      <trkpt lat="44.60118" lon="4.20376">
        <ele>1107.58</ele>
        <time>2013-08-24T13:26:33Z</time>
      </trkpt>
      <trkpt lat="44.60117" lon="4.20346">
        <ele>1109.5</ele>
        <time>2013-08-24T13:26:47Z</time>
      </trkpt>
      <trkpt lat="44.60119" lon="4.20336">
        <ele>1109.5</ele>
        <time>2013-08-24T13:26:52Z</time>
      </trkpt>
      <trkpt lat="44.60119" lon="4.20334">
        <ele>1109.98</ele>
        <time>2013-08-24T13:26:53Z</time>
      </trkpt>
      <trkpt lat="44.60122" lon="4.20308">
        <ele>1111.42</ele>
        <time>2013-08-24T13:27:06Z</time>
      </trkpt>
      <trkpt lat="44.60134" lon="4.20279">
        <ele>1113.34</ele>
        <time>2013-08-24T13:27:21Z</time>
      </trkpt>
      <trkpt lat="44.60135" lon="4.20249">
        <ele>1114.79</ele>
        <time>2013-08-24T13:27:30Z</time>
      </trkpt>
      <trkpt lat="44.60135" lon="4.20247">
        <ele>1114.79</ele>
        <time>2013-08-24T13:27:31Z</time>
      </trkpt>
      <trkpt lat="44.60136" lon="4.20245">
        <ele>1114.79</ele>
        <time>2013-08-24T13:27:32Z</time>
      </trkpt>
      <trkpt lat="44.60136" lon="4.20243">
        <ele>1115.27</ele>
        <time>2013-08-24T13:27:33Z</time>
      </trkpt>
      <trkpt lat="44.60137" lon="4.20241">
        <ele>1114.79</ele>
        <time>2013-08-24T13:27:34Z</time>
      </trkpt>
      <trkpt lat="44.60138" lon="4.20239">
        <ele>1114.79</ele>
        <time>2013-08-24T13:27:35Z</time>
      </trkpt>
      <trkpt lat="44.60139" lon="4.20238">
        <ele>1114.79</ele>
        <time>2013-08-24T13:27:36Z</time>
      </trkpt>
      <trkpt lat="44.6014" lon="4.20236">
        <ele>1115.27</ele>
        <time>2013-08-24T13:27:37Z</time>
      </trkpt>
      <trkpt lat="44.60141" lon="4.20235">
        <ele>1115.27</ele>
        <time>2013-08-24T13:27:38Z</time>
      </trkpt>
      <trkpt lat="44.60142" lon="4.20233">
        <ele>1115.27</ele>
        <time>2013-08-24T13:27:39Z</time>
      </trkpt>
      <trkpt lat="44.60143" lon="4.20231">
        <ele>1115.27</ele>
        <time>2013-08-24T13:27:40Z</time>
      </trkpt>
      <trkpt lat="44.60154" lon="4.20203">
        <ele>1117.67</ele>
        <time>2013-08-24T13:27:56Z</time>
      </trkpt>
      <trkpt lat="44.60158" lon="4.20192">
        <ele>1118.63</ele>
        <time>2013-08-24T13:28:02Z</time>
      </trkpt>
      <trkpt lat="44.60159" lon="4.20191">
        <ele>1119.11</ele>
        <time>2013-08-24T13:28:03Z</time>
      </trkpt>
      <trkpt lat="44.60169" lon="4.20163">
        <ele>1120.55</ele>
        <time>2013-08-24T13:28:17Z</time>
      </trkpt>
      <trkpt lat="44.60181" lon="4.20139">
        <ele>1121.52</ele>
        <time>2013-08-24T13:28:30Z</time>
      </trkpt>
      <trkpt lat="44.60186" lon="4.20128">
        <ele>1122.48</ele>
        <time>2013-08-24T13:28:36Z</time>
      </trkpt>
      <trkpt lat="44.60187" lon="4.20126">
        <ele>1122.48</ele>
        <time>2013-08-24T13:28:37Z</time>
      </trkpt>
      <trkpt lat="44.60188" lon="4.20124">
        <ele>1122.48</ele>
        <time>2013-08-24T13:28:38Z</time>
      </trkpt>
      <trkpt lat="44.60188" lon="4.20122">
        <ele>1122.48</ele>
        <time>2013-08-24T13:28:39Z</time>
      </trkpt>
      <trkpt lat="44.60189" lon="4.20119">
        <ele>1122.96</ele>
        <time>2013-08-24T13:28:40Z</time>
      </trkpt>
      <trkpt lat="44.60197" lon="4.20108">
        <ele>1123.92</ele>
        <time>2013-08-24T13:28:48Z</time>
      </trkpt>
      <trkpt lat="44.60199" lon="4.20107">
        <ele>1123.92</ele>
        <time>2013-08-24T13:28:49Z</time>
      </trkpt>
      <trkpt lat="44.602" lon="4.20106">
        <ele>1123.92</ele>
        <time>2013-08-24T13:28:50Z</time>
      </trkpt>
      <trkpt lat="44.60201" lon="4.20104">
        <ele>1124.4</ele>
        <time>2013-08-24T13:28:51Z</time>
      </trkpt>
      <trkpt lat="44.60202" lon="4.20103">
        <ele>1124.4</ele>
        <time>2013-08-24T13:28:52Z</time>
      </trkpt>
      <trkpt lat="44.60203" lon="4.20102">
        <ele>1124.88</ele>
        <time>2013-08-24T13:28:53Z</time>
      </trkpt>
      <trkpt lat="44.60222" lon="4.20085">
        <ele>1126.8</ele>
        <time>2013-08-24T13:29:09Z</time>
      </trkpt>
      <trkpt lat="44.60235" lon="4.2007">
        <ele>1128.24</ele>
        <time>2013-08-24T13:29:21Z</time>
      </trkpt>
      <trkpt lat="44.60243" lon="4.20062">
        <ele>1128.73</ele>
        <time>2013-08-24T13:29:28Z</time>
      </trkpt>
      <trkpt lat="44.60244" lon="4.20061">
        <ele>1129.21</ele>
        <time>2013-08-24T13:29:29Z</time>
      </trkpt>
      <trkpt lat="44.60246" lon="4.20059">
        <ele>1129.21</ele>
        <time>2013-08-24T13:29:30Z</time>
      </trkpt>
      <trkpt lat="44.60247" lon="4.20058">
        <ele>1129.21</ele>
        <time>2013-08-24T13:29:31Z</time>
      </trkpt>
      <trkpt lat="44.60248" lon="4.20057">
        <ele>1129.69</ele>
        <time>2013-08-24T13:29:32Z</time>
      </trkpt>
      <trkpt lat="44.6025" lon="4.20056">
        <ele>1130.17</ele>
        <time>2013-08-24T13:29:33Z</time>
      </trkpt>
      <trkpt lat="44.60251" lon="4.20055">
        <ele>1129.69</ele>
        <time>2013-08-24T13:29:34Z</time>
      </trkpt>
      <trkpt lat="44.60258" lon="4.20051">
        <ele>1130.17</ele>
        <time>2013-08-24T13:29:40Z</time>
      </trkpt>
      <trkpt lat="44.6026" lon="4.20051">
        <ele>1130.65</ele>
        <time>2013-08-24T13:29:41Z</time>
      </trkpt>
      <trkpt lat="44.6027" lon="4.20042">
        <ele>1132.09</ele>
        <time>2013-08-24T13:29:52Z</time>
      </trkpt>
      <trkpt lat="44.60292" lon="4.20036">
        <ele>1133.53</ele>
        <time>2013-08-24T13:30:04Z</time>
      </trkpt>
      <trkpt lat="44.60313" lon="4.20032">
        <ele>1135.45</ele>
        <time>2013-08-24T13:30:15Z</time>
      </trkpt>
      <trkpt lat="44.60319" lon="4.20032">
        <ele>1135.45</ele>
        <time>2013-08-24T13:30:18Z</time>
      </trkpt>
      <trkpt lat="44.60321" lon="4.20032">
        <ele>1135.94</ele>
        <time>2013-08-24T13:30:19Z</time>
      </trkpt>
      <trkpt lat="44.60323" lon="4.20031">
        <ele>1134.97</ele>
        <time>2013-08-24T13:30:20Z</time>
      </trkpt>
      <trkpt lat="44.60334" lon="4.20028">
        <ele>1136.9</ele>
        <time>2013-08-24T13:30:27Z</time>
      </trkpt>
      <trkpt lat="44.60345" lon="4.20028">
        <ele>1137.38</ele>
        <time>2013-08-24T13:30:38Z</time>
      </trkpt>
      <trkpt lat="44.60365" lon="4.20025">
        <ele>1138.82</ele>
        <time>2013-08-24T13:30:51Z</time>
      </trkpt>
      <trkpt lat="44.60381" lon="4.20029">
        <ele>1140.26</ele>
        <time>2013-08-24T13:31:02Z</time>
      </trkpt>
      <trkpt lat="44.60397" lon="4.20036">
        <ele>1141.7</ele>
        <time>2013-08-24T13:31:11Z</time>
      </trkpt>
      <trkpt lat="44.60399" lon="4.20036">
        <ele>1141.22</ele>
        <time>2013-08-24T13:31:12Z</time>
      </trkpt>
      <trkpt lat="44.60408" lon="4.20033">
        <ele>1141.7</ele>
        <time>2013-08-24T13:31:18Z</time>
      </trkpt>
      <trkpt lat="44.60409" lon="4.20032">
        <ele>1141.22</ele>
        <time>2013-08-24T13:31:19Z</time>
      </trkpt>
      <trkpt lat="44.6041" lon="4.20029">
        <ele>1141.7</ele>
        <time>2013-08-24T13:31:21Z</time>
      </trkpt>
      <trkpt lat="44.60412" lon="4.20026">
        <ele>1141.7</ele>
        <time>2013-08-24T13:31:33Z</time>
      </trkpt>
      <trkpt lat="44.60411" lon="4.20024">
        <ele>1141.7</ele>
        <time>2013-08-24T13:31:46Z</time>
      </trkpt>
      <trkpt lat="44.60411" lon="4.20024">
        <ele>1142.66</ele>
        <time>2013-08-24T13:32:03Z</time>
      </trkpt>
      <trkpt lat="44.60411" lon="4.20024">
        <ele>1142.18</ele>
        <time>2013-08-24T13:32:22Z</time>
      </trkpt>
      <trkpt lat="44.60411" lon="4.20024">
        <ele>1143.63</ele>
        <time>2013-08-24T13:32:48Z</time>
      </trkpt>
      <trkpt lat="44.60409" lon="4.20022">
        <ele>1143.63</ele>
        <time>2013-08-24T13:33:12Z</time>
      </trkpt>
      <trkpt lat="44.60409" lon="4.2002">
        <ele>1143.63</ele>
        <time>2013-08-24T13:33:13Z</time>
      </trkpt>
      <trkpt lat="44.60409" lon="4.20018">
        <ele>1143.63</ele>
        <time>2013-08-24T13:33:14Z</time>
      </trkpt>
      <trkpt lat="44.60409" lon="4.2001">
        <ele>1144.11</ele>
        <time>2013-08-24T13:33:22Z</time>
      </trkpt>
      <trkpt lat="44.60409" lon="4.20008">
        <ele>1144.59</ele>
        <time>2013-08-24T13:33:47Z</time>
      </trkpt>
      <trkpt lat="44.60408" lon="4.20006">
        <ele>1144.59</ele>
        <time>2013-08-24T13:33:48Z</time>
      </trkpt>
      <trkpt lat="44.60408" lon="4.20004">
        <ele>1144.59</ele>
        <time>2013-08-24T13:33:49Z</time>
      </trkpt>
      <trkpt lat="44.60408" lon="4.20002">
        <ele>1144.59</ele>
        <time>2013-08-24T13:33:50Z</time>
      </trkpt>
      <trkpt lat="44.60407" lon="4.20001">
        <ele>1145.07</ele>
        <time>2013-08-24T13:33:51Z</time>
      </trkpt>
      <trkpt lat="44.60406" lon="4.2">
        <ele>1145.07</ele>
        <time>2013-08-24T13:33:52Z</time>
      </trkpt>
      <trkpt lat="44.60405" lon="4.19998">
        <ele>1145.07</ele>
        <time>2013-08-24T13:33:53Z</time>
      </trkpt>
      <trkpt lat="44.60404" lon="4.19996">
        <ele>1145.07</ele>
        <time>2013-08-24T13:33:54Z</time>
      </trkpt>
      <trkpt lat="44.60395" lon="4.19969">
        <ele>1146.99</ele>
        <time>2013-08-24T13:34:08Z</time>
      </trkpt>
      <trkpt lat="44.60395" lon="4.19964">
        <ele>1146.99</ele>
        <time>2013-08-24T13:34:10Z</time>
      </trkpt>
      <trkpt lat="44.60395" lon="4.19962">
        <ele>1146.99</ele>
        <time>2013-08-24T13:34:11Z</time>
      </trkpt>
      <trkpt lat="44.60395" lon="4.1996">
        <ele>1147.47</ele>
        <time>2013-08-24T13:34:12Z</time>
      </trkpt>
      <trkpt lat="44.60395" lon="4.19957">
        <ele>1147.47</ele>
        <time>2013-08-24T13:34:13Z</time>
      </trkpt>
      <trkpt lat="44.60395" lon="4.19955">
        <ele>1147.47</ele>
        <time>2013-08-24T13:34:14Z</time>
      </trkpt>
      <trkpt lat="44.60394" lon="4.19953">
        <ele>1148.43</ele>
        <time>2013-08-24T13:34:15Z</time>
      </trkpt>
      <trkpt lat="44.60394" lon="4.1995">
        <ele>1148.43</ele>
        <time>2013-08-24T13:34:16Z</time>
      </trkpt>
      <trkpt lat="44.60394" lon="4.19948">
        <ele>1148.43</ele>
        <time>2013-08-24T13:34:17Z</time>
      </trkpt>
      <trkpt lat="44.60393" lon="4.19946">
        <ele>1148.43</ele>
        <time>2013-08-24T13:34:18Z</time>
      </trkpt>
      <trkpt lat="44.60393" lon="4.19943">
        <ele>1148.43</ele>
        <time>2013-08-24T13:34:19Z</time>
      </trkpt>
      <trkpt lat="44.60392" lon="4.19941">
        <ele>1148.43</ele>
        <time>2013-08-24T13:34:20Z</time>
      </trkpt>
      <trkpt lat="44.60391" lon="4.1994">
        <ele>1148.91</ele>
        <time>2013-08-24T13:34:21Z</time>
      </trkpt>
      <trkpt lat="44.60383" lon="4.19907">
        <ele>1151.32</ele>
        <time>2013-08-24T13:34:37Z</time>
      </trkpt>
      <trkpt lat="44.60376" lon="4.19882">
        <ele>1152.76</ele>
        <time>2013-08-24T13:34:49Z</time>
      </trkpt>
      <trkpt lat="44.60376" lon="4.19881">
        <ele>1153.24</ele>
        <time>2013-08-24T13:34:50Z</time>
      </trkpt>
      <trkpt lat="44.60375" lon="4.19879">
        <ele>1153.72</ele>
        <time>2013-08-24T13:34:51Z</time>
      </trkpt>
      <trkpt lat="44.60375" lon="4.19876">
        <ele>1153.24</ele>
        <time>2013-08-24T13:34:52Z</time>
      </trkpt>
      <trkpt lat="44.60375" lon="4.19874">
        <ele>1153.72</ele>
        <time>2013-08-24T13:34:53Z</time>
      </trkpt>
      <trkpt lat="44.60374" lon="4.19872">
        <ele>1154.2</ele>
        <time>2013-08-24T13:34:54Z</time>
      </trkpt>
      <trkpt lat="44.60373" lon="4.19871">
        <ele>1154.2</ele>
        <time>2013-08-24T13:34:55Z</time>
      </trkpt>
      <trkpt lat="44.60373" lon="4.19869">
        <ele>1154.68</ele>
        <time>2013-08-24T13:34:56Z</time>
      </trkpt>
      <trkpt lat="44.60372" lon="4.19867">
        <ele>1154.68</ele>
        <time>2013-08-24T13:34:57Z</time>
      </trkpt>
      <trkpt lat="44.60372" lon="4.19865">
        <ele>1154.68</ele>
        <time>2013-08-24T13:34:58Z</time>
      </trkpt>
      <trkpt lat="44.60371" lon="4.19863">
        <ele>1154.68</ele>
        <time>2013-08-24T13:34:59Z</time>
      </trkpt>
      <trkpt lat="44.60365" lon="4.19837">
        <ele>1157.08</ele>
        <time>2013-08-24T13:35:12Z</time>
      </trkpt>
      <trkpt lat="44.60361" lon="4.19826">
        <ele>1158.53</ele>
        <time>2013-08-24T13:35:18Z</time>
      </trkpt>
      <trkpt lat="44.6036" lon="4.19824">
        <ele>1159.01</ele>
        <time>2013-08-24T13:35:19Z</time>
      </trkpt>
      <trkpt lat="44.60356" lon="4.198">
        <ele>1160.93</ele>
        <time>2013-08-24T13:35:31Z</time>
      </trkpt>
      <trkpt lat="44.60357" lon="4.19798">
        <ele>1160.45</ele>
        <time>2013-08-24T13:35:32Z</time>
      </trkpt>
      <trkpt lat="44.60357" lon="4.19795">
        <ele>1160.93</ele>
        <time>2013-08-24T13:35:33Z</time>
      </trkpt>
      <trkpt lat="44.60357" lon="4.19793">
        <ele>1160.93</ele>
        <time>2013-08-24T13:35:34Z</time>
      </trkpt>
      <trkpt lat="44.60357" lon="4.19791">
        <ele>1160.93</ele>
        <time>2013-08-24T13:35:35Z</time>
      </trkpt>
      <trkpt lat="44.60358" lon="4.19789">
        <ele>1160.93</ele>
        <time>2013-08-24T13:35:36Z</time>
      </trkpt>
      <trkpt lat="44.60358" lon="4.19787">
        <ele>1160.93</ele>
        <time>2013-08-24T13:35:37Z</time>
      </trkpt>
      <trkpt lat="44.60366" lon="4.19756">
        <ele>1162.85</ele>
        <time>2013-08-24T13:35:52Z</time>
      </trkpt>
      <trkpt lat="44.60366" lon="4.19753">
        <ele>1163.81</ele>
        <time>2013-08-24T13:35:53Z</time>
      </trkpt>
      <trkpt lat="44.60366" lon="4.19751">
        <ele>1163.81</ele>
        <time>2013-08-24T13:35:54Z</time>
      </trkpt>
      <trkpt lat="44.60366" lon="4.19748">
        <ele>1163.81</ele>
        <time>2013-08-24T13:35:55Z</time>
      </trkpt>
      <trkpt lat="44.60366" lon="4.19746">
        <ele>1163.81</ele>
        <time>2013-08-24T13:35:56Z</time>
      </trkpt>
      <trkpt lat="44.60367" lon="4.19744">
        <ele>1164.29</ele>
        <time>2013-08-24T13:35:57Z</time>
      </trkpt>
      <trkpt lat="44.60368" lon="4.19741">
        <ele>1164.77</ele>
        <time>2013-08-24T13:35:58Z</time>
      </trkpt>
      <trkpt lat="44.60368" lon="4.19739">
        <ele>1164.77</ele>
        <time>2013-08-24T13:35:59Z</time>
      </trkpt>
      <trkpt lat="44.60368" lon="4.19737">
        <ele>1165.26</ele>
        <time>2013-08-24T13:36:00Z</time>
      </trkpt>
      <trkpt lat="44.60369" lon="4.19735">
        <ele>1165.26</ele>
        <time>2013-08-24T13:36:01Z</time>
      </trkpt>
      <trkpt lat="44.60369" lon="4.19733">
        <ele>1164.77</ele>
        <time>2013-08-24T13:36:02Z</time>
      </trkpt>
      <trkpt lat="44.60369" lon="4.1973">
        <ele>1165.74</ele>
        <time>2013-08-24T13:36:03Z</time>
      </trkpt>
      <trkpt lat="44.6037" lon="4.19728">
        <ele>1165.74</ele>
        <time>2013-08-24T13:36:04Z</time>
      </trkpt>
      <trkpt lat="44.60372" lon="4.19707">
        <ele>1167.18</ele>
        <time>2013-08-24T13:36:14Z</time>
      </trkpt>
      <trkpt lat="44.60372" lon="4.19705">
        <ele>1166.7</ele>
        <time>2013-08-24T13:36:15Z</time>
      </trkpt>
      <trkpt lat="44.60373" lon="4.19703">
        <ele>1167.66</ele>
        <time>2013-08-24T13:36:16Z</time>
      </trkpt>
      <trkpt lat="44.60376" lon="4.19694">
        <ele>1167.66</ele>
        <time>2013-08-24T13:36:20Z</time>
      </trkpt>
      <trkpt lat="44.60376" lon="4.19692">
        <ele>1167.66</ele>
        <time>2013-08-24T13:36:21Z</time>
      </trkpt>
      <trkpt lat="44.60381" lon="4.19663">
        <ele>1170.06</ele>
        <time>2013-08-24T13:36:36Z</time>
      </trkpt>
      <trkpt lat="44.60382" lon="4.19659">
        <ele>1170.06</ele>
        <time>2013-08-24T13:36:38Z</time>
      </trkpt>
      <trkpt lat="44.60382" lon="4.19656">
        <ele>1170.06</ele>
        <time>2013-08-24T13:36:39Z</time>
      </trkpt>
      <trkpt lat="44.60382" lon="4.19654">
        <ele>1170.06</ele>
        <time>2013-08-24T13:36:40Z</time>
      </trkpt>
      <trkpt lat="44.60383" lon="4.19652">
        <ele>1170.54</ele>
        <time>2013-08-24T13:36:41Z</time>
      </trkpt>
      <trkpt lat="44.60382" lon="4.1965">
        <ele>1170.06</ele>
        <time>2013-08-24T13:36:42Z</time>
      </trkpt>
      <trkpt lat="44.60381" lon="4.19639">
        <ele>1171.5</ele>
        <time>2013-08-24T13:36:47Z</time>
      </trkpt>
      <trkpt lat="44.60381" lon="4.19637">
        <ele>1171.02</ele>
        <time>2013-08-24T13:36:48Z</time>
      </trkpt>
      <trkpt lat="44.6038" lon="4.19634">
        <ele>1171.5</ele>
        <time>2013-08-24T13:36:49Z</time>
      </trkpt>
      <trkpt lat="44.6038" lon="4.19632">
        <ele>1171.5</ele>
        <time>2013-08-24T13:36:50Z</time>
      </trkpt>
      <trkpt lat="44.60381" lon="4.1963">
        <ele>1171.5</ele>
        <time>2013-08-24T13:36:51Z</time>
      </trkpt>
      <trkpt lat="44.60384" lon="4.19602">
        <ele>1173.91</ele>
        <time>2013-08-24T13:37:05Z</time>
      </trkpt>
      <trkpt lat="44.60383" lon="4.19572">
        <ele>1176.79</ele>
        <time>2013-08-24T13:37:19Z</time>
      </trkpt>
      <trkpt lat="44.60383" lon="4.1957">
        <ele>1177.27</ele>
        <time>2013-08-24T13:37:20Z</time>
      </trkpt>
      <trkpt lat="44.60383" lon="4.1955">
        <ele>1179.19</ele>
        <time>2013-08-24T13:37:29Z</time>
      </trkpt>
      <trkpt lat="44.60382" lon="4.19548">
        <ele>1179.67</ele>
        <time>2013-08-24T13:37:30Z</time>
      </trkpt>
      <trkpt lat="44.60383" lon="4.19541">
        <ele>1179.67</ele>
        <time>2013-08-24T13:37:33Z</time>
      </trkpt>
      <trkpt lat="44.60384" lon="4.19539">
        <ele>1179.67</ele>
        <time>2013-08-24T13:37:34Z</time>
      </trkpt>
      <trkpt lat="44.60385" lon="4.19537">
        <ele>1180.16</ele>
        <time>2013-08-24T13:37:35Z</time>
      </trkpt>
      <trkpt lat="44.60386" lon="4.19535">
        <ele>1180.64</ele>
        <time>2013-08-24T13:37:36Z</time>
      </trkpt>
      <trkpt lat="44.60387" lon="4.19533">
        <ele>1180.64</ele>
        <time>2013-08-24T13:37:37Z</time>
      </trkpt>
      <trkpt lat="44.60394" lon="4.19502">
        <ele>1182.08</ele>
        <time>2013-08-24T13:37:51Z</time>
      </trkpt>
      <trkpt lat="44.60404" lon="4.19472">
        <ele>1182.56</ele>
        <time>2013-08-24T13:38:05Z</time>
      </trkpt>
      <trkpt lat="44.60408" lon="4.19448">
        <ele>1183.04</ele>
        <time>2013-08-24T13:38:16Z</time>
      </trkpt>
      <trkpt lat="44.60408" lon="4.19445">
        <ele>1183.52</ele>
        <time>2013-08-24T13:38:17Z</time>
      </trkpt>
      <trkpt lat="44.60409" lon="4.19443">
        <ele>1183.52</ele>
        <time>2013-08-24T13:38:18Z</time>
      </trkpt>
      <trkpt lat="44.6041" lon="4.19428">
        <ele>1184.48</ele>
        <time>2013-08-24T13:38:25Z</time>
      </trkpt>
      <trkpt lat="44.60409" lon="4.19425">
        <ele>1184</ele>
        <time>2013-08-24T13:38:26Z</time>
      </trkpt>
      <trkpt lat="44.60408" lon="4.19423">
        <ele>1184.48</ele>
        <time>2013-08-24T13:38:27Z</time>
      </trkpt>
      <trkpt lat="44.60408" lon="4.19421">
        <ele>1184.48</ele>
        <time>2013-08-24T13:38:28Z</time>
      </trkpt>
      <trkpt lat="44.60408" lon="4.19419">
        <ele>1184.48</ele>
        <time>2013-08-24T13:38:29Z</time>
      </trkpt>
      <trkpt lat="44.60407" lon="4.19416">
        <ele>1184.48</ele>
        <time>2013-08-24T13:38:30Z</time>
      </trkpt>
      <trkpt lat="44.60407" lon="4.19414">
        <ele>1184.48</ele>
        <time>2013-08-24T13:38:31Z</time>
      </trkpt>
      <trkpt lat="44.60407" lon="4.19412">
        <ele>1184.48</ele>
        <time>2013-08-24T13:38:32Z</time>
      </trkpt>
      <trkpt lat="44.60407" lon="4.19405">
        <ele>1184.48</ele>
        <time>2013-08-24T13:38:35Z</time>
      </trkpt>
      <trkpt lat="44.60409" lon="4.19381">
        <ele>1184</ele>
        <time>2013-08-24T13:38:44Z</time>
      </trkpt>
      <trkpt lat="44.60409" lon="4.19377">
        <ele>1184</ele>
        <time>2013-08-24T13:38:45Z</time>
      </trkpt>
      <trkpt lat="44.60423" lon="4.19338">
        <ele>1184</ele>
        <time>2013-08-24T13:38:58Z</time>
      </trkpt>
      <trkpt lat="44.60444" lon="4.19317">
        <ele>1184</ele>
        <time>2013-08-24T13:39:12Z</time>
      </trkpt>
      <trkpt lat="44.60453" lon="4.19305">
        <ele>1184.96</ele>
        <time>2013-08-24T13:39:20Z</time>
      </trkpt>
      <trkpt lat="44.60455" lon="4.19303">
        <ele>1184.48</ele>
        <time>2013-08-24T13:39:21Z</time>
      </trkpt>
      <trkpt lat="44.60456" lon="4.19301">
        <ele>1184.96</ele>
        <time>2013-08-24T13:39:22Z</time>
      </trkpt>
      <trkpt lat="44.60457" lon="4.19299">
        <ele>1184.96</ele>
        <time>2013-08-24T13:39:23Z</time>
      </trkpt>
      <trkpt lat="44.60458" lon="4.19298">
        <ele>1185.44</ele>
        <time>2013-08-24T13:39:24Z</time>
      </trkpt>
      <trkpt lat="44.60459" lon="4.19296">
        <ele>1185.44</ele>
        <time>2013-08-24T13:39:25Z</time>
      </trkpt>
      <trkpt lat="44.6046" lon="4.19295">
        <ele>1185.92</ele>
        <time>2013-08-24T13:39:26Z</time>
      </trkpt>
      <trkpt lat="44.60462" lon="4.19294">
        <ele>1185.44</ele>
        <time>2013-08-24T13:39:27Z</time>
      </trkpt>
      <trkpt lat="44.60479" lon="4.19274">
        <ele>1187.85</ele>
        <time>2013-08-24T13:39:40Z</time>
      </trkpt>
      <trkpt lat="44.60488" lon="4.19257">
        <ele>1189.29</ele>
        <time>2013-08-24T13:39:50Z</time>
      </trkpt>
      <trkpt lat="44.60489" lon="4.19255">
        <ele>1189.77</ele>
        <time>2013-08-24T13:39:51Z</time>
      </trkpt>
      <trkpt lat="44.6049" lon="4.19253">
        <ele>1189.77</ele>
        <time>2013-08-24T13:39:52Z</time>
      </trkpt>
      <trkpt lat="44.6049" lon="4.19251">
        <ele>1189.77</ele>
        <time>2013-08-24T13:39:53Z</time>
      </trkpt>
      <trkpt lat="44.6049" lon="4.19249">
        <ele>1189.77</ele>
        <time>2013-08-24T13:39:54Z</time>
      </trkpt>
      <trkpt lat="44.60491" lon="4.19247">
        <ele>1189.77</ele>
        <time>2013-08-24T13:39:55Z</time>
      </trkpt>
      <trkpt lat="44.60492" lon="4.19245">
        <ele>1190.25</ele>
        <time>2013-08-24T13:39:56Z</time>
      </trkpt>
      <trkpt lat="44.60493" lon="4.19243">
        <ele>1190.25</ele>
        <time>2013-08-24T13:39:57Z</time>
      </trkpt>
      <trkpt lat="44.60495" lon="4.19235">
        <ele>1190.73</ele>
        <time>2013-08-24T13:40:01Z</time>
      </trkpt>
      <trkpt lat="44.60505" lon="4.19209">
        <ele>1193.13</ele>
        <time>2013-08-24T13:40:14Z</time>
      </trkpt>
      <trkpt lat="44.60511" lon="4.19194">
        <ele>1194.58</ele>
        <time>2013-08-24T13:40:22Z</time>
      </trkpt>
      <trkpt lat="44.60512" lon="4.19192">
        <ele>1194.58</ele>
        <time>2013-08-24T13:40:23Z</time>
      </trkpt>
      <trkpt lat="44.60513" lon="4.1919">
        <ele>1194.58</ele>
        <time>2013-08-24T13:40:24Z</time>
      </trkpt>
      <trkpt lat="44.60523" lon="4.1916">
        <ele>1196.98</ele>
        <time>2013-08-24T13:40:39Z</time>
      </trkpt>
      <trkpt lat="44.60527" lon="4.19151">
        <ele>1197.46</ele>
        <time>2013-08-24T13:40:44Z</time>
      </trkpt>
      <trkpt lat="44.60536" lon="4.19125">
        <ele>1200.82</ele>
        <time>2013-08-24T13:40:57Z</time>
      </trkpt>
      <trkpt lat="44.60544" lon="4.19112">
        <ele>1200.82</ele>
        <time>2013-08-24T13:41:04Z</time>
      </trkpt>
      <trkpt lat="44.60544" lon="4.1911">
        <ele>1201.79</ele>
        <time>2013-08-24T13:41:05Z</time>
      </trkpt>
      <trkpt lat="44.60545" lon="4.19108">
        <ele>1201.79</ele>
        <time>2013-08-24T13:41:06Z</time>
      </trkpt>
      <trkpt lat="44.60552" lon="4.19077">
        <ele>1204.19</ele>
        <time>2013-08-24T13:41:21Z</time>
      </trkpt>
      <trkpt lat="44.60555" lon="4.19066">
        <ele>1205.15</ele>
        <time>2013-08-24T13:41:26Z</time>
      </trkpt>
      <trkpt lat="44.60555" lon="4.19064">
        <ele>1205.15</ele>
        <time>2013-08-24T13:41:27Z</time>
      </trkpt>
      <trkpt lat="44.60556" lon="4.19062">
        <ele>1205.15</ele>
        <time>2013-08-24T13:41:28Z</time>
      </trkpt>
      <trkpt lat="44.60556" lon="4.1906">
        <ele>1206.11</ele>
        <time>2013-08-24T13:41:29Z</time>
      </trkpt>
      <trkpt lat="44.60558" lon="4.19059">
        <ele>1206.11</ele>
        <time>2013-08-24T13:41:30Z</time>
      </trkpt>
      <trkpt lat="44.60558" lon="4.19057">
        <ele>1205.63</ele>
        <time>2013-08-24T13:41:31Z</time>
      </trkpt>
      <trkpt lat="44.60559" lon="4.19055">
        <ele>1206.59</ele>
        <time>2013-08-24T13:41:32Z</time>
      </trkpt>
      <trkpt lat="44.6056" lon="4.19053">
        <ele>1206.11</ele>
        <time>2013-08-24T13:41:33Z</time>
      </trkpt>
      <trkpt lat="44.6056" lon="4.19051">
        <ele>1206.59</ele>
        <time>2013-08-24T13:41:34Z</time>
      </trkpt>
      <trkpt lat="44.60561" lon="4.19049">
        <ele>1207.07</ele>
        <time>2013-08-24T13:41:35Z</time>
      </trkpt>
      <trkpt lat="44.60561" lon="4.19047">
        <ele>1207.07</ele>
        <time>2013-08-24T13:41:36Z</time>
      </trkpt>
      <trkpt lat="44.60562" lon="4.19045">
        <ele>1207.55</ele>
        <time>2013-08-24T13:41:37Z</time>
      </trkpt>
      <trkpt lat="44.60563" lon="4.19043">
        <ele>1207.55</ele>
        <time>2013-08-24T13:41:38Z</time>
      </trkpt>
      <trkpt lat="44.60563" lon="4.19041">
        <ele>1207.55</ele>
        <time>2013-08-24T13:41:39Z</time>
      </trkpt>
      <trkpt lat="44.60564" lon="4.19039">
        <ele>1208.03</ele>
        <time>2013-08-24T13:41:40Z</time>
      </trkpt>
      <trkpt lat="44.60565" lon="4.19038">
        <ele>1208.51</ele>
        <time>2013-08-24T13:41:41Z</time>
      </trkpt>
      <trkpt lat="44.60566" lon="4.19036">
        <ele>1209</ele>
        <time>2013-08-24T13:41:42Z</time>
      </trkpt>
      <trkpt lat="44.60567" lon="4.19035">
        <ele>1209</ele>
        <time>2013-08-24T13:41:43Z</time>
      </trkpt>
      <trkpt lat="44.60568" lon="4.19033">
        <ele>1209</ele>
        <time>2013-08-24T13:41:44Z</time>
      </trkpt>
      <trkpt lat="44.60569" lon="4.19031">
        <ele>1209.48</ele>
        <time>2013-08-24T13:41:45Z</time>
      </trkpt>
      <trkpt lat="44.6057" lon="4.1903">
        <ele>1209.48</ele>
        <time>2013-08-24T13:41:46Z</time>
      </trkpt>
      <trkpt lat="44.60579" lon="4.19016">
        <ele>1211.4</ele>
        <time>2013-08-24T13:41:55Z</time>
      </trkpt>
      <trkpt lat="44.6058" lon="4.19013">
        <ele>1211.4</ele>
        <time>2013-08-24T13:41:57Z</time>
      </trkpt>
      <trkpt lat="44.60581" lon="4.19011">
        <ele>1211.4</ele>
        <time>2013-08-24T13:41:58Z</time>
      </trkpt>
      <trkpt lat="44.60582" lon="4.19009">
        <ele>1211.88</ele>
        <time>2013-08-24T13:41:59Z</time>
      </trkpt>
      <trkpt lat="44.60583" lon="4.19007">
        <ele>1211.4</ele>
        <time>2013-08-24T13:42:00Z</time>
      </trkpt>
      <trkpt lat="44.60584" lon="4.19005">
        <ele>1211.88</ele>
        <time>2013-08-24T13:42:01Z</time>
      </trkpt>
      <trkpt lat="44.60585" lon="4.19003">
        <ele>1212.36</ele>
        <time>2013-08-24T13:42:02Z</time>
      </trkpt>
      <trkpt lat="44.60586" lon="4.19002">
        <ele>1211.88</ele>
        <time>2013-08-24T13:42:03Z</time>
      </trkpt>
      <trkpt lat="44.60587" lon="4.19001">
        <ele>1212.84</ele>
        <time>2013-08-24T13:42:04Z</time>
      </trkpt>
      <trkpt lat="44.60594" lon="4.18989">
        <ele>1213.8</ele>
        <time>2013-08-24T13:42:16Z</time>
      </trkpt>
      <trkpt lat="44.60599" lon="4.18981">
        <ele>1213.8</ele>
        <time>2013-08-24T13:42:24Z</time>
      </trkpt>
      <trkpt lat="44.60601" lon="4.18978">
        <ele>1214.28</ele>
        <time>2013-08-24T13:42:27Z</time>
      </trkpt>
      <trkpt lat="44.60602" lon="4.18977">
        <ele>1214.76</ele>
        <time>2013-08-24T13:42:28Z</time>
      </trkpt>
      <trkpt lat="44.60603" lon="4.18976">
        <ele>1214.76</ele>
        <time>2013-08-24T13:42:29Z</time>
      </trkpt>
      <trkpt lat="44.60605" lon="4.1897">
        <ele>1215.72</ele>
        <time>2013-08-24T13:42:37Z</time>
      </trkpt>
      <trkpt lat="44.60606" lon="4.18968">
        <ele>1215.72</ele>
        <time>2013-08-24T13:42:38Z</time>
      </trkpt>
      <trkpt lat="44.60606" lon="4.18965">
        <ele>1215.72</ele>
        <time>2013-08-24T13:42:40Z</time>
      </trkpt>
      <trkpt lat="44.60606" lon="4.18963">
        <ele>1216.69</ele>
        <time>2013-08-24T13:42:41Z</time>
      </trkpt>
      <trkpt lat="44.60606" lon="4.18961">
        <ele>1216.69</ele>
        <time>2013-08-24T13:42:42Z</time>
      </trkpt>
      <trkpt lat="44.60607" lon="4.18959">
        <ele>1216.21</ele>
        <time>2013-08-24T13:42:43Z</time>
      </trkpt>
      <trkpt lat="44.60608" lon="4.18957">
        <ele>1216.69</ele>
        <time>2013-08-24T13:42:44Z</time>
      </trkpt>
      <trkpt lat="44.60609" lon="4.18956">
        <ele>1217.17</ele>
        <time>2013-08-24T13:42:45Z</time>
      </trkpt>
      <trkpt lat="44.60619" lon="4.1894">
        <ele>1218.13</ele>
        <time>2013-08-24T13:42:56Z</time>
      </trkpt>
      <trkpt lat="44.60628" lon="4.18927">
        <ele>1219.57</ele>
        <time>2013-08-24T13:43:05Z</time>
      </trkpt>
      <trkpt lat="44.60629" lon="4.18926">
        <ele>1219.57</ele>
        <time>2013-08-24T13:43:06Z</time>
      </trkpt>
      <trkpt lat="44.6063" lon="4.18924">
        <ele>1219.09</ele>
        <time>2013-08-24T13:43:07Z</time>
      </trkpt>
      <trkpt lat="44.60635" lon="4.18916">
        <ele>1220.53</ele>
        <time>2013-08-24T13:43:12Z</time>
      </trkpt>
      <trkpt lat="44.60635" lon="4.18914">
        <ele>1220.05</ele>
        <time>2013-08-24T13:43:13Z</time>
      </trkpt>
      <trkpt lat="44.60636" lon="4.18913">
        <ele>1220.53</ele>
        <time>2013-08-24T13:43:14Z</time>
      </trkpt>
      <trkpt lat="44.60637" lon="4.18911">
        <ele>1220.53</ele>
        <time>2013-08-24T13:43:15Z</time>
      </trkpt>
      <trkpt lat="44.60637" lon="4.18909">
        <ele>1220.53</ele>
        <time>2013-08-24T13:43:16Z</time>
      </trkpt>
      <trkpt lat="44.60638" lon="4.18907">
        <ele>1221.49</ele>
        <time>2013-08-24T13:43:17Z</time>
      </trkpt>
      <trkpt lat="44.60638" lon="4.18905">
        <ele>1221.49</ele>
        <time>2013-08-24T13:43:18Z</time>
      </trkpt>
      <trkpt lat="44.60639" lon="4.18904">
        <ele>1221.49</ele>
        <time>2013-08-24T13:43:19Z</time>
      </trkpt>
      <trkpt lat="44.6064" lon="4.18902">
        <ele>1221.97</ele>
        <time>2013-08-24T13:43:20Z</time>
      </trkpt>
      <trkpt lat="44.60641" lon="4.189">
        <ele>1221.49</ele>
        <time>2013-08-24T13:43:21Z</time>
      </trkpt>
      <trkpt lat="44.60641" lon="4.18898">
        <ele>1221.97</ele>
        <time>2013-08-24T13:43:22Z</time>
      </trkpt>
      <trkpt lat="44.60642" lon="4.18896">
        <ele>1221.97</ele>
        <time>2013-08-24T13:43:23Z</time>
      </trkpt>
      <trkpt lat="44.60643" lon="4.18894">
        <ele>1222.93</ele>
        <time>2013-08-24T13:43:24Z</time>
      </trkpt>
      <trkpt lat="44.60644" lon="4.18892">
        <ele>1222.93</ele>
        <time>2013-08-24T13:43:25Z</time>
      </trkpt>
      <trkpt lat="44.60645" lon="4.1889">
        <ele>1222.93</ele>
        <time>2013-08-24T13:43:26Z</time>
      </trkpt>
      <trkpt lat="44.60658" lon="4.18865">
        <ele>1225.34</ele>
        <time>2013-08-24T13:43:40Z</time>
      </trkpt>
      <trkpt lat="44.60667" lon="4.1885">
        <ele>1226.78</ele>
        <time>2013-08-24T13:43:49Z</time>
      </trkpt>
      <trkpt lat="44.60668" lon="4.18848">
        <ele>1226.78</ele>
        <time>2013-08-24T13:43:50Z</time>
      </trkpt>
      <trkpt lat="44.60669" lon="4.18846">
        <ele>1226.78</ele>
        <time>2013-08-24T13:43:51Z</time>
      </trkpt>
      <trkpt lat="44.60669" lon="4.18844">
        <ele>1226.78</ele>
        <time>2013-08-24T13:43:52Z</time>
      </trkpt>
      <trkpt lat="44.6067" lon="4.18842">
        <ele>1227.26</ele>
        <time>2013-08-24T13:43:53Z</time>
      </trkpt>
      <trkpt lat="44.6067" lon="4.1884">
        <ele>1227.26</ele>
        <time>2013-08-24T13:43:54Z</time>
      </trkpt>
      <trkpt lat="44.60671" lon="4.18838">
        <ele>1226.78</ele>
        <time>2013-08-24T13:43:55Z</time>
      </trkpt>
      <trkpt lat="44.60671" lon="4.18835">
        <ele>1227.26</ele>
        <time>2013-08-24T13:43:56Z</time>
      </trkpt>
      <trkpt lat="44.60671" lon="4.18833">
        <ele>1227.26</ele>
        <time>2013-08-24T13:43:57Z</time>
      </trkpt>
      <trkpt lat="44.60671" lon="4.18831">
        <ele>1227.26</ele>
        <time>2013-08-24T13:43:58Z</time>
      </trkpt>
      <trkpt lat="44.60672" lon="4.18828">
        <ele>1227.26</ele>
        <time>2013-08-24T13:43:59Z</time>
      </trkpt>
      <trkpt lat="44.60673" lon="4.18814">
        <ele>1227.26</ele>
        <time>2013-08-24T13:44:04Z</time>
      </trkpt>
      <trkpt lat="44.60673" lon="4.18811">
        <ele>1227.26</ele>
        <time>2013-08-24T13:44:05Z</time>
      </trkpt>
      <trkpt lat="44.60674" lon="4.18808">
        <ele>1227.74</ele>
        <time>2013-08-24T13:44:06Z</time>
      </trkpt>
      <trkpt lat="44.60675" lon="4.18805">
        <ele>1227.26</ele>
        <time>2013-08-24T13:44:07Z</time>
      </trkpt>
      <trkpt lat="44.60676" lon="4.18803">
        <ele>1227.74</ele>
        <time>2013-08-24T13:44:08Z</time>
      </trkpt>
      <trkpt lat="44.60683" lon="4.18765">
        <ele>1226.78</ele>
        <time>2013-08-24T13:44:18Z</time>
      </trkpt>
      <trkpt lat="44.60688" lon="4.1874">
        <ele>1226.3</ele>
        <time>2013-08-24T13:44:23Z</time>
      </trkpt>
      <trkpt lat="44.6069" lon="4.18735">
        <ele>1225.82</ele>
        <time>2013-08-24T13:44:24Z</time>
      </trkpt>
      <trkpt lat="44.60705" lon="4.18685">
        <ele>1224.38</ele>
        <time>2013-08-24T13:44:35Z</time>
      </trkpt>
      <trkpt lat="44.60735" lon="4.1866">
        <ele>1223.9</ele>
        <time>2013-08-24T13:44:45Z</time>
      </trkpt>
      <trkpt lat="44.60759" lon="4.18636">
        <ele>1223.42</ele>
        <time>2013-08-24T13:44:53Z</time>
      </trkpt>
      <trkpt lat="44.60762" lon="4.18632">
        <ele>1223.42</ele>
        <time>2013-08-24T13:44:54Z</time>
      </trkpt>
      <trkpt lat="44.60781" lon="4.18584">
        <ele>1222.45</ele>
        <time>2013-08-24T13:45:04Z</time>
      </trkpt>
      <trkpt lat="44.60791" lon="4.18547">
        <ele>1220.53</ele>
        <time>2013-08-24T13:45:11Z</time>
      </trkpt>
      <trkpt lat="44.60791" lon="4.18542">
        <ele>1220.05</ele>
        <time>2013-08-24T13:45:12Z</time>
      </trkpt>
      <trkpt lat="44.60792" lon="4.18537">
        <ele>1220.53</ele>
        <time>2013-08-24T13:45:13Z</time>
      </trkpt>
      <trkpt lat="44.60792" lon="4.18532">
        <ele>1220.53</ele>
        <time>2013-08-24T13:45:14Z</time>
      </trkpt>
      <trkpt lat="44.60792" lon="4.18528">
        <ele>1220.53</ele>
        <time>2013-08-24T13:45:15Z</time>
      </trkpt>
      <trkpt lat="44.60792" lon="4.18523">
        <ele>1220.53</ele>
        <time>2013-08-24T13:45:16Z</time>
      </trkpt>
      <trkpt lat="44.60795" lon="4.18504">
        <ele>1220.05</ele>
        <time>2013-08-24T13:45:20Z</time>
      </trkpt>
      <trkpt lat="44.60804" lon="4.18499">
        <ele>1219.09</ele>
        <time>2013-08-24T13:45:23Z</time>
      </trkpt>
      <trkpt lat="44.60808" lon="4.185">
        <ele>1218.61</ele>
        <time>2013-08-24T13:45:24Z</time>
      </trkpt>
      <trkpt lat="44.6082" lon="4.18506">
        <ele>1218.13</ele>
        <time>2013-08-24T13:45:27Z</time>
      </trkpt>
      <trkpt lat="44.60824" lon="4.18509">
        <ele>1218.13</ele>
        <time>2013-08-24T13:45:28Z</time>
      </trkpt>
      <trkpt lat="44.60828" lon="4.18511">
        <ele>1218.13</ele>
        <time>2013-08-24T13:45:29Z</time>
      </trkpt>
      <trkpt lat="44.60859" lon="4.18524">
        <ele>1215.24</ele>
        <time>2013-08-24T13:45:35Z</time>
      </trkpt>
      <trkpt lat="44.6087" lon="4.18531">
        <ele>1215.24</ele>
        <time>2013-08-24T13:45:37Z</time>
      </trkpt>
      <trkpt lat="44.60875" lon="4.18533">
        <ele>1214.28</ele>
        <time>2013-08-24T13:45:38Z</time>
      </trkpt>
      <trkpt lat="44.60882" lon="4.18535">
        <ele>1214.28</ele>
        <time>2013-08-24T13:45:39Z</time>
      </trkpt>
      <trkpt lat="44.60888" lon="4.18536">
        <ele>1213.8</ele>
        <time>2013-08-24T13:45:40Z</time>
      </trkpt>
      <trkpt lat="44.60895" lon="4.18538">
        <ele>1212.84</ele>
        <time>2013-08-24T13:45:41Z</time>
      </trkpt>
      <trkpt lat="44.60928" lon="4.18548">
        <ele>1209.96</ele>
        <time>2013-08-24T13:45:46Z</time>
      </trkpt>
      <trkpt lat="44.60933" lon="4.1855">
        <ele>1209.48</ele>
        <time>2013-08-24T13:45:47Z</time>
      </trkpt>
      <trkpt lat="44.60939" lon="4.18552">
        <ele>1208.51</ele>
        <time>2013-08-24T13:45:48Z</time>
      </trkpt>
      <trkpt lat="44.60951" lon="4.18555">
        <ele>1207.55</ele>
        <time>2013-08-24T13:45:50Z</time>
      </trkpt>
      <trkpt lat="44.60972" lon="4.18556">
        <ele>1204.67</ele>
        <time>2013-08-24T13:45:53Z</time>
      </trkpt>
      <trkpt lat="44.6098" lon="4.18554">
        <ele>1203.71</ele>
        <time>2013-08-24T13:45:54Z</time>
      </trkpt>
      <trkpt lat="44.6101" lon="4.18539">
        <ele>1200.82</ele>
        <time>2013-08-24T13:45:58Z</time>
      </trkpt>
      <trkpt lat="44.61017" lon="4.18533">
        <ele>1200.34</ele>
        <time>2013-08-24T13:45:59Z</time>
      </trkpt>
      <trkpt lat="44.61023" lon="4.18526">
        <ele>1200.34</ele>
        <time>2013-08-24T13:46:00Z</time>
      </trkpt>
      <trkpt lat="44.61031" lon="4.18513">
        <ele>1199.86</ele>
        <time>2013-08-24T13:46:02Z</time>
      </trkpt>
      <trkpt lat="44.61037" lon="4.18501">
        <ele>1198.42</ele>
        <time>2013-08-24T13:46:04Z</time>
      </trkpt>
      <trkpt lat="44.61041" lon="4.18495">
        <ele>1198.42</ele>
        <time>2013-08-24T13:46:05Z</time>
      </trkpt>
      <trkpt lat="44.61047" lon="4.18482">
        <ele>1197.46</ele>
        <time>2013-08-24T13:46:07Z</time>
      </trkpt>
      <trkpt lat="44.6105" lon="4.18476">
        <ele>1196.98</ele>
        <time>2013-08-24T13:46:08Z</time>
      </trkpt>
      <trkpt lat="44.61054" lon="4.18469">
        <ele>1196.98</ele>
        <time>2013-08-24T13:46:09Z</time>
      </trkpt>
      <trkpt lat="44.6106" lon="4.18454">
        <ele>1196.02</ele>
        <time>2013-08-24T13:46:11Z</time>
      </trkpt>
      <trkpt lat="44.61071" lon="4.18436">
        <ele>1195.54</ele>
        <time>2013-08-24T13:46:14Z</time>
      </trkpt>
      <trkpt lat="44.61073" lon="4.1843">
        <ele>1195.54</ele>
        <time>2013-08-24T13:46:15Z</time>
      </trkpt>
      <trkpt lat="44.61074" lon="4.18423">
        <ele>1194.58</ele>
        <time>2013-08-24T13:46:16Z</time>
      </trkpt>
      <trkpt lat="44.61075" lon="4.18415">
        <ele>1193.13</ele>
        <time>2013-08-24T13:46:17Z</time>
      </trkpt>
      <trkpt lat="44.61076" lon="4.18407">
        <ele>1193.13</ele>
        <time>2013-08-24T13:46:18Z</time>
      </trkpt>
      <trkpt lat="44.61078" lon="4.18399">
        <ele>1193.13</ele>
        <time>2013-08-24T13:46:19Z</time>
      </trkpt>
      <trkpt lat="44.61081" lon="4.1839">
        <ele>1192.17</ele>
        <time>2013-08-24T13:46:20Z</time>
      </trkpt>
      <trkpt lat="44.61084" lon="4.18382">
        <ele>1191.69</ele>
        <time>2013-08-24T13:46:21Z</time>
      </trkpt>
      <trkpt lat="44.61087" lon="4.18373">
        <ele>1190.73</ele>
        <time>2013-08-24T13:46:22Z</time>
      </trkpt>
      <trkpt lat="44.6109" lon="4.18364">
        <ele>1190.25</ele>
        <time>2013-08-24T13:46:23Z</time>
      </trkpt>
      <trkpt lat="44.61103" lon="4.18316">
        <ele>1187.37</ele>
        <time>2013-08-24T13:46:28Z</time>
      </trkpt>
      <trkpt lat="44.61105" lon="4.18306">
        <ele>1187.37</ele>
        <time>2013-08-24T13:46:29Z</time>
      </trkpt>
      <trkpt lat="44.61106" lon="4.18298">
        <ele>1186.88</ele>
        <time>2013-08-24T13:46:30Z</time>
      </trkpt>
      <trkpt lat="44.61107" lon="4.18291">
        <ele>1186.4</ele>
        <time>2013-08-24T13:46:31Z</time>
      </trkpt>
      <trkpt lat="44.61107" lon="4.18284">
        <ele>1185.92</ele>
        <time>2013-08-24T13:46:32Z</time>
      </trkpt>
      <trkpt lat="44.61108" lon="4.18277">
        <ele>1185.44</ele>
        <time>2013-08-24T13:46:33Z</time>
      </trkpt>
      <trkpt lat="44.61109" lon="4.18271">
        <ele>1185.44</ele>
        <time>2013-08-24T13:46:34Z</time>
      </trkpt>
      <trkpt lat="44.61109" lon="4.18264">
        <ele>1184.48</ele>
        <time>2013-08-24T13:46:35Z</time>
      </trkpt>
      <trkpt lat="44.6111" lon="4.18256">
        <ele>1184.48</ele>
        <time>2013-08-24T13:46:36Z</time>
      </trkpt>
      <trkpt lat="44.6111" lon="4.1824">
        <ele>1183.52</ele>
        <time>2013-08-24T13:46:38Z</time>
      </trkpt>
      <trkpt lat="44.61111" lon="4.18214">
        <ele>1181.6</ele>
        <time>2013-08-24T13:46:41Z</time>
      </trkpt>
      <trkpt lat="44.61118" lon="4.18174">
        <ele>1180.16</ele>
        <time>2013-08-24T13:46:46Z</time>
      </trkpt>
      <trkpt lat="44.61121" lon="4.18168">
        <ele>1180.64</ele>
        <time>2013-08-24T13:46:47Z</time>
      </trkpt>
      <trkpt lat="44.61124" lon="4.18161">
        <ele>1180.64</ele>
        <time>2013-08-24T13:46:48Z</time>
      </trkpt>
      <trkpt lat="44.61128" lon="4.18156">
        <ele>1180.16</ele>
        <time>2013-08-24T13:46:49Z</time>
      </trkpt>
      <trkpt lat="44.61132" lon="4.18152">
        <ele>1180.16</ele>
        <time>2013-08-24T13:46:50Z</time>
      </trkpt>
      <trkpt lat="44.61136" lon="4.18147">
        <ele>1180.16</ele>
        <time>2013-08-24T13:46:51Z</time>
      </trkpt>
      <trkpt lat="44.6114" lon="4.18142">
        <ele>1179.67</ele>
        <time>2013-08-24T13:46:52Z</time>
      </trkpt>
      <trkpt lat="44.61142" lon="4.18137">
        <ele>1179.67</ele>
        <time>2013-08-24T13:46:53Z</time>
      </trkpt>
      <trkpt lat="44.61144" lon="4.1813">
        <ele>1179.67</ele>
        <time>2013-08-24T13:46:54Z</time>
      </trkpt>
      <trkpt lat="44.61145" lon="4.18123">
        <ele>1178.71</ele>
        <time>2013-08-24T13:46:55Z</time>
      </trkpt>
      <trkpt lat="44.61146" lon="4.18117">
        <ele>1178.71</ele>
        <time>2013-08-24T13:46:56Z</time>
      </trkpt>
      <trkpt lat="44.61147" lon="4.18112">
        <ele>1179.19</ele>
        <time>2013-08-24T13:46:57Z</time>
      </trkpt>
      <trkpt lat="44.61147" lon="4.18107">
        <ele>1179.67</ele>
        <time>2013-08-24T13:46:58Z</time>
      </trkpt>
      <trkpt lat="44.61148" lon="4.18103">
        <ele>1179.19</ele>
        <time>2013-08-24T13:46:59Z</time>
      </trkpt>
      <trkpt lat="44.61148" lon="4.18098">
        <ele>1179.67</ele>
        <time>2013-08-24T13:47:00Z</time>
      </trkpt>
      <trkpt lat="44.61152" lon="4.18067">
        <ele>1181.12</ele>
        <time>2013-08-24T13:47:11Z</time>
      </trkpt>
      <trkpt lat="44.61154" lon="4.18043">
        <ele>1182.08</ele>
        <time>2013-08-24T13:47:21Z</time>
      </trkpt>
      <trkpt lat="44.61154" lon="4.1804">
        <ele>1183.04</ele>
        <time>2013-08-24T13:47:22Z</time>
      </trkpt>
      <trkpt lat="44.61154" lon="4.18038">
        <ele>1183.04</ele>
        <time>2013-08-24T13:47:23Z</time>
      </trkpt>
      <trkpt lat="44.61153" lon="4.18031">
        <ele>1183.52</ele>
        <time>2013-08-24T13:47:26Z</time>
      </trkpt>
      <trkpt lat="44.61154" lon="4.18029">
        <ele>1184</ele>
        <time>2013-08-24T13:47:27Z</time>
      </trkpt>
      <trkpt lat="44.61151" lon="4.18005">
        <ele>1185.92</ele>
        <time>2013-08-24T13:47:39Z</time>
      </trkpt>
      <trkpt lat="44.6115" lon="4.1798">
        <ele>1187.85</ele>
        <time>2013-08-24T13:47:51Z</time>
      </trkpt>
      <trkpt lat="44.61149" lon="4.17949">
        <ele>1190.25</ele>
        <time>2013-08-24T13:48:06Z</time>
      </trkpt>
      <trkpt lat="44.6115" lon="4.17945">
        <ele>1190.73</ele>
        <time>2013-08-24T13:48:08Z</time>
      </trkpt>
      <trkpt lat="44.61151" lon="4.17943">
        <ele>1190.73</ele>
        <time>2013-08-24T13:48:09Z</time>
      </trkpt>
      <trkpt lat="44.61152" lon="4.17942">
        <ele>1190.73</ele>
        <time>2013-08-24T13:48:10Z</time>
      </trkpt>
      <trkpt lat="44.61153" lon="4.1794">
        <ele>1190.25</ele>
        <time>2013-08-24T13:48:11Z</time>
      </trkpt>
      <trkpt lat="44.61155" lon="4.17939">
        <ele>1190.73</ele>
        <time>2013-08-24T13:48:12Z</time>
      </trkpt>
      <trkpt lat="44.61155" lon="4.17937">
        <ele>1190.73</ele>
        <time>2013-08-24T13:48:13Z</time>
      </trkpt>
      <trkpt lat="44.61156" lon="4.17936">
        <ele>1190.73</ele>
        <time>2013-08-24T13:48:14Z</time>
      </trkpt>
      <trkpt lat="44.61157" lon="4.17935">
        <ele>1190.73</ele>
        <time>2013-08-24T13:48:15Z</time>
      </trkpt>
      <trkpt lat="44.61158" lon="4.17934">
        <ele>1191.21</ele>
        <time>2013-08-24T13:48:16Z</time>
      </trkpt>
      <trkpt lat="44.6116" lon="4.17933">
        <ele>1191.21</ele>
        <time>2013-08-24T13:48:17Z</time>
      </trkpt>
      <trkpt lat="44.61161" lon="4.17933">
        <ele>1191.21</ele>
        <time>2013-08-24T13:48:18Z</time>
      </trkpt>
      <trkpt lat="44.61177" lon="4.17924">
        <ele>1191.69</ele>
        <time>2013-08-24T13:48:29Z</time>
      </trkpt>
      <trkpt lat="44.61195" lon="4.17903">
        <ele>1193.13</ele>
        <time>2013-08-24T13:48:43Z</time>
      </trkpt>
      <trkpt lat="44.61204" lon="4.17868">
        <ele>1194.58</ele>
        <time>2013-08-24T13:48:58Z</time>
      </trkpt>
      <trkpt lat="44.61206" lon="4.17856">
        <ele>1196.5</ele>
        <time>2013-08-24T13:49:04Z</time>
      </trkpt>
      <trkpt lat="44.61205" lon="4.17842">
        <ele>1196.98</ele>
        <time>2013-08-24T13:49:10Z</time>
      </trkpt>
      <trkpt lat="44.61204" lon="4.1784">
        <ele>1196.98</ele>
        <time>2013-08-24T13:49:11Z</time>
      </trkpt>
      <trkpt lat="44.61203" lon="4.17838">
        <ele>1197.46</ele>
        <time>2013-08-24T13:49:12Z</time>
      </trkpt>
      <trkpt lat="44.61203" lon="4.17836">
        <ele>1197.94</ele>
        <time>2013-08-24T13:49:13Z</time>
      </trkpt>
      <trkpt lat="44.61203" lon="4.17834">
        <ele>1198.42</ele>
        <time>2013-08-24T13:49:14Z</time>
      </trkpt>
      <trkpt lat="44.61203" lon="4.17831">
        <ele>1197.94</ele>
        <time>2013-08-24T13:49:15Z</time>
      </trkpt>
      <trkpt lat="44.61204" lon="4.17829">
        <ele>1197.94</ele>
        <time>2013-08-24T13:49:16Z</time>
      </trkpt>
      <trkpt lat="44.61206" lon="4.1782">
        <ele>1198.9</ele>
        <time>2013-08-24T13:49:20Z</time>
      </trkpt>
      <trkpt lat="44.61217" lon="4.17808">
        <ele>1198.9</ele>
        <time>2013-08-24T13:49:28Z</time>
      </trkpt>
      <trkpt lat="44.61219" lon="4.17806">
        <ele>1198.9</ele>
        <time>2013-08-24T13:49:29Z</time>
      </trkpt>
      <trkpt lat="44.61235" lon="4.17769">
        <ele>1198.42</ele>
        <time>2013-08-24T13:49:41Z</time>
      </trkpt>
      <trkpt lat="44.61235" lon="4.17721">
        <ele>1196.5</ele>
        <time>2013-08-24T13:49:53Z</time>
      </trkpt>
      <trkpt lat="44.61236" lon="4.17693">
        <ele>1197.94</ele>
        <time>2013-08-24T13:50:03Z</time>
      </trkpt>
      <trkpt lat="44.61237" lon="4.1769">
        <ele>1197.94</ele>
        <time>2013-08-24T13:50:05Z</time>
      </trkpt>
      <trkpt lat="44.61238" lon="4.17688">
        <ele>1198.42</ele>
        <time>2013-08-24T13:50:06Z</time>
      </trkpt>
      <trkpt lat="44.61242" lon="4.1767">
        <ele>1199.86</ele>
        <time>2013-08-24T13:50:15Z</time>
      </trkpt>
      <trkpt lat="44.61243" lon="4.17669">
        <ele>1199.86</ele>
        <time>2013-08-24T13:50:16Z</time>
      </trkpt>
      <trkpt lat="44.61243" lon="4.17667">
        <ele>1199.86</ele>
        <time>2013-08-24T13:50:17Z</time>
      </trkpt>
      <trkpt lat="44.61248" lon="4.17641">
        <ele>1203.23</ele>
        <time>2013-08-24T13:50:30Z</time>
      </trkpt>
      <trkpt lat="44.61248" lon="4.17639">
        <ele>1203.23</ele>
        <time>2013-08-24T13:50:31Z</time>
      </trkpt>
      <trkpt lat="44.61248" lon="4.17637">
        <ele>1203.71</ele>
        <time>2013-08-24T13:50:32Z</time>
      </trkpt>
      <trkpt lat="44.61249" lon="4.17635">
        <ele>1203.71</ele>
        <time>2013-08-24T13:50:33Z</time>
      </trkpt>
      <trkpt lat="44.6125" lon="4.17633">
        <ele>1203.71</ele>
        <time>2013-08-24T13:50:34Z</time>
      </trkpt>
      <trkpt lat="44.61251" lon="4.17632">
        <ele>1203.71</ele>
        <time>2013-08-24T13:50:35Z</time>
      </trkpt>
      <trkpt lat="44.61251" lon="4.1763">
        <ele>1204.67</ele>
        <time>2013-08-24T13:50:36Z</time>
      </trkpt>
      <trkpt lat="44.61252" lon="4.17629">
        <ele>1204.67</ele>
        <time>2013-08-24T13:50:37Z</time>
      </trkpt>
      <trkpt lat="44.61253" lon="4.17628">
        <ele>1204.67</ele>
        <time>2013-08-24T13:50:38Z</time>
      </trkpt>
      <trkpt lat="44.61256" lon="4.17608">
        <ele>1206.59</ele>
        <time>2013-08-24T13:50:48Z</time>
      </trkpt>
      <trkpt lat="44.61256" lon="4.17607">
        <ele>1207.07</ele>
        <time>2013-08-24T13:50:49Z</time>
      </trkpt>
      <trkpt lat="44.61257" lon="4.17593">
        <ele>1208.51</ele>
        <time>2013-08-24T13:50:56Z</time>
      </trkpt>
      <trkpt lat="44.61257" lon="4.17592">
        <ele>1208.51</ele>
        <time>2013-08-24T13:50:57Z</time>
      </trkpt>
      <trkpt lat="44.61256" lon="4.1759">
        <ele>1208.51</ele>
        <time>2013-08-24T13:50:58Z</time>
      </trkpt>
      <trkpt lat="44.61256" lon="4.17589">
        <ele>1208.51</ele>
        <time>2013-08-24T13:50:59Z</time>
      </trkpt>
      <trkpt lat="44.61255" lon="4.17587">
        <ele>1208.51</ele>
        <time>2013-08-24T13:51:00Z</time>
      </trkpt>
      <trkpt lat="44.61254" lon="4.17583">
        <ele>1208.51</ele>
        <time>2013-08-24T13:51:03Z</time>
      </trkpt>
      <trkpt lat="44.61254" lon="4.17581">
        <ele>1208.51</ele>
        <time>2013-08-24T13:51:04Z</time>
      </trkpt>
      <trkpt lat="44.61254" lon="4.17579">
        <ele>1209.48</ele>
        <time>2013-08-24T13:51:05Z</time>
      </trkpt>
      <trkpt lat="44.61253" lon="4.17576">
        <ele>1209.48</ele>
        <time>2013-08-24T13:51:06Z</time>
      </trkpt>
      <trkpt lat="44.61253" lon="4.17574">
        <ele>1209.48</ele>
        <time>2013-08-24T13:51:07Z</time>
      </trkpt>
      <trkpt lat="44.61253" lon="4.17571">
        <ele>1210.44</ele>
        <time>2013-08-24T13:51:08Z</time>
      </trkpt>
      <trkpt lat="44.61251" lon="4.17561">
        <ele>1210.92</ele>
        <time>2013-08-24T13:51:14Z</time>
      </trkpt>
      <trkpt lat="44.61251" lon="4.17559">
        <ele>1210.92</ele>
        <time>2013-08-24T13:51:15Z</time>
      </trkpt>
      <trkpt lat="44.6125" lon="4.17558">
        <ele>1211.4</ele>
        <time>2013-08-24T13:51:16Z</time>
      </trkpt>
      <trkpt lat="44.61251" lon="4.17556">
        <ele>1211.4</ele>
        <time>2013-08-24T13:51:17Z</time>
      </trkpt>
      <trkpt lat="44.61251" lon="4.17554">
        <ele>1211.88</ele>
        <time>2013-08-24T13:51:18Z</time>
      </trkpt>
      <trkpt lat="44.61251" lon="4.17552">
        <ele>1212.36</ele>
        <time>2013-08-24T13:51:19Z</time>
      </trkpt>
      <trkpt lat="44.61251" lon="4.17551">
        <ele>1212.36</ele>
        <time>2013-08-24T13:51:20Z</time>
      </trkpt>
      <trkpt lat="44.61251" lon="4.17549">
        <ele>1212.84</ele>
        <time>2013-08-24T13:51:21Z</time>
      </trkpt>
      <trkpt lat="44.61251" lon="4.17548">
        <ele>1212.84</ele>
        <time>2013-08-24T13:51:22Z</time>
      </trkpt>
      <trkpt lat="44.61252" lon="4.17546">
        <ele>1213.32</ele>
        <time>2013-08-24T13:51:23Z</time>
      </trkpt>
      <trkpt lat="44.61253" lon="4.17545">
        <ele>1213.32</ele>
        <time>2013-08-24T13:51:24Z</time>
      </trkpt>
      <trkpt lat="44.61254" lon="4.17544">
        <ele>1213.8</ele>
        <time>2013-08-24T13:51:25Z</time>
      </trkpt>
      <trkpt lat="44.61255" lon="4.17544">
        <ele>1213.8</ele>
        <time>2013-08-24T13:51:26Z</time>
      </trkpt>
      <trkpt lat="44.61257" lon="4.17544">
        <ele>1213.8</ele>
        <time>2013-08-24T13:51:27Z</time>
      </trkpt>
      <trkpt lat="44.61263" lon="4.17541">
        <ele>1214.28</ele>
        <time>2013-08-24T13:51:32Z</time>
      </trkpt>
      <trkpt lat="44.61264" lon="4.1754">
        <ele>1214.28</ele>
        <time>2013-08-24T13:51:33Z</time>
      </trkpt>
      <trkpt lat="44.61264" lon="4.17538">
        <ele>1213.8</ele>
        <time>2013-08-24T13:51:34Z</time>
      </trkpt>
      <trkpt lat="44.61264" lon="4.17537">
        <ele>1213.8</ele>
        <time>2013-08-24T13:51:47Z</time>
      </trkpt>
      <trkpt lat="44.61264" lon="4.17537">
        <ele>1214.28</ele>
        <time>2013-08-24T13:52:14Z</time>
      </trkpt>
      <trkpt lat="44.61264" lon="4.17536">
        <ele>1213.32</ele>
        <time>2013-08-24T13:52:39Z</time>
      </trkpt>
      <trkpt lat="44.61264" lon="4.17536">
        <ele>1212.36</ele>
        <time>2013-08-24T13:52:43Z</time>
      </trkpt>
      <trkpt lat="44.61264" lon="4.17536">
        <ele>1215.24</ele>
        <time>2013-08-24T13:52:45Z</time>
      </trkpt>
      <trkpt lat="44.61264" lon="4.17536">
        <ele>1215.24</ele>
        <time>2013-08-24T13:53:17Z</time>
      </trkpt>
      <trkpt lat="44.61264" lon="4.17536">
        <ele>1215.24</ele>
        <time>2013-08-24T13:53:38Z</time>
      </trkpt>
      <trkpt lat="44.61264" lon="4.17536">
        <ele>1215.24</ele>
        <time>2013-08-24T13:54:04Z</time>
      </trkpt>
      <trkpt lat="44.61264" lon="4.17535">
        <ele>1214.76</ele>
        <time>2013-08-24T13:54:21Z</time>
      </trkpt>
      <trkpt lat="44.61264" lon="4.17536">
        <ele>1215.24</ele>
        <time>2013-08-24T13:54:41Z</time>
      </trkpt>
      <trkpt lat="44.61263" lon="4.17536">
        <ele>1215.72</ele>
        <time>2013-08-24T13:54:57Z</time>
      </trkpt>
      <trkpt lat="44.61264" lon="4.17536">
        <ele>1215.24</ele>
        <time>2013-08-24T13:55:29Z</time>
      </trkpt>
      <trkpt lat="44.61264" lon="4.17536">
        <ele>1215.72</ele>
        <time>2013-08-24T13:55:51Z</time>
      </trkpt>
      <trkpt lat="44.61264" lon="4.17536">
        <ele>1215.72</ele>
        <time>2013-08-24T13:56:20Z</time>
      </trkpt>
      <trkpt lat="44.61264" lon="4.17536">
        <ele>1215.24</ele>
        <time>2013-08-24T13:56:53Z</time>
      </trkpt>
      <trkpt lat="44.61264" lon="4.17536">
        <ele>1216.21</ele>
        <time>2013-08-24T13:57:21Z</time>
      </trkpt>
      <trkpt lat="44.61264" lon="4.17536">
        <ele>1215.24</ele>
        <time>2013-08-24T13:57:40Z</time>
      </trkpt>
      <trkpt lat="44.61264" lon="4.17536">
        <ele>1214.76</ele>
        <time>2013-08-24T13:58:11Z</time>
      </trkpt>
      <trkpt lat="44.61264" lon="4.17536">
        <ele>1216.21</ele>
        <time>2013-08-24T13:58:38Z</time>
      </trkpt>
      <trkpt lat="44.61264" lon="4.17536">
        <ele>1216.21</ele>
        <time>2013-08-24T13:59:06Z</time>
      </trkpt>
      <trkpt lat="44.61264" lon="4.17536">
        <ele>1215.72</ele>
        <time>2013-08-24T13:59:34Z</time>
      </trkpt>
      <trkpt lat="44.61266" lon="4.17526">
        <ele>1216.21</ele>
        <time>2013-08-24T13:59:43Z</time>
      </trkpt>
      <trkpt lat="44.61265" lon="4.1752">
        <ele>1216.69</ele>
        <time>2013-08-24T13:59:47Z</time>
      </trkpt>
      <trkpt lat="44.61265" lon="4.17519">
        <ele>1217.17</ele>
        <time>2013-08-24T13:59:48Z</time>
      </trkpt>
      <trkpt lat="44.61265" lon="4.17517">
        <ele>1217.17</ele>
        <time>2013-08-24T13:59:49Z</time>
      </trkpt>
      <trkpt lat="44.61266" lon="4.17515">
        <ele>1217.65</ele>
        <time>2013-08-24T13:59:50Z</time>
      </trkpt>
      <trkpt lat="44.61265" lon="4.17512">
        <ele>1218.13</ele>
        <time>2013-08-24T13:59:53Z</time>
      </trkpt>
      <trkpt lat="44.61264" lon="4.17509">
        <ele>1218.13</ele>
        <time>2013-08-24T13:59:55Z</time>
      </trkpt>
      <trkpt lat="44.61264" lon="4.17503">
        <ele>1218.13</ele>
        <time>2013-08-24T13:59:58Z</time>
      </trkpt>
      <trkpt lat="44.61267" lon="4.17492">
        <ele>1219.09</ele>
        <time>2013-08-24T14:00:05Z</time>
      </trkpt>
      <trkpt lat="44.61267" lon="4.17491">
        <ele>1219.57</ele>
        <time>2013-08-24T14:00:06Z</time>
      </trkpt>
      <trkpt lat="44.61268" lon="4.17489">
        <ele>1219.09</ele>
        <time>2013-08-24T14:00:07Z</time>
      </trkpt>
      <trkpt lat="44.61268" lon="4.17488">
        <ele>1219.57</ele>
        <time>2013-08-24T14:00:08Z</time>
      </trkpt>
      <trkpt lat="44.61269" lon="4.17478">
        <ele>1220.53</ele>
        <time>2013-08-24T14:00:16Z</time>
      </trkpt>
      <trkpt lat="44.6127" lon="4.17476">
        <ele>1220.53</ele>
        <time>2013-08-24T14:00:17Z</time>
      </trkpt>
      <trkpt lat="44.61271" lon="4.17462">
        <ele>1221.01</ele>
        <time>2013-08-24T14:00:24Z</time>
      </trkpt>
      <trkpt lat="44.61271" lon="4.1746">
        <ele>1221.01</ele>
        <time>2013-08-24T14:00:25Z</time>
      </trkpt>
      <trkpt lat="44.6127" lon="4.17458">
        <ele>1221.49</ele>
        <time>2013-08-24T14:00:26Z</time>
      </trkpt>
      <trkpt lat="44.61269" lon="4.1745">
        <ele>1221.49</ele>
        <time>2013-08-24T14:00:30Z</time>
      </trkpt>
      <trkpt lat="44.61269" lon="4.17429">
        <ele>1223.42</ele>
        <time>2013-08-24T14:00:41Z</time>
      </trkpt>
      <trkpt lat="44.61269" lon="4.17426">
        <ele>1223.42</ele>
        <time>2013-08-24T14:00:42Z</time>
      </trkpt>
      <trkpt lat="44.6127" lon="4.17425">
        <ele>1223.42</ele>
        <time>2013-08-24T14:00:43Z</time>
      </trkpt>
      <trkpt lat="44.61273" lon="4.17407">
        <ele>1225.82</ele>
        <time>2013-08-24T14:00:54Z</time>
      </trkpt>
      <trkpt lat="44.61273" lon="4.17405">
        <ele>1225.82</ele>
        <time>2013-08-24T14:00:55Z</time>
      </trkpt>
      <trkpt lat="44.61273" lon="4.17385">
        <ele>1227.26</ele>
        <time>2013-08-24T14:01:05Z</time>
      </trkpt>
      <trkpt lat="44.61272" lon="4.17383">
        <ele>1228.22</ele>
        <time>2013-08-24T14:01:06Z</time>
      </trkpt>
      <trkpt lat="44.61272" lon="4.1738">
        <ele>1227.74</ele>
        <time>2013-08-24T14:01:07Z</time>
      </trkpt>
      <trkpt lat="44.61271" lon="4.17375">
        <ele>1228.7</ele>
        <time>2013-08-24T14:01:10Z</time>
      </trkpt>
      <trkpt lat="44.61272" lon="4.17373">
        <ele>1228.7</ele>
        <time>2013-08-24T14:01:11Z</time>
      </trkpt>
      <trkpt lat="44.61272" lon="4.17371">
        <ele>1228.22</ele>
        <time>2013-08-24T14:01:12Z</time>
      </trkpt>
      <trkpt lat="44.61272" lon="4.1737">
        <ele>1228.7</ele>
        <time>2013-08-24T14:01:13Z</time>
      </trkpt>
      <trkpt lat="44.61272" lon="4.17368">
        <ele>1228.7</ele>
        <time>2013-08-24T14:01:14Z</time>
      </trkpt>
      <trkpt lat="44.61273" lon="4.17363">
        <ele>1228.7</ele>
        <time>2013-08-24T14:01:16Z</time>
      </trkpt>
      <trkpt lat="44.61272" lon="4.17361">
        <ele>1228.7</ele>
        <time>2013-08-24T14:01:17Z</time>
      </trkpt>
      <trkpt lat="44.61272" lon="4.17359">
        <ele>1229.18</ele>
        <time>2013-08-24T14:01:18Z</time>
      </trkpt>
      <trkpt lat="44.61271" lon="4.17356">
        <ele>1229.66</ele>
        <time>2013-08-24T14:01:19Z</time>
      </trkpt>
      <trkpt lat="44.6127" lon="4.17354">
        <ele>1229.18</ele>
        <time>2013-08-24T14:01:20Z</time>
      </trkpt>
      <trkpt lat="44.6127" lon="4.17349">
        <ele>1230.14</ele>
        <time>2013-08-24T14:01:23Z</time>
      </trkpt>
      <trkpt lat="44.61269" lon="4.17347">
        <ele>1230.14</ele>
        <time>2013-08-24T14:01:24Z</time>
      </trkpt>
      <trkpt lat="44.6127" lon="4.17344">
        <ele>1230.62</ele>
        <time>2013-08-24T14:01:25Z</time>
      </trkpt>
      <trkpt lat="44.61271" lon="4.17342">
        <ele>1230.62</ele>
        <time>2013-08-24T14:01:26Z</time>
      </trkpt>
      <trkpt lat="44.61274" lon="4.1734">
        <ele>1231.11</ele>
        <time>2013-08-24T14:01:28Z</time>
      </trkpt>
      <trkpt lat="44.61276" lon="4.17338">
        <ele>1231.59</ele>
        <time>2013-08-24T14:01:30Z</time>
      </trkpt>
      <trkpt lat="44.61277" lon="4.17336">
        <ele>1231.59</ele>
        <time>2013-08-24T14:01:31Z</time>
      </trkpt>
      <trkpt lat="44.6128" lon="4.17328">
        <ele>1231.59</ele>
        <time>2013-08-24T14:01:36Z</time>
      </trkpt>
      <trkpt lat="44.61282" lon="4.17323">
        <ele>1232.55</ele>
        <time>2013-08-24T14:01:39Z</time>
      </trkpt>
      <trkpt lat="44.61282" lon="4.17321">
        <ele>1232.07</ele>
        <time>2013-08-24T14:01:41Z</time>
      </trkpt>
      <trkpt lat="44.61282" lon="4.1732">
        <ele>1232.55</ele>
        <time>2013-08-24T14:01:42Z</time>
      </trkpt>
      <trkpt lat="44.61287" lon="4.17314">
        <ele>1233.51</ele>
        <time>2013-08-24T14:01:46Z</time>
      </trkpt>
      <trkpt lat="44.61298" lon="4.173">
        <ele>1236.87</ele>
        <time>2013-08-24T14:01:57Z</time>
      </trkpt>
      <trkpt lat="44.61305" lon="4.17289">
        <ele>1237.35</ele>
        <time>2013-08-24T14:02:07Z</time>
      </trkpt>
      <trkpt lat="44.61306" lon="4.17283">
        <ele>1238.32</ele>
        <time>2013-08-24T14:02:12Z</time>
      </trkpt>
      <trkpt lat="44.61309" lon="4.17282">
        <ele>1238.8</ele>
        <time>2013-08-24T14:02:13Z</time>
      </trkpt>
      <trkpt lat="44.61312" lon="4.17281">
        <ele>1238.8</ele>
        <time>2013-08-24T14:02:14Z</time>
      </trkpt>
      <trkpt lat="44.61331" lon="4.17269">
        <ele>1240.24</ele>
        <time>2013-08-24T14:02:26Z</time>
      </trkpt>
      <trkpt lat="44.61332" lon="4.17268">
        <ele>1241.2</ele>
        <time>2013-08-24T14:02:27Z</time>
      </trkpt>
      <trkpt lat="44.61339" lon="4.17251">
        <ele>1242.16</ele>
        <time>2013-08-24T14:02:40Z</time>
      </trkpt>
      <trkpt lat="44.61339" lon="4.1725">
        <ele>1242.64</ele>
        <time>2013-08-24T14:02:41Z</time>
      </trkpt>
      <trkpt lat="44.61339" lon="4.17248">
        <ele>1242.16</ele>
        <time>2013-08-24T14:02:42Z</time>
      </trkpt>
      <trkpt lat="44.61339" lon="4.17245">
        <ele>1242.16</ele>
        <time>2013-08-24T14:02:44Z</time>
      </trkpt>
      <trkpt lat="44.61334" lon="4.17238">
        <ele>1243.12</ele>
        <time>2013-08-24T14:02:48Z</time>
      </trkpt>
      <trkpt lat="44.61333" lon="4.17235">
        <ele>1243.12</ele>
        <time>2013-08-24T14:02:49Z</time>
      </trkpt>
      <trkpt lat="44.61332" lon="4.17233">
        <ele>1243.6</ele>
        <time>2013-08-24T14:02:50Z</time>
      </trkpt>
      <trkpt lat="44.61334" lon="4.1723">
        <ele>1244.08</ele>
        <time>2013-08-24T14:02:52Z</time>
      </trkpt>
      <trkpt lat="44.61334" lon="4.17228">
        <ele>1244.08</ele>
        <time>2013-08-24T14:02:53Z</time>
      </trkpt>
      <trkpt lat="44.61335" lon="4.17227">
        <ele>1244.08</ele>
        <time>2013-08-24T14:02:54Z</time>
      </trkpt>
      <trkpt lat="44.61336" lon="4.17226">
        <ele>1244.08</ele>
        <time>2013-08-24T14:02:55Z</time>
      </trkpt>
      <trkpt lat="44.61336" lon="4.17224">
        <ele>1244.56</ele>
        <time>2013-08-24T14:02:56Z</time>
      </trkpt>
      <trkpt lat="44.61331" lon="4.17201">
        <ele>1245.53</ele>
        <time>2013-08-24T14:03:07Z</time>
      </trkpt>
      <trkpt lat="44.61324" lon="4.17183">
        <ele>1247.45</ele>
        <time>2013-08-24T14:03:18Z</time>
      </trkpt>
      <trkpt lat="44.61318" lon="4.17172">
        <ele>1248.89</ele>
        <time>2013-08-24T14:03:24Z</time>
      </trkpt>
      <trkpt lat="44.6132" lon="4.17168">
        <ele>1248.89</ele>
        <time>2013-08-24T14:03:26Z</time>
      </trkpt>
      <trkpt lat="44.61321" lon="4.17166">
        <ele>1249.37</ele>
        <time>2013-08-24T14:03:27Z</time>
      </trkpt>
      <trkpt lat="44.61321" lon="4.17164">
        <ele>1249.85</ele>
        <time>2013-08-24T14:03:28Z</time>
      </trkpt>
      <trkpt lat="44.61316" lon="4.17141">
        <ele>1250.81</ele>
        <time>2013-08-24T14:03:39Z</time>
      </trkpt>
      <trkpt lat="44.61317" lon="4.17123">
        <ele>1251.77</ele>
        <time>2013-08-24T14:03:48Z</time>
      </trkpt>
      <trkpt lat="44.61318" lon="4.1712">
        <ele>1252.25</ele>
        <time>2013-08-24T14:03:49Z</time>
      </trkpt>
      <trkpt lat="44.61318" lon="4.17119">
        <ele>1252.25</ele>
        <time>2013-08-24T14:03:50Z</time>
      </trkpt>
      <trkpt lat="44.61318" lon="4.17117">
        <ele>1251.77</ele>
        <time>2013-08-24T14:03:51Z</time>
      </trkpt>
      <trkpt lat="44.61317" lon="4.17115">
        <ele>1251.77</ele>
        <time>2013-08-24T14:03:52Z</time>
      </trkpt>
      <trkpt lat="44.61316" lon="4.17113">
        <ele>1252.25</ele>
        <time>2013-08-24T14:03:53Z</time>
      </trkpt>
      <trkpt lat="44.61315" lon="4.17111">
        <ele>1252.74</ele>
        <time>2013-08-24T14:03:54Z</time>
      </trkpt>
      <trkpt lat="44.61299" lon="4.1708">
        <ele>1254.66</ele>
        <time>2013-08-24T14:04:09Z</time>
      </trkpt>
      <trkpt lat="44.61288" lon="4.17058">
        <ele>1256.58</ele>
        <time>2013-08-24T14:04:20Z</time>
      </trkpt>
      <trkpt lat="44.61275" lon="4.17024">
        <ele>1258.98</ele>
        <time>2013-08-24T14:04:34Z</time>
      </trkpt>
      <trkpt lat="44.61275" lon="4.17022">
        <ele>1259.94</ele>
        <time>2013-08-24T14:04:35Z</time>
      </trkpt>
      <trkpt lat="44.61276" lon="4.1702">
        <ele>1259.46</ele>
        <time>2013-08-24T14:04:36Z</time>
      </trkpt>
      <trkpt lat="44.61276" lon="4.17019">
        <ele>1259.94</ele>
        <time>2013-08-24T14:04:37Z</time>
      </trkpt>
      <trkpt lat="44.61275" lon="4.17017">
        <ele>1259.94</ele>
        <time>2013-08-24T14:04:38Z</time>
      </trkpt>
      <trkpt lat="44.61275" lon="4.17015">
        <ele>1259.94</ele>
        <time>2013-08-24T14:04:39Z</time>
      </trkpt>
      <trkpt lat="44.61275" lon="4.17013">
        <ele>1259.94</ele>
        <time>2013-08-24T14:04:40Z</time>
      </trkpt>
      <trkpt lat="44.61276" lon="4.17011">
        <ele>1259.94</ele>
        <time>2013-08-24T14:04:41Z</time>
      </trkpt>
      <trkpt lat="44.61276" lon="4.17009">
        <ele>1260.43</ele>
        <time>2013-08-24T14:04:42Z</time>
      </trkpt>
      <trkpt lat="44.61276" lon="4.17006">
        <ele>1260.43</ele>
        <time>2013-08-24T14:04:43Z</time>
      </trkpt>
      <trkpt lat="44.61276" lon="4.17004">
        <ele>1260.43</ele>
        <time>2013-08-24T14:04:44Z</time>
      </trkpt>
      <trkpt lat="44.61277" lon="4.17002">
        <ele>1261.39</ele>
        <time>2013-08-24T14:04:45Z</time>
      </trkpt>
      <trkpt lat="44.61275" lon="4.16976">
        <ele>1262.35</ele>
        <time>2013-08-24T14:04:59Z</time>
      </trkpt>
      <trkpt lat="44.61264" lon="4.16963">
        <ele>1264.27</ele>
        <time>2013-08-24T14:05:12Z</time>
      </trkpt>
      <trkpt lat="44.61257" lon="4.16944">
        <ele>1265.71</ele>
        <time>2013-08-24T14:05:24Z</time>
      </trkpt>
      <trkpt lat="44.61256" lon="4.16914">
        <ele>1267.64</ele>
        <time>2013-08-24T14:05:38Z</time>
      </trkpt>
      <trkpt lat="44.61256" lon="4.16885">
        <ele>1270.52</ele>
        <time>2013-08-24T14:05:52Z</time>
      </trkpt>
      <trkpt lat="44.61256" lon="4.16861">
        <ele>1271</ele>
        <time>2013-08-24T14:06:04Z</time>
      </trkpt>
      <trkpt lat="44.61257" lon="4.16857">
        <ele>1271</ele>
        <time>2013-08-24T14:06:06Z</time>
      </trkpt>
      <trkpt lat="44.61257" lon="4.16838">
        <ele>1272.44</ele>
        <time>2013-08-24T14:06:16Z</time>
      </trkpt>
      <trkpt lat="44.61258" lon="4.16837">
        <ele>1272.44</ele>
        <time>2013-08-24T14:06:17Z</time>
      </trkpt>
      <trkpt lat="44.61258" lon="4.16835">
        <ele>1272.92</ele>
        <time>2013-08-24T14:06:18Z</time>
      </trkpt>
      <trkpt lat="44.61263" lon="4.16815">
        <ele>1276.29</ele>
        <time>2013-08-24T14:06:29Z</time>
      </trkpt>
      <trkpt lat="44.61268" lon="4.16801">
        <ele>1278.69</ele>
        <time>2013-08-24T14:06:37Z</time>
      </trkpt>
      <trkpt lat="44.61269" lon="4.16796">
        <ele>1278.21</ele>
        <time>2013-08-24T14:06:40Z</time>
      </trkpt>
      <trkpt lat="44.61269" lon="4.16794">
        <ele>1278.69</ele>
        <time>2013-08-24T14:06:41Z</time>
      </trkpt>
      <trkpt lat="44.61269" lon="4.16792">
        <ele>1278.69</ele>
        <time>2013-08-24T14:06:42Z</time>
      </trkpt>
      <trkpt lat="44.61269" lon="4.1679">
        <ele>1278.69</ele>
        <time>2013-08-24T14:06:43Z</time>
      </trkpt>
      <trkpt lat="44.61269" lon="4.16788">
        <ele>1279.17</ele>
        <time>2013-08-24T14:06:44Z</time>
      </trkpt>
      <trkpt lat="44.61269" lon="4.16786">
        <ele>1279.17</ele>
        <time>2013-08-24T14:06:45Z</time>
      </trkpt>
      <trkpt lat="44.61269" lon="4.16784">
        <ele>1279.65</ele>
        <time>2013-08-24T14:06:46Z</time>
      </trkpt>
      <trkpt lat="44.61266" lon="4.16759">
        <ele>1281.57</ele>
        <time>2013-08-24T14:06:59Z</time>
      </trkpt>
      <trkpt lat="44.61261" lon="4.16734">
        <ele>1284.46</ele>
        <time>2013-08-24T14:07:13Z</time>
      </trkpt>
      <trkpt lat="44.61264" lon="4.16725">
        <ele>1283.98</ele>
        <time>2013-08-24T14:07:18Z</time>
      </trkpt>
      <trkpt lat="44.61264" lon="4.16724">
        <ele>1283.02</ele>
        <time>2013-08-24T14:07:19Z</time>
      </trkpt>
      <trkpt lat="44.61265" lon="4.16722">
        <ele>1283.5</ele>
        <time>2013-08-24T14:07:20Z</time>
      </trkpt>
      <trkpt lat="44.61265" lon="4.16712">
        <ele>1284.94</ele>
        <time>2013-08-24T14:07:25Z</time>
      </trkpt>
      <trkpt lat="44.61265" lon="4.16708">
        <ele>1285.42</ele>
        <time>2013-08-24T14:07:27Z</time>
      </trkpt>
      <trkpt lat="44.61256" lon="4.16697">
        <ele>1286.38</ele>
        <time>2013-08-24T14:07:36Z</time>
      </trkpt>
      <trkpt lat="44.61255" lon="4.16697">
        <ele>1286.38</ele>
        <time>2013-08-24T14:07:37Z</time>
      </trkpt>
      <trkpt lat="44.61253" lon="4.16697">
        <ele>1286.86</ele>
        <time>2013-08-24T14:07:38Z</time>
      </trkpt>
      <trkpt lat="44.61251" lon="4.16698">
        <ele>1286.86</ele>
        <time>2013-08-24T14:07:39Z</time>
      </trkpt>
      <trkpt lat="44.6125" lon="4.16698">
        <ele>1286.38</ele>
        <time>2013-08-24T14:07:40Z</time>
      </trkpt>
      <trkpt lat="44.61249" lon="4.16699">
        <ele>1286.38</ele>
        <time>2013-08-24T14:07:41Z</time>
      </trkpt>
      <trkpt lat="44.61248" lon="4.167">
        <ele>1287.34</ele>
        <time>2013-08-24T14:07:42Z</time>
      </trkpt>
      <trkpt lat="44.61246" lon="4.167">
        <ele>1286.86</ele>
        <time>2013-08-24T14:07:43Z</time>
      </trkpt>
      <trkpt lat="44.61245" lon="4.167">
        <ele>1287.34</ele>
        <time>2013-08-24T14:07:44Z</time>
      </trkpt>
      <trkpt lat="44.61243" lon="4.16699">
        <ele>1287.34</ele>
        <time>2013-08-24T14:07:45Z</time>
      </trkpt>
      <trkpt lat="44.61242" lon="4.16699">
        <ele>1287.34</ele>
        <time>2013-08-24T14:07:46Z</time>
      </trkpt>
      <trkpt lat="44.61234" lon="4.16696">
        <ele>1287.82</ele>
        <time>2013-08-24T14:07:51Z</time>
      </trkpt>
      <trkpt lat="44.61233" lon="4.16695">
        <ele>1288.78</ele>
        <time>2013-08-24T14:07:52Z</time>
      </trkpt>
      <trkpt lat="44.61229" lon="4.16692">
        <ele>1288.78</ele>
        <time>2013-08-24T14:07:55Z</time>
      </trkpt>
      <trkpt lat="44.61229" lon="4.16691">
        <ele>1288.78</ele>
        <time>2013-08-24T14:07:56Z</time>
      </trkpt>
      <trkpt lat="44.61227" lon="4.1669">
        <ele>1288.78</ele>
        <time>2013-08-24T14:07:57Z</time>
      </trkpt>
      <trkpt lat="44.61226" lon="4.16689">
        <ele>1288.78</ele>
        <time>2013-08-24T14:07:58Z</time>
      </trkpt>
      <trkpt lat="44.61225" lon="4.16688">
        <ele>1288.78</ele>
        <time>2013-08-24T14:07:59Z</time>
      </trkpt>
      <trkpt lat="44.61223" lon="4.16685">
        <ele>1288.78</ele>
        <time>2013-08-24T14:08:01Z</time>
      </trkpt>
      <trkpt lat="44.61222" lon="4.16683">
        <ele>1289.27</ele>
        <time>2013-08-24T14:08:02Z</time>
      </trkpt>
      <trkpt lat="44.61221" lon="4.16682">
        <ele>1289.27</ele>
        <time>2013-08-24T14:08:03Z</time>
      </trkpt>
      <trkpt lat="44.6122" lon="4.1668">
        <ele>1289.27</ele>
        <time>2013-08-24T14:08:04Z</time>
      </trkpt>
      <trkpt lat="44.61219" lon="4.16678">
        <ele>1289.27</ele>
        <time>2013-08-24T14:08:05Z</time>
      </trkpt>
      <trkpt lat="44.61218" lon="4.16677">
        <ele>1289.27</ele>
        <time>2013-08-24T14:08:06Z</time>
      </trkpt>
      <trkpt lat="44.61204" lon="4.16657">
        <ele>1291.67</ele>
        <time>2013-08-24T14:08:19Z</time>
      </trkpt>
      <trkpt lat="44.61203" lon="4.16656">
        <ele>1292.15</ele>
        <time>2013-08-24T14:08:20Z</time>
      </trkpt>
      <trkpt lat="44.61202" lon="4.16654">
        <ele>1292.15</ele>
        <time>2013-08-24T14:08:21Z</time>
      </trkpt>
      <trkpt lat="44.61201" lon="4.16653">
        <ele>1292.15</ele>
        <time>2013-08-24T14:08:22Z</time>
      </trkpt>
      <trkpt lat="44.612" lon="4.16651">
        <ele>1292.63</ele>
        <time>2013-08-24T14:08:23Z</time>
      </trkpt>
      <trkpt lat="44.61199" lon="4.1665">
        <ele>1292.63</ele>
        <time>2013-08-24T14:08:24Z</time>
      </trkpt>
      <trkpt lat="44.61197" lon="4.16646">
        <ele>1293.11</ele>
        <time>2013-08-24T14:08:26Z</time>
      </trkpt>
      <trkpt lat="44.61196" lon="4.16644">
        <ele>1293.11</ele>
        <time>2013-08-24T14:08:27Z</time>
      </trkpt>
      <trkpt lat="44.61196" lon="4.16643">
        <ele>1293.11</ele>
        <time>2013-08-24T14:08:28Z</time>
      </trkpt>
      <trkpt lat="44.61195" lon="4.16641">
        <ele>1293.11</ele>
        <time>2013-08-24T14:08:29Z</time>
      </trkpt>
      <trkpt lat="44.61194" lon="4.1664">
        <ele>1293.59</ele>
        <time>2013-08-24T14:08:30Z</time>
      </trkpt>
      <trkpt lat="44.61193" lon="4.16638">
        <ele>1293.59</ele>
        <time>2013-08-24T14:08:31Z</time>
      </trkpt>
      <trkpt lat="44.61192" lon="4.16637">
        <ele>1293.59</ele>
        <time>2013-08-24T14:08:32Z</time>
      </trkpt>
      <trkpt lat="44.61191" lon="4.16635">
        <ele>1294.07</ele>
        <time>2013-08-24T14:08:33Z</time>
      </trkpt>
      <trkpt lat="44.6119" lon="4.16634">
        <ele>1293.59</ele>
        <time>2013-08-24T14:08:34Z</time>
      </trkpt>
      <trkpt lat="44.61189" lon="4.16633">
        <ele>1293.11</ele>
        <time>2013-08-24T14:08:35Z</time>
      </trkpt>
      <trkpt lat="44.61188" lon="4.16632">
        <ele>1294.07</ele>
        <time>2013-08-24T14:08:36Z</time>
      </trkpt>
      <trkpt lat="44.61187" lon="4.1663">
        <ele>1294.07</ele>
        <time>2013-08-24T14:08:37Z</time>
      </trkpt>
      <trkpt lat="44.61186" lon="4.16629">
        <ele>1294.07</ele>
        <time>2013-08-24T14:08:38Z</time>
      </trkpt>
      <trkpt lat="44.61186" lon="4.16627">
        <ele>1294.07</ele>
        <time>2013-08-24T14:08:39Z</time>
      </trkpt>
      <trkpt lat="44.61181" lon="4.16615">
        <ele>1295.03</ele>
        <time>2013-08-24T14:08:46Z</time>
      </trkpt>
      <trkpt lat="44.6118" lon="4.16613">
        <ele>1294.55</ele>
        <time>2013-08-24T14:08:47Z</time>
      </trkpt>
      <trkpt lat="44.61179" lon="4.16611">
        <ele>1295.03</ele>
        <time>2013-08-24T14:08:48Z</time>
      </trkpt>
      <trkpt lat="44.61178" lon="4.1661">
        <ele>1295.03</ele>
        <time>2013-08-24T14:08:49Z</time>
      </trkpt>
      <trkpt lat="44.61177" lon="4.16608">
        <ele>1295.51</ele>
        <time>2013-08-24T14:08:50Z</time>
      </trkpt>
      <trkpt lat="44.61177" lon="4.16606">
        <ele>1295.51</ele>
        <time>2013-08-24T14:08:51Z</time>
      </trkpt>
      <trkpt lat="44.61176" lon="4.16602">
        <ele>1296.48</ele>
        <time>2013-08-24T14:08:53Z</time>
      </trkpt>
      <trkpt lat="44.61176" lon="4.16601">
        <ele>1296.48</ele>
        <time>2013-08-24T14:08:54Z</time>
      </trkpt>
      <trkpt lat="44.61175" lon="4.16599">
        <ele>1296.48</ele>
        <time>2013-08-24T14:08:55Z</time>
      </trkpt>
      <trkpt lat="44.61175" lon="4.16596">
        <ele>1296.96</ele>
        <time>2013-08-24T14:08:56Z</time>
      </trkpt>
      <trkpt lat="44.61174" lon="4.16595">
        <ele>1296.48</ele>
        <time>2013-08-24T14:08:57Z</time>
      </trkpt>
      <trkpt lat="44.61174" lon="4.16593">
        <ele>1296.96</ele>
        <time>2013-08-24T14:08:58Z</time>
      </trkpt>
      <trkpt lat="44.61173" lon="4.16591">
        <ele>1296.96</ele>
        <time>2013-08-24T14:08:59Z</time>
      </trkpt>
      <trkpt lat="44.61173" lon="4.16589">
        <ele>1297.92</ele>
        <time>2013-08-24T14:09:00Z</time>
      </trkpt>
      <trkpt lat="44.61173" lon="4.16587">
        <ele>1298.4</ele>
        <time>2013-08-24T14:09:01Z</time>
      </trkpt>
      <trkpt lat="44.61172" lon="4.16585">
        <ele>1297.92</ele>
        <time>2013-08-24T14:09:02Z</time>
      </trkpt>
      <trkpt lat="44.61171" lon="4.16584">
        <ele>1298.4</ele>
        <time>2013-08-24T14:09:03Z</time>
      </trkpt>
      <trkpt lat="44.61171" lon="4.16583">
        <ele>1298.88</ele>
        <time>2013-08-24T14:09:04Z</time>
      </trkpt>
      <trkpt lat="44.6117" lon="4.16581">
        <ele>1298.4</ele>
        <time>2013-08-24T14:09:05Z</time>
      </trkpt>
      <trkpt lat="44.61169" lon="4.16579">
        <ele>1298.4</ele>
        <time>2013-08-24T14:09:06Z</time>
      </trkpt>
      <trkpt lat="44.61169" lon="4.16578">
        <ele>1297.92</ele>
        <time>2013-08-24T14:09:07Z</time>
      </trkpt>
      <trkpt lat="44.61168" lon="4.16576">
        <ele>1298.4</ele>
        <time>2013-08-24T14:09:08Z</time>
      </trkpt>
      <trkpt lat="44.61168" lon="4.16574">
        <ele>1298.4</ele>
        <time>2013-08-24T14:09:09Z</time>
      </trkpt>
      <trkpt lat="44.61166" lon="4.16569">
        <ele>1299.36</ele>
        <time>2013-08-24T14:09:12Z</time>
      </trkpt>
      <trkpt lat="44.61165" lon="4.16567">
        <ele>1299.36</ele>
        <time>2013-08-24T14:09:13Z</time>
      </trkpt>
      <trkpt lat="44.61164" lon="4.16565">
        <ele>1299.36</ele>
        <time>2013-08-24T14:09:14Z</time>
      </trkpt>
      <trkpt lat="44.61163" lon="4.16563">
        <ele>1299.36</ele>
        <time>2013-08-24T14:09:15Z</time>
      </trkpt>
      <trkpt lat="44.61163" lon="4.16561">
        <ele>1299.84</ele>
        <time>2013-08-24T14:09:16Z</time>
      </trkpt>
      <trkpt lat="44.61162" lon="4.1656">
        <ele>1299.84</ele>
        <time>2013-08-24T14:09:17Z</time>
      </trkpt>
      <trkpt lat="44.61162" lon="4.16558">
        <ele>1299.84</ele>
        <time>2013-08-24T14:09:18Z</time>
      </trkpt>
      <trkpt lat="44.61161" lon="4.16557">
        <ele>1300.32</ele>
        <time>2013-08-24T14:09:19Z</time>
      </trkpt>
      <trkpt lat="44.61161" lon="4.16555">
        <ele>1300.32</ele>
        <time>2013-08-24T14:09:20Z</time>
      </trkpt>
      <trkpt lat="44.61161" lon="4.16553">
        <ele>1300.32</ele>
        <time>2013-08-24T14:09:21Z</time>
      </trkpt>
      <trkpt lat="44.61161" lon="4.16552">
        <ele>1300.8</ele>
        <time>2013-08-24T14:09:22Z</time>
      </trkpt>
      <trkpt lat="44.6116" lon="4.16551">
        <ele>1301.28</ele>
        <time>2013-08-24T14:09:23Z</time>
      </trkpt>
      <trkpt lat="44.6116" lon="4.16549">
        <ele>1301.28</ele>
        <time>2013-08-24T14:09:24Z</time>
      </trkpt>
      <trkpt lat="44.61159" lon="4.16547">
        <ele>1301.28</ele>
        <time>2013-08-24T14:09:25Z</time>
      </trkpt>
      <trkpt lat="44.61159" lon="4.16545">
        <ele>1301.28</ele>
        <time>2013-08-24T14:09:26Z</time>
      </trkpt>
      <trkpt lat="44.61159" lon="4.16544">
        <ele>1301.76</ele>
        <time>2013-08-24T14:09:27Z</time>
      </trkpt>
      <trkpt lat="44.61158" lon="4.16542">
        <ele>1302.24</ele>
        <time>2013-08-24T14:09:28Z</time>
      </trkpt>
      <trkpt lat="44.61158" lon="4.1654">
        <ele>1302.72</ele>
        <time>2013-08-24T14:09:29Z</time>
      </trkpt>
      <trkpt lat="44.61157" lon="4.16538">
        <ele>1302.24</ele>
        <time>2013-08-24T14:09:30Z</time>
      </trkpt>
      <trkpt lat="44.61155" lon="4.16526">
        <ele>1303.2</ele>
        <time>2013-08-24T14:09:37Z</time>
      </trkpt>
      <trkpt lat="44.61154" lon="4.16525">
        <ele>1303.2</ele>
        <time>2013-08-24T14:09:38Z</time>
      </trkpt>
      <trkpt lat="44.61154" lon="4.16523">
        <ele>1303.69</ele>
        <time>2013-08-24T14:09:39Z</time>
      </trkpt>
      <trkpt lat="44.61153" lon="4.16522">
        <ele>1303.2</ele>
        <time>2013-08-24T14:09:40Z</time>
      </trkpt>
      <trkpt lat="44.61153" lon="4.1652">
        <ele>1303.69</ele>
        <time>2013-08-24T14:09:41Z</time>
      </trkpt>
      <trkpt lat="44.61152" lon="4.16518">
        <ele>1304.17</ele>
        <time>2013-08-24T14:09:42Z</time>
      </trkpt>
      <trkpt lat="44.61152" lon="4.16517">
        <ele>1304.17</ele>
        <time>2013-08-24T14:09:43Z</time>
      </trkpt>
      <trkpt lat="44.61149" lon="4.16499">
        <ele>1306.09</ele>
        <time>2013-08-24T14:09:54Z</time>
      </trkpt>
      <trkpt lat="44.61148" lon="4.16497">
        <ele>1306.09</ele>
        <time>2013-08-24T14:09:55Z</time>
      </trkpt>
      <trkpt lat="44.61147" lon="4.16495">
        <ele>1305.13</ele>
        <time>2013-08-24T14:09:56Z</time>
      </trkpt>
      <trkpt lat="44.61147" lon="4.16494">
        <ele>1305.61</ele>
        <time>2013-08-24T14:09:57Z</time>
      </trkpt>
      <trkpt lat="44.61146" lon="4.16492">
        <ele>1306.57</ele>
        <time>2013-08-24T14:09:58Z</time>
      </trkpt>
      <trkpt lat="44.61146" lon="4.1649">
        <ele>1307.05</ele>
        <time>2013-08-24T14:09:59Z</time>
      </trkpt>
      <trkpt lat="44.61145" lon="4.16488">
        <ele>1307.05</ele>
        <time>2013-08-24T14:10:00Z</time>
      </trkpt>
      <trkpt lat="44.61143" lon="4.16481">
        <ele>1307.05</ele>
        <time>2013-08-24T14:10:04Z</time>
      </trkpt>
      <trkpt lat="44.61143" lon="4.1648">
        <ele>1307.05</ele>
        <time>2013-08-24T14:10:05Z</time>
      </trkpt>
      <trkpt lat="44.61142" lon="4.16478">
        <ele>1308.01</ele>
        <time>2013-08-24T14:10:06Z</time>
      </trkpt>
      <trkpt lat="44.61141" lon="4.16476">
        <ele>1308.01</ele>
        <time>2013-08-24T14:10:07Z</time>
      </trkpt>
      <trkpt lat="44.6114" lon="4.16474">
        <ele>1308.01</ele>
        <time>2013-08-24T14:10:08Z</time>
      </trkpt>
      <trkpt lat="44.6114" lon="4.16473">
        <ele>1308.49</ele>
        <time>2013-08-24T14:10:09Z</time>
      </trkpt>
      <trkpt lat="44.61139" lon="4.16471">
        <ele>1308.97</ele>
        <time>2013-08-24T14:10:10Z</time>
      </trkpt>
      <trkpt lat="44.61139" lon="4.1647">
        <ele>1308.97</ele>
        <time>2013-08-24T14:10:11Z</time>
      </trkpt>
      <trkpt lat="44.61133" lon="4.16458">
        <ele>1309.93</ele>
        <time>2013-08-24T14:10:19Z</time>
      </trkpt>
      <trkpt lat="44.61132" lon="4.16457">
        <ele>1310.41</ele>
        <time>2013-08-24T14:10:20Z</time>
      </trkpt>
      <trkpt lat="44.61131" lon="4.16456">
        <ele>1310.9</ele>
        <time>2013-08-24T14:10:21Z</time>
      </trkpt>
      <trkpt lat="44.6113" lon="4.16455">
        <ele>1311.38</ele>
        <time>2013-08-24T14:10:22Z</time>
      </trkpt>
      <trkpt lat="44.61129" lon="4.16453">
        <ele>1310.41</ele>
        <time>2013-08-24T14:10:23Z</time>
      </trkpt>
      <trkpt lat="44.61128" lon="4.16453">
        <ele>1310.9</ele>
        <time>2013-08-24T14:10:24Z</time>
      </trkpt>
      <trkpt lat="44.61127" lon="4.16451">
        <ele>1310.9</ele>
        <time>2013-08-24T14:10:25Z</time>
      </trkpt>
      <trkpt lat="44.61126" lon="4.1645">
        <ele>1310.9</ele>
        <time>2013-08-24T14:10:26Z</time>
      </trkpt>
      <trkpt lat="44.61125" lon="4.16449">
        <ele>1310.9</ele>
        <time>2013-08-24T14:10:27Z</time>
      </trkpt>
      <trkpt lat="44.61124" lon="4.16448">
        <ele>1310.9</ele>
        <time>2013-08-24T14:10:28Z</time>
      </trkpt>
      <trkpt lat="44.61123" lon="4.16446">
        <ele>1310.9</ele>
        <time>2013-08-24T14:10:29Z</time>
      </trkpt>
      <trkpt lat="44.61122" lon="4.16445">
        <ele>1311.38</ele>
        <time>2013-08-24T14:10:30Z</time>
      </trkpt>
      <trkpt lat="44.61121" lon="4.16444">
        <ele>1311.38</ele>
        <time>2013-08-24T14:10:31Z</time>
      </trkpt>
      <trkpt lat="44.6112" lon="4.16442">
        <ele>1310.9</ele>
        <time>2013-08-24T14:10:32Z</time>
      </trkpt>
      <trkpt lat="44.61118" lon="4.16441">
        <ele>1310.9</ele>
        <time>2013-08-24T14:10:33Z</time>
      </trkpt>
      <trkpt lat="44.61118" lon="4.1644">
        <ele>1311.38</ele>
        <time>2013-08-24T14:10:34Z</time>
      </trkpt>
      <trkpt lat="44.61116" lon="4.16439">
        <ele>1311.86</ele>
        <time>2013-08-24T14:10:35Z</time>
      </trkpt>
      <trkpt lat="44.61116" lon="4.16437">
        <ele>1311.38</ele>
        <time>2013-08-24T14:10:36Z</time>
      </trkpt>
      <trkpt lat="44.61115" lon="4.16436">
        <ele>1311.86</ele>
        <time>2013-08-24T14:10:37Z</time>
      </trkpt>
      <trkpt lat="44.61113" lon="4.16435">
        <ele>1312.34</ele>
        <time>2013-08-24T14:10:38Z</time>
      </trkpt>
      <trkpt lat="44.61113" lon="4.16434">
        <ele>1312.34</ele>
        <time>2013-08-24T14:10:39Z</time>
      </trkpt>
      <trkpt lat="44.61112" lon="4.16432">
        <ele>1312.34</ele>
        <time>2013-08-24T14:10:40Z</time>
      </trkpt>
      <trkpt lat="44.6111" lon="4.16431">
        <ele>1312.34</ele>
        <time>2013-08-24T14:10:41Z</time>
      </trkpt>
      <trkpt lat="44.61109" lon="4.1643">
        <ele>1312.34</ele>
        <time>2013-08-24T14:10:42Z</time>
      </trkpt>
      <trkpt lat="44.61108" lon="4.16429">
        <ele>1312.34</ele>
        <time>2013-08-24T14:10:43Z</time>
      </trkpt>
      <trkpt lat="44.61107" lon="4.16428">
        <ele>1312.34</ele>
        <time>2013-08-24T14:10:44Z</time>
      </trkpt>
      <trkpt lat="44.61106" lon="4.16427">
        <ele>1312.34</ele>
        <time>2013-08-24T14:10:45Z</time>
      </trkpt>
      <trkpt lat="44.61105" lon="4.16426">
        <ele>1312.82</ele>
        <time>2013-08-24T14:10:46Z</time>
      </trkpt>
      <trkpt lat="44.61093" lon="4.16415">
        <ele>1314.26</ele>
        <time>2013-08-24T14:10:56Z</time>
      </trkpt>
      <trkpt lat="44.61092" lon="4.16413">
        <ele>1314.74</ele>
        <time>2013-08-24T14:10:57Z</time>
      </trkpt>
      <trkpt lat="44.61091" lon="4.16412">
        <ele>1315.22</ele>
        <time>2013-08-24T14:10:58Z</time>
      </trkpt>
      <trkpt lat="44.61089" lon="4.16411">
        <ele>1315.7</ele>
        <time>2013-08-24T14:10:59Z</time>
      </trkpt>
      <trkpt lat="44.61088" lon="4.1641">
        <ele>1316.18</ele>
        <time>2013-08-24T14:11:00Z</time>
      </trkpt>
      <trkpt lat="44.61087" lon="4.16409">
        <ele>1315.7</ele>
        <time>2013-08-24T14:11:01Z</time>
      </trkpt>
      <trkpt lat="44.61084" lon="4.16406">
        <ele>1316.18</ele>
        <time>2013-08-24T14:11:03Z</time>
      </trkpt>
      <trkpt lat="44.61083" lon="4.16405">
        <ele>1316.18</ele>
        <time>2013-08-24T14:11:04Z</time>
      </trkpt>
      <trkpt lat="44.61082" lon="4.16404">
        <ele>1316.66</ele>
        <time>2013-08-24T14:11:05Z</time>
      </trkpt>
      <trkpt lat="44.61081" lon="4.16404">
        <ele>1316.66</ele>
        <time>2013-08-24T14:11:06Z</time>
      </trkpt>
      <trkpt lat="44.61079" lon="4.16403">
        <ele>1317.14</ele>
        <time>2013-08-24T14:11:07Z</time>
      </trkpt>
      <trkpt lat="44.61078" lon="4.16402">
        <ele>1317.14</ele>
        <time>2013-08-24T14:11:08Z</time>
      </trkpt>
      <trkpt lat="44.61076" lon="4.16401">
        <ele>1317.62</ele>
        <time>2013-08-24T14:11:09Z</time>
      </trkpt>
      <trkpt lat="44.61064" lon="4.16386">
        <ele>1319.55</ele>
        <time>2013-08-24T14:11:21Z</time>
      </trkpt>
      <trkpt lat="44.61063" lon="4.16385">
        <ele>1320.51</ele>
        <time>2013-08-24T14:11:22Z</time>
      </trkpt>
      <trkpt lat="44.61062" lon="4.16384">
        <ele>1320.51</ele>
        <time>2013-08-24T14:11:23Z</time>
      </trkpt>
      <trkpt lat="44.61062" lon="4.16383">
        <ele>1320.51</ele>
        <time>2013-08-24T14:11:24Z</time>
      </trkpt>
      <trkpt lat="44.61061" lon="4.16382">
        <ele>1320.51</ele>
        <time>2013-08-24T14:11:25Z</time>
      </trkpt>
      <trkpt lat="44.6106" lon="4.1638">
        <ele>1320.99</ele>
        <time>2013-08-24T14:11:26Z</time>
      </trkpt>
      <trkpt lat="44.6106" lon="4.16379">
        <ele>1320.99</ele>
        <time>2013-08-24T14:11:27Z</time>
      </trkpt>
      <trkpt lat="44.61058" lon="4.16376">
        <ele>1320.99</ele>
        <time>2013-08-24T14:11:38Z</time>
      </trkpt>
      <trkpt lat="44.61055" lon="4.16371">
        <ele>1321.95</ele>
        <time>2013-08-24T14:11:44Z</time>
      </trkpt>
      <trkpt lat="44.61054" lon="4.16368">
        <ele>1322.43</ele>
        <time>2013-08-24T14:11:46Z</time>
      </trkpt>
      <trkpt lat="44.61053" lon="4.16367">
        <ele>1322.91</ele>
        <time>2013-08-24T14:11:47Z</time>
      </trkpt>
      <trkpt lat="44.61053" lon="4.16366">
        <ele>1322.91</ele>
        <time>2013-08-24T14:11:48Z</time>
      </trkpt>
      <trkpt lat="44.61052" lon="4.16364">
        <ele>1322.43</ele>
        <time>2013-08-24T14:11:49Z</time>
      </trkpt>
      <trkpt lat="44.61051" lon="4.16363">
        <ele>1322.43</ele>
        <time>2013-08-24T14:11:50Z</time>
      </trkpt>
      <trkpt lat="44.6105" lon="4.16361">
        <ele>1322.91</ele>
        <time>2013-08-24T14:11:51Z</time>
      </trkpt>
      <trkpt lat="44.61049" lon="4.16359">
        <ele>1322.91</ele>
        <time>2013-08-24T14:11:52Z</time>
      </trkpt>
      <trkpt lat="44.61048" lon="4.16357">
        <ele>1322.91</ele>
        <time>2013-08-24T14:11:53Z</time>
      </trkpt>
      <trkpt lat="44.61047" lon="4.16355">
        <ele>1322.91</ele>
        <time>2013-08-24T14:11:54Z</time>
      </trkpt>
      <trkpt lat="44.61047" lon="4.16353">
        <ele>1322.91</ele>
        <time>2013-08-24T14:11:55Z</time>
      </trkpt>
      <trkpt lat="44.61047" lon="4.16346">
        <ele>1323.87</ele>
        <time>2013-08-24T14:11:59Z</time>
      </trkpt>
      <trkpt lat="44.61048" lon="4.16344">
        <ele>1323.87</ele>
        <time>2013-08-24T14:12:00Z</time>
      </trkpt>
      <trkpt lat="44.61048" lon="4.16336">
        <ele>1324.83</ele>
        <time>2013-08-24T14:12:04Z</time>
      </trkpt>
      <trkpt lat="44.61051" lon="4.16327">
        <ele>1325.31</ele>
        <time>2013-08-24T14:12:10Z</time>
      </trkpt>
      <trkpt lat="44.61054" lon="4.16325">
        <ele>1325.31</ele>
        <time>2013-08-24T14:12:12Z</time>
      </trkpt>
      <trkpt lat="44.61054" lon="4.16323">
        <ele>1325.31</ele>
        <time>2013-08-24T14:12:13Z</time>
      </trkpt>
      <trkpt lat="44.61055" lon="4.16321">
        <ele>1325.31</ele>
        <time>2013-08-24T14:12:14Z</time>
      </trkpt>
      <trkpt lat="44.61056" lon="4.16319">
        <ele>1325.31</ele>
        <time>2013-08-24T14:12:15Z</time>
      </trkpt>
      <trkpt lat="44.61057" lon="4.16317">
        <ele>1324.83</ele>
        <time>2013-08-24T14:12:16Z</time>
      </trkpt>
      <trkpt lat="44.61058" lon="4.16315">
        <ele>1325.31</ele>
        <time>2013-08-24T14:12:17Z</time>
      </trkpt>
      <trkpt lat="44.61059" lon="4.16313">
        <ele>1324.83</ele>
        <time>2013-08-24T14:12:18Z</time>
      </trkpt>
      <trkpt lat="44.61063" lon="4.16299">
        <ele>1325.31</ele>
        <time>2013-08-24T14:12:23Z</time>
      </trkpt>
      <trkpt lat="44.61079" lon="4.16274">
        <ele>1323.39</ele>
        <time>2013-08-24T14:12:32Z</time>
      </trkpt>
      <trkpt lat="44.61081" lon="4.16271">
        <ele>1322.91</ele>
        <time>2013-08-24T14:12:33Z</time>
      </trkpt>
      <trkpt lat="44.61086" lon="4.1626">
        <ele>1322.43</ele>
        <time>2013-08-24T14:12:36Z</time>
      </trkpt>
      <trkpt lat="44.61089" lon="4.16258">
        <ele>1321.95</ele>
        <time>2013-08-24T14:12:37Z</time>
      </trkpt>
      <trkpt lat="44.61113" lon="4.16228">
        <ele>1320.51</ele>
        <time>2013-08-24T14:12:48Z</time>
      </trkpt>
      <trkpt lat="44.61123" lon="4.16215">
        <ele>1319.55</ele>
        <time>2013-08-24T14:12:53Z</time>
      </trkpt>
      <trkpt lat="44.61123" lon="4.16213">
        <ele>1319.55</ele>
        <time>2013-08-24T14:12:54Z</time>
      </trkpt>
      <trkpt lat="44.61123" lon="4.16211">
        <ele>1319.55</ele>
        <time>2013-08-24T14:12:55Z</time>
      </trkpt>
      <trkpt lat="44.61124" lon="4.16209">
        <ele>1318.59</ele>
        <time>2013-08-24T14:12:56Z</time>
      </trkpt>
      <trkpt lat="44.61124" lon="4.16207">
        <ele>1318.1</ele>
        <time>2013-08-24T14:12:57Z</time>
      </trkpt>
      <trkpt lat="44.61124" lon="4.16206">
        <ele>1319.07</ele>
        <time>2013-08-24T14:13:11Z</time>
      </trkpt>
      <trkpt lat="44.61124" lon="4.16206">
        <ele>1319.55</ele>
        <time>2013-08-24T14:13:31Z</time>
      </trkpt>
      <trkpt lat="44.61124" lon="4.16207">
        <ele>1316.66</ele>
        <time>2013-08-24T14:13:38Z</time>
      </trkpt>
      <trkpt lat="44.61124" lon="4.16207">
        <ele>1320.03</ele>
        <time>2013-08-24T14:13:42Z</time>
      </trkpt>
      <trkpt lat="44.61124" lon="4.16207">
        <ele>1319.07</ele>
        <time>2013-08-24T14:14:13Z</time>
      </trkpt>
      <trkpt lat="44.61124" lon="4.16206">
        <ele>1318.59</ele>
        <time>2013-08-24T14:14:34Z</time>
      </trkpt>
      <trkpt lat="44.61124" lon="4.16207">
        <ele>1319.55</ele>
        <time>2013-08-24T14:14:57Z</time>
      </trkpt>
      <trkpt lat="44.61124" lon="4.16207">
        <ele>1320.03</ele>
        <time>2013-08-24T14:15:26Z</time>
      </trkpt>
      <trkpt lat="44.61124" lon="4.16207">
        <ele>1320.03</ele>
        <time>2013-08-24T14:15:55Z</time>
      </trkpt>
      <trkpt lat="44.61124" lon="4.16207">
        <ele>1320.03</ele>
        <time>2013-08-24T14:16:30Z</time>
      </trkpt>
      <trkpt lat="44.61124" lon="4.16207">
        <ele>1320.03</ele>
        <time>2013-08-24T14:17:05Z</time>
      </trkpt>
      <trkpt lat="44.61124" lon="4.16208">
        <ele>1315.7</ele>
        <time>2013-08-24T14:17:30Z</time>
      </trkpt>
      <trkpt lat="44.61124" lon="4.16208">
        <ele>1320.99</ele>
        <time>2013-08-24T14:17:31Z</time>
      </trkpt>
      <trkpt lat="44.61125" lon="4.16208">
        <ele>1320.51</ele>
        <time>2013-08-24T14:17:49Z</time>
      </trkpt>
      <trkpt lat="44.61126" lon="4.16208">
        <ele>1320.51</ele>
        <time>2013-08-24T14:17:50Z</time>
      </trkpt>
      <trkpt lat="44.61127" lon="4.16208">
        <ele>1320.51</ele>
        <time>2013-08-24T14:17:51Z</time>
      </trkpt>
      <trkpt lat="44.61128" lon="4.16208">
        <ele>1320.51</ele>
        <time>2013-08-24T14:17:52Z</time>
      </trkpt>
      <trkpt lat="44.6113" lon="4.16208">
        <ele>1320.51</ele>
        <time>2013-08-24T14:17:53Z</time>
      </trkpt>
      <trkpt lat="44.61132" lon="4.16207">
        <ele>1319.55</ele>
        <time>2013-08-24T14:17:54Z</time>
      </trkpt>
      <trkpt lat="44.61134" lon="4.16205">
        <ele>1319.55</ele>
        <time>2013-08-24T14:17:55Z</time>
      </trkpt>
      <trkpt lat="44.61136" lon="4.16202">
        <ele>1319.55</ele>
        <time>2013-08-24T14:17:56Z</time>
      </trkpt>
      <trkpt lat="44.61165" lon="4.16167">
        <ele>1317.62</ele>
        <time>2013-08-24T14:18:08Z</time>
      </trkpt>
      <trkpt lat="44.61193" lon="4.16132">
        <ele>1315.7</ele>
        <time>2013-08-24T14:18:19Z</time>
      </trkpt>
      <trkpt lat="44.61194" lon="4.16096">
        <ele>1316.18</ele>
        <time>2013-08-24T14:18:32Z</time>
      </trkpt>
      <trkpt lat="44.61188" lon="4.16066">
        <ele>1317.14</ele>
        <time>2013-08-24T14:18:46Z</time>
      </trkpt>
      <trkpt lat="44.6118" lon="4.16037">
        <ele>1318.1</ele>
        <time>2013-08-24T14:19:02Z</time>
      </trkpt>
      <trkpt lat="44.61173" lon="4.16016">
        <ele>1319.55</ele>
        <time>2013-08-24T14:19:13Z</time>
      </trkpt>
      <trkpt lat="44.61171" lon="4.16015">
        <ele>1319.07</ele>
        <time>2013-08-24T14:19:14Z</time>
      </trkpt>
      <trkpt lat="44.6117" lon="4.16013">
        <ele>1319.55</ele>
        <time>2013-08-24T14:19:15Z</time>
      </trkpt>
      <trkpt lat="44.61169" lon="4.16012">
        <ele>1319.55</ele>
        <time>2013-08-24T14:19:16Z</time>
      </trkpt>
      <trkpt lat="44.61169" lon="4.1601">
        <ele>1319.55</ele>
        <time>2013-08-24T14:19:17Z</time>
      </trkpt>
      <trkpt lat="44.61168" lon="4.16008">
        <ele>1320.03</ele>
        <time>2013-08-24T14:19:18Z</time>
      </trkpt>
      <trkpt lat="44.61165" lon="4.15993">
        <ele>1320.03</ele>
        <time>2013-08-24T14:19:26Z</time>
      </trkpt>
      <trkpt lat="44.61164" lon="4.15991">
        <ele>1320.99</ele>
        <time>2013-08-24T14:19:27Z</time>
      </trkpt>
      <trkpt lat="44.61163" lon="4.15989">
        <ele>1320.99</ele>
        <time>2013-08-24T14:19:28Z</time>
      </trkpt>
      <trkpt lat="44.61163" lon="4.15986">
        <ele>1320.99</ele>
        <time>2013-08-24T14:19:29Z</time>
      </trkpt>
      <trkpt lat="44.61162" lon="4.15985">
        <ele>1321.47</ele>
        <time>2013-08-24T14:19:30Z</time>
      </trkpt>
      <trkpt lat="44.61162" lon="4.15983">
        <ele>1321.47</ele>
        <time>2013-08-24T14:19:31Z</time>
      </trkpt>
      <trkpt lat="44.61161" lon="4.15979">
        <ele>1321.47</ele>
        <time>2013-08-24T14:19:33Z</time>
      </trkpt>
      <trkpt lat="44.61152" lon="4.15957">
        <ele>1322.91</ele>
        <time>2013-08-24T14:19:45Z</time>
      </trkpt>
      <trkpt lat="44.61151" lon="4.15956">
        <ele>1323.39</ele>
        <time>2013-08-24T14:19:46Z</time>
      </trkpt>
      <trkpt lat="44.6115" lon="4.15954">
        <ele>1323.87</ele>
        <time>2013-08-24T14:19:47Z</time>
      </trkpt>
      <trkpt lat="44.61149" lon="4.15952">
        <ele>1323.39</ele>
        <time>2013-08-24T14:19:48Z</time>
      </trkpt>
      <trkpt lat="44.61149" lon="4.15951">
        <ele>1323.39</ele>
        <time>2013-08-24T14:19:49Z</time>
      </trkpt>
      <trkpt lat="44.61148" lon="4.15949">
        <ele>1324.35</ele>
        <time>2013-08-24T14:19:50Z</time>
      </trkpt>
      <trkpt lat="44.61147" lon="4.15947">
        <ele>1324.35</ele>
        <time>2013-08-24T14:19:51Z</time>
      </trkpt>
      <trkpt lat="44.6114" lon="4.15924">
        <ele>1326.28</ele>
        <time>2013-08-24T14:20:03Z</time>
      </trkpt>
      <trkpt lat="44.61134" lon="4.1591">
        <ele>1326.76</ele>
        <time>2013-08-24T14:20:11Z</time>
      </trkpt>
      <trkpt lat="44.61123" lon="4.15888">
        <ele>1328.2</ele>
        <time>2013-08-24T14:20:25Z</time>
      </trkpt>
      <trkpt lat="44.61119" lon="4.1588">
        <ele>1328.68</ele>
        <time>2013-08-24T14:20:30Z</time>
      </trkpt>
      <trkpt lat="44.61118" lon="4.15879">
        <ele>1328.2</ele>
        <time>2013-08-24T14:20:31Z</time>
      </trkpt>
      <trkpt lat="44.61117" lon="4.15877">
        <ele>1328.68</ele>
        <time>2013-08-24T14:20:32Z</time>
      </trkpt>
      <trkpt lat="44.61116" lon="4.15875">
        <ele>1328.68</ele>
        <time>2013-08-24T14:20:33Z</time>
      </trkpt>
      <trkpt lat="44.61115" lon="4.15873">
        <ele>1328.68</ele>
        <time>2013-08-24T14:20:34Z</time>
      </trkpt>
      <trkpt lat="44.61114" lon="4.15871">
        <ele>1328.68</ele>
        <time>2013-08-24T14:20:35Z</time>
      </trkpt>
      <trkpt lat="44.61104" lon="4.15854">
        <ele>1330.6</ele>
        <time>2013-08-24T14:20:47Z</time>
      </trkpt>
      <trkpt lat="44.61103" lon="4.15853">
        <ele>1331.08</ele>
        <time>2013-08-24T14:20:48Z</time>
      </trkpt>
      <trkpt lat="44.61102" lon="4.15852">
        <ele>1331.08</ele>
        <time>2013-08-24T14:20:49Z</time>
      </trkpt>
      <trkpt lat="44.61101" lon="4.15851">
        <ele>1331.56</ele>
        <time>2013-08-24T14:20:50Z</time>
      </trkpt>
      <trkpt lat="44.611" lon="4.1585">
        <ele>1331.56</ele>
        <time>2013-08-24T14:20:51Z</time>
      </trkpt>
      <trkpt lat="44.61086" lon="4.15834">
        <ele>1332.52</ele>
        <time>2013-08-24T14:21:04Z</time>
      </trkpt>
      <trkpt lat="44.61079" lon="4.15827">
        <ele>1333.49</ele>
        <time>2013-08-24T14:21:09Z</time>
      </trkpt>
      <trkpt lat="44.61078" lon="4.15825">
        <ele>1333.49</ele>
        <time>2013-08-24T14:21:10Z</time>
      </trkpt>
      <trkpt lat="44.61078" lon="4.15824">
        <ele>1333.97</ele>
        <time>2013-08-24T14:21:11Z</time>
      </trkpt>
      <trkpt lat="44.61079" lon="4.15822">
        <ele>1333.01</ele>
        <time>2013-08-24T14:21:12Z</time>
      </trkpt>
      <trkpt lat="44.61079" lon="4.1582">
        <ele>1333.01</ele>
        <time>2013-08-24T14:21:13Z</time>
      </trkpt>
      <trkpt lat="44.6108" lon="4.15818">
        <ele>1333.49</ele>
        <time>2013-08-24T14:21:14Z</time>
      </trkpt>
      <trkpt lat="44.61081" lon="4.15817">
        <ele>1333.97</ele>
        <time>2013-08-24T14:21:15Z</time>
      </trkpt>
      <trkpt lat="44.61087" lon="4.15812">
        <ele>1334.45</ele>
        <time>2013-08-24T14:21:20Z</time>
      </trkpt>
      <trkpt lat="44.61098" lon="4.15812">
        <ele>1336.37</ele>
        <time>2013-08-24T14:21:28Z</time>
      </trkpt>
      <trkpt lat="44.61113" lon="4.15811">
        <ele>1336.85</ele>
        <time>2013-08-24T14:21:39Z</time>
      </trkpt>
      <trkpt lat="44.61127" lon="4.15811">
        <ele>1337.33</ele>
        <time>2013-08-24T14:21:48Z</time>
      </trkpt>
      <trkpt lat="44.61142" lon="4.15808">
        <ele>1338.77</ele>
        <time>2013-08-24T14:21:59Z</time>
      </trkpt>
      <trkpt lat="44.61145" lon="4.15809">
        <ele>1338.77</ele>
        <time>2013-08-24T14:22:01Z</time>
      </trkpt>
      <trkpt lat="44.61153" lon="4.15811">
        <ele>1339.25</ele>
        <time>2013-08-24T14:22:07Z</time>
      </trkpt>
      <trkpt lat="44.61156" lon="4.1581">
        <ele>1339.25</ele>
        <time>2013-08-24T14:22:10Z</time>
      </trkpt>
      <trkpt lat="44.6116" lon="4.15799">
        <ele>1341.18</ele>
        <time>2013-08-24T14:22:18Z</time>
      </trkpt>
      <trkpt lat="44.61155" lon="4.15774">
        <ele>1342.62</ele>
        <time>2013-08-24T14:22:31Z</time>
      </trkpt>
      <trkpt lat="44.61148" lon="4.15752">
        <ele>1345.5</ele>
        <time>2013-08-24T14:22:43Z</time>
      </trkpt>
      <trkpt lat="44.61148" lon="4.1575">
        <ele>1345.02</ele>
        <time>2013-08-24T14:22:44Z</time>
      </trkpt>
      <trkpt lat="44.61143" lon="4.15741">
        <ele>1346.46</ele>
        <time>2013-08-24T14:22:50Z</time>
      </trkpt>
      <trkpt lat="44.61138" lon="4.15734">
        <ele>1347.43</ele>
        <time>2013-08-24T14:22:55Z</time>
      </trkpt>
      <trkpt lat="44.6113" lon="4.15722">
        <ele>1347.91</ele>
        <time>2013-08-24T14:23:03Z</time>
      </trkpt>
      <trkpt lat="44.6112" lon="4.15717">
        <ele>1348.87</ele>
        <time>2013-08-24T14:23:11Z</time>
      </trkpt>
      <trkpt lat="44.611" lon="4.15703">
        <ele>1350.79</ele>
        <time>2013-08-24T14:23:25Z</time>
      </trkpt>
      <trkpt lat="44.61085" lon="4.15697">
        <ele>1351.27</ele>
        <time>2013-08-24T14:23:36Z</time>
      </trkpt>
      <trkpt lat="44.61074" lon="4.15691">
        <ele>1351.75</ele>
        <time>2013-08-24T14:23:44Z</time>
      </trkpt>
      <trkpt lat="44.61064" lon="4.15685">
        <ele>1352.71</ele>
        <time>2013-08-24T14:23:51Z</time>
      </trkpt>
      <trkpt lat="44.61063" lon="4.15667">
        <ele>1352.71</ele>
        <time>2013-08-24T14:24:00Z</time>
      </trkpt>
      <trkpt lat="44.61068" lon="4.15659">
        <ele>1353.19</ele>
        <time>2013-08-24T14:24:05Z</time>
      </trkpt>
      <trkpt lat="44.61071" lon="4.15656">
        <ele>1353.67</ele>
        <time>2013-08-24T14:24:08Z</time>
      </trkpt>
      <trkpt lat="44.61082" lon="4.15648">
        <ele>1354.63</ele>
        <time>2013-08-24T14:24:17Z</time>
      </trkpt>
      <trkpt lat="44.61094" lon="4.15642">
        <ele>1355.6</ele>
        <time>2013-08-24T14:24:27Z</time>
      </trkpt>
      <trkpt lat="44.611" lon="4.15637">
        <ele>1357.04</ele>
        <time>2013-08-24T14:24:32Z</time>
      </trkpt>
      <trkpt lat="44.61103" lon="4.15636">
        <ele>1357.04</ele>
        <time>2013-08-24T14:24:34Z</time>
      </trkpt>
      <trkpt lat="44.61108" lon="4.15631">
        <ele>1358</ele>
        <time>2013-08-24T14:24:39Z</time>
      </trkpt>
      <trkpt lat="44.61112" lon="4.1563">
        <ele>1358</ele>
        <time>2013-08-24T14:24:42Z</time>
      </trkpt>
      <trkpt lat="44.6112" lon="4.15623">
        <ele>1358.96</ele>
        <time>2013-08-24T14:24:49Z</time>
      </trkpt>
      <trkpt lat="44.61139" lon="4.15608">
        <ele>1361.84</ele>
        <time>2013-08-24T14:25:05Z</time>
      </trkpt>
      <trkpt lat="44.61144" lon="4.15604">
        <ele>1362.33</ele>
        <time>2013-08-24T14:25:09Z</time>
      </trkpt>
      <trkpt lat="44.61149" lon="4.15599">
        <ele>1363.29</ele>
        <time>2013-08-24T14:25:14Z</time>
      </trkpt>
      <trkpt lat="44.61164" lon="4.15578">
        <ele>1364.73</ele>
        <time>2013-08-24T14:25:29Z</time>
      </trkpt>
      <trkpt lat="44.61177" lon="4.15548">
        <ele>1366.17</ele>
        <time>2013-08-24T14:25:46Z</time>
      </trkpt>
      <trkpt lat="44.61178" lon="4.15547">
        <ele>1365.69</ele>
        <time>2013-08-24T14:25:47Z</time>
      </trkpt>
      <trkpt lat="44.61184" lon="4.15522">
        <ele>1367.13</ele>
        <time>2013-08-24T14:25:59Z</time>
      </trkpt>
      <trkpt lat="44.61191" lon="4.15496">
        <ele>1367.61</ele>
        <time>2013-08-24T14:26:12Z</time>
      </trkpt>
      <trkpt lat="44.61193" lon="4.15493">
        <ele>1367.61</ele>
        <time>2013-08-24T14:26:14Z</time>
      </trkpt>
      <trkpt lat="44.61202" lon="4.15482">
        <ele>1368.09</ele>
        <time>2013-08-24T14:26:22Z</time>
      </trkpt>
      <trkpt lat="44.61206" lon="4.15476">
        <ele>1368.57</ele>
        <time>2013-08-24T14:26:26Z</time>
      </trkpt>
      <trkpt lat="44.61211" lon="4.15472">
        <ele>1368.57</ele>
        <time>2013-08-24T14:26:30Z</time>
      </trkpt>
      <trkpt lat="44.61216" lon="4.15463">
        <ele>1369.05</ele>
        <time>2013-08-24T14:26:36Z</time>
      </trkpt>
      <trkpt lat="44.61229" lon="4.15449">
        <ele>1370.02</ele>
        <time>2013-08-24T14:26:47Z</time>
      </trkpt>
      <trkpt lat="44.61232" lon="4.15443">
        <ele>1369.54</ele>
        <time>2013-08-24T14:26:51Z</time>
      </trkpt>
      <trkpt lat="44.61248" lon="4.15422">
        <ele>1370.5</ele>
        <time>2013-08-24T14:27:06Z</time>
      </trkpt>
      <trkpt lat="44.61254" lon="4.15413">
        <ele>1370.98</ele>
        <time>2013-08-24T14:27:12Z</time>
      </trkpt>
      <trkpt lat="44.61271" lon="4.1539">
        <ele>1371.46</ele>
        <time>2013-08-24T14:27:29Z</time>
      </trkpt>
      <trkpt lat="44.61286" lon="4.15381">
        <ele>1372.42</ele>
        <time>2013-08-24T14:27:40Z</time>
      </trkpt>
      <trkpt lat="44.61296" lon="4.15377">
        <ele>1372.9</ele>
        <time>2013-08-24T14:27:48Z</time>
      </trkpt>
      <trkpt lat="44.61306" lon="4.15366">
        <ele>1373.86</ele>
        <time>2013-08-24T14:27:58Z</time>
      </trkpt>
      <trkpt lat="44.61309" lon="4.1536">
        <ele>1374.82</ele>
        <time>2013-08-24T14:28:02Z</time>
      </trkpt>
      <trkpt lat="44.61322" lon="4.15334">
        <ele>1376.26</ele>
        <time>2013-08-24T14:28:18Z</time>
      </trkpt>
      <trkpt lat="44.61328" lon="4.15327">
        <ele>1377.23</ele>
        <time>2013-08-24T14:28:24Z</time>
      </trkpt>
      <trkpt lat="44.61339" lon="4.15309">
        <ele>1379.63</ele>
        <time>2013-08-24T14:28:36Z</time>
      </trkpt>
      <trkpt lat="44.61356" lon="4.15285">
        <ele>1382.03</ele>
        <time>2013-08-24T14:28:52Z</time>
      </trkpt>
      <trkpt lat="44.61369" lon="4.15261">
        <ele>1382.99</ele>
        <time>2013-08-24T14:29:06Z</time>
      </trkpt>
      <trkpt lat="44.61379" lon="4.15235">
        <ele>1381.55</ele>
        <time>2013-08-24T14:29:19Z</time>
      </trkpt>
      <trkpt lat="44.61394" lon="4.15193">
        <ele>1380.59</ele>
        <time>2013-08-24T14:29:30Z</time>
      </trkpt>
      <trkpt lat="44.61401" lon="4.15177">
        <ele>1380.59</ele>
        <time>2013-08-24T14:29:34Z</time>
      </trkpt>
      <trkpt lat="44.61416" lon="4.15136">
        <ele>1379.15</ele>
        <time>2013-08-24T14:29:46Z</time>
      </trkpt>
      <trkpt lat="44.61432" lon="4.15095">
        <ele>1380.11</ele>
        <time>2013-08-24T14:30:00Z</time>
      </trkpt>
      <trkpt lat="44.61434" lon="4.1509">
        <ele>1380.59</ele>
        <time>2013-08-24T14:30:08Z</time>
      </trkpt>
      <trkpt lat="44.61436" lon="4.15086">
        <ele>1380.11</ele>
        <time>2013-08-24T14:30:10Z</time>
      </trkpt>
      <trkpt lat="44.61444" lon="4.1506">
        <ele>1378.67</ele>
        <time>2013-08-24T14:30:22Z</time>
      </trkpt>
      <trkpt lat="44.61439" lon="4.15023">
        <ele>1380.11</ele>
        <time>2013-08-24T14:30:34Z</time>
      </trkpt>
      <trkpt lat="44.6143" lon="4.14988">
        <ele>1379.63</ele>
        <time>2013-08-24T14:30:48Z</time>
      </trkpt>
      <trkpt lat="44.61431" lon="4.14954">
        <ele>1381.55</ele>
        <time>2013-08-24T14:31:02Z</time>
      </trkpt>
      <trkpt lat="44.61425" lon="4.1492">
        <ele>1383.96</ele>
        <time>2013-08-24T14:31:16Z</time>
      </trkpt>
      <trkpt lat="44.61418" lon="4.14883">
        <ele>1386.36</ele>
        <time>2013-08-24T14:31:31Z</time>
      </trkpt>
      <trkpt lat="44.61411" lon="4.14849">
        <ele>1388.76</ele>
        <time>2013-08-24T14:31:46Z</time>
      </trkpt>
      <trkpt lat="44.61403" lon="4.14819">
        <ele>1391.17</ele>
        <time>2013-08-24T14:32:00Z</time>
      </trkpt>
      <trkpt lat="44.61394" lon="4.14791">
        <ele>1393.57</ele>
        <time>2013-08-24T14:32:13Z</time>
      </trkpt>
      <trkpt lat="44.61388" lon="4.14774">
        <ele>1395.01</ele>
        <time>2013-08-24T14:32:21Z</time>
      </trkpt>
      <trkpt lat="44.61375" lon="4.14744">
        <ele>1397.89</ele>
        <time>2013-08-24T14:32:36Z</time>
      </trkpt>
      <trkpt lat="44.6136" lon="4.14717">
        <ele>1398.37</ele>
        <time>2013-08-24T14:32:52Z</time>
      </trkpt>
      <trkpt lat="44.61348" lon="4.14689">
        <ele>1401.74</ele>
        <time>2013-08-24T14:33:06Z</time>
      </trkpt>
      <trkpt lat="44.61345" lon="4.14663">
        <ele>1402.7</ele>
        <time>2013-08-24T14:33:18Z</time>
      </trkpt>
      <trkpt lat="44.61346" lon="4.14652">
        <ele>1404.14</ele>
        <time>2013-08-24T14:33:23Z</time>
      </trkpt>
      <trkpt lat="44.61353" lon="4.1463">
        <ele>1406.55</ele>
        <time>2013-08-24T14:33:34Z</time>
      </trkpt>
      <trkpt lat="44.61353" lon="4.14625">
        <ele>1405.58</ele>
        <time>2013-08-24T14:33:36Z</time>
      </trkpt>
      <trkpt lat="44.61356" lon="4.14583">
        <ele>1407.03</ele>
        <time>2013-08-24T14:33:53Z</time>
      </trkpt>
      <trkpt lat="44.61356" lon="4.14576">
        <ele>1405.58</ele>
        <time>2013-08-24T14:33:55Z</time>
      </trkpt>
      <trkpt lat="44.61358" lon="4.14558">
        <ele>1403.66</ele>
        <time>2013-08-24T14:33:59Z</time>
      </trkpt>
      <trkpt lat="44.61359" lon="4.14547">
        <ele>1404.14</ele>
        <time>2013-08-24T14:34:01Z</time>
      </trkpt>
      <trkpt lat="44.61359" lon="4.14541">
        <ele>1403.66</ele>
        <time>2013-08-24T14:34:02Z</time>
      </trkpt>
      <trkpt lat="44.6136" lon="4.14536">
        <ele>1404.62</ele>
        <time>2013-08-24T14:34:03Z</time>
      </trkpt>
      <trkpt lat="44.61362" lon="4.14513">
        <ele>1401.26</ele>
        <time>2013-08-24T14:34:07Z</time>
      </trkpt>
      <trkpt lat="44.61363" lon="4.145">
        <ele>1401.26</ele>
        <time>2013-08-24T14:34:09Z</time>
      </trkpt>
      <trkpt lat="44.61365" lon="4.14494">
        <ele>1400.3</ele>
        <time>2013-08-24T14:34:10Z</time>
      </trkpt>
      <trkpt lat="44.61366" lon="4.14488">
        <ele>1399.82</ele>
        <time>2013-08-24T14:34:11Z</time>
      </trkpt>
      <trkpt lat="44.6137" lon="4.1447">
        <ele>1399.34</ele>
        <time>2013-08-24T14:34:14Z</time>
      </trkpt>
      <trkpt lat="44.61374" lon="4.1444">
        <ele>1395.49</ele>
        <time>2013-08-24T14:34:18Z</time>
      </trkpt>
      <trkpt lat="44.61387" lon="4.14354">
        <ele>1396.45</ele>
        <time>2013-08-24T14:34:29Z</time>
      </trkpt>
      <trkpt lat="44.61386" lon="4.14339">
        <ele>1392.13</ele>
        <time>2013-08-24T14:34:31Z</time>
      </trkpt>
      <trkpt lat="44.61385" lon="4.14331">
        <ele>1390.2</ele>
        <time>2013-08-24T14:34:32Z</time>
      </trkpt>
      <trkpt lat="44.61385" lon="4.14323">
        <ele>1390.68</ele>
        <time>2013-08-24T14:34:33Z</time>
      </trkpt>
      <trkpt lat="44.61385" lon="4.14314">
        <ele>1391.65</ele>
        <time>2013-08-24T14:34:34Z</time>
      </trkpt>
      <trkpt lat="44.61383" lon="4.14304">
        <ele>1390.68</ele>
        <time>2013-08-24T14:34:35Z</time>
      </trkpt>
      <trkpt lat="44.6138" lon="4.14284">
        <ele>1386.84</ele>
        <time>2013-08-24T14:34:37Z</time>
      </trkpt>
      <trkpt lat="44.61377" lon="4.14273">
        <ele>1384.92</ele>
        <time>2013-08-24T14:34:38Z</time>
      </trkpt>
      <trkpt lat="44.61373" lon="4.14263">
        <ele>1384.92</ele>
        <time>2013-08-24T14:34:39Z</time>
      </trkpt>
      <trkpt lat="44.61345" lon="4.14213">
        <ele>1382.99</ele>
        <time>2013-08-24T14:34:45Z</time>
      </trkpt>
      <trkpt lat="44.61341" lon="4.14204">
        <ele>1383.96</ele>
        <time>2013-08-24T14:34:46Z</time>
      </trkpt>
      <trkpt lat="44.61333" lon="4.14187">
        <ele>1382.51</ele>
        <time>2013-08-24T14:34:48Z</time>
      </trkpt>
      <trkpt lat="44.61326" lon="4.14163">
        <ele>1381.55</ele>
        <time>2013-08-24T14:34:51Z</time>
      </trkpt>
      <trkpt lat="44.61321" lon="4.14144">
        <ele>1382.51</ele>
        <time>2013-08-24T14:34:54Z</time>
      </trkpt>
      <trkpt lat="44.61321" lon="4.14138">
        <ele>1382.51</ele>
        <time>2013-08-24T14:34:55Z</time>
      </trkpt>
      <trkpt lat="44.6132" lon="4.14132">
        <ele>1383.47</ele>
        <time>2013-08-24T14:34:56Z</time>
      </trkpt>
      <trkpt lat="44.61319" lon="4.14126">
        <ele>1383.96</ele>
        <time>2013-08-24T14:34:57Z</time>
      </trkpt>
      <trkpt lat="44.61318" lon="4.1412">
        <ele>1385.88</ele>
        <time>2013-08-24T14:34:58Z</time>
      </trkpt>
      <trkpt lat="44.61317" lon="4.14114">
        <ele>1385.88</ele>
        <time>2013-08-24T14:34:59Z</time>
      </trkpt>
      <trkpt lat="44.61317" lon="4.14108">
        <ele>1385.88</ele>
        <time>2013-08-24T14:35:00Z</time>
      </trkpt>
      <trkpt lat="44.61317" lon="4.14102">
        <ele>1385.4</ele>
        <time>2013-08-24T14:35:01Z</time>
      </trkpt>
      <trkpt lat="44.61317" lon="4.14097">
        <ele>1385.88</ele>
        <time>2013-08-24T14:35:02Z</time>
      </trkpt>
      <trkpt lat="44.61315" lon="4.14035">
        <ele>1385.88</ele>
        <time>2013-08-24T14:35:16Z</time>
      </trkpt>
      <trkpt lat="44.61326" lon="4.13993">
        <ele>1387.32</ele>
        <time>2013-08-24T14:35:27Z</time>
      </trkpt>
      <trkpt lat="44.61335" lon="4.1395">
        <ele>1385.88</ele>
        <time>2013-08-24T14:35:38Z</time>
      </trkpt>
      <trkpt lat="44.61342" lon="4.13921">
        <ele>1387.32</ele>
        <time>2013-08-24T14:35:48Z</time>
      </trkpt>
      <trkpt lat="44.61359" lon="4.13882">
        <ele>1387.32</ele>
        <time>2013-08-24T14:36:03Z</time>
      </trkpt>
      <trkpt lat="44.61362" lon="4.13877">
        <ele>1386.84</ele>
        <time>2013-08-24T14:36:05Z</time>
      </trkpt>
      <trkpt lat="44.61365" lon="4.13873">
        <ele>1386.84</ele>
        <time>2013-08-24T14:36:07Z</time>
      </trkpt>
      <trkpt lat="44.61366" lon="4.1387">
        <ele>1387.32</ele>
        <time>2013-08-24T14:36:08Z</time>
      </trkpt>
      <trkpt lat="44.61367" lon="4.13867">
        <ele>1387.32</ele>
        <time>2013-08-24T14:36:09Z</time>
      </trkpt>
      <trkpt lat="44.61381" lon="4.13831">
        <ele>1388.28</ele>
        <time>2013-08-24T14:36:23Z</time>
      </trkpt>
      <trkpt lat="44.61393" lon="4.13796">
        <ele>1390.2</ele>
        <time>2013-08-24T14:36:37Z</time>
      </trkpt>
      <trkpt lat="44.61393" lon="4.13788">
        <ele>1389.72</ele>
        <time>2013-08-24T14:36:40Z</time>
      </trkpt>
      <trkpt lat="44.61392" lon="4.13786">
        <ele>1390.68</ele>
        <time>2013-08-24T14:36:41Z</time>
      </trkpt>
      <trkpt lat="44.61391" lon="4.13783">
        <ele>1390.2</ele>
        <time>2013-08-24T14:36:42Z</time>
      </trkpt>
      <trkpt lat="44.61391" lon="4.13781">
        <ele>1390.68</ele>
        <time>2013-08-24T14:36:43Z</time>
      </trkpt>
      <trkpt lat="44.61391" lon="4.13778">
        <ele>1390.68</ele>
        <time>2013-08-24T14:36:44Z</time>
      </trkpt>
      <trkpt lat="44.61391" lon="4.13775">
        <ele>1390.68</ele>
        <time>2013-08-24T14:36:45Z</time>
      </trkpt>
      <trkpt lat="44.61391" lon="4.13773">
        <ele>1390.68</ele>
        <time>2013-08-24T14:36:46Z</time>
      </trkpt>
      <trkpt lat="44.61391" lon="4.1377">
        <ele>1391.17</ele>
        <time>2013-08-24T14:36:47Z</time>
      </trkpt>
      <trkpt lat="44.61392" lon="4.13768">
        <ele>1391.17</ele>
        <time>2013-08-24T14:36:48Z</time>
      </trkpt>
      <trkpt lat="44.61393" lon="4.13765">
        <ele>1391.17</ele>
        <time>2013-08-24T14:36:49Z</time>
      </trkpt>
      <trkpt lat="44.61393" lon="4.13763">
        <ele>1391.17</ele>
        <time>2013-08-24T14:36:50Z</time>
      </trkpt>
      <trkpt lat="44.61393" lon="4.1376">
        <ele>1390.68</ele>
        <time>2013-08-24T14:36:51Z</time>
      </trkpt>
      <trkpt lat="44.61393" lon="4.13758">
        <ele>1391.17</ele>
        <time>2013-08-24T14:36:52Z</time>
      </trkpt>
      <trkpt lat="44.61393" lon="4.13755">
        <ele>1391.17</ele>
        <time>2013-08-24T14:36:53Z</time>
      </trkpt>
      <trkpt lat="44.61394" lon="4.13752">
        <ele>1391.17</ele>
        <time>2013-08-24T14:36:54Z</time>
      </trkpt>
      <trkpt lat="44.61394" lon="4.1375">
        <ele>1391.65</ele>
        <time>2013-08-24T14:36:55Z</time>
      </trkpt>
      <trkpt lat="44.61395" lon="4.13715">
        <ele>1392.13</ele>
        <time>2013-08-24T14:37:08Z</time>
      </trkpt>
      <trkpt lat="44.61389" lon="4.13677">
        <ele>1392.61</ele>
        <time>2013-08-24T14:37:22Z</time>
      </trkpt>
      <trkpt lat="44.61388" lon="4.13665">
        <ele>1392.13</ele>
        <time>2013-08-24T14:37:28Z</time>
      </trkpt>
      <trkpt lat="44.61388" lon="4.13661">
        <ele>1392.13</ele>
        <time>2013-08-24T14:37:30Z</time>
      </trkpt>
      <trkpt lat="44.61387" lon="4.1366">
        <ele>1392.61</ele>
        <time>2013-08-24T14:37:31Z</time>
      </trkpt>
      <trkpt lat="44.61389" lon="4.13641">
        <ele>1392.61</ele>
        <time>2013-08-24T14:37:41Z</time>
      </trkpt>
      <trkpt lat="44.6139" lon="4.13635">
        <ele>1392.13</ele>
        <time>2013-08-24T14:37:44Z</time>
      </trkpt>
      <trkpt lat="44.6139" lon="4.13633">
        <ele>1392.13</ele>
        <time>2013-08-24T14:37:45Z</time>
      </trkpt>
      <trkpt lat="44.6139" lon="4.13631">
        <ele>1391.65</ele>
        <time>2013-08-24T14:37:46Z</time>
      </trkpt>
      <trkpt lat="44.6139" lon="4.13631">
        <ele>1391.65</ele>
        <time>2013-08-24T14:37:55Z</time>
      </trkpt>
      <trkpt lat="44.61387" lon="4.13627">
        <ele>1393.09</ele>
        <time>2013-08-24T14:38:07Z</time>
      </trkpt>
      <trkpt lat="44.61384" lon="4.13626">
        <ele>1392.13</ele>
        <time>2013-08-24T14:38:15Z</time>
      </trkpt>
      <trkpt lat="44.61379" lon="4.13621">
        <ele>1392.13</ele>
        <time>2013-08-24T14:38:25Z</time>
      </trkpt>
      <trkpt lat="44.61379" lon="4.13621">
        <ele>1392.61</ele>
        <time>2013-08-24T14:38:39Z</time>
      </trkpt>
      <trkpt lat="44.61378" lon="4.1362">
        <ele>1392.13</ele>
        <time>2013-08-24T14:39:18Z</time>
      </trkpt>
      <trkpt lat="44.61375" lon="4.13619">
        <ele>1391.17</ele>
        <time>2013-08-24T14:39:31Z</time>
      </trkpt>
      <trkpt lat="44.61371" lon="4.13615">
        <ele>1391.65</ele>
        <time>2013-08-24T14:39:55Z</time>
      </trkpt>
      <trkpt lat="44.61371" lon="4.13613">
        <ele>1391.17</ele>
        <time>2013-08-24T14:39:56Z</time>
      </trkpt>
      <trkpt lat="44.6137" lon="4.13611">
        <ele>1391.65</ele>
        <time>2013-08-24T14:39:57Z</time>
      </trkpt>
      <trkpt lat="44.6137" lon="4.13609">
        <ele>1391.65</ele>
        <time>2013-08-24T14:39:58Z</time>
      </trkpt>
      <trkpt lat="44.61369" lon="4.13608">
        <ele>1391.65</ele>
        <time>2013-08-24T14:39:59Z</time>
      </trkpt>
      <trkpt lat="44.61367" lon="4.13604">
        <ele>1392.13</ele>
        <time>2013-08-24T14:40:01Z</time>
      </trkpt>
      <trkpt lat="44.61361" lon="4.1358">
        <ele>1393.09</ele>
        <time>2013-08-24T14:40:14Z</time>
      </trkpt>
      <trkpt lat="44.6136" lon="4.13578">
        <ele>1392.61</ele>
        <time>2013-08-24T14:40:15Z</time>
      </trkpt>
      <trkpt lat="44.61354" lon="4.13548">
        <ele>1394.05</ele>
        <time>2013-08-24T14:40:31Z</time>
      </trkpt>
      <trkpt lat="44.61353" lon="4.13536">
        <ele>1395.01</ele>
        <time>2013-08-24T14:40:37Z</time>
      </trkpt>
      <trkpt lat="44.61352" lon="4.13534">
        <ele>1395.49</ele>
        <time>2013-08-24T14:40:38Z</time>
      </trkpt>
      <trkpt lat="44.61352" lon="4.13532">
        <ele>1395.49</ele>
        <time>2013-08-24T14:40:39Z</time>
      </trkpt>
      <trkpt lat="44.61351" lon="4.1353">
        <ele>1395.49</ele>
        <time>2013-08-24T14:40:40Z</time>
      </trkpt>
      <trkpt lat="44.61351" lon="4.13528">
        <ele>1395.01</ele>
        <time>2013-08-24T14:40:41Z</time>
      </trkpt>
      <trkpt lat="44.61345" lon="4.13501">
        <ele>1396.93</ele>
        <time>2013-08-24T14:40:54Z</time>
      </trkpt>
      <trkpt lat="44.61335" lon="4.13465">
        <ele>1399.82</ele>
        <time>2013-08-24T14:41:12Z</time>
      </trkpt>
      <trkpt lat="44.6133" lon="4.13443">
        <ele>1399.82</ele>
        <time>2013-08-24T14:41:23Z</time>
      </trkpt>
      <trkpt lat="44.61329" lon="4.13441">
        <ele>1399.34</ele>
        <time>2013-08-24T14:41:24Z</time>
      </trkpt>
      <trkpt lat="44.61314" lon="4.13406">
        <ele>1400.78</ele>
        <time>2013-08-24T14:41:42Z</time>
      </trkpt>
      <trkpt lat="44.61299" lon="4.1338">
        <ele>1401.74</ele>
        <time>2013-08-24T14:41:56Z</time>
      </trkpt>
      <trkpt lat="44.61281" lon="4.13357">
        <ele>1403.18</ele>
        <time>2013-08-24T14:42:11Z</time>
      </trkpt>
      <trkpt lat="44.61262" lon="4.13342">
        <ele>1403.66</ele>
        <time>2013-08-24T14:42:25Z</time>
      </trkpt>
      <trkpt lat="44.61245" lon="4.13325">
        <ele>1404.62</ele>
        <time>2013-08-24T14:42:38Z</time>
      </trkpt>
      <trkpt lat="44.61243" lon="4.13324">
        <ele>1404.14</ele>
        <time>2013-08-24T14:42:39Z</time>
      </trkpt>
      <trkpt lat="44.61242" lon="4.13323">
        <ele>1404.62</ele>
        <time>2013-08-24T14:42:40Z</time>
      </trkpt>
      <trkpt lat="44.6124" lon="4.13323">
        <ele>1404.62</ele>
        <time>2013-08-24T14:42:41Z</time>
      </trkpt>
      <trkpt lat="44.61239" lon="4.13322">
        <ele>1404.62</ele>
        <time>2013-08-24T14:42:42Z</time>
      </trkpt>
      <trkpt lat="44.61237" lon="4.13322">
        <ele>1405.1</ele>
        <time>2013-08-24T14:42:43Z</time>
      </trkpt>
      <trkpt lat="44.61236" lon="4.13321">
        <ele>1405.1</ele>
        <time>2013-08-24T14:42:44Z</time>
      </trkpt>
      <trkpt lat="44.61234" lon="4.13321">
        <ele>1405.58</ele>
        <time>2013-08-24T14:42:45Z</time>
      </trkpt>
      <trkpt lat="44.61233" lon="4.13321">
        <ele>1405.1</ele>
        <time>2013-08-24T14:42:46Z</time>
      </trkpt>
      <trkpt lat="44.61231" lon="4.1332">
        <ele>1405.58</ele>
        <time>2013-08-24T14:42:47Z</time>
      </trkpt>
      <trkpt lat="44.61211" lon="4.13318">
        <ele>1407.03</ele>
        <time>2013-08-24T14:43:00Z</time>
      </trkpt>
      <trkpt lat="44.61192" lon="4.13318">
        <ele>1407.99</ele>
        <time>2013-08-24T14:43:11Z</time>
      </trkpt>
      <trkpt lat="44.61171" lon="4.13327">
        <ele>1407.99</ele>
        <time>2013-08-24T14:43:23Z</time>
      </trkpt>
      <trkpt lat="44.61169" lon="4.13327">
        <ele>1408.47</ele>
        <time>2013-08-24T14:43:24Z</time>
      </trkpt>
      <trkpt lat="44.6114" lon="4.13333">
        <ele>1408.95</ele>
        <time>2013-08-24T14:43:36Z</time>
      </trkpt>
      <trkpt lat="44.61134" lon="4.13336">
        <ele>1408.95</ele>
        <time>2013-08-24T14:43:39Z</time>
      </trkpt>
      <trkpt lat="44.61133" lon="4.13337">
        <ele>1409.43</ele>
        <time>2013-08-24T14:43:40Z</time>
      </trkpt>
      <trkpt lat="44.61132" lon="4.13338">
        <ele>1408.95</ele>
        <time>2013-08-24T14:43:41Z</time>
      </trkpt>
      <trkpt lat="44.6113" lon="4.13339">
        <ele>1408.95</ele>
        <time>2013-08-24T14:43:42Z</time>
      </trkpt>
      <trkpt lat="44.61128" lon="4.13339">
        <ele>1408.95</ele>
        <time>2013-08-24T14:43:43Z</time>
      </trkpt>
      <trkpt lat="44.61127" lon="4.1334">
        <ele>1408.47</ele>
        <time>2013-08-24T14:43:44Z</time>
      </trkpt>
      <trkpt lat="44.61125" lon="4.13341">
        <ele>1408.47</ele>
        <time>2013-08-24T14:43:45Z</time>
      </trkpt>
      <trkpt lat="44.61123" lon="4.13342">
        <ele>1408.47</ele>
        <time>2013-08-24T14:43:46Z</time>
      </trkpt>
      <trkpt lat="44.61121" lon="4.13342">
        <ele>1408.95</ele>
        <time>2013-08-24T14:43:47Z</time>
      </trkpt>
      <trkpt lat="44.6112" lon="4.13341">
        <ele>1408.47</ele>
        <time>2013-08-24T14:43:48Z</time>
      </trkpt>
      <trkpt lat="44.61118" lon="4.13341">
        <ele>1408.95</ele>
        <time>2013-08-24T14:43:49Z</time>
      </trkpt>
      <trkpt lat="44.61116" lon="4.13341">
        <ele>1408.47</ele>
        <time>2013-08-24T14:43:50Z</time>
      </trkpt>
      <trkpt lat="44.61115" lon="4.13342">
        <ele>1407.99</ele>
        <time>2013-08-24T14:43:51Z</time>
      </trkpt>
      <trkpt lat="44.61099" lon="4.13345">
        <ele>1407.99</ele>
        <time>2013-08-24T14:44:00Z</time>
      </trkpt>
      <trkpt lat="44.61099" lon="4.13347">
        <ele>1407.99</ele>
        <time>2013-08-24T14:44:01Z</time>
      </trkpt>
      <trkpt lat="44.61097" lon="4.13352">
        <ele>1407.51</ele>
        <time>2013-08-24T14:44:13Z</time>
      </trkpt>
      <trkpt lat="44.61096" lon="4.13353">
        <ele>1410.87</ele>
        <time>2013-08-24T14:44:32Z</time>
      </trkpt>
      <trkpt lat="44.61096" lon="4.13353">
        <ele>1407.51</ele>
        <time>2013-08-24T14:44:33Z</time>
      </trkpt>
      <trkpt lat="44.61096" lon="4.13353">
        <ele>1403.18</ele>
        <time>2013-08-24T14:44:36Z</time>
      </trkpt>
      <trkpt lat="44.61096" lon="4.13353">
        <ele>1408.47</ele>
        <time>2013-08-24T14:44:37Z</time>
      </trkpt>
      <trkpt lat="44.61096" lon="4.13353">
        <ele>1402.7</ele>
        <time>2013-08-24T14:44:38Z</time>
      </trkpt>
      <trkpt lat="44.61096" lon="4.13353">
        <ele>1408.95</ele>
        <time>2013-08-24T14:44:39Z</time>
      </trkpt>
      <trkpt lat="44.61096" lon="4.13353">
        <ele>1405.58</ele>
        <time>2013-08-24T14:44:40Z</time>
      </trkpt>
      <trkpt lat="44.61096" lon="4.13353">
        <ele>1410.87</ele>
        <time>2013-08-24T14:44:42Z</time>
      </trkpt>
      <trkpt lat="44.61096" lon="4.13353">
        <ele>1404.14</ele>
        <time>2013-08-24T14:44:43Z</time>
      </trkpt>
      <trkpt lat="44.61096" lon="4.13353">
        <ele>1407.99</ele>
        <time>2013-08-24T14:44:44Z</time>
      </trkpt>
      <trkpt lat="44.61096" lon="4.13353">
        <ele>1405.1</ele>
        <time>2013-08-24T14:44:47Z</time>
      </trkpt>
      <trkpt lat="44.61096" lon="4.13353">
        <ele>1407.99</ele>
        <time>2013-08-24T14:44:48Z</time>
      </trkpt>
      <trkpt lat="44.61096" lon="4.13353">
        <ele>1406.07</ele>
        <time>2013-08-24T14:44:51Z</time>
      </trkpt>
      <trkpt lat="44.61096" lon="4.13353">
        <ele>1406.55</ele>
        <time>2013-08-24T14:45:13Z</time>
      </trkpt>
      <trkpt lat="44.61096" lon="4.13353">
        <ele>1406.07</ele>
        <time>2013-08-24T14:45:35Z</time>
      </trkpt>
      <trkpt lat="44.61087" lon="4.13362">
        <ele>1405.58</ele>
        <time>2013-08-24T14:45:47Z</time>
      </trkpt>
      <trkpt lat="44.61085" lon="4.13362">
        <ele>1405.1</ele>
        <time>2013-08-24T14:45:48Z</time>
      </trkpt>
      <trkpt lat="44.61083" lon="4.13363">
        <ele>1405.58</ele>
        <time>2013-08-24T14:45:49Z</time>
      </trkpt>
      <trkpt lat="44.61081" lon="4.13364">
        <ele>1405.1</ele>
        <time>2013-08-24T14:45:50Z</time>
      </trkpt>
      <trkpt lat="44.61079" lon="4.13364">
        <ele>1405.1</ele>
        <time>2013-08-24T14:45:51Z</time>
      </trkpt>
      <trkpt lat="44.61078" lon="4.13364">
        <ele>1405.1</ele>
        <time>2013-08-24T14:45:52Z</time>
      </trkpt>
      <trkpt lat="44.61076" lon="4.13365">
        <ele>1404.62</ele>
        <time>2013-08-24T14:45:53Z</time>
      </trkpt>
      <trkpt lat="44.61074" lon="4.13365">
        <ele>1404.62</ele>
        <time>2013-08-24T14:45:54Z</time>
      </trkpt>
      <trkpt lat="44.61048" lon="4.13383">
        <ele>1403.18</ele>
        <time>2013-08-24T14:46:03Z</time>
      </trkpt>
      <trkpt lat="44.61028" lon="4.13399">
        <ele>1401.26</ele>
        <time>2013-08-24T14:46:09Z</time>
      </trkpt>
      <trkpt lat="44.61025" lon="4.13402">
        <ele>1400.78</ele>
        <time>2013-08-24T14:46:10Z</time>
      </trkpt>
      <trkpt lat="44.61015" lon="4.13409">
        <ele>1400.78</ele>
        <time>2013-08-24T14:46:13Z</time>
      </trkpt>
      <trkpt lat="44.61011" lon="4.13412">
        <ele>1400.3</ele>
        <time>2013-08-24T14:46:14Z</time>
      </trkpt>
      <trkpt lat="44.61007" lon="4.13414">
        <ele>1400.3</ele>
        <time>2013-08-24T14:46:15Z</time>
      </trkpt>
      <trkpt lat="44.61004" lon="4.13415">
        <ele>1400.3</ele>
        <time>2013-08-24T14:46:16Z</time>
      </trkpt>
      <trkpt lat="44.61001" lon="4.13417">
        <ele>1400.3</ele>
        <time>2013-08-24T14:46:17Z</time>
      </trkpt>
      <trkpt lat="44.60999" lon="4.13419">
        <ele>1399.82</ele>
        <time>2013-08-24T14:46:18Z</time>
      </trkpt>
      <trkpt lat="44.60996" lon="4.13421">
        <ele>1400.3</ele>
        <time>2013-08-24T14:46:19Z</time>
      </trkpt>
      <trkpt lat="44.60994" lon="4.13423">
        <ele>1399.82</ele>
        <time>2013-08-24T14:46:20Z</time>
      </trkpt>
      <trkpt lat="44.60992" lon="4.13423">
        <ele>1400.3</ele>
        <time>2013-08-24T14:46:21Z</time>
      </trkpt>
      <trkpt lat="44.60991" lon="4.13423">
        <ele>1399.34</ele>
        <time>2013-08-24T14:46:29Z</time>
      </trkpt>
      <trkpt lat="44.6099" lon="4.13425">
        <ele>1399.34</ele>
        <time>2013-08-24T14:46:30Z</time>
      </trkpt>
      <trkpt lat="44.60988" lon="4.13426">
        <ele>1398.86</ele>
        <time>2013-08-24T14:46:31Z</time>
      </trkpt>
      <trkpt lat="44.60986" lon="4.13428">
        <ele>1398.86</ele>
        <time>2013-08-24T14:46:32Z</time>
      </trkpt>
      <trkpt lat="44.60984" lon="4.13429">
        <ele>1398.86</ele>
        <time>2013-08-24T14:46:33Z</time>
      </trkpt>
      <trkpt lat="44.60959" lon="4.13453">
        <ele>1397.41</ele>
        <time>2013-08-24T14:46:44Z</time>
      </trkpt>
      <trkpt lat="44.60957" lon="4.13457">
        <ele>1396.93</ele>
        <time>2013-08-24T14:46:45Z</time>
      </trkpt>
      <trkpt lat="44.60952" lon="4.13467">
        <ele>1396.93</ele>
        <time>2013-08-24T14:46:47Z</time>
      </trkpt>
      <trkpt lat="44.60949" lon="4.13468">
        <ele>1396.45</ele>
        <time>2013-08-24T14:46:48Z</time>
      </trkpt>
      <trkpt lat="44.60945" lon="4.13469">
        <ele>1395.97</ele>
        <time>2013-08-24T14:46:53Z</time>
      </trkpt>
      <trkpt lat="44.60942" lon="4.13458">
        <ele>1395.49</ele>
        <time>2013-08-24T14:46:59Z</time>
      </trkpt>
      <trkpt lat="44.60936" lon="4.13451">
        <ele>1395.01</ele>
        <time>2013-08-24T14:47:02Z</time>
      </trkpt>
      <trkpt lat="44.60931" lon="4.13442">
        <ele>1394.53</ele>
        <time>2013-08-24T14:47:06Z</time>
      </trkpt>
      <trkpt lat="44.6093" lon="4.13437">
        <ele>1394.53</ele>
        <time>2013-08-24T14:47:09Z</time>
      </trkpt>
      <trkpt lat="44.6093" lon="4.13425">
        <ele>1394.53</ele>
        <time>2013-08-24T14:47:16Z</time>
      </trkpt>
      <trkpt lat="44.60929" lon="4.13409">
        <ele>1395.01</ele>
        <time>2013-08-24T14:47:24Z</time>
      </trkpt>
      <trkpt lat="44.60941" lon="4.13398">
        <ele>1395.97</ele>
        <time>2013-08-24T14:47:33Z</time>
      </trkpt>
      <trkpt lat="44.60946" lon="4.1338">
        <ele>1397.89</ele>
        <time>2013-08-24T14:47:41Z</time>
      </trkpt>
      <trkpt lat="44.60948" lon="4.13375">
        <ele>1398.37</ele>
        <time>2013-08-24T14:47:43Z</time>
      </trkpt>
      <trkpt lat="44.60955" lon="4.13366">
        <ele>1399.82</ele>
        <time>2013-08-24T14:47:48Z</time>
      </trkpt>
      <trkpt lat="44.60968" lon="4.13354">
        <ele>1400.78</ele>
        <time>2013-08-24T14:47:58Z</time>
      </trkpt>
      <trkpt lat="44.60976" lon="4.1335">
        <ele>1400.3</ele>
        <time>2013-08-24T14:48:04Z</time>
      </trkpt>
      <trkpt lat="44.60981" lon="4.13338">
        <ele>1400.78</ele>
        <time>2013-08-24T14:48:11Z</time>
      </trkpt>
      <trkpt lat="44.60988" lon="4.13322">
        <ele>1401.26</ele>
        <time>2013-08-24T14:48:19Z</time>
      </trkpt>
      <trkpt lat="44.60992" lon="4.13314">
        <ele>1401.74</ele>
        <time>2013-08-24T14:48:23Z</time>
      </trkpt>
      <trkpt lat="44.61004" lon="4.13287">
        <ele>1399.82</ele>
        <time>2013-08-24T14:48:33Z</time>
      </trkpt>
      <trkpt lat="44.61011" lon="4.13267">
        <ele>1398.37</ele>
        <time>2013-08-24T14:48:37Z</time>
      </trkpt>
      <trkpt lat="44.61017" lon="4.13251">
        <ele>1396.93</ele>
        <time>2013-08-24T14:48:40Z</time>
      </trkpt>
      <trkpt lat="44.61019" lon="4.13246">
        <ele>1396.45</ele>
        <time>2013-08-24T14:48:41Z</time>
      </trkpt>
      <trkpt lat="44.61029" lon="4.13221">
        <ele>1397.41</ele>
        <time>2013-08-24T14:48:51Z</time>
      </trkpt>
      <trkpt lat="44.61032" lon="4.13203">
        <ele>1398.37</ele>
        <time>2013-08-24T14:48:59Z</time>
      </trkpt>
      <trkpt lat="44.61033" lon="4.13201">
        <ele>1398.37</ele>
        <time>2013-08-24T14:49:00Z</time>
      </trkpt>
      <trkpt lat="44.61033" lon="4.13199">
        <ele>1398.37</ele>
        <time>2013-08-24T14:49:01Z</time>
      </trkpt>
      <trkpt lat="44.61033" lon="4.13196">
        <ele>1398.37</ele>
        <time>2013-08-24T14:49:02Z</time>
      </trkpt>
      <trkpt lat="44.61034" lon="4.13194">
        <ele>1398.86</ele>
        <time>2013-08-24T14:49:03Z</time>
      </trkpt>
      <trkpt lat="44.61034" lon="4.13191">
        <ele>1398.86</ele>
        <time>2013-08-24T14:49:04Z</time>
      </trkpt>
      <trkpt lat="44.61035" lon="4.13189">
        <ele>1398.86</ele>
        <time>2013-08-24T14:49:05Z</time>
      </trkpt>
      <trkpt lat="44.61035" lon="4.13187">
        <ele>1398.86</ele>
        <time>2013-08-24T14:49:06Z</time>
      </trkpt>
      <trkpt lat="44.61036" lon="4.13184">
        <ele>1398.86</ele>
        <time>2013-08-24T14:49:07Z</time>
      </trkpt>
      <trkpt lat="44.61037" lon="4.13182">
        <ele>1399.34</ele>
        <time>2013-08-24T14:49:08Z</time>
      </trkpt>
      <trkpt lat="44.61037" lon="4.13181">
        <ele>1399.34</ele>
        <time>2013-08-24T14:49:09Z</time>
      </trkpt>
      <trkpt lat="44.61038" lon="4.13179">
        <ele>1399.34</ele>
        <time>2013-08-24T14:49:10Z</time>
      </trkpt>
      <trkpt lat="44.61039" lon="4.13177">
        <ele>1399.82</ele>
        <time>2013-08-24T14:49:14Z</time>
      </trkpt>
      <trkpt lat="44.61039" lon="4.13175">
        <ele>1399.82</ele>
        <time>2013-08-24T14:49:15Z</time>
      </trkpt>
      <trkpt lat="44.6104" lon="4.13168">
        <ele>1399.82</ele>
        <time>2013-08-24T14:49:18Z</time>
      </trkpt>
      <trkpt lat="44.61043" lon="4.13152">
        <ele>1400.3</ele>
        <time>2013-08-24T14:49:26Z</time>
      </trkpt>
      <trkpt lat="44.61043" lon="4.1315">
        <ele>1400.78</ele>
        <time>2013-08-24T14:49:27Z</time>
      </trkpt>
      <trkpt lat="44.61044" lon="4.13147">
        <ele>1400.78</ele>
        <time>2013-08-24T14:49:28Z</time>
      </trkpt>
      <trkpt lat="44.61046" lon="4.1314">
        <ele>1401.74</ele>
        <time>2013-08-24T14:49:32Z</time>
      </trkpt>
      <trkpt lat="44.61047" lon="4.13138">
        <ele>1402.22</ele>
        <time>2013-08-24T14:49:33Z</time>
      </trkpt>
      <trkpt lat="44.61047" lon="4.13136">
        <ele>1402.22</ele>
        <time>2013-08-24T14:49:34Z</time>
      </trkpt>
      <trkpt lat="44.61048" lon="4.13133">
        <ele>1402.22</ele>
        <time>2013-08-24T14:49:36Z</time>
      </trkpt>
      <trkpt lat="44.61048" lon="4.1313">
        <ele>1402.7</ele>
        <time>2013-08-24T14:49:37Z</time>
      </trkpt>
      <trkpt lat="44.6105" lon="4.13122">
        <ele>1403.66</ele>
        <time>2013-08-24T14:49:42Z</time>
      </trkpt>
      <trkpt lat="44.61051" lon="4.1312">
        <ele>1404.14</ele>
        <time>2013-08-24T14:49:43Z</time>
      </trkpt>
      <trkpt lat="44.61051" lon="4.13118">
        <ele>1404.62</ele>
        <time>2013-08-24T14:49:44Z</time>
      </trkpt>
      <trkpt lat="44.61051" lon="4.13116">
        <ele>1404.62</ele>
        <time>2013-08-24T14:49:45Z</time>
      </trkpt>
      <trkpt lat="44.61051" lon="4.13114">
        <ele>1404.62</ele>
        <time>2013-08-24T14:49:46Z</time>
      </trkpt>
      <trkpt lat="44.61051" lon="4.13113">
        <ele>1404.62</ele>
        <time>2013-08-24T14:49:47Z</time>
      </trkpt>
      <trkpt lat="44.61051" lon="4.13111">
        <ele>1404.62</ele>
        <time>2013-08-24T14:49:48Z</time>
      </trkpt>
      <trkpt lat="44.6105" lon="4.13108">
        <ele>1404.62</ele>
        <time>2013-08-24T14:49:49Z</time>
      </trkpt>
      <trkpt lat="44.6105" lon="4.13106">
        <ele>1404.62</ele>
        <time>2013-08-24T14:49:50Z</time>
      </trkpt>
      <trkpt lat="44.61051" lon="4.13103">
        <ele>1405.1</ele>
        <time>2013-08-24T14:49:52Z</time>
      </trkpt>
      <trkpt lat="44.61051" lon="4.13098">
        <ele>1406.07</ele>
        <time>2013-08-24T14:49:58Z</time>
      </trkpt>
      <trkpt lat="44.6105" lon="4.13095">
        <ele>1406.07</ele>
        <time>2013-08-24T14:50:00Z</time>
      </trkpt>
      <trkpt lat="44.61049" lon="4.13094">
        <ele>1406.07</ele>
        <time>2013-08-24T14:50:01Z</time>
      </trkpt>
      <trkpt lat="44.61049" lon="4.13092">
        <ele>1406.07</ele>
        <time>2013-08-24T14:50:02Z</time>
      </trkpt>
      <trkpt lat="44.61048" lon="4.13088">
        <ele>1406.07</ele>
        <time>2013-08-24T14:50:05Z</time>
      </trkpt>
      <trkpt lat="44.61048" lon="4.13087">
        <ele>1406.55</ele>
        <time>2013-08-24T14:50:16Z</time>
      </trkpt>
      <trkpt lat="44.61048" lon="4.13087">
        <ele>1406.07</ele>
        <time>2013-08-24T14:50:42Z</time>
      </trkpt>
      <trkpt lat="44.61048" lon="4.13088">
        <ele>1406.07</ele>
        <time>2013-08-24T14:51:06Z</time>
      </trkpt>
      <trkpt lat="44.61048" lon="4.13088">
        <ele>1406.07</ele>
        <time>2013-08-24T14:51:37Z</time>
      </trkpt>
      <trkpt lat="44.61047" lon="4.13084">
        <ele>1406.07</ele>
        <time>2013-08-24T14:51:55Z</time>
      </trkpt>
      <trkpt lat="44.61047" lon="4.13078">
        <ele>1407.51</ele>
        <time>2013-08-24T14:52:05Z</time>
      </trkpt>
      <trkpt lat="44.61044" lon="4.13068">
        <ele>1409.43</ele>
        <time>2013-08-24T14:52:17Z</time>
      </trkpt>
      <trkpt lat="44.61044" lon="4.13058">
        <ele>1409.91</ele>
        <time>2013-08-24T14:52:26Z</time>
      </trkpt>
      <trkpt lat="44.61039" lon="4.1304">
        <ele>1412.31</ele>
        <time>2013-08-24T14:52:40Z</time>
      </trkpt>
      <trkpt lat="44.6104" lon="4.13027">
        <ele>1414.24</ele>
        <time>2013-08-24T14:52:52Z</time>
      </trkpt>
      <trkpt lat="44.6104" lon="4.13026">
        <ele>1414.24</ele>
        <time>2013-08-24T14:52:53Z</time>
      </trkpt>
      <trkpt lat="44.6104" lon="4.13021">
        <ele>1415.2</ele>
        <time>2013-08-24T14:52:58Z</time>
      </trkpt>
      <trkpt lat="44.61037" lon="4.13005">
        <ele>1416.16</ele>
        <time>2013-08-24T14:53:10Z</time>
      </trkpt>
      <trkpt lat="44.61037" lon="4.13004">
        <ele>1416.16</ele>
        <time>2013-08-24T14:53:11Z</time>
      </trkpt>
      <trkpt lat="44.61037" lon="4.13003">
        <ele>1415.68</ele>
        <time>2013-08-24T14:53:12Z</time>
      </trkpt>
      <trkpt lat="44.61036" lon="4.13001">
        <ele>1416.16</ele>
        <time>2013-08-24T14:53:13Z</time>
      </trkpt>
      <trkpt lat="44.61036" lon="4.12999">
        <ele>1415.68</ele>
        <time>2013-08-24T14:53:14Z</time>
      </trkpt>
      <trkpt lat="44.61036" lon="4.12998">
        <ele>1416.16</ele>
        <time>2013-08-24T14:53:15Z</time>
      </trkpt>
      <trkpt lat="44.61035" lon="4.12996">
        <ele>1416.16</ele>
        <time>2013-08-24T14:53:16Z</time>
      </trkpt>
      <trkpt lat="44.61035" lon="4.12983">
        <ele>1416.16</ele>
        <time>2013-08-24T14:53:27Z</time>
      </trkpt>
      <trkpt lat="44.61033" lon="4.12975">
        <ele>1415.68</ele>
        <time>2013-08-24T14:53:34Z</time>
      </trkpt>
      <trkpt lat="44.61033" lon="4.12973">
        <ele>1416.16</ele>
        <time>2013-08-24T14:53:35Z</time>
      </trkpt>
      <trkpt lat="44.61032" lon="4.12972">
        <ele>1415.2</ele>
        <time>2013-08-24T14:53:36Z</time>
      </trkpt>
      <trkpt lat="44.61032" lon="4.12959">
        <ele>1417.6</ele>
        <time>2013-08-24T14:53:46Z</time>
      </trkpt>
      <trkpt lat="44.61033" lon="4.12958">
        <ele>1418.08</ele>
        <time>2013-08-24T14:53:47Z</time>
      </trkpt>
      <trkpt lat="44.61032" lon="4.12953">
        <ele>1418.56</ele>
        <time>2013-08-24T14:53:51Z</time>
      </trkpt>
      <trkpt lat="44.61033" lon="4.1294">
        <ele>1420</ele>
        <time>2013-08-24T14:54:02Z</time>
      </trkpt>
      <trkpt lat="44.61033" lon="4.12927">
        <ele>1420</ele>
        <time>2013-08-24T14:54:15Z</time>
      </trkpt>
      <trkpt lat="44.61033" lon="4.12924">
        <ele>1420</ele>
        <time>2013-08-24T14:54:17Z</time>
      </trkpt>
      <trkpt lat="44.61033" lon="4.12921">
        <ele>1419.52</ele>
        <time>2013-08-24T14:54:19Z</time>
      </trkpt>
      <trkpt lat="44.61033" lon="4.12915">
        <ele>1420.97</ele>
        <time>2013-08-24T14:54:24Z</time>
      </trkpt>
      <trkpt lat="44.61033" lon="4.12913">
        <ele>1420.97</ele>
        <time>2013-08-24T14:54:25Z</time>
      </trkpt>
      <trkpt lat="44.61033" lon="4.12911">
        <ele>1420.97</ele>
        <time>2013-08-24T14:54:26Z</time>
      </trkpt>
      <trkpt lat="44.61032" lon="4.12903">
        <ele>1420</ele>
        <time>2013-08-24T14:54:31Z</time>
      </trkpt>
      <trkpt lat="44.61033" lon="4.12901">
        <ele>1420</ele>
        <time>2013-08-24T14:54:32Z</time>
      </trkpt>
      <trkpt lat="44.61034" lon="4.12899">
        <ele>1420.97</ele>
        <time>2013-08-24T14:54:34Z</time>
      </trkpt>
      <trkpt lat="44.61039" lon="4.12891">
        <ele>1422.89</ele>
        <time>2013-08-24T14:54:44Z</time>
      </trkpt>
      <trkpt lat="44.61041" lon="4.12883">
        <ele>1422.89</ele>
        <time>2013-08-24T14:54:50Z</time>
      </trkpt>
      <trkpt lat="44.61042" lon="4.12868">
        <ele>1422.89</ele>
        <time>2013-08-24T14:55:02Z</time>
      </trkpt>
      <trkpt lat="44.61041" lon="4.12865">
        <ele>1422.89</ele>
        <time>2013-08-24T14:55:04Z</time>
      </trkpt>
      <trkpt lat="44.6104" lon="4.12864">
        <ele>1422.89</ele>
        <time>2013-08-24T14:55:05Z</time>
      </trkpt>
      <trkpt lat="44.6104" lon="4.1286">
        <ele>1422.41</ele>
        <time>2013-08-24T14:55:12Z</time>
      </trkpt>
      <trkpt lat="44.61041" lon="4.12858">
        <ele>1422.41</ele>
        <time>2013-08-24T14:55:13Z</time>
      </trkpt>
      <trkpt lat="44.61041" lon="4.12855">
        <ele>1422.41</ele>
        <time>2013-08-24T14:55:14Z</time>
      </trkpt>
      <trkpt lat="44.61041" lon="4.12853">
        <ele>1422.89</ele>
        <time>2013-08-24T14:55:15Z</time>
      </trkpt>
      <trkpt lat="44.61041" lon="4.12851">
        <ele>1422.41</ele>
        <time>2013-08-24T14:55:16Z</time>
      </trkpt>
      <trkpt lat="44.61041" lon="4.12849">
        <ele>1422.89</ele>
        <time>2013-08-24T14:55:17Z</time>
      </trkpt>
      <trkpt lat="44.61042" lon="4.12847">
        <ele>1422.89</ele>
        <time>2013-08-24T14:55:18Z</time>
      </trkpt>
      <trkpt lat="44.61042" lon="4.12845">
        <ele>1422.89</ele>
        <time>2013-08-24T14:55:19Z</time>
      </trkpt>
      <trkpt lat="44.61043" lon="4.12843">
        <ele>1423.85</ele>
        <time>2013-08-24T14:55:20Z</time>
      </trkpt>
      <trkpt lat="44.61044" lon="4.12843">
        <ele>1423.85</ele>
        <time>2013-08-24T14:55:21Z</time>
      </trkpt>
      <trkpt lat="44.61046" lon="4.12842">
        <ele>1424.33</ele>
        <time>2013-08-24T14:55:22Z</time>
      </trkpt>
      <trkpt lat="44.61046" lon="4.1284">
        <ele>1424.33</ele>
        <time>2013-08-24T14:55:23Z</time>
      </trkpt>
      <trkpt lat="44.61046" lon="4.12838">
        <ele>1424.33</ele>
        <time>2013-08-24T14:55:24Z</time>
      </trkpt>
      <trkpt lat="44.61046" lon="4.12835">
        <ele>1424.81</ele>
        <time>2013-08-24T14:55:25Z</time>
      </trkpt>
      <trkpt lat="44.61046" lon="4.12833">
        <ele>1424.81</ele>
        <time>2013-08-24T14:55:26Z</time>
      </trkpt>
      <trkpt lat="44.61046" lon="4.12831">
        <ele>1424.81</ele>
        <time>2013-08-24T14:55:27Z</time>
      </trkpt>
      <trkpt lat="44.61047" lon="4.12824">
        <ele>1425.77</ele>
        <time>2013-08-24T14:55:35Z</time>
      </trkpt>
      <trkpt lat="44.61052" lon="4.12805">
        <ele>1428.18</ele>
        <time>2013-08-24T14:55:51Z</time>
      </trkpt>
      <trkpt lat="44.61054" lon="4.12802">
        <ele>1428.66</ele>
        <time>2013-08-24T14:55:54Z</time>
      </trkpt>
      <trkpt lat="44.61057" lon="4.12794">
        <ele>1429.62</ele>
        <time>2013-08-24T14:56:06Z</time>
      </trkpt>
      <trkpt lat="44.61057" lon="4.12793">
        <ele>1429.62</ele>
        <time>2013-08-24T14:56:10Z</time>
      </trkpt>
      <trkpt lat="44.61057" lon="4.12791">
        <ele>1430.1</ele>
        <time>2013-08-24T14:56:11Z</time>
      </trkpt>
      <trkpt lat="44.61057" lon="4.12789">
        <ele>1429.62</ele>
        <time>2013-08-24T14:56:12Z</time>
      </trkpt>
      <trkpt lat="44.61058" lon="4.12785">
        <ele>1429.14</ele>
        <time>2013-08-24T14:56:16Z</time>
      </trkpt>
      <trkpt lat="44.61059" lon="4.12783">
        <ele>1428.66</ele>
        <time>2013-08-24T14:56:17Z</time>
      </trkpt>
      <trkpt lat="44.61061" lon="4.12779">
        <ele>1429.62</ele>
        <time>2013-08-24T14:56:20Z</time>
      </trkpt>
      <trkpt lat="44.61062" lon="4.12775">
        <ele>1429.62</ele>
        <time>2013-08-24T14:56:24Z</time>
      </trkpt>
      <trkpt lat="44.61064" lon="4.12767">
        <ele>1430.1</ele>
        <time>2013-08-24T14:56:29Z</time>
      </trkpt>
      <trkpt lat="44.61064" lon="4.12766">
        <ele>1430.58</ele>
        <time>2013-08-24T14:56:30Z</time>
      </trkpt>
      <trkpt lat="44.61065" lon="4.12765">
        <ele>1430.58</ele>
        <time>2013-08-24T14:56:31Z</time>
      </trkpt>
      <trkpt lat="44.61065" lon="4.12757">
        <ele>1430.1</ele>
        <time>2013-08-24T14:56:36Z</time>
      </trkpt>
      <trkpt lat="44.61065" lon="4.12755">
        <ele>1430.58</ele>
        <time>2013-08-24T14:56:37Z</time>
      </trkpt>
      <trkpt lat="44.61065" lon="4.12754">
        <ele>1430.58</ele>
        <time>2013-08-24T14:56:38Z</time>
      </trkpt>
      <trkpt lat="44.61065" lon="4.12752">
        <ele>1430.1</ele>
        <time>2013-08-24T14:56:39Z</time>
      </trkpt>
      <trkpt lat="44.61065" lon="4.1275">
        <ele>1430.1</ele>
        <time>2013-08-24T14:56:40Z</time>
      </trkpt>
      <trkpt lat="44.61065" lon="4.12749">
        <ele>1430.58</ele>
        <time>2013-08-24T14:56:41Z</time>
      </trkpt>
      <trkpt lat="44.61065" lon="4.12747">
        <ele>1430.58</ele>
        <time>2013-08-24T14:56:42Z</time>
      </trkpt>
      <trkpt lat="44.61065" lon="4.12746">
        <ele>1430.58</ele>
        <time>2013-08-24T14:56:43Z</time>
      </trkpt>
      <trkpt lat="44.61066" lon="4.12744">
        <ele>1430.58</ele>
        <time>2013-08-24T14:56:44Z</time>
      </trkpt>
      <trkpt lat="44.61066" lon="4.12743">
        <ele>1431.06</ele>
        <time>2013-08-24T14:56:45Z</time>
      </trkpt>
      <trkpt lat="44.61068" lon="4.12734">
        <ele>1432.5</ele>
        <time>2013-08-24T14:56:52Z</time>
      </trkpt>
      <trkpt lat="44.61068" lon="4.12729">
        <ele>1432.02</ele>
        <time>2013-08-24T14:56:56Z</time>
      </trkpt>
      <trkpt lat="44.61067" lon="4.12724">
        <ele>1432.02</ele>
        <time>2013-08-24T14:57:07Z</time>
      </trkpt>
      <trkpt lat="44.61067" lon="4.12724">
        <ele>1432.5</ele>
        <time>2013-08-24T14:57:22Z</time>
      </trkpt>
      <trkpt lat="44.61067" lon="4.12722">
        <ele>1432.02</ele>
        <time>2013-08-24T14:57:37Z</time>
      </trkpt>
      <trkpt lat="44.61066" lon="4.12721">
        <ele>1432.02</ele>
        <time>2013-08-24T14:57:38Z</time>
      </trkpt>
      <trkpt lat="44.61064" lon="4.12707">
        <ele>1431.06</ele>
        <time>2013-08-24T14:57:45Z</time>
      </trkpt>
      <trkpt lat="44.61064" lon="4.12704">
        <ele>1431.06</ele>
        <time>2013-08-24T14:57:46Z</time>
      </trkpt>
      <trkpt lat="44.61065" lon="4.12702">
        <ele>1432.02</ele>
        <time>2013-08-24T14:57:47Z</time>
      </trkpt>
      <trkpt lat="44.61065" lon="4.127">
        <ele>1432.02</ele>
        <time>2013-08-24T14:57:48Z</time>
      </trkpt>
      <trkpt lat="44.61065" lon="4.12697">
        <ele>1432.02</ele>
        <time>2013-08-24T14:57:49Z</time>
      </trkpt>
      <trkpt lat="44.61065" lon="4.12695">
        <ele>1432.02</ele>
        <time>2013-08-24T14:57:50Z</time>
      </trkpt>
      <trkpt lat="44.61065" lon="4.12693">
        <ele>1432.98</ele>
        <time>2013-08-24T14:57:51Z</time>
      </trkpt>
      <trkpt lat="44.61065" lon="4.1268">
        <ele>1433.46</ele>
        <time>2013-08-24T14:57:57Z</time>
      </trkpt>
      <trkpt lat="44.61065" lon="4.12677">
        <ele>1433.46</ele>
        <time>2013-08-24T14:57:58Z</time>
      </trkpt>
      <trkpt lat="44.61065" lon="4.12675">
        <ele>1433.46</ele>
        <time>2013-08-24T14:57:59Z</time>
      </trkpt>
      <trkpt lat="44.61065" lon="4.12673">
        <ele>1433.94</ele>
        <time>2013-08-24T14:58:00Z</time>
      </trkpt>
      <trkpt lat="44.61065" lon="4.12671">
        <ele>1433.94</ele>
        <time>2013-08-24T14:58:01Z</time>
      </trkpt>
      <trkpt lat="44.61065" lon="4.12669">
        <ele>1434.42</ele>
        <time>2013-08-24T14:58:02Z</time>
      </trkpt>
      <trkpt lat="44.61064" lon="4.12667">
        <ele>1434.91</ele>
        <time>2013-08-24T14:58:03Z</time>
      </trkpt>
      <trkpt lat="44.61063" lon="4.12665">
        <ele>1434.42</ele>
        <time>2013-08-24T14:58:04Z</time>
      </trkpt>
      <trkpt lat="44.61056" lon="4.12646">
        <ele>1434.91</ele>
        <time>2013-08-24T14:58:14Z</time>
      </trkpt>
      <trkpt lat="44.61055" lon="4.12644">
        <ele>1434.42</ele>
        <time>2013-08-24T14:58:15Z</time>
      </trkpt>
      <trkpt lat="44.61054" lon="4.12642">
        <ele>1434.91</ele>
        <time>2013-08-24T14:58:16Z</time>
      </trkpt>
      <trkpt lat="44.61052" lon="4.12638">
        <ele>1435.39</ele>
        <time>2013-08-24T14:58:18Z</time>
      </trkpt>
      <trkpt lat="44.61052" lon="4.12636">
        <ele>1435.87</ele>
        <time>2013-08-24T14:58:19Z</time>
      </trkpt>
      <trkpt lat="44.61047" lon="4.12619">
        <ele>1435.39</ele>
        <time>2013-08-24T14:58:28Z</time>
      </trkpt>
      <trkpt lat="44.61047" lon="4.12617">
        <ele>1435.39</ele>
        <time>2013-08-24T14:58:29Z</time>
      </trkpt>
      <trkpt lat="44.61044" lon="4.12605">
        <ele>1435.39</ele>
        <time>2013-08-24T14:58:35Z</time>
      </trkpt>
      <trkpt lat="44.61044" lon="4.12603">
        <ele>1435.87</ele>
        <time>2013-08-24T14:58:36Z</time>
      </trkpt>
      <trkpt lat="44.61044" lon="4.12601">
        <ele>1435.87</ele>
        <time>2013-08-24T14:58:37Z</time>
      </trkpt>
      <trkpt lat="44.61044" lon="4.12599">
        <ele>1435.87</ele>
        <time>2013-08-24T14:58:38Z</time>
      </trkpt>
      <trkpt lat="44.61044" lon="4.12597">
        <ele>1436.35</ele>
        <time>2013-08-24T14:58:39Z</time>
      </trkpt>
      <trkpt lat="44.61045" lon="4.12595">
        <ele>1436.35</ele>
        <time>2013-08-24T14:58:40Z</time>
      </trkpt>
      <trkpt lat="44.61045" lon="4.12592">
        <ele>1436.83</ele>
        <time>2013-08-24T14:58:41Z</time>
      </trkpt>
      <trkpt lat="44.61046" lon="4.1259">
        <ele>1437.31</ele>
        <time>2013-08-24T14:58:42Z</time>
      </trkpt>
      <trkpt lat="44.61046" lon="4.12588">
        <ele>1436.83</ele>
        <time>2013-08-24T14:58:43Z</time>
      </trkpt>
      <trkpt lat="44.61047" lon="4.12586">
        <ele>1437.31</ele>
        <time>2013-08-24T14:58:44Z</time>
      </trkpt>
      <trkpt lat="44.61047" lon="4.12584">
        <ele>1437.79</ele>
        <time>2013-08-24T14:58:45Z</time>
      </trkpt>
      <trkpt lat="44.61052" lon="4.12556">
        <ele>1437.31</ele>
        <time>2013-08-24T14:58:58Z</time>
      </trkpt>
      <trkpt lat="44.61054" lon="4.12528">
        <ele>1436.83</ele>
        <time>2013-08-24T14:59:07Z</time>
      </trkpt>
      <trkpt lat="44.6106" lon="4.12485">
        <ele>1434.91</ele>
        <time>2013-08-24T14:59:20Z</time>
      </trkpt>
      <trkpt lat="44.61061" lon="4.1246">
        <ele>1434.42</ele>
        <time>2013-08-24T14:59:26Z</time>
      </trkpt>
      <trkpt lat="44.61061" lon="4.12456">
        <ele>1435.39</ele>
        <time>2013-08-24T14:59:27Z</time>
      </trkpt>
      <trkpt lat="44.6106" lon="4.12453">
        <ele>1435.39</ele>
        <time>2013-08-24T14:59:28Z</time>
      </trkpt>
      <trkpt lat="44.61061" lon="4.12448">
        <ele>1434.42</ele>
        <time>2013-08-24T14:59:29Z</time>
      </trkpt>
      <trkpt lat="44.61061" lon="4.12444">
        <ele>1433.94</ele>
        <time>2013-08-24T14:59:30Z</time>
      </trkpt>
      <trkpt lat="44.61061" lon="4.1244">
        <ele>1434.91</ele>
        <time>2013-08-24T14:59:31Z</time>
      </trkpt>
      <trkpt lat="44.6106" lon="4.12436">
        <ele>1435.39</ele>
        <time>2013-08-24T14:59:32Z</time>
      </trkpt>
      <trkpt lat="44.61059" lon="4.12432">
        <ele>1434.91</ele>
        <time>2013-08-24T14:59:33Z</time>
      </trkpt>
      <trkpt lat="44.6106" lon="4.12429">
        <ele>1435.39</ele>
        <time>2013-08-24T14:59:34Z</time>
      </trkpt>
      <trkpt lat="44.6106" lon="4.12426">
        <ele>1434.42</ele>
        <time>2013-08-24T14:59:35Z</time>
      </trkpt>
      <trkpt lat="44.6106" lon="4.12423">
        <ele>1434.42</ele>
        <time>2013-08-24T14:59:36Z</time>
      </trkpt>
      <trkpt lat="44.61059" lon="4.12419">
        <ele>1434.91</ele>
        <time>2013-08-24T14:59:37Z</time>
      </trkpt>
      <trkpt lat="44.61059" lon="4.12416">
        <ele>1435.39</ele>
        <time>2013-08-24T14:59:38Z</time>
      </trkpt>
      <trkpt lat="44.61058" lon="4.12413">
        <ele>1435.39</ele>
        <time>2013-08-24T14:59:39Z</time>
      </trkpt>
      <trkpt lat="44.61058" lon="4.12409">
        <ele>1435.87</ele>
        <time>2013-08-24T14:59:40Z</time>
      </trkpt>
      <trkpt lat="44.61057" lon="4.12406">
        <ele>1435.87</ele>
        <time>2013-08-24T14:59:41Z</time>
      </trkpt>
      <trkpt lat="44.61055" lon="4.12403">
        <ele>1435.39</ele>
        <time>2013-08-24T14:59:42Z</time>
      </trkpt>
      <trkpt lat="44.61054" lon="4.12399">
        <ele>1435.87</ele>
        <time>2013-08-24T14:59:43Z</time>
      </trkpt>
      <trkpt lat="44.61053" lon="4.12396">
        <ele>1436.35</ele>
        <time>2013-08-24T14:59:44Z</time>
      </trkpt>
      <trkpt lat="44.61052" lon="4.12393">
        <ele>1436.35</ele>
        <time>2013-08-24T14:59:45Z</time>
      </trkpt>
      <trkpt lat="44.6105" lon="4.1239">
        <ele>1435.87</ele>
        <time>2013-08-24T14:59:46Z</time>
      </trkpt>
      <trkpt lat="44.61049" lon="4.12387">
        <ele>1435.87</ele>
        <time>2013-08-24T14:59:47Z</time>
      </trkpt>
      <trkpt lat="44.61047" lon="4.12384">
        <ele>1435.39</ele>
        <time>2013-08-24T14:59:48Z</time>
      </trkpt>
      <trkpt lat="44.61046" lon="4.12381">
        <ele>1435.87</ele>
        <time>2013-08-24T14:59:49Z</time>
      </trkpt>
      <trkpt lat="44.61044" lon="4.12379">
        <ele>1436.35</ele>
        <time>2013-08-24T14:59:50Z</time>
      </trkpt>
      <trkpt lat="44.61043" lon="4.12376">
        <ele>1435.87</ele>
        <time>2013-08-24T14:59:51Z</time>
      </trkpt>
      <trkpt lat="44.61023" lon="4.12343">
        <ele>1436.83</ele>
        <time>2013-08-24T15:00:04Z</time>
      </trkpt>
      <trkpt lat="44.61017" lon="4.1233">
        <ele>1436.83</ele>
        <time>2013-08-24T15:00:10Z</time>
      </trkpt>
      <trkpt lat="44.61017" lon="4.12328">
        <ele>1434.91</ele>
        <time>2013-08-24T15:00:11Z</time>
      </trkpt>
      <trkpt lat="44.61016" lon="4.12325">
        <ele>1434.91</ele>
        <time>2013-08-24T15:00:12Z</time>
      </trkpt>
      <trkpt lat="44.61011" lon="4.12299">
        <ele>1432.02</ele>
        <time>2013-08-24T15:00:21Z</time>
      </trkpt>
      <trkpt lat="44.6101" lon="4.12292">
        <ele>1431.06</ele>
        <time>2013-08-24T15:00:23Z</time>
      </trkpt>
      <trkpt lat="44.61009" lon="4.12282">
        <ele>1429.62</ele>
        <time>2013-08-24T15:00:25Z</time>
      </trkpt>
      <trkpt lat="44.61" lon="4.1226">
        <ele>1426.73</ele>
        <time>2013-08-24T15:00:30Z</time>
      </trkpt>
      <trkpt lat="44.60998" lon="4.12254">
        <ele>1424.81</ele>
        <time>2013-08-24T15:00:31Z</time>
      </trkpt>
      <trkpt lat="44.60997" lon="4.12248">
        <ele>1423.37</ele>
        <time>2013-08-24T15:00:32Z</time>
      </trkpt>
      <trkpt lat="44.60996" lon="4.12236">
        <ele>1420.97</ele>
        <time>2013-08-24T15:00:34Z</time>
      </trkpt>
      <trkpt lat="44.60996" lon="4.1223">
        <ele>1420.49</ele>
        <time>2013-08-24T15:00:35Z</time>
      </trkpt>
      <trkpt lat="44.60996" lon="4.12225">
        <ele>1419.52</ele>
        <time>2013-08-24T15:00:36Z</time>
      </trkpt>
      <trkpt lat="44.60996" lon="4.1222">
        <ele>1419.04</ele>
        <time>2013-08-24T15:00:37Z</time>
      </trkpt>
      <trkpt lat="44.60997" lon="4.12215">
        <ele>1418.08</ele>
        <time>2013-08-24T15:00:38Z</time>
      </trkpt>
      <trkpt lat="44.60997" lon="4.12211">
        <ele>1418.56</ele>
        <time>2013-08-24T15:00:39Z</time>
      </trkpt>
      <trkpt lat="44.60995" lon="4.12207">
        <ele>1416.64</ele>
        <time>2013-08-24T15:00:40Z</time>
      </trkpt>
      <trkpt lat="44.60994" lon="4.12202">
        <ele>1416.64</ele>
        <time>2013-08-24T15:00:41Z</time>
      </trkpt>
      <trkpt lat="44.60993" lon="4.12196">
        <ele>1415.68</ele>
        <time>2013-08-24T15:00:42Z</time>
      </trkpt>
      <trkpt lat="44.60992" lon="4.1219">
        <ele>1414.24</ele>
        <time>2013-08-24T15:00:43Z</time>
      </trkpt>
      <trkpt lat="44.60991" lon="4.12185">
        <ele>1413.76</ele>
        <time>2013-08-24T15:00:44Z</time>
      </trkpt>
      <trkpt lat="44.60989" lon="4.12168">
        <ele>1410.87</ele>
        <time>2013-08-24T15:00:47Z</time>
      </trkpt>
      <trkpt lat="44.60989" lon="4.12152">
        <ele>1407.99</ele>
        <time>2013-08-24T15:00:51Z</time>
      </trkpt>
      <trkpt lat="44.60989" lon="4.12149">
        <ele>1408.95</ele>
        <time>2013-08-24T15:00:53Z</time>
      </trkpt>
      <trkpt lat="44.60989" lon="4.12147">
        <ele>1408.47</ele>
        <time>2013-08-24T15:00:54Z</time>
      </trkpt>
      <trkpt lat="44.60992" lon="4.12138">
        <ele>1406.55</ele>
        <time>2013-08-24T15:00:59Z</time>
      </trkpt>
      <trkpt lat="44.60993" lon="4.12133">
        <ele>1405.1</ele>
        <time>2013-08-24T15:01:01Z</time>
      </trkpt>
      <trkpt lat="44.60994" lon="4.12131">
        <ele>1404.62</ele>
        <time>2013-08-24T15:01:02Z</time>
      </trkpt>
      <trkpt lat="44.60996" lon="4.12129">
        <ele>1404.14</ele>
        <time>2013-08-24T15:01:03Z</time>
      </trkpt>
      <trkpt lat="44.60997" lon="4.12126">
        <ele>1403.66</ele>
        <time>2013-08-24T15:01:04Z</time>
      </trkpt>
      <trkpt lat="44.60998" lon="4.12123">
        <ele>1403.18</ele>
        <time>2013-08-24T15:01:05Z</time>
      </trkpt>
      <trkpt lat="44.60999" lon="4.12119">
        <ele>1402.7</ele>
        <time>2013-08-24T15:01:06Z</time>
      </trkpt>
      <trkpt lat="44.61001" lon="4.121">
        <ele>1399.82</ele>
        <time>2013-08-24T15:01:13Z</time>
      </trkpt>
      <trkpt lat="44.61002" lon="4.12098">
        <ele>1399.34</ele>
        <time>2013-08-24T15:01:14Z</time>
      </trkpt>
      <trkpt lat="44.61003" lon="4.12096">
        <ele>1399.34</ele>
        <time>2013-08-24T15:01:15Z</time>
      </trkpt>
      <trkpt lat="44.61004" lon="4.12094">
        <ele>1398.37</ele>
        <time>2013-08-24T15:01:16Z</time>
      </trkpt>
      <trkpt lat="44.61006" lon="4.12092">
        <ele>1397.41</ele>
        <time>2013-08-24T15:01:17Z</time>
      </trkpt>
      <trkpt lat="44.61007" lon="4.1209">
        <ele>1396.93</ele>
        <time>2013-08-24T15:01:18Z</time>
      </trkpt>
      <trkpt lat="44.61008" lon="4.12086">
        <ele>1396.45</ele>
        <time>2013-08-24T15:01:19Z</time>
      </trkpt>
      <trkpt lat="44.61013" lon="4.12079">
        <ele>1394.53</ele>
        <time>2013-08-24T15:01:22Z</time>
      </trkpt>
      <trkpt lat="44.61015" lon="4.12077">
        <ele>1394.05</ele>
        <time>2013-08-24T15:01:23Z</time>
      </trkpt>
      <trkpt lat="44.61017" lon="4.12075">
        <ele>1393.09</ele>
        <time>2013-08-24T15:01:24Z</time>
      </trkpt>
      <trkpt lat="44.61019" lon="4.12074">
        <ele>1392.13</ele>
        <time>2013-08-24T15:01:25Z</time>
      </trkpt>
      <trkpt lat="44.61021" lon="4.12073">
        <ele>1391.17</ele>
        <time>2013-08-24T15:01:26Z</time>
      </trkpt>
      <trkpt lat="44.61024" lon="4.1207">
        <ele>1391.17</ele>
        <time>2013-08-24T15:01:28Z</time>
      </trkpt>
      <trkpt lat="44.61026" lon="4.12068">
        <ele>1389.72</ele>
        <time>2013-08-24T15:01:29Z</time>
      </trkpt>
      <trkpt lat="44.61027" lon="4.12065">
        <ele>1389.72</ele>
        <time>2013-08-24T15:01:30Z</time>
      </trkpt>
      <trkpt lat="44.61029" lon="4.12062">
        <ele>1389.24</ele>
        <time>2013-08-24T15:01:31Z</time>
      </trkpt>
      <trkpt lat="44.61032" lon="4.12059">
        <ele>1388.28</ele>
        <time>2013-08-24T15:01:32Z</time>
      </trkpt>
      <trkpt lat="44.61034" lon="4.12056">
        <ele>1387.32</ele>
        <time>2013-08-24T15:01:33Z</time>
      </trkpt>
      <trkpt lat="44.61036" lon="4.12054">
        <ele>1388.28</ele>
        <time>2013-08-24T15:01:34Z</time>
      </trkpt>
      <trkpt lat="44.61036" lon="4.12052">
        <ele>1388.76</ele>
        <time>2013-08-24T15:01:35Z</time>
      </trkpt>
      <trkpt lat="44.61039" lon="4.12049">
        <ele>1386.84</ele>
        <time>2013-08-24T15:01:45Z</time>
      </trkpt>
      <trkpt lat="44.61039" lon="4.12049">
        <ele>1386.84</ele>
        <time>2013-08-24T15:02:06Z</time>
      </trkpt>
      <trkpt lat="44.61039" lon="4.1205">
        <ele>1387.32</ele>
        <time>2013-08-24T15:02:22Z</time>
      </trkpt>
      <trkpt lat="44.61039" lon="4.1205">
        <ele>1387.8</ele>
        <time>2013-08-24T15:02:48Z</time>
      </trkpt>
      <trkpt lat="44.61039" lon="4.12049">
        <ele>1387.32</ele>
        <time>2013-08-24T15:03:06Z</time>
      </trkpt>
      <trkpt lat="44.61039" lon="4.12049">
        <ele>1387.8</ele>
        <time>2013-08-24T15:03:25Z</time>
      </trkpt>
      <trkpt lat="44.61039" lon="4.12049">
        <ele>1388.28</ele>
        <time>2013-08-24T15:03:46Z</time>
      </trkpt>
      <trkpt lat="44.61039" lon="4.12049">
        <ele>1387.8</ele>
        <time>2013-08-24T15:04:10Z</time>
      </trkpt>
      <trkpt lat="44.61039" lon="4.12049">
        <ele>1387.32</ele>
        <time>2013-08-24T15:04:39Z</time>
      </trkpt>
      <trkpt lat="44.61039" lon="4.12049">
        <ele>1388.28</ele>
        <time>2013-08-24T15:05:10Z</time>
      </trkpt>
      <trkpt lat="44.61039" lon="4.12049">
        <ele>1388.28</ele>
        <time>2013-08-24T15:05:35Z</time>
      </trkpt>
      <trkpt lat="44.61039" lon="4.12049">
        <ele>1387.8</ele>
        <time>2013-08-24T15:05:59Z</time>
      </trkpt>
      <trkpt lat="44.61041" lon="4.12047">
        <ele>1387.32</ele>
        <time>2013-08-24T15:06:00Z</time>
      </trkpt>
      <trkpt lat="44.61043" lon="4.12046">
        <ele>1386.84</ele>
        <time>2013-08-24T15:06:01Z</time>
      </trkpt>
      <trkpt lat="44.61049" lon="4.12039">
        <ele>1385.4</ele>
        <time>2013-08-24T15:06:04Z</time>
      </trkpt>
      <trkpt lat="44.61051" lon="4.12036">
        <ele>1384.44</ele>
        <time>2013-08-24T15:06:06Z</time>
      </trkpt>
      <trkpt lat="44.61053" lon="4.1203">
        <ele>1382.99</ele>
        <time>2013-08-24T15:06:09Z</time>
      </trkpt>
      <trkpt lat="44.61054" lon="4.12028">
        <ele>1382.51</ele>
        <time>2013-08-24T15:06:10Z</time>
      </trkpt>
      <trkpt lat="44.61054" lon="4.12026">
        <ele>1382.51</ele>
        <time>2013-08-24T15:06:11Z</time>
      </trkpt>
      <trkpt lat="44.61055" lon="4.12024">
        <ele>1382.03</ele>
        <time>2013-08-24T15:06:12Z</time>
      </trkpt>
      <trkpt lat="44.61055" lon="4.12022">
        <ele>1381.55</ele>
        <time>2013-08-24T15:06:13Z</time>
      </trkpt>
      <trkpt lat="44.61057" lon="4.12021">
        <ele>1381.07</ele>
        <time>2013-08-24T15:06:14Z</time>
      </trkpt>
      <trkpt lat="44.61058" lon="4.12016">
        <ele>1380.11</ele>
        <time>2013-08-24T15:06:24Z</time>
      </trkpt>
      <trkpt lat="44.61058" lon="4.12016">
        <ele>1379.63</ele>
        <time>2013-08-24T15:06:42Z</time>
      </trkpt>
      <trkpt lat="44.6106" lon="4.12016">
        <ele>1380.11</ele>
        <time>2013-08-24T15:06:53Z</time>
      </trkpt>
      <trkpt lat="44.61062" lon="4.12013">
        <ele>1379.63</ele>
        <time>2013-08-24T15:06:58Z</time>
      </trkpt>
      <trkpt lat="44.61062" lon="4.12008">
        <ele>1378.19</ele>
        <time>2013-08-24T15:07:01Z</time>
      </trkpt>
      <trkpt lat="44.61062" lon="4.11997">
        <ele>1376.75</ele>
        <time>2013-08-24T15:07:12Z</time>
      </trkpt>
      <trkpt lat="44.61062" lon="4.11994">
        <ele>1376.26</ele>
        <time>2013-08-24T15:07:18Z</time>
      </trkpt>
      <trkpt lat="44.61064" lon="4.1199">
        <ele>1374.82</ele>
        <time>2013-08-24T15:07:20Z</time>
      </trkpt>
      <trkpt lat="44.61065" lon="4.11987">
        <ele>1373.86</ele>
        <time>2013-08-24T15:07:23Z</time>
      </trkpt>
      <trkpt lat="44.61066" lon="4.11984">
        <ele>1373.38</ele>
        <time>2013-08-24T15:07:24Z</time>
      </trkpt>
      <trkpt lat="44.61067" lon="4.11982">
        <ele>1372.42</ele>
        <time>2013-08-24T15:07:25Z</time>
      </trkpt>
      <trkpt lat="44.61068" lon="4.11979">
        <ele>1372.42</ele>
        <time>2013-08-24T15:07:26Z</time>
      </trkpt>
      <trkpt lat="44.61069" lon="4.11976">
        <ele>1372.42</ele>
        <time>2013-08-24T15:07:27Z</time>
      </trkpt>
      <trkpt lat="44.61071" lon="4.11971">
        <ele>1370.98</ele>
        <time>2013-08-24T15:07:28Z</time>
      </trkpt>
      <trkpt lat="44.61073" lon="4.11957">
        <ele>1369.54</ele>
        <time>2013-08-24T15:07:31Z</time>
      </trkpt>
      <trkpt lat="44.61073" lon="4.11937">
        <ele>1366.65</ele>
        <time>2013-08-24T15:07:36Z</time>
      </trkpt>
      <trkpt lat="44.61073" lon="4.11929">
        <ele>1365.69</ele>
        <time>2013-08-24T15:07:38Z</time>
      </trkpt>
      <trkpt lat="44.61073" lon="4.11925">
        <ele>1364.73</ele>
        <time>2013-08-24T15:07:39Z</time>
      </trkpt>
      <trkpt lat="44.61072" lon="4.11922">
        <ele>1364.73</ele>
        <time>2013-08-24T15:07:40Z</time>
      </trkpt>
      <trkpt lat="44.61073" lon="4.1192">
        <ele>1363.77</ele>
        <time>2013-08-24T15:07:41Z</time>
      </trkpt>
      <trkpt lat="44.61074" lon="4.11917">
        <ele>1363.29</ele>
        <time>2013-08-24T15:07:42Z</time>
      </trkpt>
      <trkpt lat="44.61076" lon="4.11915">
        <ele>1362.81</ele>
        <time>2013-08-24T15:07:43Z</time>
      </trkpt>
      <trkpt lat="44.61077" lon="4.11913">
        <ele>1362.33</ele>
        <time>2013-08-24T15:07:44Z</time>
      </trkpt>
      <trkpt lat="44.61078" lon="4.11908">
        <ele>1361.36</ele>
        <time>2013-08-24T15:07:46Z</time>
      </trkpt>
      <trkpt lat="44.61078" lon="4.11904">
        <ele>1360.4</ele>
        <time>2013-08-24T15:07:47Z</time>
      </trkpt>
      <trkpt lat="44.61078" lon="4.11902">
        <ele>1359.44</ele>
        <time>2013-08-24T15:07:48Z</time>
      </trkpt>
      <trkpt lat="44.6108" lon="4.11898">
        <ele>1358.48</ele>
        <time>2013-08-24T15:07:49Z</time>
      </trkpt>
      <trkpt lat="44.61081" lon="4.11895">
        <ele>1358.48</ele>
        <time>2013-08-24T15:07:50Z</time>
      </trkpt>
      <trkpt lat="44.61082" lon="4.11892">
        <ele>1358</ele>
        <time>2013-08-24T15:07:51Z</time>
      </trkpt>
      <trkpt lat="44.61083" lon="4.11888">
        <ele>1357.52</ele>
        <time>2013-08-24T15:07:52Z</time>
      </trkpt>
      <trkpt lat="44.61085" lon="4.11885">
        <ele>1356.56</ele>
        <time>2013-08-24T15:07:53Z</time>
      </trkpt>
      <trkpt lat="44.61087" lon="4.11881">
        <ele>1357.04</ele>
        <time>2013-08-24T15:07:54Z</time>
      </trkpt>
      <trkpt lat="44.61088" lon="4.11877">
        <ele>1356.56</ele>
        <time>2013-08-24T15:07:55Z</time>
      </trkpt>
      <trkpt lat="44.61089" lon="4.11873">
        <ele>1356.56</ele>
        <time>2013-08-24T15:07:56Z</time>
      </trkpt>
      <trkpt lat="44.61089" lon="4.1186">
        <ele>1353.19</ele>
        <time>2013-08-24T15:08:01Z</time>
      </trkpt>
      <trkpt lat="44.61089" lon="4.11859">
        <ele>1353.19</ele>
        <time>2013-08-24T15:08:02Z</time>
      </trkpt>
      <trkpt lat="44.61092" lon="4.11855">
        <ele>1352.71</ele>
        <time>2013-08-24T15:08:04Z</time>
      </trkpt>
      <trkpt lat="44.61093" lon="4.11854">
        <ele>1352.23</ele>
        <time>2013-08-24T15:08:05Z</time>
      </trkpt>
      <trkpt lat="44.61094" lon="4.11852">
        <ele>1351.27</ele>
        <time>2013-08-24T15:08:06Z</time>
      </trkpt>
      <trkpt lat="44.61095" lon="4.1185">
        <ele>1351.27</ele>
        <time>2013-08-24T15:08:07Z</time>
      </trkpt>
      <trkpt lat="44.61095" lon="4.11848">
        <ele>1350.79</ele>
        <time>2013-08-24T15:08:08Z</time>
      </trkpt>
      <trkpt lat="44.61095" lon="4.11846">
        <ele>1349.83</ele>
        <time>2013-08-24T15:08:09Z</time>
      </trkpt>
      <trkpt lat="44.61095" lon="4.11843">
        <ele>1349.83</ele>
        <time>2013-08-24T15:08:10Z</time>
      </trkpt>
      <trkpt lat="44.61095" lon="4.11843">
        <ele>1348.39</ele>
        <time>2013-08-24T15:08:17Z</time>
      </trkpt>
      <trkpt lat="44.61097" lon="4.11834">
        <ele>1347.91</ele>
        <time>2013-08-24T15:08:27Z</time>
      </trkpt>
      <trkpt lat="44.61096" lon="4.11824">
        <ele>1344.54</ele>
        <time>2013-08-24T15:08:37Z</time>
      </trkpt>
      <trkpt lat="44.611" lon="4.11819">
        <ele>1344.54</ele>
        <time>2013-08-24T15:08:46Z</time>
      </trkpt>
      <trkpt lat="44.61101" lon="4.11816">
        <ele>1343.58</ele>
        <time>2013-08-24T15:08:47Z</time>
      </trkpt>
      <trkpt lat="44.61102" lon="4.11813">
        <ele>1342.62</ele>
        <time>2013-08-24T15:08:48Z</time>
      </trkpt>
      <trkpt lat="44.61101" lon="4.1181">
        <ele>1342.62</ele>
        <time>2013-08-24T15:08:49Z</time>
      </trkpt>
      <trkpt lat="44.61098" lon="4.11802">
        <ele>1342.62</ele>
        <time>2013-08-24T15:09:00Z</time>
      </trkpt>
      <trkpt lat="44.61098" lon="4.11802">
        <ele>1342.62</ele>
        <time>2013-08-24T15:09:12Z</time>
      </trkpt>
      <trkpt lat="44.61097" lon="4.118">
        <ele>1342.62</ele>
        <time>2013-08-24T15:09:35Z</time>
      </trkpt>
      <trkpt lat="44.61097" lon="4.118">
        <ele>1342.14</ele>
        <time>2013-08-24T15:10:00Z</time>
      </trkpt>
      <trkpt lat="44.61097" lon="4.118">
        <ele>1342.14</ele>
        <time>2013-08-24T15:10:21Z</time>
      </trkpt>
      <trkpt lat="44.61097" lon="4.118">
        <ele>1342.14</ele>
        <time>2013-08-24T15:10:45Z</time>
      </trkpt>
      <trkpt lat="44.61097" lon="4.11799">
        <ele>1341.66</ele>
        <time>2013-08-24T15:10:58Z</time>
      </trkpt>
      <trkpt lat="44.61098" lon="4.11799">
        <ele>1341.18</ele>
        <time>2013-08-24T15:11:19Z</time>
      </trkpt>
      <trkpt lat="44.61099" lon="4.11799">
        <ele>1341.18</ele>
        <time>2013-08-24T15:11:33Z</time>
      </trkpt>
      <trkpt lat="44.61099" lon="4.11801">
        <ele>1341.66</ele>
        <time>2013-08-24T15:11:59Z</time>
      </trkpt>
      <trkpt lat="44.61101" lon="4.11804">
        <ele>1341.66</ele>
        <time>2013-08-24T15:12:14Z</time>
      </trkpt>
      <trkpt lat="44.61102" lon="4.11806">
        <ele>1342.14</ele>
        <time>2013-08-24T15:12:39Z</time>
      </trkpt>
      <trkpt lat="44.61102" lon="4.11806">
        <ele>1340.7</ele>
        <time>2013-08-24T15:13:00Z</time>
      </trkpt>
      <trkpt lat="44.61102" lon="4.11807">
        <ele>1340.7</ele>
        <time>2013-08-24T15:13:26Z</time>
      </trkpt>
      <trkpt lat="44.61102" lon="4.11807">
        <ele>1340.7</ele>
        <time>2013-08-24T15:13:39Z</time>
      </trkpt>
      <trkpt lat="44.61103" lon="4.11808">
        <ele>1340.22</ele>
        <time>2013-08-24T15:13:40Z</time>
      </trkpt>
      <trkpt lat="44.61105" lon="4.1181">
        <ele>1340.22</ele>
        <time>2013-08-24T15:13:41Z</time>
      </trkpt>
      <trkpt lat="44.61107" lon="4.11812">
        <ele>1340.7</ele>
        <time>2013-08-24T15:13:42Z</time>
      </trkpt>
      <trkpt lat="44.61108" lon="4.11814">
        <ele>1340.7</ele>
        <time>2013-08-24T15:13:43Z</time>
      </trkpt>
      <trkpt lat="44.61124" lon="4.11831">
        <ele>1341.66</ele>
        <time>2013-08-24T15:13:51Z</time>
      </trkpt>
      <trkpt lat="44.61129" lon="4.1183">
        <ele>1340.7</ele>
        <time>2013-08-24T15:13:52Z</time>
      </trkpt>
      <trkpt lat="44.61132" lon="4.11827">
        <ele>1340.22</ele>
        <time>2013-08-24T15:13:53Z</time>
      </trkpt>
      <trkpt lat="44.61134" lon="4.11824">
        <ele>1340.22</ele>
        <time>2013-08-24T15:13:54Z</time>
      </trkpt>
      <trkpt lat="44.61136" lon="4.1182">
        <ele>1340.22</ele>
        <time>2013-08-24T15:13:55Z</time>
      </trkpt>
      <trkpt lat="44.61137" lon="4.11816">
        <ele>1339.73</ele>
        <time>2013-08-24T15:13:56Z</time>
      </trkpt>
      <trkpt lat="44.61138" lon="4.11812">
        <ele>1340.22</ele>
        <time>2013-08-24T15:13:57Z</time>
      </trkpt>
      <trkpt lat="44.61147" lon="4.11796">
        <ele>1338.29</ele>
        <time>2013-08-24T15:14:01Z</time>
      </trkpt>
      <trkpt lat="44.61151" lon="4.11793">
        <ele>1337.33</ele>
        <time>2013-08-24T15:14:02Z</time>
      </trkpt>
      <trkpt lat="44.61155" lon="4.1179">
        <ele>1337.81</ele>
        <time>2013-08-24T15:14:03Z</time>
      </trkpt>
      <trkpt lat="44.61158" lon="4.11787">
        <ele>1337.33</ele>
        <time>2013-08-24T15:14:04Z</time>
      </trkpt>
      <trkpt lat="44.61167" lon="4.1178">
        <ele>1337.33</ele>
        <time>2013-08-24T15:14:06Z</time>
      </trkpt>
      <trkpt lat="44.61172" lon="4.11777">
        <ele>1336.37</ele>
        <time>2013-08-24T15:14:07Z</time>
      </trkpt>
      <trkpt lat="44.61182" lon="4.11772">
        <ele>1336.37</ele>
        <time>2013-08-24T15:14:09Z</time>
      </trkpt>
      <trkpt lat="44.61187" lon="4.11769">
        <ele>1335.89</ele>
        <time>2013-08-24T15:14:10Z</time>
      </trkpt>
      <trkpt lat="44.61192" lon="4.11768">
        <ele>1335.89</ele>
        <time>2013-08-24T15:14:11Z</time>
      </trkpt>
      <trkpt lat="44.61198" lon="4.11767">
        <ele>1335.41</ele>
        <time>2013-08-24T15:14:12Z</time>
      </trkpt>
      <trkpt lat="44.61203" lon="4.11766">
        <ele>1335.41</ele>
        <time>2013-08-24T15:14:13Z</time>
      </trkpt>
      <trkpt lat="44.61207" lon="4.11765">
        <ele>1334.93</ele>
        <time>2013-08-24T15:14:14Z</time>
      </trkpt>
      <trkpt lat="44.61211" lon="4.11763">
        <ele>1335.89</ele>
        <time>2013-08-24T15:14:15Z</time>
      </trkpt>
      <trkpt lat="44.61221" lon="4.11756">
        <ele>1333.97</ele>
        <time>2013-08-24T15:14:18Z</time>
      </trkpt>
      <trkpt lat="44.61225" lon="4.11751">
        <ele>1333.97</ele>
        <time>2013-08-24T15:14:19Z</time>
      </trkpt>
      <trkpt lat="44.61228" lon="4.11747">
        <ele>1334.45</ele>
        <time>2013-08-24T15:14:20Z</time>
      </trkpt>
      <trkpt lat="44.61229" lon="4.11744">
        <ele>1335.41</ele>
        <time>2013-08-24T15:14:21Z</time>
      </trkpt>
      <trkpt lat="44.6123" lon="4.11741">
        <ele>1335.89</ele>
        <time>2013-08-24T15:14:22Z</time>
      </trkpt>
      <trkpt lat="44.61237" lon="4.11725">
        <ele>1337.81</ele>
        <time>2013-08-24T15:14:27Z</time>
      </trkpt>
      <trkpt lat="44.6124" lon="4.11722">
        <ele>1338.77</ele>
        <time>2013-08-24T15:14:28Z</time>
      </trkpt>
      <trkpt lat="44.61242" lon="4.11719">
        <ele>1338.77</ele>
        <time>2013-08-24T15:14:29Z</time>
      </trkpt>
      <trkpt lat="44.61243" lon="4.11716">
        <ele>1339.73</ele>
        <time>2013-08-24T15:14:30Z</time>
      </trkpt>
      <trkpt lat="44.61245" lon="4.11711">
        <ele>1339.25</ele>
        <time>2013-08-24T15:14:31Z</time>
      </trkpt>
      <trkpt lat="44.61246" lon="4.11707">
        <ele>1339.25</ele>
        <time>2013-08-24T15:14:32Z</time>
      </trkpt>
      <trkpt lat="44.61247" lon="4.11703">
        <ele>1339.25</ele>
        <time>2013-08-24T15:14:33Z</time>
      </trkpt>
      <trkpt lat="44.6125" lon="4.11687">
        <ele>1339.73</ele>
        <time>2013-08-24T15:14:38Z</time>
      </trkpt>
      <trkpt lat="44.61251" lon="4.11683">
        <ele>1339.25</ele>
        <time>2013-08-24T15:14:39Z</time>
      </trkpt>
      <trkpt lat="44.61252" lon="4.1168">
        <ele>1339.25</ele>
        <time>2013-08-24T15:14:40Z</time>
      </trkpt>
      <trkpt lat="44.61253" lon="4.11678">
        <ele>1339.25</ele>
        <time>2013-08-24T15:14:41Z</time>
      </trkpt>
      <trkpt lat="44.61253" lon="4.11676">
        <ele>1339.73</ele>
        <time>2013-08-24T15:14:42Z</time>
      </trkpt>
      <trkpt lat="44.61263" lon="4.1165">
        <ele>1343.1</ele>
        <time>2013-08-24T15:14:52Z</time>
      </trkpt>
      <trkpt lat="44.61266" lon="4.11616">
        <ele>1343.1</ele>
        <time>2013-08-24T15:15:04Z</time>
      </trkpt>
      <trkpt lat="44.61269" lon="4.11595">
        <ele>1344.06</ele>
        <time>2013-08-24T15:15:14Z</time>
      </trkpt>
      <trkpt lat="44.61268" lon="4.11563">
        <ele>1346.46</ele>
        <time>2013-08-24T15:15:27Z</time>
      </trkpt>
      <trkpt lat="44.61268" lon="4.11535">
        <ele>1347.91</ele>
        <time>2013-08-24T15:15:40Z</time>
      </trkpt>
      <trkpt lat="44.61269" lon="4.11511">
        <ele>1348.87</ele>
        <time>2013-08-24T15:15:51Z</time>
      </trkpt>
      <trkpt lat="44.61269" lon="4.11487">
        <ele>1349.35</ele>
        <time>2013-08-24T15:16:00Z</time>
      </trkpt>
      <trkpt lat="44.61269" lon="4.11485">
        <ele>1349.35</ele>
        <time>2013-08-24T15:16:01Z</time>
      </trkpt>
      <trkpt lat="44.61269" lon="4.11483">
        <ele>1350.31</ele>
        <time>2013-08-24T15:16:02Z</time>
      </trkpt>
      <trkpt lat="44.61258" lon="4.11464">
        <ele>1352.71</ele>
        <time>2013-08-24T15:16:14Z</time>
      </trkpt>
      <trkpt lat="44.61253" lon="4.1146">
        <ele>1353.67</ele>
        <time>2013-08-24T15:16:18Z</time>
      </trkpt>
      <trkpt lat="44.61247" lon="4.11452">
        <ele>1355.12</ele>
        <time>2013-08-24T15:16:25Z</time>
      </trkpt>
      <trkpt lat="44.61246" lon="4.11451">
        <ele>1355.6</ele>
        <time>2013-08-24T15:16:26Z</time>
      </trkpt>
      <trkpt lat="44.61235" lon="4.11436">
        <ele>1356.56</ele>
        <time>2013-08-24T15:16:37Z</time>
      </trkpt>
      <trkpt lat="44.61228" lon="4.11428">
        <ele>1357.52</ele>
        <time>2013-08-24T15:16:44Z</time>
      </trkpt>
      <trkpt lat="44.61227" lon="4.11426">
        <ele>1358</ele>
        <time>2013-08-24T15:16:46Z</time>
      </trkpt>
      <trkpt lat="44.61226" lon="4.11425">
        <ele>1358</ele>
        <time>2013-08-24T15:16:47Z</time>
      </trkpt>
      <trkpt lat="44.61226" lon="4.11424">
        <ele>1358</ele>
        <time>2013-08-24T15:16:48Z</time>
      </trkpt>
      <trkpt lat="44.61224" lon="4.11423">
        <ele>1358.48</ele>
        <time>2013-08-24T15:16:49Z</time>
      </trkpt>
      <trkpt lat="44.61223" lon="4.11422">
        <ele>1358.48</ele>
        <time>2013-08-24T15:16:50Z</time>
      </trkpt>
      <trkpt lat="44.61222" lon="4.11421">
        <ele>1358</ele>
        <time>2013-08-24T15:16:51Z</time>
      </trkpt>
      <trkpt lat="44.61221" lon="4.11421">
        <ele>1358.96</ele>
        <time>2013-08-24T15:16:52Z</time>
      </trkpt>
      <trkpt lat="44.61219" lon="4.1142">
        <ele>1358.96</ele>
        <time>2013-08-24T15:16:53Z</time>
      </trkpt>
      <trkpt lat="44.61212" lon="4.11414">
        <ele>1358.48</ele>
        <time>2013-08-24T15:17:00Z</time>
      </trkpt>
      <trkpt lat="44.61197" lon="4.11395">
        <ele>1360.88</ele>
        <time>2013-08-24T15:17:14Z</time>
      </trkpt>
      <trkpt lat="44.61196" lon="4.11393">
        <ele>1361.36</ele>
        <time>2013-08-24T15:17:15Z</time>
      </trkpt>
      <trkpt lat="44.61195" lon="4.11392">
        <ele>1361.36</ele>
        <time>2013-08-24T15:17:16Z</time>
      </trkpt>
      <trkpt lat="44.61194" lon="4.1139">
        <ele>1361.36</ele>
        <time>2013-08-24T15:17:17Z</time>
      </trkpt>
      <trkpt lat="44.61193" lon="4.11388">
        <ele>1361.36</ele>
        <time>2013-08-24T15:17:18Z</time>
      </trkpt>
      <trkpt lat="44.61192" lon="4.11386">
        <ele>1361.36</ele>
        <time>2013-08-24T15:17:19Z</time>
      </trkpt>
      <trkpt lat="44.61191" lon="4.11384">
        <ele>1360.88</ele>
        <time>2013-08-24T15:17:20Z</time>
      </trkpt>
      <trkpt lat="44.6119" lon="4.11383">
        <ele>1361.36</ele>
        <time>2013-08-24T15:17:21Z</time>
      </trkpt>
      <trkpt lat="44.61175" lon="4.11357">
        <ele>1362.33</ele>
        <time>2013-08-24T15:17:35Z</time>
      </trkpt>
      <trkpt lat="44.61174" lon="4.11356">
        <ele>1362.33</ele>
        <time>2013-08-24T15:17:36Z</time>
      </trkpt>
      <trkpt lat="44.61173" lon="4.11354">
        <ele>1362.33</ele>
        <time>2013-08-24T15:17:37Z</time>
      </trkpt>
      <trkpt lat="44.61171" lon="4.11352">
        <ele>1362.81</ele>
        <time>2013-08-24T15:17:38Z</time>
      </trkpt>
      <trkpt lat="44.61171" lon="4.11351">
        <ele>1362.81</ele>
        <time>2013-08-24T15:17:39Z</time>
      </trkpt>
      <trkpt lat="44.61169" lon="4.11349">
        <ele>1362.81</ele>
        <time>2013-08-24T15:17:40Z</time>
      </trkpt>
      <trkpt lat="44.61168" lon="4.11347">
        <ele>1362.81</ele>
        <time>2013-08-24T15:17:41Z</time>
      </trkpt>
      <trkpt lat="44.61167" lon="4.11345">
        <ele>1362.81</ele>
        <time>2013-08-24T15:17:42Z</time>
      </trkpt>
      <trkpt lat="44.61166" lon="4.11342">
        <ele>1363.29</ele>
        <time>2013-08-24T15:17:43Z</time>
      </trkpt>
      <trkpt lat="44.61164" lon="4.11339">
        <ele>1363.29</ele>
        <time>2013-08-24T15:17:45Z</time>
      </trkpt>
      <trkpt lat="44.61162" lon="4.11337">
        <ele>1363.29</ele>
        <time>2013-08-24T15:17:49Z</time>
      </trkpt>
      <trkpt lat="44.61157" lon="4.11331">
        <ele>1363.77</ele>
        <time>2013-08-24T15:18:01Z</time>
      </trkpt>
      <trkpt lat="44.61158" lon="4.11328">
        <ele>1363.77</ele>
        <time>2013-08-24T15:18:14Z</time>
      </trkpt>
      <trkpt lat="44.61158" lon="4.11329">
        <ele>1363.77</ele>
        <time>2013-08-24T15:18:15Z</time>
      </trkpt>
      <trkpt lat="44.61159" lon="4.1133">
        <ele>1363.77</ele>
        <time>2013-08-24T15:18:25Z</time>
      </trkpt>
      <trkpt lat="44.61158" lon="4.11328">
        <ele>1363.77</ele>
        <time>2013-08-24T15:18:26Z</time>
      </trkpt>
      <trkpt lat="44.61148" lon="4.11301">
        <ele>1365.69</ele>
        <time>2013-08-24T15:18:40Z</time>
      </trkpt>
      <trkpt lat="44.61145" lon="4.11285">
        <ele>1367.13</ele>
        <time>2013-08-24T15:18:48Z</time>
      </trkpt>
      <trkpt lat="44.61145" lon="4.11283">
        <ele>1367.61</ele>
        <time>2013-08-24T15:18:49Z</time>
      </trkpt>
      <trkpt lat="44.61144" lon="4.11281">
        <ele>1367.13</ele>
        <time>2013-08-24T15:18:50Z</time>
      </trkpt>
      <trkpt lat="44.61143" lon="4.11275">
        <ele>1368.09</ele>
        <time>2013-08-24T15:18:53Z</time>
      </trkpt>
      <trkpt lat="44.61143" lon="4.11273">
        <ele>1368.57</ele>
        <time>2013-08-24T15:18:54Z</time>
      </trkpt>
      <trkpt lat="44.61143" lon="4.11271">
        <ele>1368.09</ele>
        <time>2013-08-24T15:18:55Z</time>
      </trkpt>
      <trkpt lat="44.61142" lon="4.11268">
        <ele>1368.09</ele>
        <time>2013-08-24T15:18:56Z</time>
      </trkpt>
      <trkpt lat="44.61142" lon="4.11266">
        <ele>1367.61</ele>
        <time>2013-08-24T15:18:57Z</time>
      </trkpt>
      <trkpt lat="44.61142" lon="4.11264">
        <ele>1368.57</ele>
        <time>2013-08-24T15:18:58Z</time>
      </trkpt>
      <trkpt lat="44.61141" lon="4.11262">
        <ele>1368.57</ele>
        <time>2013-08-24T15:18:59Z</time>
      </trkpt>
      <trkpt lat="44.61131" lon="4.11223">
        <ele>1368.57</ele>
        <time>2013-08-24T15:19:13Z</time>
      </trkpt>
      <trkpt lat="44.61128" lon="4.11209">
        <ele>1367.61</ele>
        <time>2013-08-24T15:19:15Z</time>
      </trkpt>
      <trkpt lat="44.61128" lon="4.11202">
        <ele>1367.61</ele>
        <time>2013-08-24T15:19:16Z</time>
      </trkpt>
      <trkpt lat="44.61129" lon="4.11196">
        <ele>1366.65</ele>
        <time>2013-08-24T15:19:17Z</time>
      </trkpt>
      <trkpt lat="44.61131" lon="4.11189">
        <ele>1366.65</ele>
        <time>2013-08-24T15:19:18Z</time>
      </trkpt>
      <trkpt lat="44.61132" lon="4.11183">
        <ele>1366.65</ele>
        <time>2013-08-24T15:19:19Z</time>
      </trkpt>
      <trkpt lat="44.61134" lon="4.11177">
        <ele>1367.13</ele>
        <time>2013-08-24T15:19:20Z</time>
      </trkpt>
      <trkpt lat="44.61137" lon="4.11172">
        <ele>1366.65</ele>
        <time>2013-08-24T15:19:21Z</time>
      </trkpt>
      <trkpt lat="44.61144" lon="4.1116">
        <ele>1364.25</ele>
        <time>2013-08-24T15:19:23Z</time>
      </trkpt>
      <trkpt lat="44.61148" lon="4.11155">
        <ele>1363.29</ele>
        <time>2013-08-24T15:19:24Z</time>
      </trkpt>
      <trkpt lat="44.61153" lon="4.1115">
        <ele>1360.88</ele>
        <time>2013-08-24T15:19:25Z</time>
      </trkpt>
      <trkpt lat="44.61157" lon="4.11145">
        <ele>1362.33</ele>
        <time>2013-08-24T15:19:26Z</time>
      </trkpt>
      <trkpt lat="44.61162" lon="4.1114">
        <ele>1362.33</ele>
        <time>2013-08-24T15:19:27Z</time>
      </trkpt>
      <trkpt lat="44.61166" lon="4.11134">
        <ele>1361.84</ele>
        <time>2013-08-24T15:19:28Z</time>
      </trkpt>
      <trkpt lat="44.61168" lon="4.11128">
        <ele>1361.84</ele>
        <time>2013-08-24T15:19:29Z</time>
      </trkpt>
      <trkpt lat="44.61169" lon="4.11125">
        <ele>1362.81</ele>
        <time>2013-08-24T15:19:30Z</time>
      </trkpt>
      <trkpt lat="44.6117" lon="4.11124">
        <ele>1362.33</ele>
        <time>2013-08-24T15:19:31Z</time>
      </trkpt>
      <trkpt lat="44.61173" lon="4.11123">
        <ele>1360.88</ele>
        <time>2013-08-24T15:19:42Z</time>
      </trkpt>
      <trkpt lat="44.61175" lon="4.11126">
        <ele>1362.33</ele>
        <time>2013-08-24T15:19:47Z</time>
      </trkpt>
      <trkpt lat="44.61176" lon="4.11129">
        <ele>1361.84</ele>
        <time>2013-08-24T15:19:48Z</time>
      </trkpt>
      <trkpt lat="44.61165" lon="4.11133">
        <ele>1362.81</ele>
        <time>2013-08-24T15:19:56Z</time>
      </trkpt>
      <trkpt lat="44.61164" lon="4.11132">
        <ele>1363.77</ele>
        <time>2013-08-24T15:20:04Z</time>
      </trkpt>
      <trkpt lat="44.61164" lon="4.11132">
        <ele>1361.84</ele>
        <time>2013-08-24T15:20:23Z</time>
      </trkpt>
      <trkpt lat="44.61164" lon="4.11133">
        <ele>1362.81</ele>
        <time>2013-08-24T15:20:57Z</time>
      </trkpt>
      <trkpt lat="44.61164" lon="4.11133">
        <ele>1362.81</ele>
        <time>2013-08-24T15:21:19Z</time>
      </trkpt>
      <trkpt lat="44.61185" lon="4.11113">
        <ele>1360.4</ele>
        <time>2013-08-24T15:21:30Z</time>
      </trkpt>
      <trkpt lat="44.61214" lon="4.11087">
        <ele>1358</ele>
        <time>2013-08-24T15:21:38Z</time>
      </trkpt>
      <trkpt lat="44.61218" lon="4.11084">
        <ele>1358</ele>
        <time>2013-08-24T15:21:39Z</time>
      </trkpt>
      <trkpt lat="44.61227" lon="4.11075">
        <ele>1356.56</ele>
        <time>2013-08-24T15:21:41Z</time>
      </trkpt>
      <trkpt lat="44.61231" lon="4.1107">
        <ele>1356.56</ele>
        <time>2013-08-24T15:21:42Z</time>
      </trkpt>
      <trkpt lat="44.61235" lon="4.11065">
        <ele>1356.56</ele>
        <time>2013-08-24T15:21:43Z</time>
      </trkpt>
      <trkpt lat="44.61267" lon="4.11017">
        <ele>1354.15</ele>
        <time>2013-08-24T15:21:51Z</time>
      </trkpt>
      <trkpt lat="44.61276" lon="4.11006">
        <ele>1352.71</ele>
        <time>2013-08-24T15:21:53Z</time>
      </trkpt>
      <trkpt lat="44.61281" lon="4.11002">
        <ele>1352.23</ele>
        <time>2013-08-24T15:21:54Z</time>
      </trkpt>
      <trkpt lat="44.61286" lon="4.10998">
        <ele>1352.71</ele>
        <time>2013-08-24T15:21:55Z</time>
      </trkpt>
      <trkpt lat="44.61295" lon="4.10988">
        <ele>1353.19</ele>
        <time>2013-08-24T15:21:57Z</time>
      </trkpt>
      <trkpt lat="44.613" lon="4.10983">
        <ele>1352.23</ele>
        <time>2013-08-24T15:21:58Z</time>
      </trkpt>
      <trkpt lat="44.61304" lon="4.10977">
        <ele>1352.23</ele>
        <time>2013-08-24T15:21:59Z</time>
      </trkpt>
      <trkpt lat="44.61336" lon="4.1094">
        <ele>1348.87</ele>
        <time>2013-08-24T15:22:06Z</time>
      </trkpt>
      <trkpt lat="44.61369" lon="4.10904">
        <ele>1346.94</ele>
        <time>2013-08-24T15:22:13Z</time>
      </trkpt>
      <trkpt lat="44.61375" lon="4.109">
        <ele>1345.98</ele>
        <time>2013-08-24T15:22:14Z</time>
      </trkpt>
      <trkpt lat="44.6138" lon="4.10896">
        <ele>1345.98</ele>
        <time>2013-08-24T15:22:15Z</time>
      </trkpt>
      <trkpt lat="44.61385" lon="4.10892">
        <ele>1345.5</ele>
        <time>2013-08-24T15:22:16Z</time>
      </trkpt>
      <trkpt lat="44.61389" lon="4.10886">
        <ele>1345.98</ele>
        <time>2013-08-24T15:22:17Z</time>
      </trkpt>
      <trkpt lat="44.61399" lon="4.10875">
        <ele>1345.98</ele>
        <time>2013-08-24T15:22:19Z</time>
      </trkpt>
      <trkpt lat="44.61411" lon="4.10867">
        <ele>1343.1</ele>
        <time>2013-08-24T15:22:21Z</time>
      </trkpt>
      <trkpt lat="44.61416" lon="4.10863">
        <ele>1343.58</ele>
        <time>2013-08-24T15:22:22Z</time>
      </trkpt>
      <trkpt lat="44.61422" lon="4.1086">
        <ele>1343.1</ele>
        <time>2013-08-24T15:22:23Z</time>
      </trkpt>
      <trkpt lat="44.61427" lon="4.10856">
        <ele>1344.06</ele>
        <time>2013-08-24T15:22:24Z</time>
      </trkpt>
      <trkpt lat="44.61433" lon="4.10851">
        <ele>1343.1</ele>
        <time>2013-08-24T15:22:25Z</time>
      </trkpt>
      <trkpt lat="44.61439" lon="4.10847">
        <ele>1342.14</ele>
        <time>2013-08-24T15:22:26Z</time>
      </trkpt>
      <trkpt lat="44.61462" lon="4.1083">
        <ele>1341.18</ele>
        <time>2013-08-24T15:22:30Z</time>
      </trkpt>
      <trkpt lat="44.61467" lon="4.10825">
        <ele>1340.7</ele>
        <time>2013-08-24T15:22:31Z</time>
      </trkpt>
      <trkpt lat="44.61478" lon="4.10813">
        <ele>1338.77</ele>
        <time>2013-08-24T15:22:33Z</time>
      </trkpt>
      <trkpt lat="44.61484" lon="4.10806">
        <ele>1338.29</ele>
        <time>2013-08-24T15:22:34Z</time>
      </trkpt>
      <trkpt lat="44.6149" lon="4.108">
        <ele>1338.29</ele>
        <time>2013-08-24T15:22:35Z</time>
      </trkpt>
      <trkpt lat="44.61538" lon="4.10749">
        <ele>1334.93</ele>
        <time>2013-08-24T15:22:44Z</time>
      </trkpt>
      <trkpt lat="44.61543" lon="4.10744">
        <ele>1334.45</ele>
        <time>2013-08-24T15:22:45Z</time>
      </trkpt>
      <trkpt lat="44.6156" lon="4.10724">
        <ele>1333.01</ele>
        <time>2013-08-24T15:22:49Z</time>
      </trkpt>
      <trkpt lat="44.61565" lon="4.10719">
        <ele>1333.01</ele>
        <time>2013-08-24T15:22:50Z</time>
      </trkpt>
      <trkpt lat="44.61571" lon="4.10715">
        <ele>1332.52</ele>
        <time>2013-08-24T15:22:51Z</time>
      </trkpt>
      <trkpt lat="44.61577" lon="4.10713">
        <ele>1332.04</ele>
        <time>2013-08-24T15:22:52Z</time>
      </trkpt>
      <trkpt lat="44.61582" lon="4.10711">
        <ele>1331.56</ele>
        <time>2013-08-24T15:22:53Z</time>
      </trkpt>
      <trkpt lat="44.61598" lon="4.10706">
        <ele>1331.56</ele>
        <time>2013-08-24T15:22:56Z</time>
      </trkpt>
      <trkpt lat="44.61604" lon="4.10705">
        <ele>1331.08</ele>
        <time>2013-08-24T15:22:57Z</time>
      </trkpt>
      <trkpt lat="44.61608" lon="4.10704">
        <ele>1331.56</ele>
        <time>2013-08-24T15:22:58Z</time>
      </trkpt>
      <trkpt lat="44.61612" lon="4.10703">
        <ele>1331.08</ele>
        <time>2013-08-24T15:22:59Z</time>
      </trkpt>
      <trkpt lat="44.61617" lon="4.10702">
        <ele>1331.08</ele>
        <time>2013-08-24T15:23:00Z</time>
      </trkpt>
      <trkpt lat="44.61622" lon="4.107">
        <ele>1331.08</ele>
        <time>2013-08-24T15:23:01Z</time>
      </trkpt>
      <trkpt lat="44.61632" lon="4.10694">
        <ele>1331.08</ele>
        <time>2013-08-24T15:23:03Z</time>
      </trkpt>
      <trkpt lat="44.61635" lon="4.10689">
        <ele>1330.6</ele>
        <time>2013-08-24T15:23:04Z</time>
      </trkpt>
      <trkpt lat="44.61637" lon="4.10684">
        <ele>1330.6</ele>
        <time>2013-08-24T15:23:05Z</time>
      </trkpt>
      <trkpt lat="44.61638" lon="4.1068">
        <ele>1329.64</ele>
        <time>2013-08-24T15:23:06Z</time>
      </trkpt>
      <trkpt lat="44.61638" lon="4.10676">
        <ele>1329.16</ele>
        <time>2013-08-24T15:23:07Z</time>
      </trkpt>
      <trkpt lat="44.61638" lon="4.10671">
        <ele>1329.16</ele>
        <time>2013-08-24T15:23:08Z</time>
      </trkpt>
      <trkpt lat="44.61636" lon="4.10659">
        <ele>1328.2</ele>
        <time>2013-08-24T15:23:11Z</time>
      </trkpt>
      <trkpt lat="44.61628" lon="4.10653">
        <ele>1328.2</ele>
        <time>2013-08-24T15:23:12Z</time>
      </trkpt>
      <trkpt lat="44.61623" lon="4.10647">
        <ele>1327.72</ele>
        <time>2013-08-24T15:23:13Z</time>
      </trkpt>
      <trkpt lat="44.6162" lon="4.1064">
        <ele>1327.72</ele>
        <time>2013-08-24T15:23:14Z</time>
      </trkpt>
      <trkpt lat="44.61618" lon="4.10631">
        <ele>1327.24</ele>
        <time>2013-08-24T15:23:15Z</time>
      </trkpt>
      <trkpt lat="44.61616" lon="4.10623">
        <ele>1326.76</ele>
        <time>2013-08-24T15:23:16Z</time>
      </trkpt>
      <trkpt lat="44.61615" lon="4.10614">
        <ele>1326.28</ele>
        <time>2013-08-24T15:23:17Z</time>
      </trkpt>
      <trkpt lat="44.61614" lon="4.10605">
        <ele>1325.31</ele>
        <time>2013-08-24T15:23:18Z</time>
      </trkpt>
      <trkpt lat="44.61614" lon="4.10596">
        <ele>1324.83</ele>
        <time>2013-08-24T15:23:19Z</time>
      </trkpt>
      <trkpt lat="44.61614" lon="4.10587">
        <ele>1324.83</ele>
        <time>2013-08-24T15:23:20Z</time>
      </trkpt>
      <trkpt lat="44.61615" lon="4.10578">
        <ele>1324.35</ele>
        <time>2013-08-24T15:23:21Z</time>
      </trkpt>
      <trkpt lat="44.61616" lon="4.1057">
        <ele>1323.87</ele>
        <time>2013-08-24T15:23:22Z</time>
      </trkpt>
      <trkpt lat="44.61617" lon="4.10563">
        <ele>1324.35</ele>
        <time>2013-08-24T15:23:23Z</time>
      </trkpt>
      <trkpt lat="44.61619" lon="4.10556">
        <ele>1323.87</ele>
        <time>2013-08-24T15:23:24Z</time>
      </trkpt>
      <trkpt lat="44.6162" lon="4.10549">
        <ele>1323.39</ele>
        <time>2013-08-24T15:23:25Z</time>
      </trkpt>
      <trkpt lat="44.61622" lon="4.10542">
        <ele>1323.39</ele>
        <time>2013-08-24T15:23:26Z</time>
      </trkpt>
      <trkpt lat="44.61624" lon="4.10535">
        <ele>1322.91</ele>
        <time>2013-08-24T15:23:27Z</time>
      </trkpt>
      <trkpt lat="44.61625" lon="4.10528">
        <ele>1321.95</ele>
        <time>2013-08-24T15:23:28Z</time>
      </trkpt>
      <trkpt lat="44.61627" lon="4.10522">
        <ele>1322.43</ele>
        <time>2013-08-24T15:23:29Z</time>
      </trkpt>
      <trkpt lat="44.61633" lon="4.10501">
        <ele>1320.99</ele>
        <time>2013-08-24T15:23:32Z</time>
      </trkpt>
      <trkpt lat="44.61633" lon="4.10492">
        <ele>1320.03</ele>
        <time>2013-08-24T15:23:33Z</time>
      </trkpt>
      <trkpt lat="44.61631" lon="4.10484">
        <ele>1319.55</ele>
        <time>2013-08-24T15:23:34Z</time>
      </trkpt>
      <trkpt lat="44.61627" lon="4.10477">
        <ele>1319.55</ele>
        <time>2013-08-24T15:23:35Z</time>
      </trkpt>
      <trkpt lat="44.61615" lon="4.10457">
        <ele>1318.59</ele>
        <time>2013-08-24T15:23:39Z</time>
      </trkpt>
      <trkpt lat="44.61614" lon="4.1045">
        <ele>1318.1</ele>
        <time>2013-08-24T15:23:40Z</time>
      </trkpt>
      <trkpt lat="44.61614" lon="4.10443">
        <ele>1317.14</ele>
        <time>2013-08-24T15:23:41Z</time>
      </trkpt>
      <trkpt lat="44.61615" lon="4.10437">
        <ele>1317.14</ele>
        <time>2013-08-24T15:23:42Z</time>
      </trkpt>
      <trkpt lat="44.61616" lon="4.10433">
        <ele>1317.62</ele>
        <time>2013-08-24T15:23:43Z</time>
      </trkpt>
      <trkpt lat="44.61618" lon="4.10429">
        <ele>1317.62</ele>
        <time>2013-08-24T15:23:44Z</time>
      </trkpt>
      <trkpt lat="44.61629" lon="4.10391">
        <ele>1315.7</ele>
        <time>2013-08-24T15:23:51Z</time>
      </trkpt>
      <trkpt lat="44.6163" lon="4.10379">
        <ele>1315.22</ele>
        <time>2013-08-24T15:23:53Z</time>
      </trkpt>
      <trkpt lat="44.6163" lon="4.10373">
        <ele>1314.74</ele>
        <time>2013-08-24T15:23:54Z</time>
      </trkpt>
      <trkpt lat="44.6163" lon="4.10366">
        <ele>1314.26</ele>
        <time>2013-08-24T15:23:55Z</time>
      </trkpt>
      <trkpt lat="44.61627" lon="4.10361">
        <ele>1313.78</ele>
        <time>2013-08-24T15:23:56Z</time>
      </trkpt>
      <trkpt lat="44.61625" lon="4.10356">
        <ele>1314.26</ele>
        <time>2013-08-24T15:23:57Z</time>
      </trkpt>
      <trkpt lat="44.61622" lon="4.10352">
        <ele>1313.78</ele>
        <time>2013-08-24T15:23:58Z</time>
      </trkpt>
      <trkpt lat="44.61618" lon="4.1035">
        <ele>1314.26</ele>
        <time>2013-08-24T15:23:59Z</time>
      </trkpt>
      <trkpt lat="44.61614" lon="4.10351">
        <ele>1313.78</ele>
        <time>2013-08-24T15:24:00Z</time>
      </trkpt>
      <trkpt lat="44.61611" lon="4.10353">
        <ele>1313.3</ele>
        <time>2013-08-24T15:24:01Z</time>
      </trkpt>
      <trkpt lat="44.61608" lon="4.10357">
        <ele>1314.26</ele>
        <time>2013-08-24T15:24:02Z</time>
      </trkpt>
      <trkpt lat="44.61605" lon="4.10362">
        <ele>1313.78</ele>
        <time>2013-08-24T15:24:03Z</time>
      </trkpt>
      <trkpt lat="44.61602" lon="4.10367">
        <ele>1313.3</ele>
        <time>2013-08-24T15:24:04Z</time>
      </trkpt>
      <trkpt lat="44.616" lon="4.10372">
        <ele>1313.3</ele>
        <time>2013-08-24T15:24:05Z</time>
      </trkpt>
      <trkpt lat="44.61588" lon="4.1039">
        <ele>1313.78</ele>
        <time>2013-08-24T15:24:09Z</time>
      </trkpt>
      <trkpt lat="44.61581" lon="4.10401">
        <ele>1313.3</ele>
        <time>2013-08-24T15:24:11Z</time>
      </trkpt>
      <trkpt lat="44.61577" lon="4.10407">
        <ele>1313.3</ele>
        <time>2013-08-24T15:24:12Z</time>
      </trkpt>
      <trkpt lat="44.61569" lon="4.1042">
        <ele>1312.82</ele>
        <time>2013-08-24T15:24:14Z</time>
      </trkpt>
      <trkpt lat="44.61565" lon="4.10426">
        <ele>1313.3</ele>
        <time>2013-08-24T15:24:15Z</time>
      </trkpt>
      <trkpt lat="44.61562" lon="4.10431">
        <ele>1313.78</ele>
        <time>2013-08-24T15:24:16Z</time>
      </trkpt>
      <trkpt lat="44.61553" lon="4.10446">
        <ele>1314.26</ele>
        <time>2013-08-24T15:24:19Z</time>
      </trkpt>
      <trkpt lat="44.61527" lon="4.10457">
        <ele>1317.14</ele>
        <time>2013-08-24T15:24:27Z</time>
      </trkpt>
      <trkpt lat="44.61508" lon="4.10453">
        <ele>1319.07</ele>
        <time>2013-08-24T15:24:34Z</time>
      </trkpt>
      <trkpt lat="44.6149" lon="4.10442">
        <ele>1318.59</ele>
        <time>2013-08-24T15:24:44Z</time>
      </trkpt>
      <trkpt lat="44.61479" lon="4.10434">
        <ele>1320.03</ele>
        <time>2013-08-24T15:24:50Z</time>
      </trkpt>
      <trkpt lat="44.61477" lon="4.10432">
        <ele>1319.55</ele>
        <time>2013-08-24T15:24:51Z</time>
      </trkpt>
      <trkpt lat="44.61476" lon="4.1043">
        <ele>1319.55</ele>
        <time>2013-08-24T15:24:52Z</time>
      </trkpt>
      <trkpt lat="44.61474" lon="4.10428">
        <ele>1320.03</ele>
        <time>2013-08-24T15:24:53Z</time>
      </trkpt>
      <trkpt lat="44.61472" lon="4.10427">
        <ele>1320.03</ele>
        <time>2013-08-24T15:24:54Z</time>
      </trkpt>
      <trkpt lat="44.6147" lon="4.10425">
        <ele>1320.03</ele>
        <time>2013-08-24T15:24:55Z</time>
      </trkpt>
      <trkpt lat="44.61468" lon="4.10424">
        <ele>1320.03</ele>
        <time>2013-08-24T15:24:56Z</time>
      </trkpt>
      <trkpt lat="44.61466" lon="4.10422">
        <ele>1320.03</ele>
        <time>2013-08-24T15:24:57Z</time>
      </trkpt>
      <trkpt lat="44.61465" lon="4.1042">
        <ele>1320.51</ele>
        <time>2013-08-24T15:24:58Z</time>
      </trkpt>
      <trkpt lat="44.61464" lon="4.10418">
        <ele>1320.51</ele>
        <time>2013-08-24T15:24:59Z</time>
      </trkpt>
      <trkpt lat="44.61462" lon="4.10415">
        <ele>1320.51</ele>
        <time>2013-08-24T15:25:00Z</time>
      </trkpt>
      <trkpt lat="44.61445" lon="4.1039">
        <ele>1322.43</ele>
        <time>2013-08-24T15:25:13Z</time>
      </trkpt>
      <trkpt lat="44.61437" lon="4.10387">
        <ele>1322.91</ele>
        <time>2013-08-24T15:25:18Z</time>
      </trkpt>
      <trkpt lat="44.61436" lon="4.10387">
        <ele>1323.39</ele>
        <time>2013-08-24T15:25:19Z</time>
      </trkpt>
      <trkpt lat="44.6142" lon="4.10412">
        <ele>1324.83</ele>
        <time>2013-08-24T15:25:33Z</time>
      </trkpt>
      <trkpt lat="44.61402" lon="4.10424">
        <ele>1326.76</ele>
        <time>2013-08-24T15:25:45Z</time>
      </trkpt>
      <trkpt lat="44.61378" lon="4.10428">
        <ele>1328.2</ele>
        <time>2013-08-24T15:25:58Z</time>
      </trkpt>
      <trkpt lat="44.6135" lon="4.10431">
        <ele>1330.6</ele>
        <time>2013-08-24T15:26:12Z</time>
      </trkpt>
      <trkpt lat="44.61338" lon="4.10432">
        <ele>1331.56</ele>
        <time>2013-08-24T15:26:18Z</time>
      </trkpt>
      <trkpt lat="44.61336" lon="4.10432">
        <ele>1331.56</ele>
        <time>2013-08-24T15:26:19Z</time>
      </trkpt>
      <trkpt lat="44.61334" lon="4.10431">
        <ele>1331.56</ele>
        <time>2013-08-24T15:26:20Z</time>
      </trkpt>
      <trkpt lat="44.61332" lon="4.10431">
        <ele>1332.04</ele>
        <time>2013-08-24T15:26:21Z</time>
      </trkpt>
      <trkpt lat="44.6133" lon="4.10431">
        <ele>1332.52</ele>
        <time>2013-08-24T15:26:22Z</time>
      </trkpt>
      <trkpt lat="44.61328" lon="4.1043">
        <ele>1332.52</ele>
        <time>2013-08-24T15:26:23Z</time>
      </trkpt>
      <trkpt lat="44.61306" lon="4.10427">
        <ele>1333.97</ele>
        <time>2013-08-24T15:26:33Z</time>
      </trkpt>
      <trkpt lat="44.61281" lon="4.10424">
        <ele>1335.41</ele>
        <time>2013-08-24T15:26:46Z</time>
      </trkpt>
      <trkpt lat="44.61259" lon="4.10428">
        <ele>1336.37</ele>
        <time>2013-08-24T15:26:57Z</time>
      </trkpt>
      <trkpt lat="44.61245" lon="4.10429">
        <ele>1337.33</ele>
        <time>2013-08-24T15:27:04Z</time>
      </trkpt>
      <trkpt lat="44.61243" lon="4.1043">
        <ele>1337.33</ele>
        <time>2013-08-24T15:27:05Z</time>
      </trkpt>
      <trkpt lat="44.61241" lon="4.1043">
        <ele>1336.85</ele>
        <time>2013-08-24T15:27:06Z</time>
      </trkpt>
      <trkpt lat="44.61239" lon="4.1043">
        <ele>1337.81</ele>
        <time>2013-08-24T15:27:07Z</time>
      </trkpt>
      <trkpt lat="44.61237" lon="4.10428">
        <ele>1337.33</ele>
        <time>2013-08-24T15:27:08Z</time>
      </trkpt>
      <trkpt lat="44.61236" lon="4.10427">
        <ele>1338.29</ele>
        <time>2013-08-24T15:27:09Z</time>
      </trkpt>
      <trkpt lat="44.61234" lon="4.10427">
        <ele>1337.81</ele>
        <time>2013-08-24T15:27:10Z</time>
      </trkpt>
      <trkpt lat="44.61232" lon="4.10427">
        <ele>1338.29</ele>
        <time>2013-08-24T15:27:11Z</time>
      </trkpt>
      <trkpt lat="44.61229" lon="4.10429">
        <ele>1338.29</ele>
        <time>2013-08-24T15:27:12Z</time>
      </trkpt>
      <trkpt lat="44.61227" lon="4.10429">
        <ele>1338.29</ele>
        <time>2013-08-24T15:27:13Z</time>
      </trkpt>
      <trkpt lat="44.61214" lon="4.10433">
        <ele>1339.73</ele>
        <time>2013-08-24T15:27:20Z</time>
      </trkpt>
      <trkpt lat="44.61212" lon="4.10434">
        <ele>1339.73</ele>
        <time>2013-08-24T15:27:21Z</time>
      </trkpt>
      <trkpt lat="44.6121" lon="4.10434">
        <ele>1339.73</ele>
        <time>2013-08-24T15:27:22Z</time>
      </trkpt>
      <trkpt lat="44.61209" lon="4.10435">
        <ele>1339.73</ele>
        <time>2013-08-24T15:27:23Z</time>
      </trkpt>
      <trkpt lat="44.61206" lon="4.10436">
        <ele>1339.73</ele>
        <time>2013-08-24T15:27:24Z</time>
      </trkpt>
      <trkpt lat="44.61202" lon="4.10438">
        <ele>1339.73</ele>
        <time>2013-08-24T15:27:26Z</time>
      </trkpt>
      <trkpt lat="44.61177" lon="4.10443">
        <ele>1341.18</ele>
        <time>2013-08-24T15:27:38Z</time>
      </trkpt>
      <trkpt lat="44.61152" lon="4.10449">
        <ele>1343.1</ele>
        <time>2013-08-24T15:27:49Z</time>
      </trkpt>
      <trkpt lat="44.61121" lon="4.1046">
        <ele>1345.5</ele>
        <time>2013-08-24T15:28:03Z</time>
      </trkpt>
      <trkpt lat="44.61099" lon="4.1047">
        <ele>1345.98</ele>
        <time>2013-08-24T15:28:14Z</time>
      </trkpt>
      <trkpt lat="44.61087" lon="4.10475">
        <ele>1346.94</ele>
        <time>2013-08-24T15:28:21Z</time>
      </trkpt>
      <trkpt lat="44.61086" lon="4.10475">
        <ele>1347.43</ele>
        <time>2013-08-24T15:28:22Z</time>
      </trkpt>
      <trkpt lat="44.61062" lon="4.10484">
        <ele>1347.91</ele>
        <time>2013-08-24T15:28:34Z</time>
      </trkpt>
      <trkpt lat="44.61056" lon="4.10486">
        <ele>1348.87</ele>
        <time>2013-08-24T15:28:37Z</time>
      </trkpt>
      <trkpt lat="44.61054" lon="4.10486">
        <ele>1348.39</ele>
        <time>2013-08-24T15:28:38Z</time>
      </trkpt>
      <trkpt lat="44.61052" lon="4.10486">
        <ele>1348.87</ele>
        <time>2013-08-24T15:28:39Z</time>
      </trkpt>
      <trkpt lat="44.6105" lon="4.10487">
        <ele>1349.35</ele>
        <time>2013-08-24T15:28:40Z</time>
      </trkpt>
      <trkpt lat="44.61048" lon="4.10487">
        <ele>1349.35</ele>
        <time>2013-08-24T15:28:41Z</time>
      </trkpt>
      <trkpt lat="44.61044" lon="4.10489">
        <ele>1349.83</ele>
        <time>2013-08-24T15:28:43Z</time>
      </trkpt>
      <trkpt lat="44.61018" lon="4.10492">
        <ele>1350.79</ele>
        <time>2013-08-24T15:28:56Z</time>
      </trkpt>
      <trkpt lat="44.60994" lon="4.10503">
        <ele>1351.75</ele>
        <time>2013-08-24T15:29:08Z</time>
      </trkpt>
      <trkpt lat="44.60993" lon="4.10493">
        <ele>1353.19</ele>
        <time>2013-08-24T15:29:15Z</time>
      </trkpt>
      <trkpt lat="44.61013" lon="4.10481">
        <ele>1355.12</ele>
        <time>2013-08-24T15:29:27Z</time>
      </trkpt>
      <trkpt lat="44.61036" lon="4.10458">
        <ele>1357.04</ele>
        <time>2013-08-24T15:29:41Z</time>
      </trkpt>
      <trkpt lat="44.61053" lon="4.10442">
        <ele>1358.48</ele>
        <time>2013-08-24T15:29:51Z</time>
      </trkpt>
      <trkpt lat="44.61073" lon="4.10432">
        <ele>1359.92</ele>
        <time>2013-08-24T15:30:02Z</time>
      </trkpt>
      <trkpt lat="44.61075" lon="4.10431">
        <ele>1359.92</ele>
        <time>2013-08-24T15:30:03Z</time>
      </trkpt>
      <trkpt lat="44.61093" lon="4.10418">
        <ele>1361.84</ele>
        <time>2013-08-24T15:30:13Z</time>
      </trkpt>
      <trkpt lat="44.61103" lon="4.10409">
        <ele>1362.81</ele>
        <time>2013-08-24T15:30:18Z</time>
      </trkpt>
      <trkpt lat="44.61113" lon="4.104">
        <ele>1363.29</ele>
        <time>2013-08-24T15:30:23Z</time>
      </trkpt>
      <trkpt lat="44.61135" lon="4.10372">
        <ele>1365.21</ele>
        <time>2013-08-24T15:30:34Z</time>
      </trkpt>
      <trkpt lat="44.61158" lon="4.10347">
        <ele>1366.65</ele>
        <time>2013-08-24T15:30:44Z</time>
      </trkpt>
      <trkpt lat="44.61183" lon="4.10321">
        <ele>1369.05</ele>
        <time>2013-08-24T15:30:55Z</time>
      </trkpt>
      <trkpt lat="44.61211" lon="4.10293">
        <ele>1371.46</ele>
        <time>2013-08-24T15:31:07Z</time>
      </trkpt>
      <trkpt lat="44.61242" lon="4.10267">
        <ele>1372.42</ele>
        <time>2013-08-24T15:31:21Z</time>
      </trkpt>
      <trkpt lat="44.61253" lon="4.10257">
        <ele>1373.86</ele>
        <time>2013-08-24T15:31:28Z</time>
      </trkpt>
      <trkpt lat="44.6126" lon="4.10248">
        <ele>1374.34</ele>
        <time>2013-08-24T15:31:32Z</time>
      </trkpt>
      <trkpt lat="44.61277" lon="4.1021">
        <ele>1376.75</ele>
        <time>2013-08-24T15:31:47Z</time>
      </trkpt>
      <trkpt lat="44.61292" lon="4.10173">
        <ele>1378.19</ele>
        <time>2013-08-24T15:32:02Z</time>
      </trkpt>
      <trkpt lat="44.61297" lon="4.10161">
        <ele>1378.67</ele>
        <time>2013-08-24T15:32:07Z</time>
      </trkpt>
      <trkpt lat="44.61301" lon="4.10145">
        <ele>1379.15</ele>
        <time>2013-08-24T15:32:13Z</time>
      </trkpt>
      <trkpt lat="44.61312" lon="4.10108">
        <ele>1381.07</ele>
        <time>2013-08-24T15:32:27Z</time>
      </trkpt>
      <trkpt lat="44.61318" lon="4.10069">
        <ele>1382.51</ele>
        <time>2013-08-24T15:32:41Z</time>
      </trkpt>
      <trkpt lat="44.6132" lon="4.10061">
        <ele>1383.47</ele>
        <time>2013-08-24T15:32:44Z</time>
      </trkpt>
      <trkpt lat="44.61318" lon="4.1003">
        <ele>1385.4</ele>
        <time>2013-08-24T15:32:56Z</time>
      </trkpt>
      <trkpt lat="44.61309" lon="4.10043">
        <ele>1386.84</ele>
        <time>2013-08-24T15:33:03Z</time>
      </trkpt>
      <trkpt lat="44.61293" lon="4.10072">
        <ele>1387.8</ele>
        <time>2013-08-24T15:33:15Z</time>
      </trkpt>
      <trkpt lat="44.61275" lon="4.10114">
        <ele>1390.68</ele>
        <time>2013-08-24T15:33:33Z</time>
      </trkpt>
      <trkpt lat="44.61259" lon="4.10151">
        <ele>1392.13</ele>
        <time>2013-08-24T15:33:48Z</time>
      </trkpt>
      <trkpt lat="44.61241" lon="4.10169">
        <ele>1394.05</ele>
        <time>2013-08-24T15:33:59Z</time>
      </trkpt>
      <trkpt lat="44.61229" lon="4.10175">
        <ele>1394.53</ele>
        <time>2013-08-24T15:34:06Z</time>
      </trkpt>
      <trkpt lat="44.61224" lon="4.10163">
        <ele>1395.97</ele>
        <time>2013-08-24T15:34:13Z</time>
      </trkpt>
      <trkpt lat="44.61239" lon="4.10139">
        <ele>1396.93</ele>
        <time>2013-08-24T15:34:25Z</time>
      </trkpt>
      <trkpt lat="44.61243" lon="4.10106">
        <ele>1398.37</ele>
        <time>2013-08-24T15:34:37Z</time>
      </trkpt>
      <trkpt lat="44.61242" lon="4.1007">
        <ele>1400.3</ele>
        <time>2013-08-24T15:34:51Z</time>
      </trkpt>
      <trkpt lat="44.6124" lon="4.10055">
        <ele>1400.78</ele>
        <time>2013-08-24T15:34:55Z</time>
      </trkpt>
      <trkpt lat="44.6124" lon="4.10042">
        <ele>1401.74</ele>
        <time>2013-08-24T15:35:00Z</time>
      </trkpt>
      <trkpt lat="44.6124" lon="4.10018">
        <ele>1402.7</ele>
        <time>2013-08-24T15:35:09Z</time>
      </trkpt>
      <trkpt lat="44.61235" lon="4.09981">
        <ele>1405.1</ele>
        <time>2013-08-24T15:35:22Z</time>
      </trkpt>
      <trkpt lat="44.61234" lon="4.09969">
        <ele>1405.58</ele>
        <time>2013-08-24T15:35:27Z</time>
      </trkpt>
      <trkpt lat="44.61233" lon="4.09949">
        <ele>1406.55</ele>
        <time>2013-08-24T15:35:36Z</time>
      </trkpt>
      <trkpt lat="44.61227" lon="4.09905">
        <ele>1408.47</ele>
        <time>2013-08-24T15:35:50Z</time>
      </trkpt>
      <trkpt lat="44.61216" lon="4.09873">
        <ele>1409.43</ele>
        <time>2013-08-24T15:36:01Z</time>
      </trkpt>
      <trkpt lat="44.61214" lon="4.09869">
        <ele>1409.91</ele>
        <time>2013-08-24T15:36:03Z</time>
      </trkpt>
      <trkpt lat="44.61196" lon="4.09841">
        <ele>1413.28</ele>
        <time>2013-08-24T15:36:17Z</time>
      </trkpt>
      <trkpt lat="44.61185" lon="4.09823">
        <ele>1414.24</ele>
        <time>2013-08-24T15:36:26Z</time>
      </trkpt>
      <trkpt lat="44.61179" lon="4.09814">
        <ele>1415.2</ele>
        <time>2013-08-24T15:36:37Z</time>
      </trkpt>
      <trkpt lat="44.61178" lon="4.09813">
        <ele>1415.2</ele>
        <time>2013-08-24T15:36:39Z</time>
      </trkpt>
      <trkpt lat="44.61169" lon="4.09804">
        <ele>1416.16</ele>
        <time>2013-08-24T15:36:53Z</time>
      </trkpt>
      <trkpt lat="44.61169" lon="4.09804">
        <ele>1414.24</ele>
        <time>2013-08-24T15:37:04Z</time>
      </trkpt>
      <trkpt lat="44.61169" lon="4.09804">
        <ele>1415.68</ele>
        <time>2013-08-24T15:37:13Z</time>
      </trkpt>
      <trkpt lat="44.61169" lon="4.09804">
        <ele>1415.2</ele>
        <time>2013-08-24T15:37:41Z</time>
      </trkpt>
      <trkpt lat="44.61169" lon="4.09804">
        <ele>1415.68</ele>
        <time>2013-08-24T15:38:06Z</time>
      </trkpt>
      <trkpt lat="44.61169" lon="4.09803">
        <ele>1416.16</ele>
        <time>2013-08-24T15:38:32Z</time>
      </trkpt>
      <trkpt lat="44.61169" lon="4.09803">
        <ele>1414.72</ele>
        <time>2013-08-24T15:38:51Z</time>
      </trkpt>
      <trkpt lat="44.61169" lon="4.09804">
        <ele>1416.16</ele>
        <time>2013-08-24T15:39:19Z</time>
      </trkpt>
      <trkpt lat="44.61169" lon="4.09804">
        <ele>1416.64</ele>
        <time>2013-08-24T15:39:49Z</time>
      </trkpt>
      <trkpt lat="44.61169" lon="4.09804">
        <ele>1416.16</ele>
        <time>2013-08-24T15:40:22Z</time>
      </trkpt>
      <trkpt lat="44.61169" lon="4.09804">
        <ele>1416.64</ele>
        <time>2013-08-24T15:40:45Z</time>
      </trkpt>
      <trkpt lat="44.61169" lon="4.09804">
        <ele>1415.68</ele>
        <time>2013-08-24T15:41:09Z</time>
      </trkpt>
      <trkpt lat="44.61169" lon="4.09804">
        <ele>1416.64</ele>
        <time>2013-08-24T15:41:32Z</time>
      </trkpt>
      <trkpt lat="44.61169" lon="4.09804">
        <ele>1415.68</ele>
        <time>2013-08-24T15:42:05Z</time>
      </trkpt>
      <trkpt lat="44.61169" lon="4.09801">
        <ele>1415.68</ele>
        <time>2013-08-24T15:42:22Z</time>
      </trkpt>
      <trkpt lat="44.61165" lon="4.09788">
        <ele>1416.16</ele>
        <time>2013-08-24T15:42:27Z</time>
      </trkpt>
      <trkpt lat="44.61163" lon="4.09742">
        <ele>1416.64</ele>
        <time>2013-08-24T15:42:38Z</time>
      </trkpt>
      <trkpt lat="44.61157" lon="4.09692">
        <ele>1417.12</ele>
        <time>2013-08-24T15:42:49Z</time>
      </trkpt>
      <trkpt lat="44.61148" lon="4.09637">
        <ele>1417.12</ele>
        <time>2013-08-24T15:43:00Z</time>
      </trkpt>
      <trkpt lat="44.61146" lon="4.09632">
        <ele>1417.6</ele>
        <time>2013-08-24T15:43:01Z</time>
      </trkpt>
      <trkpt lat="44.61127" lon="4.09585">
        <ele>1417.12</ele>
        <time>2013-08-24T15:43:10Z</time>
      </trkpt>
      <trkpt lat="44.61124" lon="4.0958">
        <ele>1416.64</ele>
        <time>2013-08-24T15:43:11Z</time>
      </trkpt>
      <trkpt lat="44.61118" lon="4.09569">
        <ele>1416.16</ele>
        <time>2013-08-24T15:43:13Z</time>
      </trkpt>
      <trkpt lat="44.61115" lon="4.09563">
        <ele>1416.16</ele>
        <time>2013-08-24T15:43:14Z</time>
      </trkpt>
      <trkpt lat="44.61113" lon="4.09557">
        <ele>1415.68</ele>
        <time>2013-08-24T15:43:15Z</time>
      </trkpt>
      <trkpt lat="44.61112" lon="4.09551">
        <ele>1416.16</ele>
        <time>2013-08-24T15:43:16Z</time>
      </trkpt>
      <trkpt lat="44.6111" lon="4.09545">
        <ele>1416.16</ele>
        <time>2013-08-24T15:43:17Z</time>
      </trkpt>
      <trkpt lat="44.61103" lon="4.09515">
        <ele>1415.68</ele>
        <time>2013-08-24T15:43:22Z</time>
      </trkpt>
      <trkpt lat="44.61097" lon="4.09488">
        <ele>1413.76</ele>
        <time>2013-08-24T15:43:26Z</time>
      </trkpt>
      <trkpt lat="44.61096" lon="4.09481">
        <ele>1414.24</ele>
        <time>2013-08-24T15:43:27Z</time>
      </trkpt>
      <trkpt lat="44.6109" lon="4.09412">
        <ele>1412.79</ele>
        <time>2013-08-24T15:43:37Z</time>
      </trkpt>
      <trkpt lat="44.61089" lon="4.09383">
        <ele>1411.35</ele>
        <time>2013-08-24T15:43:41Z</time>
      </trkpt>
      <trkpt lat="44.61091" lon="4.09332">
        <ele>1409.91</ele>
        <time>2013-08-24T15:43:48Z</time>
      </trkpt>
      <trkpt lat="44.61093" lon="4.09326">
        <ele>1409.91</ele>
        <time>2013-08-24T15:43:49Z</time>
      </trkpt>
      <trkpt lat="44.61094" lon="4.09318">
        <ele>1409.91</ele>
        <time>2013-08-24T15:43:50Z</time>
      </trkpt>
      <trkpt lat="44.61096" lon="4.09303">
        <ele>1409.91</ele>
        <time>2013-08-24T15:43:52Z</time>
      </trkpt>
      <trkpt lat="44.61095" lon="4.09296">
        <ele>1409.43</ele>
        <time>2013-08-24T15:43:53Z</time>
      </trkpt>
      <trkpt lat="44.61094" lon="4.0929">
        <ele>1409.91</ele>
        <time>2013-08-24T15:43:54Z</time>
      </trkpt>
      <trkpt lat="44.61091" lon="4.09285">
        <ele>1408.95</ele>
        <time>2013-08-24T15:43:55Z</time>
      </trkpt>
      <trkpt lat="44.61088" lon="4.09279">
        <ele>1408.95</ele>
        <time>2013-08-24T15:43:56Z</time>
      </trkpt>
      <trkpt lat="44.61085" lon="4.09273">
        <ele>1409.43</ele>
        <time>2013-08-24T15:43:57Z</time>
      </trkpt>
      <trkpt lat="44.61081" lon="4.09267">
        <ele>1409.43</ele>
        <time>2013-08-24T15:43:58Z</time>
      </trkpt>
      <trkpt lat="44.61075" lon="4.09254">
        <ele>1408.47</ele>
        <time>2013-08-24T15:44:00Z</time>
      </trkpt>
      <trkpt lat="44.61073" lon="4.09246">
        <ele>1407.99</ele>
        <time>2013-08-24T15:44:01Z</time>
      </trkpt>
      <trkpt lat="44.6107" lon="4.0923">
        <ele>1407.99</ele>
        <time>2013-08-24T15:44:03Z</time>
      </trkpt>
      <trkpt lat="44.61069" lon="4.09222">
        <ele>1407.51</ele>
        <time>2013-08-24T15:44:04Z</time>
      </trkpt>
      <trkpt lat="44.61068" lon="4.09213">
        <ele>1407.51</ele>
        <time>2013-08-24T15:44:05Z</time>
      </trkpt>
      <trkpt lat="44.61066" lon="4.09204">
        <ele>1407.51</ele>
        <time>2013-08-24T15:44:06Z</time>
      </trkpt>
      <trkpt lat="44.61065" lon="4.09195">
        <ele>1407.03</ele>
        <time>2013-08-24T15:44:07Z</time>
      </trkpt>
      <trkpt lat="44.61062" lon="4.09186">
        <ele>1406.55</ele>
        <time>2013-08-24T15:44:08Z</time>
      </trkpt>
      <trkpt lat="44.61057" lon="4.09167">
        <ele>1406.07</ele>
        <time>2013-08-24T15:44:10Z</time>
      </trkpt>
      <trkpt lat="44.61045" lon="4.09089">
        <ele>1404.62</ele>
        <time>2013-08-24T15:44:18Z</time>
      </trkpt>
      <trkpt lat="44.61045" lon="4.09079">
        <ele>1404.14</ele>
        <time>2013-08-24T15:44:19Z</time>
      </trkpt>
      <trkpt lat="44.61038" lon="4.08946">
        <ele>1401.74</ele>
        <time>2013-08-24T15:44:32Z</time>
      </trkpt>
      <trkpt lat="44.61037" lon="4.08937">
        <ele>1402.22</ele>
        <time>2013-08-24T15:44:33Z</time>
      </trkpt>
      <trkpt lat="44.61029" lon="4.0885">
        <ele>1400.78</ele>
        <time>2013-08-24T15:44:42Z</time>
      </trkpt>
      <trkpt lat="44.61029" lon="4.08841">
        <ele>1400.3</ele>
        <time>2013-08-24T15:44:43Z</time>
      </trkpt>
      <trkpt lat="44.6103" lon="4.08758">
        <ele>1398.86</ele>
        <time>2013-08-24T15:44:52Z</time>
      </trkpt>
      <trkpt lat="44.61031" lon="4.08749">
        <ele>1398.86</ele>
        <time>2013-08-24T15:44:53Z</time>
      </trkpt>
      <trkpt lat="44.61033" lon="4.0874">
        <ele>1397.89</ele>
        <time>2013-08-24T15:44:54Z</time>
      </trkpt>
      <trkpt lat="44.61035" lon="4.08732">
        <ele>1398.37</ele>
        <time>2013-08-24T15:44:55Z</time>
      </trkpt>
      <trkpt lat="44.61038" lon="4.08723">
        <ele>1398.37</ele>
        <time>2013-08-24T15:44:56Z</time>
      </trkpt>
      <trkpt lat="44.61047" lon="4.08685">
        <ele>1397.41</ele>
        <time>2013-08-24T15:45:00Z</time>
      </trkpt>
      <trkpt lat="44.6105" lon="4.08677">
        <ele>1397.41</ele>
        <time>2013-08-24T15:45:01Z</time>
      </trkpt>
      <trkpt lat="44.61052" lon="4.08668">
        <ele>1397.41</ele>
        <time>2013-08-24T15:45:02Z</time>
      </trkpt>
      <trkpt lat="44.61052" lon="4.08659">
        <ele>1396.93</ele>
        <time>2013-08-24T15:45:03Z</time>
      </trkpt>
      <trkpt lat="44.61052" lon="4.08651">
        <ele>1396.45</ele>
        <time>2013-08-24T15:45:04Z</time>
      </trkpt>
      <trkpt lat="44.61052" lon="4.08643">
        <ele>1396.45</ele>
        <time>2013-08-24T15:45:05Z</time>
      </trkpt>
      <trkpt lat="44.61052" lon="4.08594">
        <ele>1395.01</ele>
        <time>2013-08-24T15:45:10Z</time>
      </trkpt>
      <trkpt lat="44.61053" lon="4.08585">
        <ele>1395.49</ele>
        <time>2013-08-24T15:45:11Z</time>
      </trkpt>
      <trkpt lat="44.61062" lon="4.08522">
        <ele>1394.53</ele>
        <time>2013-08-24T15:45:19Z</time>
      </trkpt>
      <trkpt lat="44.61069" lon="4.08464">
        <ele>1394.05</ele>
        <time>2013-08-24T15:45:29Z</time>
      </trkpt>
      <trkpt lat="44.6108" lon="4.08421">
        <ele>1393.57</ele>
        <time>2013-08-24T15:45:42Z</time>
      </trkpt>
      <trkpt lat="44.61091" lon="4.08355">
        <ele>1390.68</ele>
        <time>2013-08-24T15:45:54Z</time>
      </trkpt>
      <trkpt lat="44.61092" lon="4.0835">
        <ele>1391.17</ele>
        <time>2013-08-24T15:45:55Z</time>
      </trkpt>
      <trkpt lat="44.61093" lon="4.08344">
        <ele>1390.68</ele>
        <time>2013-08-24T15:45:56Z</time>
      </trkpt>
      <trkpt lat="44.61095" lon="4.08338">
        <ele>1390.2</ele>
        <time>2013-08-24T15:45:57Z</time>
      </trkpt>
      <trkpt lat="44.61097" lon="4.08333">
        <ele>1389.72</ele>
        <time>2013-08-24T15:45:58Z</time>
      </trkpt>
      <trkpt lat="44.61099" lon="4.08327">
        <ele>1390.2</ele>
        <time>2013-08-24T15:45:59Z</time>
      </trkpt>
      <trkpt lat="44.61101" lon="4.08321">
        <ele>1389.72</ele>
        <time>2013-08-24T15:46:00Z</time>
      </trkpt>
      <trkpt lat="44.61104" lon="4.08316">
        <ele>1389.72</ele>
        <time>2013-08-24T15:46:01Z</time>
      </trkpt>
      <trkpt lat="44.6112" lon="4.08296">
        <ele>1388.76</ele>
        <time>2013-08-24T15:46:06Z</time>
      </trkpt>
      <trkpt lat="44.61128" lon="4.0829">
        <ele>1388.28</ele>
        <time>2013-08-24T15:46:08Z</time>
      </trkpt>
      <trkpt lat="44.61132" lon="4.08287">
        <ele>1387.8</ele>
        <time>2013-08-24T15:46:09Z</time>
      </trkpt>
      <trkpt lat="44.61136" lon="4.08285">
        <ele>1387.32</ele>
        <time>2013-08-24T15:46:10Z</time>
      </trkpt>
      <trkpt lat="44.6114" lon="4.08284">
        <ele>1387.8</ele>
        <time>2013-08-24T15:46:11Z</time>
      </trkpt>
      <trkpt lat="44.61145" lon="4.08282">
        <ele>1387.32</ele>
        <time>2013-08-24T15:46:12Z</time>
      </trkpt>
      <trkpt lat="44.61149" lon="4.08281">
        <ele>1387.32</ele>
        <time>2013-08-24T15:46:13Z</time>
      </trkpt>
      <trkpt lat="44.61154" lon="4.0828">
        <ele>1386.84</ele>
        <time>2013-08-24T15:46:14Z</time>
      </trkpt>
      <trkpt lat="44.61177" lon="4.08284">
        <ele>1386.36</ele>
        <time>2013-08-24T15:46:19Z</time>
      </trkpt>
      <trkpt lat="44.61188" lon="4.08288">
        <ele>1385.88</ele>
        <time>2013-08-24T15:46:21Z</time>
      </trkpt>
      <trkpt lat="44.61193" lon="4.08291">
        <ele>1385.88</ele>
        <time>2013-08-24T15:46:22Z</time>
      </trkpt>
      <trkpt lat="44.61198" lon="4.08294">
        <ele>1384.92</ele>
        <time>2013-08-24T15:46:23Z</time>
      </trkpt>
      <trkpt lat="44.61207" lon="4.08302">
        <ele>1384.44</ele>
        <time>2013-08-24T15:46:25Z</time>
      </trkpt>
      <trkpt lat="44.61216" lon="4.08314">
        <ele>1383.96</ele>
        <time>2013-08-24T15:46:27Z</time>
      </trkpt>
      <trkpt lat="44.6122" lon="4.08321">
        <ele>1384.44</ele>
        <time>2013-08-24T15:46:28Z</time>
      </trkpt>
      <trkpt lat="44.61224" lon="4.08326">
        <ele>1383.96</ele>
        <time>2013-08-24T15:46:29Z</time>
      </trkpt>
      <trkpt lat="44.61229" lon="4.08329">
        <ele>1383.96</ele>
        <time>2013-08-24T15:46:30Z</time>
      </trkpt>
      <trkpt lat="44.61234" lon="4.0833">
        <ele>1384.44</ele>
        <time>2013-08-24T15:46:31Z</time>
      </trkpt>
      <trkpt lat="44.61239" lon="4.08327">
        <ele>1384.92</ele>
        <time>2013-08-24T15:46:32Z</time>
      </trkpt>
      <trkpt lat="44.61242" lon="4.08323">
        <ele>1384.44</ele>
        <time>2013-08-24T15:46:33Z</time>
      </trkpt>
      <trkpt lat="44.61243" lon="4.08318">
        <ele>1384.92</ele>
        <time>2013-08-24T15:46:34Z</time>
      </trkpt>
      <trkpt lat="44.61244" lon="4.08313">
        <ele>1384.92</ele>
        <time>2013-08-24T15:46:35Z</time>
      </trkpt>
      <trkpt lat="44.61243" lon="4.08307">
        <ele>1384.92</ele>
        <time>2013-08-24T15:46:36Z</time>
      </trkpt>
      <trkpt lat="44.61242" lon="4.08301">
        <ele>1384.44</ele>
        <time>2013-08-24T15:46:37Z</time>
      </trkpt>
      <trkpt lat="44.61241" lon="4.08295">
        <ele>1384.44</ele>
        <time>2013-08-24T15:46:38Z</time>
      </trkpt>
      <trkpt lat="44.6124" lon="4.08288">
        <ele>1383.96</ele>
        <time>2013-08-24T15:46:39Z</time>
      </trkpt>
      <trkpt lat="44.61234" lon="4.0827">
        <ele>1383.96</ele>
        <time>2013-08-24T15:46:42Z</time>
      </trkpt>
      <trkpt lat="44.61232" lon="4.08264">
        <ele>1384.44</ele>
        <time>2013-08-24T15:46:43Z</time>
      </trkpt>
      <trkpt lat="44.61229" lon="4.08258">
        <ele>1384.44</ele>
        <time>2013-08-24T15:46:44Z</time>
      </trkpt>
      <trkpt lat="44.61222" lon="4.08248">
        <ele>1383.96</ele>
        <time>2013-08-24T15:46:46Z</time>
      </trkpt>
      <trkpt lat="44.61217" lon="4.08244">
        <ele>1383.96</ele>
        <time>2013-08-24T15:46:47Z</time>
      </trkpt>
      <trkpt lat="44.61212" lon="4.08239">
        <ele>1383.96</ele>
        <time>2013-08-24T15:46:48Z</time>
      </trkpt>
      <trkpt lat="44.61203" lon="4.08231">
        <ele>1383.96</ele>
        <time>2013-08-24T15:46:50Z</time>
      </trkpt>
      <trkpt lat="44.61189" lon="4.08222">
        <ele>1383.96</ele>
        <time>2013-08-24T15:46:53Z</time>
      </trkpt>
      <trkpt lat="44.61174" lon="4.08213">
        <ele>1383.96</ele>
        <time>2013-08-24T15:46:56Z</time>
      </trkpt>
      <trkpt lat="44.61169" lon="4.08209">
        <ele>1383.47</ele>
        <time>2013-08-24T15:46:57Z</time>
      </trkpt>
      <trkpt lat="44.61165" lon="4.08202">
        <ele>1383.47</ele>
        <time>2013-08-24T15:46:58Z</time>
      </trkpt>
      <trkpt lat="44.61162" lon="4.08196">
        <ele>1382.99</ele>
        <time>2013-08-24T15:46:59Z</time>
      </trkpt>
      <trkpt lat="44.61159" lon="4.08189">
        <ele>1382.99</ele>
        <time>2013-08-24T15:47:00Z</time>
      </trkpt>
      <trkpt lat="44.61153" lon="4.08176">
        <ele>1382.51</ele>
        <time>2013-08-24T15:47:02Z</time>
      </trkpt>
      <trkpt lat="44.6115" lon="4.08168">
        <ele>1382.51</ele>
        <time>2013-08-24T15:47:03Z</time>
      </trkpt>
      <trkpt lat="44.61147" lon="4.08161">
        <ele>1382.51</ele>
        <time>2013-08-24T15:47:04Z</time>
      </trkpt>
      <trkpt lat="44.61144" lon="4.08154">
        <ele>1382.03</ele>
        <time>2013-08-24T15:47:05Z</time>
      </trkpt>
      <trkpt lat="44.61141" lon="4.08147">
        <ele>1382.03</ele>
        <time>2013-08-24T15:47:06Z</time>
      </trkpt>
      <trkpt lat="44.61138" lon="4.0814">
        <ele>1381.55</ele>
        <time>2013-08-24T15:47:07Z</time>
      </trkpt>
      <trkpt lat="44.61129" lon="4.08119">
        <ele>1380.59</ele>
        <time>2013-08-24T15:47:10Z</time>
      </trkpt>
      <trkpt lat="44.61121" lon="4.08105">
        <ele>1379.63</ele>
        <time>2013-08-24T15:47:12Z</time>
      </trkpt>
      <trkpt lat="44.61115" lon="4.081">
        <ele>1379.63</ele>
        <time>2013-08-24T15:47:13Z</time>
      </trkpt>
      <trkpt lat="44.61057" lon="4.08059">
        <ele>1379.63</ele>
        <time>2013-08-24T15:47:24Z</time>
      </trkpt>
      <trkpt lat="44.61039" lon="4.08042">
        <ele>1379.63</ele>
        <time>2013-08-24T15:47:28Z</time>
      </trkpt>
      <trkpt lat="44.61027" lon="4.08025">
        <ele>1379.15</ele>
        <time>2013-08-24T15:47:31Z</time>
      </trkpt>
      <trkpt lat="44.61023" lon="4.08019">
        <ele>1379.15</ele>
        <time>2013-08-24T15:47:32Z</time>
      </trkpt>
      <trkpt lat="44.61021" lon="4.08012">
        <ele>1378.19</ele>
        <time>2013-08-24T15:47:33Z</time>
      </trkpt>
      <trkpt lat="44.61019" lon="4.08006">
        <ele>1377.71</ele>
        <time>2013-08-24T15:47:34Z</time>
      </trkpt>
      <trkpt lat="44.61017" lon="4.07999">
        <ele>1376.75</ele>
        <time>2013-08-24T15:47:35Z</time>
      </trkpt>
      <trkpt lat="44.61017" lon="4.07992">
        <ele>1376.75</ele>
        <time>2013-08-24T15:47:36Z</time>
      </trkpt>
      <trkpt lat="44.61017" lon="4.07986">
        <ele>1376.26</ele>
        <time>2013-08-24T15:47:37Z</time>
      </trkpt>
      <trkpt lat="44.61018" lon="4.07979">
        <ele>1377.23</ele>
        <time>2013-08-24T15:47:38Z</time>
      </trkpt>
      <trkpt lat="44.6102" lon="4.07972">
        <ele>1377.71</ele>
        <time>2013-08-24T15:47:39Z</time>
      </trkpt>
      <trkpt lat="44.61022" lon="4.07965">
        <ele>1377.71</ele>
        <time>2013-08-24T15:47:40Z</time>
      </trkpt>
      <trkpt lat="44.61024" lon="4.07958">
        <ele>1377.23</ele>
        <time>2013-08-24T15:47:41Z</time>
      </trkpt>
      <trkpt lat="44.61026" lon="4.0795">
        <ele>1377.23</ele>
        <time>2013-08-24T15:47:42Z</time>
      </trkpt>
      <trkpt lat="44.61028" lon="4.07943">
        <ele>1377.71</ele>
        <time>2013-08-24T15:47:43Z</time>
      </trkpt>
      <trkpt lat="44.61029" lon="4.07935">
        <ele>1376.75</ele>
        <time>2013-08-24T15:47:44Z</time>
      </trkpt>
      <trkpt lat="44.61041" lon="4.0787">
        <ele>1375.78</ele>
        <time>2013-08-24T15:47:54Z</time>
      </trkpt>
      <trkpt lat="44.6104" lon="4.07866">
        <ele>1374.82</ele>
        <time>2013-08-24T15:47:55Z</time>
      </trkpt>
      <trkpt lat="44.6104" lon="4.07863">
        <ele>1375.78</ele>
        <time>2013-08-24T15:47:56Z</time>
      </trkpt>
      <trkpt lat="44.61031" lon="4.07841">
        <ele>1374.82</ele>
        <time>2013-08-24T15:48:08Z</time>
      </trkpt>
      <trkpt lat="44.61025" lon="4.07836">
        <ele>1375.3</ele>
        <time>2013-08-24T15:48:15Z</time>
      </trkpt>
      <trkpt lat="44.61024" lon="4.07835">
        <ele>1375.3</ele>
        <time>2013-08-24T15:48:16Z</time>
      </trkpt>
      <trkpt lat="44.61011" lon="4.07821">
        <ele>1374.82</ele>
        <time>2013-08-24T15:48:28Z</time>
      </trkpt>
      <trkpt lat="44.61004" lon="4.07817">
        <ele>1375.78</ele>
        <time>2013-08-24T15:48:37Z</time>
      </trkpt>
      <trkpt lat="44.61002" lon="4.07817">
        <ele>1375.3</ele>
        <time>2013-08-24T15:48:38Z</time>
      </trkpt>
      <trkpt lat="44.60999" lon="4.07816">
        <ele>1374.82</ele>
        <time>2013-08-24T15:48:39Z</time>
      </trkpt>
      <trkpt lat="44.60975" lon="4.07797">
        <ele>1374.82</ele>
        <time>2013-08-24T15:48:48Z</time>
      </trkpt>
      <trkpt lat="44.60952" lon="4.07759">
        <ele>1374.34</ele>
        <time>2013-08-24T15:48:58Z</time>
      </trkpt>
      <trkpt lat="44.60928" lon="4.07717">
        <ele>1372.9</ele>
        <time>2013-08-24T15:49:08Z</time>
      </trkpt>
      <trkpt lat="44.60912" lon="4.07693">
        <ele>1371.94</ele>
        <time>2013-08-24T15:49:16Z</time>
      </trkpt>
      <trkpt lat="44.6091" lon="4.0769">
        <ele>1372.42</ele>
        <time>2013-08-24T15:49:27Z</time>
      </trkpt>
      <trkpt lat="44.6091" lon="4.0769">
        <ele>1371.94</ele>
        <time>2013-08-24T15:49:55Z</time>
      </trkpt>
      <trkpt lat="44.6091" lon="4.0769">
        <ele>1372.42</ele>
        <time>2013-08-24T15:50:21Z</time>
      </trkpt>
      <trkpt lat="44.6091" lon="4.0769">
        <ele>1371.94</ele>
        <time>2013-08-24T15:50:51Z</time>
      </trkpt>
      <trkpt lat="44.6091" lon="4.07691">
        <ele>1371.46</ele>
        <time>2013-08-24T15:51:20Z</time>
      </trkpt>
      <trkpt lat="44.6091" lon="4.07691">
        <ele>1370.98</ele>
        <time>2013-08-24T15:51:51Z</time>
      </trkpt>
      <trkpt lat="44.60905" lon="4.07687">
        <ele>1370.98</ele>
        <time>2013-08-24T15:51:56Z</time>
      </trkpt>
      <trkpt lat="44.60903" lon="4.07686">
        <ele>1370.98</ele>
        <time>2013-08-24T15:51:57Z</time>
      </trkpt>
      <trkpt lat="44.609" lon="4.07683">
        <ele>1370.98</ele>
        <time>2013-08-24T15:51:58Z</time>
      </trkpt>
      <trkpt lat="44.60897" lon="4.0768">
        <ele>1370.98</ele>
        <time>2013-08-24T15:51:59Z</time>
      </trkpt>
      <trkpt lat="44.60895" lon="4.07676">
        <ele>1370.98</ele>
        <time>2013-08-24T15:52:00Z</time>
      </trkpt>
      <trkpt lat="44.60893" lon="4.07673">
        <ele>1370.5</ele>
        <time>2013-08-24T15:52:01Z</time>
      </trkpt>
      <trkpt lat="44.60869" lon="4.07643">
        <ele>1369.54</ele>
        <time>2013-08-24T15:52:08Z</time>
      </trkpt>
      <trkpt lat="44.60866" lon="4.07638">
        <ele>1369.05</ele>
        <time>2013-08-24T15:52:09Z</time>
      </trkpt>
      <trkpt lat="44.60856" lon="4.07626">
        <ele>1368.09</ele>
        <time>2013-08-24T15:52:12Z</time>
      </trkpt>
      <trkpt lat="44.60854" lon="4.07621">
        <ele>1367.61</ele>
        <time>2013-08-24T15:52:13Z</time>
      </trkpt>
      <trkpt lat="44.60819" lon="4.07561">
        <ele>1367.61</ele>
        <time>2013-08-24T15:52:23Z</time>
      </trkpt>
      <trkpt lat="44.60815" lon="4.07556">
        <ele>1367.61</ele>
        <time>2013-08-24T15:52:24Z</time>
      </trkpt>
      <trkpt lat="44.60811" lon="4.0755">
        <ele>1367.13</ele>
        <time>2013-08-24T15:52:25Z</time>
      </trkpt>
      <trkpt lat="44.60791" lon="4.07514">
        <ele>1366.65</ele>
        <time>2013-08-24T15:52:31Z</time>
      </trkpt>
      <trkpt lat="44.60787" lon="4.07509">
        <ele>1366.65</ele>
        <time>2013-08-24T15:52:32Z</time>
      </trkpt>
      <trkpt lat="44.60778" lon="4.07493">
        <ele>1367.13</ele>
        <time>2013-08-24T15:52:35Z</time>
      </trkpt>
      <trkpt lat="44.60775" lon="4.07488">
        <ele>1367.13</ele>
        <time>2013-08-24T15:52:36Z</time>
      </trkpt>
      <trkpt lat="44.60767" lon="4.07472">
        <ele>1366.17</ele>
        <time>2013-08-24T15:52:39Z</time>
      </trkpt>
      <trkpt lat="44.60764" lon="4.07467">
        <ele>1366.65</ele>
        <time>2013-08-24T15:52:40Z</time>
      </trkpt>
      <trkpt lat="44.60762" lon="4.07463">
        <ele>1366.17</ele>
        <time>2013-08-24T15:52:41Z</time>
      </trkpt>
      <trkpt lat="44.60759" lon="4.0746">
        <ele>1365.69</ele>
        <time>2013-08-24T15:52:42Z</time>
      </trkpt>
      <trkpt lat="44.60757" lon="4.07457">
        <ele>1366.17</ele>
        <time>2013-08-24T15:52:43Z</time>
      </trkpt>
      <trkpt lat="44.60756" lon="4.07455">
        <ele>1365.21</ele>
        <time>2013-08-24T15:52:44Z</time>
      </trkpt>
      <trkpt lat="44.60756" lon="4.07452">
        <ele>1366.17</ele>
        <time>2013-08-24T15:52:45Z</time>
      </trkpt>
      <trkpt lat="44.60756" lon="4.07449">
        <ele>1366.17</ele>
        <time>2013-08-24T15:52:46Z</time>
      </trkpt>
      <trkpt lat="44.60756" lon="4.07446">
        <ele>1365.69</ele>
        <time>2013-08-24T15:52:47Z</time>
      </trkpt>
      <trkpt lat="44.60757" lon="4.07443">
        <ele>1365.21</ele>
        <time>2013-08-24T15:52:48Z</time>
      </trkpt>
      <trkpt lat="44.60758" lon="4.07433">
        <ele>1365.21</ele>
        <time>2013-08-24T15:52:51Z</time>
      </trkpt>
      <trkpt lat="44.60759" lon="4.0743">
        <ele>1364.73</ele>
        <time>2013-08-24T15:52:52Z</time>
      </trkpt>
      <trkpt lat="44.6076" lon="4.07427">
        <ele>1363.77</ele>
        <time>2013-08-24T15:52:53Z</time>
      </trkpt>
      <trkpt lat="44.60772" lon="4.07396">
        <ele>1362.81</ele>
        <time>2013-08-24T15:53:03Z</time>
      </trkpt>
      <trkpt lat="44.60774" lon="4.07396">
        <ele>1362.33</ele>
        <time>2013-08-24T15:53:04Z</time>
      </trkpt>
      <trkpt lat="44.60776" lon="4.07397">
        <ele>1363.29</ele>
        <time>2013-08-24T15:53:05Z</time>
      </trkpt>
      <trkpt lat="44.60778" lon="4.07399">
        <ele>1361.84</ele>
        <time>2013-08-24T15:53:06Z</time>
      </trkpt>
      <trkpt lat="44.6078" lon="4.07401">
        <ele>1361.36</ele>
        <time>2013-08-24T15:53:07Z</time>
      </trkpt>
      <trkpt lat="44.60783" lon="4.07402">
        <ele>1361.84</ele>
        <time>2013-08-24T15:53:08Z</time>
      </trkpt>
      <trkpt lat="44.60793" lon="4.07403">
        <ele>1361.36</ele>
        <time>2013-08-24T15:53:11Z</time>
      </trkpt>
      <trkpt lat="44.60796" lon="4.07401">
        <ele>1361.36</ele>
        <time>2013-08-24T15:53:12Z</time>
      </trkpt>
      <trkpt lat="44.60819" lon="4.07371">
        <ele>1358</ele>
        <time>2013-08-24T15:53:20Z</time>
      </trkpt>
      <trkpt lat="44.60825" lon="4.07362">
        <ele>1358.48</ele>
        <time>2013-08-24T15:53:22Z</time>
      </trkpt>
      <trkpt lat="44.60828" lon="4.07356">
        <ele>1358.48</ele>
        <time>2013-08-24T15:53:23Z</time>
      </trkpt>
      <trkpt lat="44.60835" lon="4.07347">
        <ele>1357.52</ele>
        <time>2013-08-24T15:53:25Z</time>
      </trkpt>
      <trkpt lat="44.60837" lon="4.07342">
        <ele>1356.56</ele>
        <time>2013-08-24T15:53:26Z</time>
      </trkpt>
      <trkpt lat="44.6084" lon="4.07336">
        <ele>1357.52</ele>
        <time>2013-08-24T15:53:27Z</time>
      </trkpt>
      <trkpt lat="44.60841" lon="4.0733">
        <ele>1357.04</ele>
        <time>2013-08-24T15:53:28Z</time>
      </trkpt>
      <trkpt lat="44.60843" lon="4.07324">
        <ele>1357.04</ele>
        <time>2013-08-24T15:53:29Z</time>
      </trkpt>
      <trkpt lat="44.60849" lon="4.07295">
        <ele>1357.04</ele>
        <time>2013-08-24T15:53:34Z</time>
      </trkpt>
      <trkpt lat="44.6085" lon="4.07289">
        <ele>1356.56</ele>
        <time>2013-08-24T15:53:35Z</time>
      </trkpt>
      <trkpt lat="44.60851" lon="4.07282">
        <ele>1356.08</ele>
        <time>2013-08-24T15:53:36Z</time>
      </trkpt>
      <trkpt lat="44.60852" lon="4.07268">
        <ele>1355.6</ele>
        <time>2013-08-24T15:53:38Z</time>
      </trkpt>
      <trkpt lat="44.60856" lon="4.07254">
        <ele>1355.6</ele>
        <time>2013-08-24T15:53:40Z</time>
      </trkpt>
      <trkpt lat="44.60857" lon="4.07248">
        <ele>1355.12</ele>
        <time>2013-08-24T15:53:41Z</time>
      </trkpt>
      <trkpt lat="44.60859" lon="4.07235">
        <ele>1355.12</ele>
        <time>2013-08-24T15:53:43Z</time>
      </trkpt>
      <trkpt lat="44.60863" lon="4.07221">
        <ele>1355.12</ele>
        <time>2013-08-24T15:53:45Z</time>
      </trkpt>
      <trkpt lat="44.60864" lon="4.07214">
        <ele>1354.15</ele>
        <time>2013-08-24T15:53:46Z</time>
      </trkpt>
      <trkpt lat="44.6087" lon="4.07195">
        <ele>1353.19</ele>
        <time>2013-08-24T15:53:49Z</time>
      </trkpt>
      <trkpt lat="44.60875" lon="4.07174">
        <ele>1352.71</ele>
        <time>2013-08-24T15:53:52Z</time>
      </trkpt>
      <trkpt lat="44.6088" lon="4.07161">
        <ele>1352.23</ele>
        <time>2013-08-24T15:53:54Z</time>
      </trkpt>
      <trkpt lat="44.60881" lon="4.07153">
        <ele>1352.23</ele>
        <time>2013-08-24T15:53:55Z</time>
      </trkpt>
      <trkpt lat="44.60884" lon="4.07146">
        <ele>1351.75</ele>
        <time>2013-08-24T15:53:56Z</time>
      </trkpt>
      <trkpt lat="44.60886" lon="4.0714">
        <ele>1352.23</ele>
        <time>2013-08-24T15:53:57Z</time>
      </trkpt>
      <trkpt lat="44.60888" lon="4.07134">
        <ele>1352.23</ele>
        <time>2013-08-24T15:53:58Z</time>
      </trkpt>
      <trkpt lat="44.6089" lon="4.07127">
        <ele>1351.75</ele>
        <time>2013-08-24T15:53:59Z</time>
      </trkpt>
      <trkpt lat="44.60893" lon="4.07122">
        <ele>1351.75</ele>
        <time>2013-08-24T15:54:00Z</time>
      </trkpt>
      <trkpt lat="44.60894" lon="4.07117">
        <ele>1352.71</ele>
        <time>2013-08-24T15:54:01Z</time>
      </trkpt>
      <trkpt lat="44.60896" lon="4.07113">
        <ele>1352.71</ele>
        <time>2013-08-24T15:54:02Z</time>
      </trkpt>
      <trkpt lat="44.60897" lon="4.07111">
        <ele>1352.23</ele>
        <time>2013-08-24T15:54:03Z</time>
      </trkpt>
      <trkpt lat="44.60898" lon="4.07109">
        <ele>1352.23</ele>
        <time>2013-08-24T15:54:04Z</time>
      </trkpt>
      <trkpt lat="44.60902" lon="4.07085">
        <ele>1351.27</ele>
        <time>2013-08-24T15:54:14Z</time>
      </trkpt>
      <trkpt lat="44.60903" lon="4.07046">
        <ele>1352.23</ele>
        <time>2013-08-24T15:54:28Z</time>
      </trkpt>
      <trkpt lat="44.609" lon="4.07005">
        <ele>1354.63</ele>
        <time>2013-08-24T15:54:41Z</time>
      </trkpt>
      <trkpt lat="44.60897" lon="4.06961">
        <ele>1354.63</ele>
        <time>2013-08-24T15:54:54Z</time>
      </trkpt>
      <trkpt lat="44.60908" lon="4.06923">
        <ele>1355.12</ele>
        <time>2013-08-24T15:55:05Z</time>
      </trkpt>
      <trkpt lat="44.60922" lon="4.06902">
        <ele>1356.08</ele>
        <time>2013-08-24T15:55:17Z</time>
      </trkpt>
      <trkpt lat="44.60924" lon="4.06899">
        <ele>1357.04</ele>
        <time>2013-08-24T15:55:29Z</time>
      </trkpt>
      <trkpt lat="44.60938" lon="4.06887">
        <ele>1358</ele>
        <time>2013-08-24T15:55:39Z</time>
      </trkpt>
      <trkpt lat="44.60954" lon="4.06866">
        <ele>1360.4</ele>
        <time>2013-08-24T15:55:51Z</time>
      </trkpt>
      <trkpt lat="44.60955" lon="4.06862">
        <ele>1359.92</ele>
        <time>2013-08-24T15:55:53Z</time>
      </trkpt>
      <trkpt lat="44.60956" lon="4.0686">
        <ele>1360.4</ele>
        <time>2013-08-24T15:55:54Z</time>
      </trkpt>
      <trkpt lat="44.60966" lon="4.06841">
        <ele>1362.81</ele>
        <time>2013-08-24T15:56:03Z</time>
      </trkpt>
      <trkpt lat="44.60983" lon="4.06821">
        <ele>1365.21</ele>
        <time>2013-08-24T15:56:15Z</time>
      </trkpt>
      <trkpt lat="44.60991" lon="4.06808">
        <ele>1367.13</ele>
        <time>2013-08-24T15:56:22Z</time>
      </trkpt>
      <trkpt lat="44.60992" lon="4.06806">
        <ele>1367.13</ele>
        <time>2013-08-24T15:56:23Z</time>
      </trkpt>
      <trkpt lat="44.60994" lon="4.06804">
        <ele>1367.13</ele>
        <time>2013-08-24T15:56:24Z</time>
      </trkpt>
      <trkpt lat="44.60995" lon="4.06802">
        <ele>1367.13</ele>
        <time>2013-08-24T15:56:25Z</time>
      </trkpt>
      <trkpt lat="44.60996" lon="4.068">
        <ele>1367.13</ele>
        <time>2013-08-24T15:56:26Z</time>
      </trkpt>
      <trkpt lat="44.60996" lon="4.06798">
        <ele>1367.61</ele>
        <time>2013-08-24T15:56:27Z</time>
      </trkpt>
      <trkpt lat="44.60997" lon="4.06796">
        <ele>1367.13</ele>
        <time>2013-08-24T15:56:28Z</time>
      </trkpt>
      <trkpt lat="44.60999" lon="4.06794">
        <ele>1367.13</ele>
        <time>2013-08-24T15:56:29Z</time>
      </trkpt>
      <trkpt lat="44.61" lon="4.06792">
        <ele>1367.61</ele>
        <time>2013-08-24T15:56:30Z</time>
      </trkpt>
      <trkpt lat="44.61002" lon="4.06791">
        <ele>1367.61</ele>
        <time>2013-08-24T15:56:31Z</time>
      </trkpt>
      <trkpt lat="44.61011" lon="4.06774">
        <ele>1370.5</ele>
        <time>2013-08-24T15:56:39Z</time>
      </trkpt>
      <trkpt lat="44.61028" lon="4.06746">
        <ele>1373.86</ele>
        <time>2013-08-24T15:56:53Z</time>
      </trkpt>
      <trkpt lat="44.61041" lon="4.06711">
        <ele>1376.26</ele>
        <time>2013-08-24T15:57:08Z</time>
      </trkpt>
      <trkpt lat="44.61054" lon="4.06679">
        <ele>1379.15</ele>
        <time>2013-08-24T15:57:22Z</time>
      </trkpt>
      <trkpt lat="44.61063" lon="4.06656">
        <ele>1381.07</ele>
        <time>2013-08-24T15:57:32Z</time>
      </trkpt>
      <trkpt lat="44.61063" lon="4.06654">
        <ele>1381.07</ele>
        <time>2013-08-24T15:57:33Z</time>
      </trkpt>
      <trkpt lat="44.6107" lon="4.06615">
        <ele>1383.96</ele>
        <time>2013-08-24T15:57:48Z</time>
      </trkpt>
      <trkpt lat="44.6107" lon="4.06612">
        <ele>1383.96</ele>
        <time>2013-08-24T15:57:49Z</time>
      </trkpt>
      <trkpt lat="44.61071" lon="4.0661">
        <ele>1384.44</ele>
        <time>2013-08-24T15:57:50Z</time>
      </trkpt>
      <trkpt lat="44.61071" lon="4.06607">
        <ele>1384.92</ele>
        <time>2013-08-24T15:57:51Z</time>
      </trkpt>
      <trkpt lat="44.61071" lon="4.06604">
        <ele>1384.92</ele>
        <time>2013-08-24T15:57:52Z</time>
      </trkpt>
      <trkpt lat="44.61072" lon="4.06602">
        <ele>1384.92</ele>
        <time>2013-08-24T15:57:53Z</time>
      </trkpt>
      <trkpt lat="44.61072" lon="4.06599">
        <ele>1384.92</ele>
        <time>2013-08-24T15:57:54Z</time>
      </trkpt>
      <trkpt lat="44.61072" lon="4.06596">
        <ele>1384.92</ele>
        <time>2013-08-24T15:57:55Z</time>
      </trkpt>
      <trkpt lat="44.61073" lon="4.06593">
        <ele>1385.4</ele>
        <time>2013-08-24T15:57:56Z</time>
      </trkpt>
      <trkpt lat="44.61073" lon="4.06591">
        <ele>1385.4</ele>
        <time>2013-08-24T15:57:57Z</time>
      </trkpt>
      <trkpt lat="44.61073" lon="4.06588">
        <ele>1385.88</ele>
        <time>2013-08-24T15:57:58Z</time>
      </trkpt>
      <trkpt lat="44.61074" lon="4.06586">
        <ele>1385.88</ele>
        <time>2013-08-24T15:57:59Z</time>
      </trkpt>
      <trkpt lat="44.61074" lon="4.06583">
        <ele>1386.36</ele>
        <time>2013-08-24T15:58:00Z</time>
      </trkpt>
      <trkpt lat="44.61074" lon="4.06581">
        <ele>1385.4</ele>
        <time>2013-08-24T15:58:01Z</time>
      </trkpt>
      <trkpt lat="44.61074" lon="4.06578">
        <ele>1385.88</ele>
        <time>2013-08-24T15:58:02Z</time>
      </trkpt>
      <trkpt lat="44.61071" lon="4.06542">
        <ele>1387.32</ele>
        <time>2013-08-24T15:58:15Z</time>
      </trkpt>
      <trkpt lat="44.61065" lon="4.06502">
        <ele>1389.72</ele>
        <time>2013-08-24T15:58:31Z</time>
      </trkpt>
      <trkpt lat="44.61065" lon="4.06499">
        <ele>1389.24</ele>
        <time>2013-08-24T15:58:33Z</time>
      </trkpt>
      <trkpt lat="44.61067" lon="4.06487">
        <ele>1393.09</ele>
        <time>2013-08-24T15:58:44Z</time>
      </trkpt>
      <trkpt lat="44.61067" lon="4.06486">
        <ele>1386.84</ele>
        <time>2013-08-24T15:58:45Z</time>
      </trkpt>
      <trkpt lat="44.61067" lon="4.06485">
        <ele>1390.68</ele>
        <time>2013-08-24T15:58:46Z</time>
      </trkpt>
      <trkpt lat="44.6107" lon="4.06468">
        <ele>1390.2</ele>
        <time>2013-08-24T15:59:00Z</time>
      </trkpt>
      <trkpt lat="44.61083" lon="4.06417">
        <ele>1389.72</ele>
        <time>2013-08-24T15:59:13Z</time>
      </trkpt>
      <trkpt lat="44.61094" lon="4.06369">
        <ele>1388.76</ele>
        <time>2013-08-24T15:59:23Z</time>
      </trkpt>
      <trkpt lat="44.61095" lon="4.06362">
        <ele>1389.24</ele>
        <time>2013-08-24T15:59:24Z</time>
      </trkpt>
      <trkpt lat="44.61102" lon="4.06319">
        <ele>1386.84</ele>
        <time>2013-08-24T15:59:30Z</time>
      </trkpt>
      <trkpt lat="44.61101" lon="4.06311">
        <ele>1386.84</ele>
        <time>2013-08-24T15:59:31Z</time>
      </trkpt>
      <trkpt lat="44.61099" lon="4.06303">
        <ele>1386.36</ele>
        <time>2013-08-24T15:59:32Z</time>
      </trkpt>
      <trkpt lat="44.61097" lon="4.06296">
        <ele>1385.88</ele>
        <time>2013-08-24T15:59:33Z</time>
      </trkpt>
      <trkpt lat="44.61093" lon="4.06289">
        <ele>1385.4</ele>
        <time>2013-08-24T15:59:34Z</time>
      </trkpt>
      <trkpt lat="44.61089" lon="4.06282">
        <ele>1384.92</ele>
        <time>2013-08-24T15:59:35Z</time>
      </trkpt>
      <trkpt lat="44.61078" lon="4.06258">
        <ele>1383.47</ele>
        <time>2013-08-24T15:59:38Z</time>
      </trkpt>
      <trkpt lat="44.61073" lon="4.06249">
        <ele>1382.51</ele>
        <time>2013-08-24T15:59:39Z</time>
      </trkpt>
      <trkpt lat="44.6107" lon="4.06241">
        <ele>1382.99</ele>
        <time>2013-08-24T15:59:40Z</time>
      </trkpt>
      <trkpt lat="44.61063" lon="4.06224">
        <ele>1382.51</ele>
        <time>2013-08-24T15:59:42Z</time>
      </trkpt>
      <trkpt lat="44.61059" lon="4.06216">
        <ele>1382.03</ele>
        <time>2013-08-24T15:59:43Z</time>
      </trkpt>
      <trkpt lat="44.61056" lon="4.06207">
        <ele>1381.55</ele>
        <time>2013-08-24T15:59:44Z</time>
      </trkpt>
      <trkpt lat="44.61053" lon="4.06199">
        <ele>1381.07</ele>
        <time>2013-08-24T15:59:45Z</time>
      </trkpt>
      <trkpt lat="44.6105" lon="4.06191">
        <ele>1380.59</ele>
        <time>2013-08-24T15:59:46Z</time>
      </trkpt>
      <trkpt lat="44.61047" lon="4.06183">
        <ele>1380.59</ele>
        <time>2013-08-24T15:59:47Z</time>
      </trkpt>
      <trkpt lat="44.61014" lon="4.06106">
        <ele>1378.67</ele>
        <time>2013-08-24T15:59:58Z</time>
      </trkpt>
      <trkpt lat="44.61009" lon="4.06099">
        <ele>1378.19</ele>
        <time>2013-08-24T15:59:59Z</time>
      </trkpt>
      <trkpt lat="44.61004" lon="4.06093">
        <ele>1378.19</ele>
        <time>2013-08-24T16:00:00Z</time>
      </trkpt>
      <trkpt lat="44.60999" lon="4.06088">
        <ele>1377.71</ele>
        <time>2013-08-24T16:00:01Z</time>
      </trkpt>
      <trkpt lat="44.60992" lon="4.06083">
        <ele>1377.71</ele>
        <time>2013-08-24T16:00:02Z</time>
      </trkpt>
      <trkpt lat="44.60986" lon="4.06078">
        <ele>1377.71</ele>
        <time>2013-08-24T16:00:03Z</time>
      </trkpt>
      <trkpt lat="44.60981" lon="4.06073">
        <ele>1378.19</ele>
        <time>2013-08-24T16:00:04Z</time>
      </trkpt>
      <trkpt lat="44.60975" lon="4.06069">
        <ele>1377.71</ele>
        <time>2013-08-24T16:00:05Z</time>
      </trkpt>
      <trkpt lat="44.60964" lon="4.0606">
        <ele>1377.23</ele>
        <time>2013-08-24T16:00:07Z</time>
      </trkpt>
      <trkpt lat="44.60959" lon="4.06056">
        <ele>1377.23</ele>
        <time>2013-08-24T16:00:08Z</time>
      </trkpt>
      <trkpt lat="44.60936" lon="4.06038">
        <ele>1374.82</ele>
        <time>2013-08-24T16:00:12Z</time>
      </trkpt>
      <trkpt lat="44.60917" lon="4.06026">
        <ele>1372.42</ele>
        <time>2013-08-24T16:00:15Z</time>
      </trkpt>
      <trkpt lat="44.60912" lon="4.0602">
        <ele>1372.42</ele>
        <time>2013-08-24T16:00:16Z</time>
      </trkpt>
      <trkpt lat="44.60909" lon="4.06012">
        <ele>1371.94</ele>
        <time>2013-08-24T16:00:17Z</time>
      </trkpt>
      <trkpt lat="44.60907" lon="4.06005">
        <ele>1372.9</ele>
        <time>2013-08-24T16:00:18Z</time>
      </trkpt>
      <trkpt lat="44.60906" lon="4.05999">
        <ele>1373.38</ele>
        <time>2013-08-24T16:00:19Z</time>
      </trkpt>
      <trkpt lat="44.60904" lon="4.05992">
        <ele>1372.9</ele>
        <time>2013-08-24T16:00:20Z</time>
      </trkpt>
      <trkpt lat="44.60901" lon="4.05985">
        <ele>1372.42</ele>
        <time>2013-08-24T16:00:21Z</time>
      </trkpt>
      <trkpt lat="44.60873" lon="4.05904">
        <ele>1369.05</ele>
        <time>2013-08-24T16:00:31Z</time>
      </trkpt>
      <trkpt lat="44.60872" lon="4.05895">
        <ele>1367.61</ele>
        <time>2013-08-24T16:00:32Z</time>
      </trkpt>
      <trkpt lat="44.6087" lon="4.05885">
        <ele>1368.09</ele>
        <time>2013-08-24T16:00:33Z</time>
      </trkpt>
      <trkpt lat="44.60866" lon="4.05846">
        <ele>1366.17</ele>
        <time>2013-08-24T16:00:37Z</time>
      </trkpt>
      <trkpt lat="44.60867" lon="4.05837">
        <ele>1366.65</ele>
        <time>2013-08-24T16:00:38Z</time>
      </trkpt>
      <trkpt lat="44.6087" lon="4.05829">
        <ele>1366.17</ele>
        <time>2013-08-24T16:00:39Z</time>
      </trkpt>
      <trkpt lat="44.60873" lon="4.05823">
        <ele>1365.69</ele>
        <time>2013-08-24T16:00:40Z</time>
      </trkpt>
      <trkpt lat="44.60877" lon="4.05818">
        <ele>1366.17</ele>
        <time>2013-08-24T16:00:41Z</time>
      </trkpt>
      <trkpt lat="44.60878" lon="4.05815">
        <ele>1367.61</ele>
        <time>2013-08-24T16:00:42Z</time>
      </trkpt>
      <trkpt lat="44.60879" lon="4.05814">
        <ele>1367.13</ele>
        <time>2013-08-24T16:00:43Z</time>
      </trkpt>
      <trkpt lat="44.60878" lon="4.05814">
        <ele>1366.65</ele>
        <time>2013-08-24T16:00:57Z</time>
      </trkpt>
      <trkpt lat="44.60878" lon="4.05814">
        <ele>1366.17</ele>
        <time>2013-08-24T16:01:20Z</time>
      </trkpt>
      <trkpt lat="44.60879" lon="4.05814">
        <ele>1366.65</ele>
        <time>2013-08-24T16:01:50Z</time>
      </trkpt>
      <trkpt lat="44.60879" lon="4.05815">
        <ele>1367.13</ele>
        <time>2013-08-24T16:02:17Z</time>
      </trkpt>
      <trkpt lat="44.60879" lon="4.05811">
        <ele>1367.61</ele>
        <time>2013-08-24T16:02:26Z</time>
      </trkpt>
      <trkpt lat="44.6088" lon="4.05809">
        <ele>1367.61</ele>
        <time>2013-08-24T16:02:27Z</time>
      </trkpt>
      <trkpt lat="44.6088" lon="4.05805">
        <ele>1367.61</ele>
        <time>2013-08-24T16:02:28Z</time>
      </trkpt>
      <trkpt lat="44.60878" lon="4.05802">
        <ele>1368.09</ele>
        <time>2013-08-24T16:02:29Z</time>
      </trkpt>
      <trkpt lat="44.60877" lon="4.058">
        <ele>1367.61</ele>
        <time>2013-08-24T16:02:30Z</time>
      </trkpt>
      <trkpt lat="44.60873" lon="4.05798">
        <ele>1367.13</ele>
        <time>2013-08-24T16:02:31Z</time>
      </trkpt>
      <trkpt lat="44.60852" lon="4.05778">
        <ele>1366.17</ele>
        <time>2013-08-24T16:02:38Z</time>
      </trkpt>
      <trkpt lat="44.60846" lon="4.0577">
        <ele>1365.69</ele>
        <time>2013-08-24T16:02:40Z</time>
      </trkpt>
      <trkpt lat="44.60843" lon="4.05766">
        <ele>1365.21</ele>
        <time>2013-08-24T16:02:41Z</time>
      </trkpt>
      <trkpt lat="44.60832" lon="4.05754">
        <ele>1364.73</ele>
        <time>2013-08-24T16:02:46Z</time>
      </trkpt>
      <trkpt lat="44.60831" lon="4.05753">
        <ele>1364.73</ele>
        <time>2013-08-24T16:02:56Z</time>
      </trkpt>
      <trkpt lat="44.6083" lon="4.05752">
        <ele>1364.25</ele>
        <time>2013-08-24T16:03:01Z</time>
      </trkpt>
      <trkpt lat="44.60829" lon="4.0575">
        <ele>1363.77</ele>
        <time>2013-08-24T16:03:02Z</time>
      </trkpt>
      <trkpt lat="44.60827" lon="4.05748">
        <ele>1363.77</ele>
        <time>2013-08-24T16:03:03Z</time>
      </trkpt>
      <trkpt lat="44.60826" lon="4.05745">
        <ele>1363.29</ele>
        <time>2013-08-24T16:03:04Z</time>
      </trkpt>
      <trkpt lat="44.60825" lon="4.05743">
        <ele>1363.29</ele>
        <time>2013-08-24T16:03:05Z</time>
      </trkpt>
      <trkpt lat="44.60823" lon="4.05739">
        <ele>1362.81</ele>
        <time>2013-08-24T16:03:06Z</time>
      </trkpt>
      <trkpt lat="44.60819" lon="4.05732">
        <ele>1362.81</ele>
        <time>2013-08-24T16:03:08Z</time>
      </trkpt>
      <trkpt lat="44.60795" lon="4.05694">
        <ele>1359.92</ele>
        <time>2013-08-24T16:03:18Z</time>
      </trkpt>
      <trkpt lat="44.60793" lon="4.05691">
        <ele>1359.92</ele>
        <time>2013-08-24T16:03:19Z</time>
      </trkpt>
      <trkpt lat="44.60791" lon="4.05688">
        <ele>1359.44</ele>
        <time>2013-08-24T16:03:20Z</time>
      </trkpt>
      <trkpt lat="44.60789" lon="4.05685">
        <ele>1358.96</ele>
        <time>2013-08-24T16:03:21Z</time>
      </trkpt>
      <trkpt lat="44.60787" lon="4.05682">
        <ele>1358.96</ele>
        <time>2013-08-24T16:03:22Z</time>
      </trkpt>
      <trkpt lat="44.60784" lon="4.0568">
        <ele>1358.48</ele>
        <time>2013-08-24T16:03:23Z</time>
      </trkpt>
      <trkpt lat="44.60782" lon="4.05678">
        <ele>1358</ele>
        <time>2013-08-24T16:03:24Z</time>
      </trkpt>
      <trkpt lat="44.6078" lon="4.05675">
        <ele>1358</ele>
        <time>2013-08-24T16:03:25Z</time>
      </trkpt>
      <trkpt lat="44.60767" lon="4.05646">
        <ele>1356.08</ele>
        <time>2013-08-24T16:03:33Z</time>
      </trkpt>
      <trkpt lat="44.60766" lon="4.05643">
        <ele>1355.6</ele>
        <time>2013-08-24T16:03:34Z</time>
      </trkpt>
      <trkpt lat="44.6075" lon="4.05612">
        <ele>1352.71</ele>
        <time>2013-08-24T16:03:44Z</time>
      </trkpt>
      <trkpt lat="44.60737" lon="4.0559">
        <ele>1350.31</ele>
        <time>2013-08-24T16:03:52Z</time>
      </trkpt>
      <trkpt lat="44.60716" lon="4.05564">
        <ele>1347.43</ele>
        <time>2013-08-24T16:04:02Z</time>
      </trkpt>
      <trkpt lat="44.60714" lon="4.05562">
        <ele>1347.91</ele>
        <time>2013-08-24T16:04:03Z</time>
      </trkpt>
      <trkpt lat="44.60712" lon="4.0556">
        <ele>1347.43</ele>
        <time>2013-08-24T16:04:04Z</time>
      </trkpt>
      <trkpt lat="44.60711" lon="4.05558">
        <ele>1346.94</ele>
        <time>2013-08-24T16:04:05Z</time>
      </trkpt>
      <trkpt lat="44.60709" lon="4.05558">
        <ele>1346.46</ele>
        <time>2013-08-24T16:04:06Z</time>
      </trkpt>
      <trkpt lat="44.60708" lon="4.05556">
        <ele>1346.94</ele>
        <time>2013-08-24T16:04:07Z</time>
      </trkpt>
      <trkpt lat="44.60707" lon="4.05555">
        <ele>1346.46</ele>
        <time>2013-08-24T16:04:08Z</time>
      </trkpt>
      <trkpt lat="44.60705" lon="4.05553">
        <ele>1345.98</ele>
        <time>2013-08-24T16:04:09Z</time>
      </trkpt>
      <trkpt lat="44.60703" lon="4.05551">
        <ele>1346.46</ele>
        <time>2013-08-24T16:04:10Z</time>
      </trkpt>
      <trkpt lat="44.60701" lon="4.0555">
        <ele>1345.98</ele>
        <time>2013-08-24T16:04:11Z</time>
      </trkpt>
      <trkpt lat="44.607" lon="4.05549">
        <ele>1346.46</ele>
        <time>2013-08-24T16:04:12Z</time>
      </trkpt>
      <trkpt lat="44.60698" lon="4.05549">
        <ele>1346.46</ele>
        <time>2013-08-24T16:04:13Z</time>
      </trkpt>
      <trkpt lat="44.60697" lon="4.05548">
        <ele>1345.98</ele>
        <time>2013-08-24T16:04:14Z</time>
      </trkpt>
      <trkpt lat="44.60696" lon="4.05546">
        <ele>1345.5</ele>
        <time>2013-08-24T16:04:15Z</time>
      </trkpt>
      <trkpt lat="44.60693" lon="4.05543">
        <ele>1345.02</ele>
        <time>2013-08-24T16:04:23Z</time>
      </trkpt>
      <trkpt lat="44.60693" lon="4.05541">
        <ele>1345.5</ele>
        <time>2013-08-24T16:04:25Z</time>
      </trkpt>
      <trkpt lat="44.60692" lon="4.0554">
        <ele>1345.5</ele>
        <time>2013-08-24T16:04:26Z</time>
      </trkpt>
      <trkpt lat="44.60691" lon="4.05537">
        <ele>1345.02</ele>
        <time>2013-08-24T16:04:27Z</time>
      </trkpt>
      <trkpt lat="44.60689" lon="4.05536">
        <ele>1344.54</ele>
        <time>2013-08-24T16:04:28Z</time>
      </trkpt>
      <trkpt lat="44.60687" lon="4.05534">
        <ele>1344.06</ele>
        <time>2013-08-24T16:04:29Z</time>
      </trkpt>
      <trkpt lat="44.6068" lon="4.05532">
        <ele>1343.58</ele>
        <time>2013-08-24T16:04:35Z</time>
      </trkpt>
      <trkpt lat="44.60678" lon="4.05532">
        <ele>1343.1</ele>
        <time>2013-08-24T16:04:37Z</time>
      </trkpt>
      <trkpt lat="44.60674" lon="4.0553">
        <ele>1342.62</ele>
        <time>2013-08-24T16:04:42Z</time>
      </trkpt>
      <trkpt lat="44.60672" lon="4.0553">
        <ele>1342.62</ele>
        <time>2013-08-24T16:04:43Z</time>
      </trkpt>
      <trkpt lat="44.6067" lon="4.05529">
        <ele>1342.62</ele>
        <time>2013-08-24T16:04:44Z</time>
      </trkpt>
      <trkpt lat="44.60668" lon="4.05528">
        <ele>1342.14</ele>
        <time>2013-08-24T16:04:45Z</time>
      </trkpt>
      <trkpt lat="44.60666" lon="4.05526">
        <ele>1341.18</ele>
        <time>2013-08-24T16:04:46Z</time>
      </trkpt>
      <trkpt lat="44.60665" lon="4.05525">
        <ele>1341.66</ele>
        <time>2013-08-24T16:04:47Z</time>
      </trkpt>
      <trkpt lat="44.60663" lon="4.05524">
        <ele>1341.66</ele>
        <time>2013-08-24T16:04:48Z</time>
      </trkpt>
      <trkpt lat="44.6066" lon="4.05524">
        <ele>1341.18</ele>
        <time>2013-08-24T16:04:49Z</time>
      </trkpt>
      <trkpt lat="44.60637" lon="4.05523">
        <ele>1337.81</ele>
        <time>2013-08-24T16:04:58Z</time>
      </trkpt>
      <trkpt lat="44.60613" lon="4.05518">
        <ele>1334.93</ele>
        <time>2013-08-24T16:05:09Z</time>
      </trkpt>
      <trkpt lat="44.60608" lon="4.05519">
        <ele>1334.45</ele>
        <time>2013-08-24T16:05:12Z</time>
      </trkpt>
      <trkpt lat="44.60606" lon="4.05518">
        <ele>1334.45</ele>
        <time>2013-08-24T16:05:13Z</time>
      </trkpt>
      <trkpt lat="44.60604" lon="4.05518">
        <ele>1334.45</ele>
        <time>2013-08-24T16:05:14Z</time>
      </trkpt>
      <trkpt lat="44.60601" lon="4.05519">
        <ele>1333.49</ele>
        <time>2013-08-24T16:05:15Z</time>
      </trkpt>
      <trkpt lat="44.60598" lon="4.0552">
        <ele>1333.49</ele>
        <time>2013-08-24T16:05:16Z</time>
      </trkpt>
      <trkpt lat="44.60595" lon="4.05522">
        <ele>1333.01</ele>
        <time>2013-08-24T16:05:17Z</time>
      </trkpt>
      <trkpt lat="44.60593" lon="4.05524">
        <ele>1332.52</ele>
        <time>2013-08-24T16:05:18Z</time>
      </trkpt>
      <trkpt lat="44.60577" lon="4.05524">
        <ele>1330.6</ele>
        <time>2013-08-24T16:05:25Z</time>
      </trkpt>
      <trkpt lat="44.60575" lon="4.05524">
        <ele>1330.12</ele>
        <time>2013-08-24T16:05:26Z</time>
      </trkpt>
      <trkpt lat="44.60573" lon="4.05524">
        <ele>1329.64</ele>
        <time>2013-08-24T16:05:27Z</time>
      </trkpt>
      <trkpt lat="44.6057" lon="4.05523">
        <ele>1329.64</ele>
        <time>2013-08-24T16:05:29Z</time>
      </trkpt>
      <trkpt lat="44.60568" lon="4.05522">
        <ele>1329.16</ele>
        <time>2013-08-24T16:05:30Z</time>
      </trkpt>
      <trkpt lat="44.60566" lon="4.05522">
        <ele>1329.16</ele>
        <time>2013-08-24T16:05:31Z</time>
      </trkpt>
      <trkpt lat="44.60563" lon="4.05522">
        <ele>1329.16</ele>
        <time>2013-08-24T16:05:32Z</time>
      </trkpt>
      <trkpt lat="44.60561" lon="4.05522">
        <ele>1328.2</ele>
        <time>2013-08-24T16:05:33Z</time>
      </trkpt>
      <trkpt lat="44.60537" lon="4.05521">
        <ele>1325.31</ele>
        <time>2013-08-24T16:05:43Z</time>
      </trkpt>
      <trkpt lat="44.60515" lon="4.05519">
        <ele>1321.47</ele>
        <time>2013-08-24T16:05:51Z</time>
      </trkpt>
      <trkpt lat="44.60495" lon="4.05507">
        <ele>1318.59</ele>
        <time>2013-08-24T16:05:59Z</time>
      </trkpt>
      <trkpt lat="44.6049" lon="4.05501">
        <ele>1317.62</ele>
        <time>2013-08-24T16:06:01Z</time>
      </trkpt>
      <trkpt lat="44.60486" lon="4.05491">
        <ele>1316.18</ele>
        <time>2013-08-24T16:06:04Z</time>
      </trkpt>
      <trkpt lat="44.6048" lon="4.05481">
        <ele>1314.26</ele>
        <time>2013-08-24T16:06:07Z</time>
      </trkpt>
      <trkpt lat="44.60466" lon="4.05463">
        <ele>1310.41</ele>
        <time>2013-08-24T16:06:14Z</time>
      </trkpt>
      <trkpt lat="44.60455" lon="4.05454">
        <ele>1308.01</ele>
        <time>2013-08-24T16:06:19Z</time>
      </trkpt>
      <trkpt lat="44.60454" lon="4.05452">
        <ele>1308.01</ele>
        <time>2013-08-24T16:06:20Z</time>
      </trkpt>
      <trkpt lat="44.60452" lon="4.05449">
        <ele>1307.53</ele>
        <time>2013-08-24T16:06:21Z</time>
      </trkpt>
      <trkpt lat="44.6045" lon="4.05446">
        <ele>1306.57</ele>
        <time>2013-08-24T16:06:22Z</time>
      </trkpt>
      <trkpt lat="44.60449" lon="4.05443">
        <ele>1306.57</ele>
        <time>2013-08-24T16:06:23Z</time>
      </trkpt>
      <trkpt lat="44.60448" lon="4.0544">
        <ele>1305.61</ele>
        <time>2013-08-24T16:06:24Z</time>
      </trkpt>
      <trkpt lat="44.60447" lon="4.05438">
        <ele>1304.65</ele>
        <time>2013-08-24T16:06:25Z</time>
      </trkpt>
      <trkpt lat="44.6044" lon="4.05424">
        <ele>1301.76</ele>
        <time>2013-08-24T16:06:30Z</time>
      </trkpt>
      <trkpt lat="44.60438" lon="4.05413">
        <ele>1299.84</ele>
        <time>2013-08-24T16:06:34Z</time>
      </trkpt>
      <trkpt lat="44.60437" lon="4.05411">
        <ele>1299.84</ele>
        <time>2013-08-24T16:06:35Z</time>
      </trkpt>
      <trkpt lat="44.60435" lon="4.05409">
        <ele>1299.36</ele>
        <time>2013-08-24T16:06:36Z</time>
      </trkpt>
      <trkpt lat="44.60432" lon="4.05408">
        <ele>1298.4</ele>
        <time>2013-08-24T16:06:37Z</time>
      </trkpt>
      <trkpt lat="44.60429" lon="4.05406">
        <ele>1297.92</ele>
        <time>2013-08-24T16:06:38Z</time>
      </trkpt>
      <trkpt lat="44.60427" lon="4.05403">
        <ele>1297.44</ele>
        <time>2013-08-24T16:06:39Z</time>
      </trkpt>
      <trkpt lat="44.60426" lon="4.05399">
        <ele>1296.96</ele>
        <time>2013-08-24T16:06:40Z</time>
      </trkpt>
      <trkpt lat="44.60424" lon="4.05396">
        <ele>1295.99</ele>
        <time>2013-08-24T16:06:41Z</time>
      </trkpt>
      <trkpt lat="44.60423" lon="4.05392">
        <ele>1295.51</ele>
        <time>2013-08-24T16:06:42Z</time>
      </trkpt>
      <trkpt lat="44.60422" lon="4.05389">
        <ele>1295.03</ele>
        <time>2013-08-24T16:06:43Z</time>
      </trkpt>
      <trkpt lat="44.60421" lon="4.05386">
        <ele>1294.55</ele>
        <time>2013-08-24T16:06:44Z</time>
      </trkpt>
      <trkpt lat="44.60415" lon="4.05361">
        <ele>1290.71</ele>
        <time>2013-08-24T16:06:51Z</time>
      </trkpt>
      <trkpt lat="44.60414" lon="4.05348">
        <ele>1288.78</ele>
        <time>2013-08-24T16:06:55Z</time>
      </trkpt>
      <trkpt lat="44.60413" lon="4.05345">
        <ele>1288.3</ele>
        <time>2013-08-24T16:06:56Z</time>
      </trkpt>
      <trkpt lat="44.60412" lon="4.05341">
        <ele>1287.82</ele>
        <time>2013-08-24T16:06:57Z</time>
      </trkpt>
      <trkpt lat="44.60411" lon="4.05338">
        <ele>1286.38</ele>
        <time>2013-08-24T16:06:58Z</time>
      </trkpt>
      <trkpt lat="44.60411" lon="4.05334">
        <ele>1286.38</ele>
        <time>2013-08-24T16:06:59Z</time>
      </trkpt>
      <trkpt lat="44.60411" lon="4.0533">
        <ele>1285.9</ele>
        <time>2013-08-24T16:07:00Z</time>
      </trkpt>
      <trkpt lat="44.60414" lon="4.05312">
        <ele>1283.02</ele>
        <time>2013-08-24T16:07:05Z</time>
      </trkpt>
      <trkpt lat="44.60415" lon="4.05304">
        <ele>1282.54</ele>
        <time>2013-08-24T16:07:07Z</time>
      </trkpt>
      <trkpt lat="44.60407" lon="4.05282">
        <ele>1280.13</ele>
        <time>2013-08-24T16:07:12Z</time>
      </trkpt>
      <trkpt lat="44.60405" lon="4.0528">
        <ele>1280.13</ele>
        <time>2013-08-24T16:07:13Z</time>
      </trkpt>
      <trkpt lat="44.60403" lon="4.05277">
        <ele>1280.61</ele>
        <time>2013-08-24T16:07:14Z</time>
      </trkpt>
      <trkpt lat="44.60387" lon="4.05259">
        <ele>1277.73</ele>
        <time>2013-08-24T16:07:21Z</time>
      </trkpt>
      <trkpt lat="44.60375" lon="4.0525">
        <ele>1275.33</ele>
        <time>2013-08-24T16:07:26Z</time>
      </trkpt>
      <trkpt lat="44.60367" lon="4.05245">
        <ele>1274.36</ele>
        <time>2013-08-24T16:07:29Z</time>
      </trkpt>
      <trkpt lat="44.60351" lon="4.05239">
        <ele>1271</ele>
        <time>2013-08-24T16:07:35Z</time>
      </trkpt>
      <trkpt lat="44.60348" lon="4.05236">
        <ele>1270.04</ele>
        <time>2013-08-24T16:07:37Z</time>
      </trkpt>
      <trkpt lat="44.60346" lon="4.05233">
        <ele>1270.04</ele>
        <time>2013-08-24T16:07:38Z</time>
      </trkpt>
      <trkpt lat="44.60344" lon="4.05231">
        <ele>1269.56</ele>
        <time>2013-08-24T16:07:39Z</time>
      </trkpt>
      <trkpt lat="44.60341" lon="4.05228">
        <ele>1268.6</ele>
        <time>2013-08-24T16:07:40Z</time>
      </trkpt>
      <trkpt lat="44.60338" lon="4.05226">
        <ele>1268.12</ele>
        <time>2013-08-24T16:07:41Z</time>
      </trkpt>
      <trkpt lat="44.60336" lon="4.05224">
        <ele>1266.67</ele>
        <time>2013-08-24T16:07:42Z</time>
      </trkpt>
      <trkpt lat="44.60333" lon="4.05221">
        <ele>1266.19</ele>
        <time>2013-08-24T16:07:43Z</time>
      </trkpt>
      <trkpt lat="44.60331" lon="4.05218">
        <ele>1265.71</ele>
        <time>2013-08-24T16:07:44Z</time>
      </trkpt>
      <trkpt lat="44.60329" lon="4.05215">
        <ele>1265.71</ele>
        <time>2013-08-24T16:07:45Z</time>
      </trkpt>
      <trkpt lat="44.60326" lon="4.05213">
        <ele>1265.71</ele>
        <time>2013-08-24T16:07:46Z</time>
      </trkpt>
      <trkpt lat="44.60325" lon="4.05213">
        <ele>1265.23</ele>
        <time>2013-08-24T16:07:47Z</time>
      </trkpt>
      <trkpt lat="44.60322" lon="4.05212">
        <ele>1264.75</ele>
        <time>2013-08-24T16:07:48Z</time>
      </trkpt>
      <trkpt lat="44.6032" lon="4.05211">
        <ele>1264.27</ele>
        <time>2013-08-24T16:07:49Z</time>
      </trkpt>
      <trkpt lat="44.60317" lon="4.05209">
        <ele>1263.79</ele>
        <time>2013-08-24T16:07:50Z</time>
      </trkpt>
      <trkpt lat="44.60313" lon="4.05207">
        <ele>1263.31</ele>
        <time>2013-08-24T16:07:51Z</time>
      </trkpt>
      <trkpt lat="44.60299" lon="4.05199">
        <ele>1260.91</ele>
        <time>2013-08-24T16:07:55Z</time>
      </trkpt>
      <trkpt lat="44.60292" lon="4.05199">
        <ele>1259.94</ele>
        <time>2013-08-24T16:07:57Z</time>
      </trkpt>
      <trkpt lat="44.60281" lon="4.05197">
        <ele>1256.58</ele>
        <time>2013-08-24T16:08:01Z</time>
      </trkpt>
      <trkpt lat="44.60276" lon="4.05197">
        <ele>1255.62</ele>
        <time>2013-08-24T16:08:03Z</time>
      </trkpt>
      <trkpt lat="44.60272" lon="4.05196">
        <ele>1254.66</ele>
        <time>2013-08-24T16:08:04Z</time>
      </trkpt>
      <trkpt lat="44.60268" lon="4.05197">
        <ele>1254.18</ele>
        <time>2013-08-24T16:08:05Z</time>
      </trkpt>
      <trkpt lat="44.60249" lon="4.05198">
        <ele>1250.33</ele>
        <time>2013-08-24T16:08:11Z</time>
      </trkpt>
      <trkpt lat="44.60246" lon="4.05199">
        <ele>1250.33</ele>
        <time>2013-08-24T16:08:12Z</time>
      </trkpt>
      <trkpt lat="44.60231" lon="4.05199">
        <ele>1247.45</ele>
        <time>2013-08-24T16:08:17Z</time>
      </trkpt>
      <trkpt lat="44.60218" lon="4.05195">
        <ele>1244.08</ele>
        <time>2013-08-24T16:08:22Z</time>
      </trkpt>
      <trkpt lat="44.60206" lon="4.0519">
        <ele>1241.2</ele>
        <time>2013-08-24T16:08:27Z</time>
      </trkpt>
      <trkpt lat="44.60202" lon="4.05186">
        <ele>1240.24</ele>
        <time>2013-08-24T16:08:29Z</time>
      </trkpt>
      <trkpt lat="44.60201" lon="4.05183">
        <ele>1239.76</ele>
        <time>2013-08-24T16:08:30Z</time>
      </trkpt>
      <trkpt lat="44.60195" lon="4.05177">
        <ele>1238.32</ele>
        <time>2013-08-24T16:08:33Z</time>
      </trkpt>
      <trkpt lat="44.6018" lon="4.05151">
        <ele>1235.91</ele>
        <time>2013-08-24T16:08:41Z</time>
      </trkpt>
      <trkpt lat="44.60177" lon="4.0515">
        <ele>1235.43</ele>
        <time>2013-08-24T16:08:42Z</time>
      </trkpt>
      <trkpt lat="44.60174" lon="4.05149">
        <ele>1235.91</ele>
        <time>2013-08-24T16:08:43Z</time>
      </trkpt>
      <trkpt lat="44.60171" lon="4.05146">
        <ele>1234.95</ele>
        <time>2013-08-24T16:08:44Z</time>
      </trkpt>
      <trkpt lat="44.60167" lon="4.05143">
        <ele>1233.99</ele>
        <time>2013-08-24T16:08:45Z</time>
      </trkpt>
      <trkpt lat="44.60163" lon="4.05139">
        <ele>1233.51</ele>
        <time>2013-08-24T16:08:46Z</time>
      </trkpt>
      <trkpt lat="44.60159" lon="4.05135">
        <ele>1233.03</ele>
        <time>2013-08-24T16:08:47Z</time>
      </trkpt>
      <trkpt lat="44.60155" lon="4.05131">
        <ele>1233.03</ele>
        <time>2013-08-24T16:08:48Z</time>
      </trkpt>
      <trkpt lat="44.60152" lon="4.05126">
        <ele>1231.11</ele>
        <time>2013-08-24T16:08:49Z</time>
      </trkpt>
      <trkpt lat="44.60149" lon="4.05121">
        <ele>1230.14</ele>
        <time>2013-08-24T16:08:50Z</time>
      </trkpt>
      <trkpt lat="44.60146" lon="4.05118">
        <ele>1229.66</ele>
        <time>2013-08-24T16:08:51Z</time>
      </trkpt>
      <trkpt lat="44.60142" lon="4.05116">
        <ele>1229.66</ele>
        <time>2013-08-24T16:08:52Z</time>
      </trkpt>
      <trkpt lat="44.60135" lon="4.05112">
        <ele>1228.7</ele>
        <time>2013-08-24T16:08:54Z</time>
      </trkpt>
      <trkpt lat="44.60131" lon="4.0511">
        <ele>1228.22</ele>
        <time>2013-08-24T16:08:55Z</time>
      </trkpt>
      <trkpt lat="44.60127" lon="4.05111">
        <ele>1227.74</ele>
        <time>2013-08-24T16:08:56Z</time>
      </trkpt>
      <trkpt lat="44.60124" lon="4.05112">
        <ele>1227.26</ele>
        <time>2013-08-24T16:08:57Z</time>
      </trkpt>
      <trkpt lat="44.60121" lon="4.05112">
        <ele>1226.78</ele>
        <time>2013-08-24T16:08:58Z</time>
      </trkpt>
      <trkpt lat="44.60118" lon="4.05113">
        <ele>1225.82</ele>
        <time>2013-08-24T16:08:59Z</time>
      </trkpt>
      <trkpt lat="44.60115" lon="4.05113">
        <ele>1225.82</ele>
        <time>2013-08-24T16:09:00Z</time>
      </trkpt>
      <trkpt lat="44.60114" lon="4.05113">
        <ele>1224.86</ele>
        <time>2013-08-24T16:09:09Z</time>
      </trkpt>
      <trkpt lat="44.60114" lon="4.05113">
        <ele>1225.82</ele>
        <time>2013-08-24T16:09:26Z</time>
      </trkpt>
      <trkpt lat="44.60114" lon="4.05113">
        <ele>1226.3</ele>
        <time>2013-08-24T16:09:47Z</time>
      </trkpt>
      <trkpt lat="44.60114" lon="4.05113">
        <ele>1225.34</ele>
        <time>2013-08-24T16:10:02Z</time>
      </trkpt>
      <trkpt lat="44.60114" lon="4.05113">
        <ele>1225.34</ele>
        <time>2013-08-24T16:10:24Z</time>
      </trkpt>
      <trkpt lat="44.60113" lon="4.05113">
        <ele>1225.82</ele>
        <time>2013-08-24T16:10:50Z</time>
      </trkpt>
      <trkpt lat="44.60113" lon="4.05113">
        <ele>1226.3</ele>
        <time>2013-08-24T16:11:10Z</time>
      </trkpt>
      <trkpt lat="44.60113" lon="4.05113">
        <ele>1225.34</ele>
        <time>2013-08-24T16:11:40Z</time>
      </trkpt>
      <trkpt lat="44.60113" lon="4.05113">
        <ele>1225.34</ele>
        <time>2013-08-24T16:12:00Z</time>
      </trkpt>
      <trkpt lat="44.60113" lon="4.05113">
        <ele>1225.82</ele>
        <time>2013-08-24T16:12:23Z</time>
      </trkpt>
      <trkpt lat="44.60113" lon="4.05114">
        <ele>1225.34</ele>
        <time>2013-08-24T16:12:46Z</time>
      </trkpt>
      <trkpt lat="44.60113" lon="4.05114">
        <ele>1225.82</ele>
        <time>2013-08-24T16:13:17Z</time>
      </trkpt>
      <trkpt lat="44.60113" lon="4.05113">
        <ele>1225.82</ele>
        <time>2013-08-24T16:13:48Z</time>
      </trkpt>
      <trkpt lat="44.60113" lon="4.05113">
        <ele>1225.34</ele>
        <time>2013-08-24T16:14:22Z</time>
      </trkpt>
      <trkpt lat="44.60114" lon="4.05113">
        <ele>1225.34</ele>
        <time>2013-08-24T16:14:50Z</time>
      </trkpt>
      <trkpt lat="44.60114" lon="4.05113">
        <ele>1225.82</ele>
        <time>2013-08-24T16:15:12Z</time>
      </trkpt>
      <trkpt lat="44.60114" lon="4.05113">
        <ele>1226.3</ele>
        <time>2013-08-24T16:15:18Z</time>
      </trkpt>
      <trkpt lat="44.60114" lon="4.05113">
        <ele>1224.86</ele>
        <time>2013-08-24T16:15:23Z</time>
      </trkpt>
      <trkpt lat="44.60114" lon="4.05113">
        <ele>1226.3</ele>
        <time>2013-08-24T16:15:51Z</time>
      </trkpt>
      <trkpt lat="44.60113" lon="4.05114">
        <ele>1225.82</ele>
        <time>2013-08-24T16:16:17Z</time>
      </trkpt>
      <trkpt lat="44.60113" lon="4.05114">
        <ele>1225.82</ele>
        <time>2013-08-24T16:16:36Z</time>
      </trkpt>
      <trkpt lat="44.60113" lon="4.05114">
        <ele>1226.3</ele>
        <time>2013-08-24T16:16:44Z</time>
      </trkpt>
      <trkpt lat="44.60109" lon="4.05112">
        <ele>1225.82</ele>
        <time>2013-08-24T16:16:46Z</time>
      </trkpt>
      <trkpt lat="44.60107" lon="4.05112">
        <ele>1225.34</ele>
        <time>2013-08-24T16:16:47Z</time>
      </trkpt>
      <trkpt lat="44.60104" lon="4.0511">
        <ele>1225.34</ele>
        <time>2013-08-24T16:16:48Z</time>
      </trkpt>
      <trkpt lat="44.6009" lon="4.05101">
        <ele>1222.93</ele>
        <time>2013-08-24T16:16:52Z</time>
      </trkpt>
      <trkpt lat="44.60086" lon="4.05096">
        <ele>1221.49</ele>
        <time>2013-08-24T16:16:53Z</time>
      </trkpt>
      <trkpt lat="44.60082" lon="4.0509">
        <ele>1221.49</ele>
        <time>2013-08-24T16:16:54Z</time>
      </trkpt>
      <trkpt lat="44.60078" lon="4.05086">
        <ele>1219.57</ele>
        <time>2013-08-24T16:16:55Z</time>
      </trkpt>
      <trkpt lat="44.60074" lon="4.05084">
        <ele>1219.09</ele>
        <time>2013-08-24T16:16:56Z</time>
      </trkpt>
      <trkpt lat="44.60068" lon="4.05081">
        <ele>1218.13</ele>
        <time>2013-08-24T16:16:57Z</time>
      </trkpt>
      <trkpt lat="44.60063" lon="4.05078">
        <ele>1218.13</ele>
        <time>2013-08-24T16:16:58Z</time>
      </trkpt>
      <trkpt lat="44.60058" lon="4.05074">
        <ele>1217.65</ele>
        <time>2013-08-24T16:16:59Z</time>
      </trkpt>
      <trkpt lat="44.60054" lon="4.0507">
        <ele>1217.65</ele>
        <time>2013-08-24T16:17:00Z</time>
      </trkpt>
      <trkpt lat="44.60051" lon="4.05066">
        <ele>1217.17</ele>
        <time>2013-08-24T16:17:01Z</time>
      </trkpt>
      <trkpt lat="44.60048" lon="4.05062">
        <ele>1216.69</ele>
        <time>2013-08-24T16:17:02Z</time>
      </trkpt>
      <trkpt lat="44.60044" lon="4.0506">
        <ele>1216.21</ele>
        <time>2013-08-24T16:17:03Z</time>
      </trkpt>
      <trkpt lat="44.6004" lon="4.05059">
        <ele>1216.21</ele>
        <time>2013-08-24T16:17:04Z</time>
      </trkpt>
      <trkpt lat="44.60037" lon="4.05059">
        <ele>1216.21</ele>
        <time>2013-08-24T16:17:05Z</time>
      </trkpt>
      <trkpt lat="44.60035" lon="4.05059">
        <ele>1216.21</ele>
        <time>2013-08-24T16:17:06Z</time>
      </trkpt>
      <trkpt lat="44.60035" lon="4.05057">
        <ele>1215.72</ele>
        <time>2013-08-24T16:17:07Z</time>
      </trkpt>
      <trkpt lat="44.60033" lon="4.05056">
        <ele>1215.72</ele>
        <time>2013-08-24T16:17:08Z</time>
      </trkpt>
      <trkpt lat="44.60032" lon="4.05057">
        <ele>1215.72</ele>
        <time>2013-08-24T16:17:09Z</time>
      </trkpt>
      <trkpt lat="44.60032" lon="4.05059">
        <ele>1215.24</ele>
        <time>2013-08-24T16:17:10Z</time>
      </trkpt>
      <trkpt lat="44.60033" lon="4.05061">
        <ele>1215.24</ele>
        <time>2013-08-24T16:17:11Z</time>
      </trkpt>
      <trkpt lat="44.60035" lon="4.05062">
        <ele>1215.72</ele>
        <time>2013-08-24T16:17:12Z</time>
      </trkpt>
      <trkpt lat="44.60037" lon="4.05062">
        <ele>1216.21</ele>
        <time>2013-08-24T16:17:13Z</time>
      </trkpt>
      <trkpt lat="44.60038" lon="4.05062">
        <ele>1216.21</ele>
        <time>2013-08-24T16:17:14Z</time>
      </trkpt>
      <trkpt lat="44.60041" lon="4.05063">
        <ele>1217.17</ele>
        <time>2013-08-24T16:17:15Z</time>
      </trkpt>
      <trkpt lat="44.60042" lon="4.05062">
        <ele>1216.69</ele>
        <time>2013-08-24T16:17:16Z</time>
      </trkpt>
      <trkpt lat="44.60044" lon="4.05061">
        <ele>1217.17</ele>
        <time>2013-08-24T16:17:17Z</time>
      </trkpt>
      <trkpt lat="44.60048" lon="4.05054">
        <ele>1216.69</ele>
        <time>2013-08-24T16:17:20Z</time>
      </trkpt>
      <trkpt lat="44.60052" lon="4.05044">
        <ele>1216.21</ele>
        <time>2013-08-24T16:17:23Z</time>
      </trkpt>
      <trkpt lat="44.60054" lon="4.05041">
        <ele>1216.69</ele>
        <time>2013-08-24T16:17:31Z</time>
      </trkpt>
      <trkpt lat="44.60054" lon="4.05042">
        <ele>1216.21</ele>
        <time>2013-08-24T16:17:32Z</time>
      </trkpt>
      <trkpt lat="44.60053" lon="4.05045">
        <ele>1216.69</ele>
        <time>2013-08-24T16:17:33Z</time>
      </trkpt>
      <trkpt lat="44.60051" lon="4.05048">
        <ele>1216.21</ele>
        <time>2013-08-24T16:17:34Z</time>
      </trkpt>
      <trkpt lat="44.6005" lon="4.05051">
        <ele>1216.69</ele>
        <time>2013-08-24T16:17:35Z</time>
      </trkpt>
      <trkpt lat="44.60049" lon="4.05055">
        <ele>1216.21</ele>
        <time>2013-08-24T16:17:36Z</time>
      </trkpt>
      <trkpt lat="44.60047" lon="4.05058">
        <ele>1216.69</ele>
        <time>2013-08-24T16:17:37Z</time>
      </trkpt>
      <trkpt lat="44.60045" lon="4.05059">
        <ele>1217.17</ele>
        <time>2013-08-24T16:17:38Z</time>
      </trkpt>
      <trkpt lat="44.60043" lon="4.05059">
        <ele>1216.69</ele>
        <time>2013-08-24T16:17:39Z</time>
      </trkpt>
      <trkpt lat="44.6004" lon="4.0506">
        <ele>1216.21</ele>
        <time>2013-08-24T16:17:40Z</time>
      </trkpt>
      <trkpt lat="44.60038" lon="4.0506">
        <ele>1216.21</ele>
        <time>2013-08-24T16:17:41Z</time>
      </trkpt>
      <trkpt lat="44.60034" lon="4.05059">
        <ele>1216.21</ele>
        <time>2013-08-24T16:17:42Z</time>
      </trkpt>
      <trkpt lat="44.6003" lon="4.05056">
        <ele>1215.72</ele>
        <time>2013-08-24T16:17:43Z</time>
      </trkpt>
      <trkpt lat="44.60025" lon="4.05053">
        <ele>1214.76</ele>
        <time>2013-08-24T16:17:44Z</time>
      </trkpt>
      <trkpt lat="44.60022" lon="4.05049">
        <ele>1213.8</ele>
        <time>2013-08-24T16:17:45Z</time>
      </trkpt>
      <trkpt lat="44.6002" lon="4.05046">
        <ele>1213.8</ele>
        <time>2013-08-24T16:17:46Z</time>
      </trkpt>
      <trkpt lat="44.60019" lon="4.05044">
        <ele>1213.8</ele>
        <time>2013-08-24T16:17:47Z</time>
      </trkpt>
      <trkpt lat="44.60019" lon="4.05042">
        <ele>1213.32</ele>
        <time>2013-08-24T16:17:48Z</time>
      </trkpt>
      <trkpt lat="44.60019" lon="4.05039">
        <ele>1213.32</ele>
        <time>2013-08-24T16:17:49Z</time>
      </trkpt>
      <trkpt lat="44.60021" lon="4.05036">
        <ele>1212.36</ele>
        <time>2013-08-24T16:17:50Z</time>
      </trkpt>
      <trkpt lat="44.60023" lon="4.05032">
        <ele>1211.88</ele>
        <time>2013-08-24T16:17:51Z</time>
      </trkpt>
      <trkpt lat="44.60025" lon="4.05026">
        <ele>1211.88</ele>
        <time>2013-08-24T16:17:52Z</time>
      </trkpt>
      <trkpt lat="44.60027" lon="4.05019">
        <ele>1210.44</ele>
        <time>2013-08-24T16:17:53Z</time>
      </trkpt>
      <trkpt lat="44.60028" lon="4.05012">
        <ele>1210.44</ele>
        <time>2013-08-24T16:17:54Z</time>
      </trkpt>
      <trkpt lat="44.60029" lon="4.05004">
        <ele>1210.44</ele>
        <time>2013-08-24T16:17:55Z</time>
      </trkpt>
      <trkpt lat="44.6003" lon="4.04998">
        <ele>1210.44</ele>
        <time>2013-08-24T16:17:56Z</time>
      </trkpt>
      <trkpt lat="44.6003" lon="4.04993">
        <ele>1210.92</ele>
        <time>2013-08-24T16:17:57Z</time>
      </trkpt>
      <trkpt lat="44.6003" lon="4.04988">
        <ele>1211.4</ele>
        <time>2013-08-24T16:17:58Z</time>
      </trkpt>
      <trkpt lat="44.60032" lon="4.04984">
        <ele>1210.92</ele>
        <time>2013-08-24T16:17:59Z</time>
      </trkpt>
      <trkpt lat="44.60033" lon="4.0498">
        <ele>1211.4</ele>
        <time>2013-08-24T16:18:00Z</time>
      </trkpt>
      <trkpt lat="44.60033" lon="4.04977">
        <ele>1211.4</ele>
        <time>2013-08-24T16:18:01Z</time>
      </trkpt>
      <trkpt lat="44.60033" lon="4.04974">
        <ele>1211.4</ele>
        <time>2013-08-24T16:18:02Z</time>
      </trkpt>
      <trkpt lat="44.60033" lon="4.04971">
        <ele>1211.4</ele>
        <time>2013-08-24T16:18:03Z</time>
      </trkpt>
      <trkpt lat="44.60034" lon="4.04969">
        <ele>1211.4</ele>
        <time>2013-08-24T16:18:04Z</time>
      </trkpt>
      <trkpt lat="44.60035" lon="4.04968">
        <ele>1211.4</ele>
        <time>2013-08-24T16:18:05Z</time>
      </trkpt>
      <trkpt lat="44.60036" lon="4.04965">
        <ele>1211.4</ele>
        <time>2013-08-24T16:18:06Z</time>
      </trkpt>
      <trkpt lat="44.60037" lon="4.04961">
        <ele>1210.92</ele>
        <time>2013-08-24T16:18:08Z</time>
      </trkpt>
      <trkpt lat="44.60037" lon="4.04958">
        <ele>1210.92</ele>
        <time>2013-08-24T16:18:09Z</time>
      </trkpt>
      <trkpt lat="44.60038" lon="4.04954">
        <ele>1209.96</ele>
        <time>2013-08-24T16:18:10Z</time>
      </trkpt>
      <trkpt lat="44.6004" lon="4.04949">
        <ele>1209.48</ele>
        <time>2013-08-24T16:18:11Z</time>
      </trkpt>
      <trkpt lat="44.60042" lon="4.04944">
        <ele>1208.51</ele>
        <time>2013-08-24T16:18:12Z</time>
      </trkpt>
      <trkpt lat="44.60045" lon="4.04938">
        <ele>1207.55</ele>
        <time>2013-08-24T16:18:14Z</time>
      </trkpt>
      <trkpt lat="44.60044" lon="4.04936">
        <ele>1208.03</ele>
        <time>2013-08-24T16:18:15Z</time>
      </trkpt>
      <trkpt lat="44.60042" lon="4.04934">
        <ele>1207.55</ele>
        <time>2013-08-24T16:18:16Z</time>
      </trkpt>
      <trkpt lat="44.60039" lon="4.04933">
        <ele>1207.55</ele>
        <time>2013-08-24T16:18:17Z</time>
      </trkpt>
      <trkpt lat="44.60037" lon="4.04934">
        <ele>1207.55</ele>
        <time>2013-08-24T16:18:18Z</time>
      </trkpt>
      <trkpt lat="44.60035" lon="4.04935">
        <ele>1207.55</ele>
        <time>2013-08-24T16:18:19Z</time>
      </trkpt>
      <trkpt lat="44.60034" lon="4.04936">
        <ele>1207.07</ele>
        <time>2013-08-24T16:18:20Z</time>
      </trkpt>
      <trkpt lat="44.60036" lon="4.04931">
        <ele>1206.59</ele>
        <time>2013-08-24T16:18:25Z</time>
      </trkpt>
      <trkpt lat="44.60039" lon="4.04934">
        <ele>1208.03</ele>
        <time>2013-08-24T16:18:28Z</time>
      </trkpt>
      <trkpt lat="44.60038" lon="4.0495">
        <ele>1209.96</ele>
        <time>2013-08-24T16:18:35Z</time>
      </trkpt>
      <trkpt lat="44.6003" lon="4.04985">
        <ele>1210.92</ele>
        <time>2013-08-24T16:18:46Z</time>
      </trkpt>
      <trkpt lat="44.60026" lon="4.05017">
        <ele>1209.96</ele>
        <time>2013-08-24T16:18:53Z</time>
      </trkpt>
      <trkpt lat="44.60016" lon="4.05015">
        <ele>1209.96</ele>
        <time>2013-08-24T16:18:59Z</time>
      </trkpt>
      <trkpt lat="44.60006" lon="4.05008">
        <ele>1209.96</ele>
        <time>2013-08-24T16:19:03Z</time>
      </trkpt>
      <trkpt lat="44.59997" lon="4.05019">
        <ele>1210.44</ele>
        <time>2013-08-24T16:19:12Z</time>
      </trkpt>
      <trkpt lat="44.59997" lon="4.05019">
        <ele>1210.44</ele>
        <time>2013-08-24T16:19:27Z</time>
      </trkpt>
    </trkseg>
  </trk>
</gpx>